Saint Francis River (Missouri), Wappapello (07039500)

StateMissouriLatestGood (715 cfs)
RiverSaint Francis RiverRatingObservedEstimated
Updated2026-05-10 12:30 (34 minutes ago)Flood - The river is flooding. Obstacles can be treacherous or deadly. The river should be avoided at this stage for casual trips and definitely for the inexperienced. Trips should be attempted only with protective gear and equipment.Flood(none)7359
Discharge715 cfs (median: 2350 cfs)High - The river is high and potentially dangerous, especially for the young and / or inexperienced. Normal stream obstacles are sometimes difficult to navigate. Extended distances can be attempted, but canoe travel may not be advisable.High(none)2348
Height7.06 feetGood - Conditions are ideal for a canoe or kayak. Boats typically will drag on fewer than one-quarter of riffles, if at all, and portages are unnecessary or rare. Normal float lengths can be attempted without a problem.Good(none)699
TrendSteady (falling over 24 hours)Low - River is low but can still be floated. Some riffles are okay but most come with significant dragging and might need a portage. Float lengths should be reduced to accommodate low flow, dragging, and portages.Low(none)258
USGSExternal icon USGS Site (External icon Duck Duck Go Maps)Poor - River is too low to float comfortably. Most or all riffles will drag or must be portaged and some obstacles (such as slick shelf rock) cause undue problems. Avoid the river at this stage for casual paddling trips.Poor(none)40

Trending Data

Plot Image

Trips for Saint Francis River (Missouri), Wappapello (07039500)

DateStartEndDistanceConditionDischargeHeightFishingDetails

A total of 0 rows are displayed.

Condition Descriptions

Fishing Conditions

Fish Species

Notes

Classic Trip List

The classic River Trips application is still available for use. It is updated with the new system using a data retrofit. It is no longer maintained. The original River Trips application is no longer updated (as of 1 Dec 2016) but can be checked for errors or for the condition of the data before it was converted to the new system.

Gauge Data Table

ObservationHeightDischargeMaximum
Discharge
Minimum
Discharge
Mean
Discharge
P05P10P20P25P50
(Median)
P75P80P90P95
2026-05-10 12:30 7.06 715 10200 (2017) 40 (1948) 2850 40 64 417 599 2350 3950 4410 6640 9870
2026-05-10 12:00 7.06 715 10200 (2017) 40 (1948) 2850 40 64 417 599 2350 3950 4410 6640 9870
2026-05-10 11:30 7.07 718 10200 (2017) 40 (1948) 2850 40 64 417 599 2350 3950 4410 6640 9870
2026-05-10 11:00 7.06 715 10200 (2017) 40 (1948) 2850 40 64 417 599 2350 3950 4410 6640 9870
2026-05-10 10:30 7.06 715 10200 (2017) 40 (1948) 2850 40 64 417 599 2350 3950 4410 6640 9870
2026-05-10 10:00 7.07 718 10200 (2017) 40 (1948) 2850 40 64 417 599 2350 3950 4410 6640 9870
2026-05-10 09:30 7.06 715 10200 (2017) 40 (1948) 2850 40 64 417 599 2350 3950 4410 6640 9870
2026-05-10 09:00 7.07 718 10200 (2017) 40 (1948) 2850 40 64 417 599 2350 3950 4410 6640 9870
2026-05-10 08:30 7.07 718 10200 (2017) 40 (1948) 2850 40 64 417 599 2350 3950 4410 6640 9870
2026-05-10 08:00 7.07 718 10200 (2017) 40 (1948) 2850 40 64 417 599 2350 3950 4410 6640 9870
2026-05-10 07:30 7.07 718 10200 (2017) 40 (1948) 2850 40 64 417 599 2350 3950 4410 6640 9870
2026-05-10 07:00 7.07 718 10200 (2017) 40 (1948) 2850 40 64 417 599 2350 3950 4410 6640 9870
2026-05-10 06:30 7.07 718 10200 (2017) 40 (1948) 2850 40 64 417 599 2350 3950 4410 6640 9870
2026-05-10 06:00 7.07 718 10200 (2017) 40 (1948) 2850 40 64 417 599 2350 3950 4410 6640 9870
2026-05-10 05:30 7.07 718 10200 (2017) 40 (1948) 2850 40 64 417 599 2350 3950 4410 6640 9870
2026-05-10 05:00 7.07 718 10200 (2017) 40 (1948) 2850 40 64 417 599 2350 3950 4410 6640 9870
2026-05-10 04:30 7.07 718 10200 (2017) 40 (1948) 2850 40 64 417 599 2350 3950 4410 6640 9870
2026-05-10 04:00 7.08 721 10200 (2017) 40 (1948) 2850 40 64 417 599 2350 3950 4410 6640 9870
2026-05-10 03:30 7.08 721 10200 (2017) 40 (1948) 2850 40 64 417 599 2350 3950 4410 6640 9870
2026-05-10 03:00 7.08 721 10200 (2017) 40 (1948) 2850 40 64 417 599 2350 3950 4410 6640 9870
2026-05-10 02:30 7.08 721 10200 (2017) 40 (1948) 2850 40 64 417 599 2350 3950 4410 6640 9870
2026-05-10 02:00 7.08 721 10200 (2017) 40 (1948) 2850 40 64 417 599 2350 3950 4410 6640 9870
2026-05-10 01:30 7.08 721 10200 (2017) 40 (1948) 2850 40 64 417 599 2350 3950 4410 6640 9870
2026-05-10 01:00 7.08 721 10200 (2017) 40 (1948) 2850 40 64 417 599 2350 3950 4410 6640 9870
2026-05-10 00:30 7.09 724 10200 (2017) 40 (1948) 2850 40 64 417 599 2350 3950 4410 6640 9870
2026-05-10 00:00 7.08 721 10200 (2017) 40 (1948) 2850 40 64 417 599 2350 3950 4410 6640 9870
2026-05-09 23:30 7.08 721 10200 (2017) 40 (1948) 2850 40 64 417 599 2350 3950 4410 6640 9870
2026-05-09 23:00 7.09 724 10200 (2017) 40 (1948) 2850 40 64 417 599 2350 3950 4410 6640 9870
2026-05-09 22:30 7.09 724 10500 (1945) 40 (1948) 2890 40 65 482 627 2410 3850 4190 7660 10000
2026-05-09 22:00 7.09 724 10500 (1945) 40 (1948) 2890 40 65 482 627 2410 3850 4190 7660 10000
2026-05-09 21:30 7.09 724 10500 (1945) 40 (1948) 2890 40 65 482 627 2410 3850 4190 7660 10000
2026-05-09 21:00 7.10 726 10500 (1945) 40 (1948) 2890 40 65 482 627 2410 3850 4190 7660 10000
2026-05-09 20:30 7.09 724 10500 (1945) 40 (1948) 2890 40 65 482 627 2410 3850 4190 7660 10000
2026-05-09 20:00 7.10 726 10500 (1945) 40 (1948) 2890 40 65 482 627 2410 3850 4190 7660 10000
2026-05-09 19:30 7.10 726 10500 (1945) 40 (1948) 2890 40 65 482 627 2410 3850 4190 7660 10000
2026-05-09 19:00 7.10 726 10500 (1945) 40 (1948) 2890 40 65 482 627 2410 3850 4190 7660 10000
2026-05-09 18:30 7.11 729 10500 (1945) 40 (1948) 2890 40 65 482 627 2410 3850 4190 7660 10000
2026-05-09 18:00 7.11 729 10500 (1945) 40 (1948) 2890 40 65 482 627 2410 3850 4190 7660 10000
2026-05-09 17:30 7.11 729 10500 (1945) 40 (1948) 2890 40 65 482 627 2410 3850 4190 7660 10000
2026-05-09 17:00 7.11 729 10500 (1945) 40 (1948) 2890 40 65 482 627 2410 3850 4190 7660 10000
2026-05-09 16:30 7.12 732 10500 (1945) 40 (1948) 2890 40 65 482 627 2410 3850 4190 7660 10000
2026-05-09 16:00 7.13 735 10500 (1945) 40 (1948) 2890 40 65 482 627 2410 3850 4190 7660 10000
2026-05-09 15:30 7.13 735 10500 (1945) 40 (1948) 2890 40 65 482 627 2410 3850 4190 7660 10000
2026-05-09 15:00 7.13 735 10500 (1945) 40 (1948) 2890 40 65 482 627 2410 3850 4190 7660 10000
2026-05-09 14:30 7.14 738 10500 (1945) 40 (1948) 2890 40 65 482 627 2410 3850 4190 7660 10000
2026-05-09 14:00 7.14 738 10500 (1945) 40 (1948) 2890 40 65 482 627 2410 3850 4190 7660 10000
2026-05-09 13:30 7.15 741 10500 (1945) 40 (1948) 2890 40 65 482 627 2410 3850 4190 7660 10000
2026-05-09 13:00 7.15 741 10500 (1945) 40 (1948) 2890 40 65 482 627 2410 3850 4190 7660 10000
2026-05-09 12:30 7.16 744 10500 (1945) 40 (1948) 2890 40 65 482 627 2410 3850 4190 7660 10000
2026-05-09 12:00 7.16 744 10500 (1945) 40 (1948) 2890 40 65 482 627 2410 3850 4190 7660 10000
2026-05-09 11:30 7.17 746 10500 (1945) 40 (1948) 2890 40 65 482 627 2410 3850 4190 7660 10000
2026-05-09 11:00 7.17 746 10500 (1945) 40 (1948) 2890 40 65 482 627 2410 3850 4190 7660 10000
2026-05-09 10:30 7.18 749 10500 (1945) 40 (1948) 2890 40 65 482 627 2410 3850 4190 7660 10000
2026-05-09 10:00 7.19 752 10500 (1945) 40 (1948) 2890 40 65 482 627 2410 3850 4190 7660 10000
2026-05-09 09:30 7.20 755 10500 (1945) 40 (1948) 2890 40 65 482 627 2410 3850 4190 7660 10000
2026-05-09 09:00 7.21 758 10500 (1945) 40 (1948) 2890 40 65 482 627 2410 3850 4190 7660 10000
2026-05-09 08:30 7.22 761 10500 (1945) 40 (1948) 2890 40 65 482 627 2410 3850 4190 7660 10000
2026-05-09 08:00 7.22 761 10500 (1945) 40 (1948) 2890 40 65 482 627 2410 3850 4190 7660 10000
2026-05-09 07:30 7.24 767 10500 (1945) 40 (1948) 2890 40 65 482 627 2410 3850 4190 7660 10000
2026-05-09 07:00 7.25 770 10500 (1945) 40 (1948) 2890 40 65 482 627 2410 3850 4190 7660 10000
2026-05-09 06:30 7.26 772 10500 (1945) 40 (1948) 2890 40 65 482 627 2410 3850 4190 7660 10000
2026-05-09 06:00 7.28 778 10500 (1945) 40 (1948) 2890 40 65 482 627 2410 3850 4190 7660 10000
2026-05-09 05:30 7.29 781 10500 (1945) 40 (1948) 2890 40 65 482 627 2410 3850 4190 7660 10000
2026-05-09 05:00 7.31 787 10500 (1945) 40 (1948) 2890 40 65 482 627 2410 3850 4190 7660 10000
2026-05-09 04:30 7.32 790 10500 (1945) 40 (1948) 2890 40 65 482 627 2410 3850 4190 7660 10000
2026-05-09 04:00 7.33 793 10500 (1945) 40 (1948) 2890 40 65 482 627 2410 3850 4190 7660 10000
2026-05-09 03:30 7.35 799 10500 (1945) 40 (1948) 2890 40 65 482 627 2410 3850 4190 7660 10000
2026-05-09 03:00 7.37 805 10500 (1945) 40 (1948) 2890 40 65 482 627 2410 3850 4190 7660 10000
2026-05-09 02:30 7.39 810 10500 (1945) 40 (1948) 2890 40 65 482 627 2410 3850 4190 7660 10000
2026-05-09 02:00 7.42 819 10500 (1945) 40 (1948) 2890 40 65 482 627 2410 3850 4190 7660 10000
2026-05-09 01:30 7.43 822 10500 (1945) 40 (1948) 2890 40 65 482 627 2410 3850 4190 7660 10000
2026-05-09 01:00 7.46 831 10500 (1945) 40 (1948) 2890 40 65 482 627 2410 3850 4190 7660 10000
2026-05-09 00:30 7.49 840 10500 (1945) 40 (1948) 2890 40 65 482 627 2410 3850 4190 7660 10000
2026-05-09 00:00 7.52 849 10500 (1945) 40 (1948) 2890 40 65 482 627 2410 3850 4190 7660 10000
2026-05-08 23:30 7.55 858 10500 (1945) 40 (1948) 2890 40 65 482 627 2410 3850 4190 7660 10000
2026-05-08 23:00 7.58 867 10500 (1945) 40 (1948) 2890 40 65 482 627 2410 3850 4190 7660 10000
2026-05-08 22:30 7.62 879 10800 (1945) 40 (1948) 2940 40 57 571 675 2420 3920 4130 8540 10000
2026-05-08 22:00 7.66 892 10800 (1945) 40 (1948) 2940 40 57 571 675 2420 3920 4130 8540 10000
2026-05-08 21:30 7.70 904 10800 (1945) 40 (1948) 2940 40 57 571 675 2420 3920 4130 8540 10000
2026-05-08 21:00 7.75 919 10800 (1945) 40 (1948) 2940 40 57 571 675 2420 3920 4130 8540 10000
2026-05-08 20:30 7.79 932 10800 (1945) 40 (1948) 2940 40 57 571 675 2420 3920 4130 8540 10000
2026-05-08 20:00 7.85 950 10800 (1945) 40 (1948) 2940 40 57 571 675 2420 3920 4130 8540 10000
2026-05-08 19:30 7.91 965 10800 (1945) 40 (1948) 2940 40 57 571 675 2420 3920 4130 8540 10000
2026-05-08 19:00 7.97 976 10800 (1945) 40 (1948) 2940 40 57 571 675 2420 3920 4130 8540 10000
2026-05-08 18:30 8.05 991 10800 (1945) 40 (1948) 2940 40 57 571 675 2420 3920 4130 8540 10000
2026-05-08 18:00 8.12 1000 10800 (1945) 40 (1948) 2940 40 57 571 675 2420 3920 4130 8540 10000
2026-05-08 17:30 8.21 1020 10800 (1945) 40 (1948) 2940 40 57 571 675 2420 3920 4130 8540 10000
2026-05-08 17:00 8.31 1040 10800 (1945) 40 (1948) 2940 40 57 571 675 2420 3920 4130 8540 10000
2026-05-08 16:30 8.42 1060 10800 (1945) 40 (1948) 2940 40 57 571 675 2420 3920 4130 8540 10000
2026-05-08 16:00 8.55 1090 10800 (1945) 40 (1948) 2940 40 57 571 675 2420 3920 4130 8540 10000
2026-05-08 15:30 8.71 1120 10800 (1945) 40 (1948) 2940 40 57 571 675 2420 3920 4130 8540 10000
2026-05-08 15:00 9.01 1170 10800 (1945) 40 (1948) 2940 40 57 571 675 2420 3920 4130 8540 10000
2026-05-08 14:30 9.01 1170 10800 (1945) 40 (1948) 2940 40 57 571 675 2420 3920 4130 8540 10000
2026-05-08 14:00 9.00 1170 10800 (1945) 40 (1948) 2940 40 57 571 675 2420 3920 4130 8540 10000
2026-05-08 13:30 9.01 1170 10800 (1945) 40 (1948) 2940 40 57 571 675 2420 3920 4130 8540 10000
2026-05-08 13:00 9.01 1170 10800 (1945) 40 (1948) 2940 40 57 571 675 2420 3920 4130 8540 10000
2026-05-08 12:30 9.02 1180 10800 (1945) 40 (1948) 2940 40 57 571 675 2420 3920 4130 8540 10000
2026-05-08 12:00 9.03 1180 10800 (1945) 40 (1948) 2940 40 57 571 675 2420 3920 4130 8540 10000
2026-05-08 11:30 9.03 1180 10800 (1945) 40 (1948) 2940 40 57 571 675 2420 3920 4130 8540 10000
2026-05-08 11:00 9.04 1180 10800 (1945) 40 (1948) 2940 40 57 571 675 2420 3920 4130 8540 10000
2026-05-08 10:30 9.04 1180 10800 (1945) 40 (1948) 2940 40 57 571 675 2420 3920 4130 8540 10000
2026-05-08 10:00 9.03 1180 10800 (1945) 40 (1948) 2940 40 57 571 675 2420 3920 4130 8540 10000
2026-05-08 09:30 9.04 1180 10800 (1945) 40 (1948) 2940 40 57 571 675 2420 3920 4130 8540 10000
2026-05-08 09:00 9.05 1180 10800 (1945) 40 (1948) 2940 40 57 571 675 2420 3920 4130 8540 10000
2026-05-08 08:30 9.06 1180 10800 (1945) 40 (1948) 2940 40 57 571 675 2420 3920 4130 8540 10000
2026-05-08 08:00 9.05 1180 10800 (1945) 40 (1948) 2940 40 57 571 675 2420 3920 4130 8540 10000
2026-05-08 07:30 9.05 1180 10800 (1945) 40 (1948) 2940 40 57 571 675 2420 3920 4130 8540 10000
2026-05-08 07:00 9.06 1180 10800 (1945) 40 (1948) 2940 40 57 571 675 2420 3920 4130 8540 10000
2026-05-08 06:30 9.07 1190 10800 (1945) 40 (1948) 2940 40 57 571 675 2420 3920 4130 8540 10000
2026-05-08 06:00 9.07 1190 10800 (1945) 40 (1948) 2940 40 57 571 675 2420 3920 4130 8540 10000
2026-05-08 05:30 9.08 1190 10800 (1945) 40 (1948) 2940 40 57 571 675 2420 3920 4130 8540 10000
2026-05-08 05:00 9.08 1190 10800 (1945) 40 (1948) 2940 40 57 571 675 2420 3920 4130 8540 10000
2026-05-08 04:30 9.09 1190 10800 (1945) 40 (1948) 2940 40 57 571 675 2420 3920 4130 8540 10000
2026-05-08 04:00 9.11 1190 10800 (1945) 40 (1948) 2940 40 57 571 675 2420 3920 4130 8540 10000
2026-05-08 03:30 9.10 1190 10800 (1945) 40 (1948) 2940 40 57 571 675 2420 3920 4130 8540 10000
2026-05-08 03:00 9.12 1200 10800 (1945) 40 (1948) 2940 40 57 571 675 2420 3920 4130 8540 10000
2026-05-08 02:30 9.12 1200 10800 (1945) 40 (1948) 2940 40 57 571 675 2420 3920 4130 8540 10000
2026-05-08 02:00 9.14 1200 10800 (1945) 40 (1948) 2940 40 57 571 675 2420 3920 4130 8540 10000
2026-05-08 01:30 9.15 1200 10800 (1945) 40 (1948) 2940 40 57 571 675 2420 3920 4130 8540 10000
2026-05-08 01:00 9.15 1200 10800 (1945) 40 (1948) 2940 40 57 571 675 2420 3920 4130 8540 10000
2026-05-08 00:30 9.17 1210 10800 (1945) 40 (1948) 2940 40 57 571 675 2420 3920 4130 8540 10000
2026-05-08 00:00 9.18 1210 10800 (1945) 40 (1948) 2940 40 57 571 675 2420 3920 4130 8540 10000
2026-05-07 23:30 9.19 1210 10800 (1945) 40 (1948) 2940 40 57 571 675 2420 3920 4130 8540 10000
2026-05-07 23:00 9.21 1210 10800 (1945) 40 (1948) 2940 40 57 571 675 2420 3920 4130 8540 10000
2026-05-07 22:30 9.22 1220 11400 (2017) 40 (1948) 2930 40 54 480 758 2410 3900 4140 7470 9920
2026-05-07 22:00 9.24 1220 11400 (2017) 40 (1948) 2930 40 54 480 758 2410 3900 4140 7470 9920
2026-05-07 21:30 9.26 1220 11400 (2017) 40 (1948) 2930 40 54 480 758 2410 3900 4140 7470 9920
2026-05-07 21:00 9.27 1230 11400 (2017) 40 (1948) 2930 40 54 480 758 2410 3900 4140 7470 9920
2026-05-07 20:30 9.29 1230 11400 (2017) 40 (1948) 2930 40 54 480 758 2410 3900 4140 7470 9920
2026-05-07 20:00 9.31 1230 11400 (2017) 40 (1948) 2930 40 54 480 758 2410 3900 4140 7470 9920
2026-05-07 19:30 9.34 1240 11400 (2017) 40 (1948) 2930 40 54 480 758 2410 3900 4140 7470 9920
2026-05-07 19:00 9.36 1240 11400 (2017) 40 (1948) 2930 40 54 480 758 2410 3900 4140 7470 9920
2026-05-07 18:30 9.39 1250 11400 (2017) 40 (1948) 2930 40 54 480 758 2410 3900 4140 7470 9920
2026-05-07 18:00 9.42 1260 11400 (2017) 40 (1948) 2930 40 54 480 758 2410 3900 4140 7470 9920
2026-05-07 17:30 9.44 1260 11400 (2017) 40 (1948) 2930 40 54 480 758 2410 3900 4140 7470 9920
2026-05-07 17:00 9.48 1270 11400 (2017) 40 (1948) 2930 40 54 480 758 2410 3900 4140 7470 9920
2026-05-07 16:30 9.51 1270 11400 (2017) 40 (1948) 2930 40 54 480 758 2410 3900 4140 7470 9920
2026-05-07 16:00 9.56 1280 11400 (2017) 40 (1948) 2930 40 54 480 758 2410 3900 4140 7470 9920
2026-05-07 15:30 9.59 1290 11400 (2017) 40 (1948) 2930 40 54 480 758 2410 3900 4140 7470 9920
2026-05-07 15:00 9.64 1300 11400 (2017) 40 (1948) 2930 40 54 480 758 2410 3900 4140 7470 9920
2026-05-07 14:30 9.70 1310 11400 (2017) 40 (1948) 2930 40 54 480 758 2410 3900 4140 7470 9920
2026-05-07 14:00 9.75 1320 11400 (2017) 40 (1948) 2930 40 54 480 758 2410 3900 4140 7470 9920
2026-05-07 13:30 9.81 1340 11400 (2017) 40 (1948) 2930 40 54 480 758 2410 3900 4140 7470 9920
2026-05-07 13:00 9.88 1350 11400 (2017) 40 (1948) 2930 40 54 480 758 2410 3900 4140 7470 9920
2026-05-07 12:30 9.96 1370 11400 (2017) 40 (1948) 2930 40 54 480 758 2410 3900 4140 7470 9920
2026-05-07 12:00 10.06 1390 11400 (2017) 40 (1948) 2930 40 54 480 758 2410 3900 4140 7470 9920
2026-05-07 11:30 10.16 1410 11400 (2017) 40 (1948) 2930 40 54 480 758 2410 3900 4140 7470 9920
2026-05-07 11:00 10.31 1440 11400 (2017) 40 (1948) 2930 40 54 480 758 2410 3900 4140 7470 9920
2026-05-07 10:30 10.51 1480 11400 (2017) 40 (1948) 2930 40 54 480 758 2410 3900 4140 7470 9920
2026-05-07 10:00 10.51 1480 11400 (2017) 40 (1948) 2930 40 54 480 758 2410 3900 4140 7470 9920
2026-05-07 09:30 10.52 1480 11400 (2017) 40 (1948) 2930 40 54 480 758 2410 3900 4140 7470 9920
2026-05-07 09:00 10.51 1480 11400 (2017) 40 (1948) 2930 40 54 480 758 2410 3900 4140 7470 9920
2026-05-07 08:30 10.52 1480 11400 (2017) 40 (1948) 2930 40 54 480 758 2410 3900 4140 7470 9920
2026-05-07 08:00 10.52 1480 11400 (2017) 40 (1948) 2930 40 54 480 758 2410 3900 4140 7470 9920
2026-05-07 07:30 10.53 1490 11400 (2017) 40 (1948) 2930 40 54 480 758 2410 3900 4140 7470 9920
2026-05-07 07:00 10.53 1490 11400 (2017) 40 (1948) 2930 40 54 480 758 2410 3900 4140 7470 9920
2026-05-07 06:30 10.54 1490 11400 (2017) 40 (1948) 2930 40 54 480 758 2410 3900 4140 7470 9920
2026-05-07 06:00 10.54 1490 11400 (2017) 40 (1948) 2930 40 54 480 758 2410 3900 4140 7470 9920
2026-05-07 05:30 10.55 1490 11400 (2017) 40 (1948) 2930 40 54 480 758 2410 3900 4140 7470 9920
2026-05-07 05:00 10.56 1490 11400 (2017) 40 (1948) 2930 40 54 480 758 2410 3900 4140 7470 9920
2026-05-07 04:30 10.56 1490 11400 (2017) 40 (1948) 2930 40 54 480 758 2410 3900 4140 7470 9920
2026-05-07 04:00 10.57 1500 11400 (2017) 40 (1948) 2930 40 54 480 758 2410 3900 4140 7470 9920
2026-05-07 03:30 10.58 1500 11400 (2017) 40 (1948) 2930 40 54 480 758 2410 3900 4140 7470 9920
2026-05-07 03:00 10.58 1500 11400 (2017) 40 (1948) 2930 40 54 480 758 2410 3900 4140 7470 9920
2026-05-07 02:30 10.60 1500 11400 (2017) 40 (1948) 2930 40 54 480 758 2410 3900 4140 7470 9920
2026-05-07 02:00 10.60 1500 11400 (2017) 40 (1948) 2930 40 54 480 758 2410 3900 4140 7470 9920
2026-05-07 01:30 10.61 1500 11400 (2017) 40 (1948) 2930 40 54 480 758 2410 3900 4140 7470 9920
2026-05-07 01:00 10.62 1510 11400 (2017) 40 (1948) 2930 40 54 480 758 2410 3900 4140 7470 9920
2026-05-07 00:30 10.63 1510 11400 (2017) 40 (1948) 2930 40 54 480 758 2410 3900 4140 7470 9920
2026-05-07 00:00 10.64 1510 11400 (2017) 40 (1948) 2930 40 54 480 758 2410 3900 4140 7470 9920
2026-05-06 23:30 10.65 1510 11400 (2017) 40 (1948) 2930 40 54 480 758 2410 3900 4140 7470 9920
2026-05-06 23:00 10.66 1510 11400 (2017) 40 (1948) 2930 40 54 480 758 2410 3900 4140 7470 9920
2026-05-06 22:30 10.69 1520 13500 (2017) 40 (1948) 2930 40 44 415 722 2410 3800 4240 7570 10100
2026-05-06 22:00 10.69 1520 13500 (2017) 40 (1948) 2930 40 44 415 722 2410 3800 4240 7570 10100
2026-05-06 21:30 10.71 1520 13500 (2017) 40 (1948) 2930 40 44 415 722 2410 3800 4240 7570 10100
2026-05-06 21:00 10.73 1530 13500 (2017) 40 (1948) 2930 40 44 415 722 2410 3800 4240 7570 10100
2026-05-06 20:30 10.74 1530 13500 (2017) 40 (1948) 2930 40 44 415 722 2410 3800 4240 7570 10100
2026-05-06 20:00 10.76 1530 13500 (2017) 40 (1948) 2930 40 44 415 722 2410 3800 4240 7570 10100
2026-05-06 19:30 10.78 1540 13500 (2017) 40 (1948) 2930 40 44 415 722 2410 3800 4240 7570 10100
2026-05-06 19:00 10.80 1540 13500 (2017) 40 (1948) 2930 40 44 415 722 2410 3800 4240 7570 10100
2026-05-06 18:30 10.83 1550 13500 (2017) 40 (1948) 2930 40 44 415 722 2410 3800 4240 7570 10100
2026-05-06 18:00 10.85 1550 13500 (2017) 40 (1948) 2930 40 44 415 722 2410 3800 4240 7570 10100
2026-05-06 17:30 10.89 1560 13500 (2017) 40 (1948) 2930 40 44 415 722 2410 3800 4240 7570 10100
2026-05-06 17:00 10.90 1560 13500 (2017) 40 (1948) 2930 40 44 415 722 2410 3800 4240 7570 10100
2026-05-06 16:30 10.94 1570 13500 (2017) 40 (1948) 2930 40 44 415 722 2410 3800 4240 7570 10100
2026-05-06 16:00 10.97 1580 13500 (2017) 40 (1948) 2930 40 44 415 722 2410 3800 4240 7570 10100
2026-05-06 15:30 11.02 1590 13500 (2017) 40 (1948) 2930 40 44 415 722 2410 3800 4240 7570 10100
2026-05-06 15:00 11.05 1590 13500 (2017) 40 (1948) 2930 40 44 415 722 2410 3800 4240 7570 10100
2026-05-06 14:30 11.08 1600 13500 (2017) 40 (1948) 2930 40 44 415 722 2410 3800 4240 7570 10100
2026-05-06 14:00 11.14 1610 13500 (2017) 40 (1948) 2930 40 44 415 722 2410 3800 4240 7570 10100
2026-05-06 13:30 11.19 1620 13500 (2017) 40 (1948) 2930 40 44 415 722 2410 3800 4240 7570 10100
2026-05-06 13:00 11.25 1630 13500 (2017) 40 (1948) 2930 40 44 415 722 2410 3800 4240 7570 10100
2026-05-06 12:30 11.31 1650 13500 (2017) 40 (1948) 2930 40 44 415 722 2410 3800 4240 7570 10100
2026-05-06 12:00 11.38 1660 13500 (2017) 40 (1948) 2930 40 44 415 722 2410 3800 4240 7570 10100
2026-05-06 11:30 11.47 1680 13500 (2017) 40 (1948) 2930 40 44 415 722 2410 3800 4240 7570 10100
2026-05-06 11:00 11.56 1700 13500 (2017) 40 (1948) 2930 40 44 415 722 2410 3800 4240 7570 10100
2026-05-06 10:30 11.67 1720 13500 (2017) 40 (1948) 2930 40 44 415 722 2410 3800 4240 7570 10100
2026-05-06 10:00 11.83 1760 13500 (2017) 40 (1948) 2930 40 44 415 722 2410 3800 4240 7570 10100
2026-05-06 09:30 11.94 1780 13500 (2017) 40 (1948) 2930 40 44 415 722 2410 3800 4240 7570 10100
2026-05-06 09:00 11.95 1780 13500 (2017) 40 (1948) 2930 40 44 415 722 2410 3800 4240 7570 10100
2026-05-06 08:30 11.96 1780 13500 (2017) 40 (1948) 2930 40 44 415 722 2410 3800 4240 7570 10100
2026-05-06 08:00 11.97 1790 13500 (2017) 40 (1948) 2930 40 44 415 722 2410 3800 4240 7570 10100
2026-05-06 07:30 11.98 1790 13500 (2017) 40 (1948) 2930 40 44 415 722 2410 3800 4240 7570 10100
2026-05-06 07:00 11.98 1790 13500 (2017) 40 (1948) 2930 40 44 415 722 2410 3800 4240 7570 10100
2026-05-06 06:30 11.99 1790 13500 (2017) 40 (1948) 2930 40 44 415 722 2410 3800 4240 7570 10100
2026-05-06 06:00 11.98 1790 13500 (2017) 40 (1948) 2930 40 44 415 722 2410 3800 4240 7570 10100
2026-05-06 05:30 12.00 1790 13500 (2017) 40 (1948) 2930 40 44 415 722 2410 3800 4240 7570 10100
2026-05-06 05:00 12.00 1790 13500 (2017) 40 (1948) 2930 40 44 415 722 2410 3800 4240 7570 10100
2026-05-06 04:30 12.01 1790 13500 (2017) 40 (1948) 2930 40 44 415 722 2410 3800 4240 7570 10100
2026-05-06 04:00 12.02 1800 13500 (2017) 40 (1948) 2930 40 44 415 722 2410 3800 4240 7570 10100
2026-05-06 03:30 12.03 1800 13500 (2017) 40 (1948) 2930 40 44 415 722 2410 3800 4240 7570 10100
2026-05-06 03:00 12.03 1800 13500 (2017) 40 (1948) 2930 40 44 415 722 2410 3800 4240 7570 10100
2026-05-06 02:30 12.04 1800 13500 (2017) 40 (1948) 2930 40 44 415 722 2410 3800 4240 7570 10100
2026-05-06 02:00 12.05 1800 13500 (2017) 40 (1948) 2930 40 44 415 722 2410 3800 4240 7570 10100
2026-05-06 01:30 12.05 1800 13500 (2017) 40 (1948) 2930 40 44 415 722 2410 3800 4240 7570 10100
2026-05-06 01:00 12.06 1800 13500 (2017) 40 (1948) 2930 40 44 415 722 2410 3800 4240 7570 10100
2026-05-06 00:30 12.06 1800 13500 (2017) 40 (1948) 2930 40 44 415 722 2410 3800 4240 7570 10100
2026-05-06 00:00 12.07 1810 13500 (2017) 40 (1948) 2930 40 44 415 722 2410 3800 4240 7570 10100
2026-05-05 23:30 12.08 1810 13500 (2017) 40 (1948) 2930 40 44 415 722 2410 3800 4240 7570 10100
2026-05-05 23:00 12.09 1810 13500 (2017) 40 (1948) 2930 40 44 415 722 2410 3800 4240 7570 10100
2026-05-05 22:30 12.09 1810 14400 (2011) 40 (1949) 2980 40 45 352 805 2270 3830 4090 7600 10100
2026-05-05 22:00 12.12 1820 14400 (2011) 40 (1949) 2980 40 45 352 805 2270 3830 4090 7600 10100
2026-05-05 21:30 12.12 1820 14400 (2011) 40 (1949) 2980 40 45 352 805 2270 3830 4090 7600 10100
2026-05-05 21:00 12.13 1820 14400 (2011) 40 (1949) 2980 40 45 352 805 2270 3830 4090 7600 10100
2026-05-05 20:30 12.15 1820 14400 (2011) 40 (1949) 2980 40 45 352 805 2270 3830 4090 7600 10100
2026-05-05 20:00 12.17 1830 14400 (2011) 40 (1949) 2980 40 45 352 805 2270 3830 4090 7600 10100
2026-05-05 19:30 12.18 1830 14400 (2011) 40 (1949) 2980 40 45 352 805 2270 3830 4090 7600 10100
2026-05-05 19:00 12.21 1840 14400 (2011) 40 (1949) 2980 40 45 352 805 2270 3830 4090 7600 10100
2026-05-05 18:30 12.23 1840 14400 (2011) 40 (1949) 2980 40 45 352 805 2270 3830 4090 7600 10100
2026-05-05 18:00 12.24 1840 14400 (2011) 40 (1949) 2980 40 45 352 805 2270 3830 4090 7600 10100
2026-05-05 17:30 12.27 1850 14400 (2011) 40 (1949) 2980 40 45 352 805 2270 3830 4090 7600 10100
2026-05-05 17:00 12.29 1850 14400 (2011) 40 (1949) 2980 40 45 352 805 2270 3830 4090 7600 10100
2026-05-05 16:30 12.32 1860 14400 (2011) 40 (1949) 2980 40 45 352 805 2270 3830 4090 7600 10100
2026-05-05 16:00 12.33 1860 14400 (2011) 40 (1949) 2980 40 45 352 805 2270 3830 4090 7600 10100
2026-05-05 15:30 12.36 1870 14400 (2011) 40 (1949) 2980 40 45 352 805 2270 3830 4090 7600 10100
2026-05-05 15:00 12.39 1880 14400 (2011) 40 (1949) 2980 40 45 352 805 2270 3830 4090 7600 10100
2026-05-05 14:30 12.42 1880 14400 (2011) 40 (1949) 2980 40 45 352 805 2270 3830 4090 7600 10100
2026-05-05 14:00 12.46 1890 14400 (2011) 40 (1949) 2980 40 45 352 805 2270 3830 4090 7600 10100
2026-05-05 13:30 12.48 1890 14400 (2011) 40 (1949) 2980 40 45 352 805 2270 3830 4090 7600 10100
2026-05-05 13:00 12.55 1910 14400 (2011) 40 (1949) 2980 40 45 352 805 2270 3830 4090 7600 10100
2026-05-05 12:30 12.59 1920 14400 (2011) 40 (1949) 2980 40 45 352 805 2270 3830 4090 7600 10100
2026-05-05 12:00 12.65 1930 14400 (2011) 40 (1949) 2980 40 45 352 805 2270 3830 4090 7600 10100
2026-05-05 11:30 12.70 1940 14400 (2011) 40 (1949) 2980 40 45 352 805 2270 3830 4090 7600 10100
2026-05-05 11:00 12.76 1960 14400 (2011) 40 (1949) 2980 40 45 352 805 2270 3830 4090 7600 10100
2026-05-05 10:30 12.84 1970 14400 (2011) 40 (1949) 2980 40 45 352 805 2270 3830 4090 7600 10100
2026-05-05 10:00 12.93 1990 14400 (2011) 40 (1949) 2980 40 45 352 805 2270 3830 4090 7600 10100
2026-05-05 09:30 13.08 2030 14400 (2011) 40 (1949) 2980 40 45 352 805 2270 3830 4090 7600 10100
2026-05-05 09:00 13.21 2070 14400 (2011) 40 (1949) 2980 40 45 352 805 2270 3830 4090 7600 10100
2026-05-05 08:30 13.22 2070 14400 (2011) 40 (1949) 2980 40 45 352 805 2270 3830 4090 7600 10100
2026-05-05 08:00 13.23 2070 14400 (2011) 40 (1949) 2980 40 45 352 805 2270 3830 4090 7600 10100
2026-05-05 07:30 13.22 2070 14400 (2011) 40 (1949) 2980 40 45 352 805 2270 3830 4090 7600 10100
2026-05-05 07:00 13.20 2070 14400 (2011) 40 (1949) 2980 40 45 352 805 2270 3830 4090 7600 10100
2026-05-05 06:30 13.20 2070 14400 (2011) 40 (1949) 2980 40 45 352 805 2270 3830 4090 7600 10100
2026-05-05 06:00 13.20 2070 14400 (2011) 40 (1949) 2980 40 45 352 805 2270 3830 4090 7600 10100
2026-05-05 05:30 13.19 2060 14400 (2011) 40 (1949) 2980 40 45 352 805 2270 3830 4090 7600 10100
2026-05-05 05:00 13.19 2060 14400 (2011) 40 (1949) 2980 40 45 352 805 2270 3830 4090 7600 10100
2026-05-05 04:30 13.18 2060 14400 (2011) 40 (1949) 2980 40 45 352 805 2270 3830 4090 7600 10100
2026-05-05 04:00 13.19 2060 14400 (2011) 40 (1949) 2980 40 45 352 805 2270 3830 4090 7600 10100
2026-05-05 03:30 13.19 2060 14400 (2011) 40 (1949) 2980 40 45 352 805 2270 3830 4090 7600 10100
2026-05-05 03:00 13.18 2060 14400 (2011) 40 (1949) 2980 40 45 352 805 2270 3830 4090 7600 10100
2026-05-05 02:30 13.19 2060 14400 (2011) 40 (1949) 2980 40 45 352 805 2270 3830 4090 7600 10100
2026-05-05 02:00 13.19 2060 14400 (2011) 40 (1949) 2980 40 45 352 805 2270 3830 4090 7600 10100
2026-05-05 01:30 13.19 2060 14400 (2011) 40 (1949) 2980 40 45 352 805 2270 3830 4090 7600 10100
2026-05-05 01:00 13.20 2070 14400 (2011) 40 (1949) 2980 40 45 352 805 2270 3830 4090 7600 10100
2026-05-05 00:30 13.19 2060 14400 (2011) 40 (1949) 2980 40 45 352 805 2270 3830 4090 7600 10100
2026-05-05 00:00 13.19 2060 14400 (2011) 40 (1949) 2980 40 45 352 805 2270 3830 4090 7600 10100
2026-05-04 23:30 13.19 2060 14400 (2011) 40 (1949) 2980 40 45 352 805 2270 3830 4090 7600 10100
2026-05-04 23:00 13.17 2060 14400 (2011) 40 (1949) 2980 40 45 352 805 2270 3830 4090 7600 10100
2026-05-04 22:30 13.17 2060 20300 (2011) 40 (1949) 3070 40 45 457 695 2300 3810 4070 8060 10100
2026-05-04 22:00 13.17 2060 20300 (2011) 40 (1949) 3070 40 45 457 695 2300 3810 4070 8060 10100
2026-05-04 21:30 13.17 2060 20300 (2011) 40 (1949) 3070 40 45 457 695 2300 3810 4070 8060 10100
2026-05-04 21:00 13.16 2050 20300 (2011) 40 (1949) 3070 40 45 457 695 2300 3810 4070 8060 10100
2026-05-04 20:30 13.17 2060 20300 (2011) 40 (1949) 3070 40 45 457 695 2300 3810 4070 8060 10100
2026-05-04 20:00 13.17 2060 20300 (2011) 40 (1949) 3070 40 45 457 695 2300 3810 4070 8060 10100
2026-05-04 19:30 13.16 2050 20300 (2011) 40 (1949) 3070 40 45 457 695 2300 3810 4070 8060 10100
2026-05-04 19:00 13.17 2060 20300 (2011) 40 (1949) 3070 40 45 457 695 2300 3810 4070 8060 10100
2026-05-04 18:30 13.17 2060 20300 (2011) 40 (1949) 3070 40 45 457 695 2300 3810 4070 8060 10100
2026-05-04 18:00 13.16 2050 20300 (2011) 40 (1949) 3070 40 45 457 695 2300 3810 4070 8060 10100
2026-05-04 17:30 13.15 2050 20300 (2011) 40 (1949) 3070 40 45 457 695 2300 3810 4070 8060 10100
2026-05-04 17:00 13.14 2050 20300 (2011) 40 (1949) 3070 40 45 457 695 2300 3810 4070 8060 10100
2026-05-04 16:30 13.15 2050 20300 (2011) 40 (1949) 3070 40 45 457 695 2300 3810 4070 8060 10100
2026-05-04 16:00 13.13 2050 20300 (2011) 40 (1949) 3070 40 45 457 695 2300 3810 4070 8060 10100
2026-05-04 15:30 13.14 2050 20300 (2011) 40 (1949) 3070 40 45 457 695 2300 3810 4070 8060 10100
2026-05-04 15:00 13.12 2040 20300 (2011) 40 (1949) 3070 40 45 457 695 2300 3810 4070 8060 10100
2026-05-04 14:30 13.13 2050 20300 (2011) 40 (1949) 3070 40 45 457 695 2300 3810 4070 8060 10100
2026-05-04 14:00 13.12 2040 20300 (2011) 40 (1949) 3070 40 45 457 695 2300 3810 4070 8060 10100
2026-05-04 13:30 13.11 2040 20300 (2011) 40 (1949) 3070 40 45 457 695 2300 3810 4070 8060 10100
2026-05-04 13:00 13.12 2040 20300 (2011) 40 (1949) 3070 40 45 457 695 2300 3810 4070 8060 10100
2026-05-04 12:30 13.11 2040 20300 (2011) 40 (1949) 3070 40 45 457 695 2300 3810 4070 8060 10100
2026-05-04 12:00 13.09 2030 20300 (2011) 40 (1949) 3070 40 45 457 695 2300 3810 4070 8060 10100
2026-05-04 11:30 13.08 2030 20300 (2011) 40 (1949) 3070 40 45 457 695 2300 3810 4070 8060 10100
2026-05-04 11:00 13.08 2030 20300 (2011) 40 (1949) 3070 40 45 457 695 2300 3810 4070 8060 10100
2026-05-04 10:30 13.06 2030 20300 (2011) 40 (1949) 3070 40 45 457 695 2300 3810 4070 8060 10100
2026-05-04 10:00 13.05 2020 20300 (2011) 40 (1949) 3070 40 45 457 695 2300 3810 4070 8060 10100
2026-05-04 09:30 13.05 2020 20300 (2011) 40 (1949) 3070 40 45 457 695 2300 3810 4070 8060 10100
2026-05-04 09:00 13.02 2010 20300 (2011) 40 (1949) 3070 40 45 457 695 2300 3810 4070 8060 10100
2026-05-04 08:30 13.02 2010 20300 (2011) 40 (1949) 3070 40 45 457 695 2300 3810 4070 8060 10100
2026-05-04 08:00 13.00 2010 20300 (2011) 40 (1949) 3070 40 45 457 695 2300 3810 4070 8060 10100
2026-05-04 07:30 13.00 2010 20300 (2011) 40 (1949) 3070 40 45 457 695 2300 3810 4070 8060 10100
2026-05-04 07:00 12.98 2000 20300 (2011) 40 (1949) 3070 40 45 457 695 2300 3810 4070 8060 10100
2026-05-04 06:30 12.96 2000 20300 (2011) 40 (1949) 3070 40 45 457 695 2300 3810 4070 8060 10100
2026-05-04 06:00 12.95 2000 20300 (2011) 40 (1949) 3070 40 45 457 695 2300 3810 4070 8060 10100
2026-05-04 05:30 12.92 1990 20300 (2011) 40 (1949) 3070 40 45 457 695 2300 3810 4070 8060 10100
2026-05-04 05:00 12.90 1990 20300 (2011) 40 (1949) 3070 40 45 457 695 2300 3810 4070 8060 10100
2026-05-04 04:30 12.90 1990 20300 (2011) 40 (1949) 3070 40 45 457 695 2300 3810 4070 8060 10100
2026-05-04 04:00 12.87 1980 20300 (2011) 40 (1949) 3070 40 45 457 695 2300 3810 4070 8060 10100
2026-05-04 03:30 12.83 1970 20300 (2011) 40 (1949) 3070 40 45 457 695 2300 3810 4070 8060 10100
2026-05-04 03:00 12.80 1960 20300 (2011) 40 (1949) 3070 40 45 457 695 2300 3810 4070 8060 10100
2026-05-04 02:30 12.78 1960 20300 (2011) 40 (1949) 3070 40 45 457 695 2300 3810 4070 8060 10100
2026-05-04 02:00 12.75 1950 20300 (2011) 40 (1949) 3070 40 45 457 695 2300 3810 4070 8060 10100
2026-05-04 01:30 12.73 1950 20300 (2011) 40 (1949) 3070 40 45 457 695 2300 3810 4070 8060 10100
2026-05-04 01:00 12.69 1940 20300 (2011) 40 (1949) 3070 40 45 457 695 2300 3810 4070 8060 10100
2026-05-04 00:30 12.66 1930 20300 (2011) 40 (1949) 3070 40 45 457 695 2300 3810 4070 8060 10100
2026-05-04 00:00 12.61 1920 20300 (2011) 40 (1949) 3070 40 45 457 695 2300 3810 4070 8060 10100
2026-05-03 23:30 12.56 1910 20300 (2011) 40 (1949) 3070 40 45 457 695 2300 3810 4070 8060 10100
2026-05-03 23:00 12.51 1900 20300 (2011) 40 (1949) 3070 40 45 457 695 2300 3810 4070 8060 10100
2026-05-03 22:30 12.46 1890 25600 (2011) 40 (1949) 3130 40 40 340 518 2380 3830 3850 8160 10200
2026-05-03 22:00 12.40 1880 25600 (2011) 40 (1949) 3130 40 40 340 518 2380 3830 3850 8160 10200
2026-05-03 21:30 12.32 1860 25600 (2011) 40 (1949) 3130 40 40 340 518 2380 3830 3850 8160 10200
2026-05-03 21:00 12.27 1850 25600 (2011) 40 (1949) 3130 40 40 340 518 2380 3830 3850 8160 10200
2026-05-03 20:30 12.18 1830 25600 (2011) 40 (1949) 3130 40 40 340 518 2380 3830 3850 8160 10200
2026-05-03 20:00 12.11 1820 25600 (2011) 40 (1949) 3130 40 40 340 518 2380 3830 3850 8160 10200
2026-05-03 19:30 12.02 1800 25600 (2011) 40 (1949) 3130 40 40 340 518 2380 3830 3850 8160 10200
2026-05-03 19:00 11.92 1770 25600 (2011) 40 (1949) 3130 40 40 340 518 2380 3830 3850 8160 10200
2026-05-03 18:30 11.81 1750 25600 (2011) 40 (1949) 3130 40 40 340 518 2380 3830 3850 8160 10200
2026-05-03 18:00 11.69 1730 25600 (2011) 40 (1949) 3130 40 40 340 518 2380 3830 3850 8160 10200
2026-05-03 17:30 11.54 1690 25600 (2011) 40 (1949) 3130 40 40 340 518 2380 3830 3850 8160 10200
2026-05-03 17:00 11.37 1660 25600 (2011) 40 (1949) 3130 40 40 340 518 2380 3830 3850 8160 10200
2026-05-03 16:30 11.21 1630 25600 (2011) 40 (1949) 3130 40 40 340 518 2380 3830 3850 8160 10200
2026-05-03 16:00 11.01 1580 25600 (2011) 40 (1949) 3130 40 40 340 518 2380 3830 3850 8160 10200
2026-05-03 15:30 10.77 1540 25600 (2011) 40 (1949) 3130 40 40 340 518 2380 3830 3850 8160 10200
2026-05-03 15:00 10.51 1480 25600 (2011) 40 (1949) 3130 40 40 340 518 2380 3830 3850 8160 10200
2026-05-03 14:30 10.15 1410 25600 (2011) 40 (1949) 3130 40 40 340 518 2380 3830 3850 8160 10200
2026-05-03 14:00 9.70 1310 25600 (2011) 40 (1949) 3130 40 40 340 518 2380 3830 3850 8160 10200
2026-05-03 13:30 9.10 1190 25600 (2011) 40 (1949) 3130 40 40 340 518 2380 3830 3850 8160 10200
2026-05-03 13:00 8.13 1010 25600 (2011) 40 (1949) 3130 40 40 340 518 2380 3830 3850 8160 10200
2026-05-03 12:30 7.92 967 25600 (2011) 40 (1949) 3130 40 40 340 518 2380 3830 3850 8160 10200
2026-05-03 12:00 7.95 973 25600 (2011) 40 (1949) 3130 40 40 340 518 2380 3830 3850 8160 10200
2026-05-03 11:30 7.99 980 25600 (2011) 40 (1949) 3130 40 40 340 518 2380 3830 3850 8160 10200
2026-05-03 11:00 8.02 985 25600 (2011) 40 (1949) 3130 40 40 340 518 2380 3830 3850 8160 10200
2026-05-03 10:30 8.05 991 25600 (2011) 40 (1949) 3130 40 40 340 518 2380 3830 3850 8160 10200
2026-05-03 10:00 8.10 1000 25600 (2011) 40 (1949) 3130 40 40 340 518 2380 3830 3850 8160 10200
2026-05-03 09:30 8.15 1010 25600 (2011) 40 (1949) 3130 40 40 340 518 2380 3830 3850 8160 10200
2026-05-03 09:00 8.20 1020 25600 (2011) 40 (1949) 3130 40 40 340 518 2380 3830 3850 8160 10200
2026-05-03 08:30 8.26 1030 25600 (2011) 40 (1949) 3130 40 40 340 518 2380 3830 3850 8160 10200
2026-05-03 08:00 8.32 1040 25600 (2011) 40 (1949) 3130 40 40 340 518 2380 3830 3850 8160 10200
2026-05-03 07:30 8.38 1050 25600 (2011) 40 (1949) 3130 40 40 340 518 2380 3830 3850 8160 10200
2026-05-03 07:00 8.45 1070 25600 (2011) 40 (1949) 3130 40 40 340 518 2380 3830 3850 8160 10200
2026-05-03 06:30 8.52 1080 25600 (2011) 40 (1949) 3130 40 40 340 518 2380 3830 3850 8160 10200
2026-05-03 06:00 8.59 1090 25600 (2011) 40 (1949) 3130 40 40 340 518 2380 3830 3850 8160 10200
2026-05-03 05:30 8.67 1110 25600 (2011) 40 (1949) 3130 40 40 340 518 2380 3830 3850 8160 10200
2026-05-03 05:00 8.76 1130 25600 (2011) 40 (1949) 3130 40 40 340 518 2380 3830 3850 8160 10200
2026-05-03 04:30 8.85 1140 25600 (2011) 40 (1949) 3130 40 40 340 518 2380 3830 3850 8160 10200
2026-05-03 04:00 8.95 1160 25600 (2011) 40 (1949) 3130 40 40 340 518 2380 3830 3850 8160 10200
2026-05-03 03:30 9.05 1180 25600 (2011) 40 (1949) 3130 40 40 340 518 2380 3830 3850 8160 10200
2026-05-03 03:00 9.16 1200 25600 (2011) 40 (1949) 3130 40 40 340 518 2380 3830 3850 8160 10200
2026-05-03 02:30 9.28 1230 25600 (2011) 40 (1949) 3130 40 40 340 518 2380 3830 3850 8160 10200
2026-05-03 02:00 9.41 1250 25600 (2011) 40 (1949) 3130 40 40 340 518 2380 3830 3850 8160 10200
2026-05-03 01:30 9.54 1280 25600 (2011) 40 (1949) 3130 40 40 340 518 2380 3830 3850 8160 10200
2026-05-03 01:00 9.68 1310 25600 (2011) 40 (1949) 3130 40 40 340 518 2380 3830 3850 8160 10200
2026-05-03 00:30 9.84 1340 25600 (2011) 40 (1949) 3130 40 40 340 518 2380 3830 3850 8160 10200
2026-05-03 00:00 1 1380 25600 (2011) 40 (1949) 3130 40 40 340 518 2380 3830 3850 8160 10200
2026-05-02 23:30 10.18 1410 25600 (2011) 40 (1949) 3130 40 40 340 518 2380 3830 3850 8160 10200
2026-05-02 23:00 10.37 1450 25600 (2011) 40 (1949) 3130 40 40 340 518 2380 3830 3850 8160 10200
2026-05-02 22:30 10.58 1500 21100 (2017) 40 (1951) 3080 40 62 496 651 2240 3800 4040 8230 10000
2026-05-02 22:00 10.81 1540 21100 (2017) 40 (1951) 3080 40 62 496 651 2240 3800 4040 8230 10000
2026-05-02 21:30 11.06 1590 21100 (2017) 40 (1951) 3080 40 62 496 651 2240 3800 4040 8230 10000
2026-05-02 21:00 11.35 1650 21100 (2017) 40 (1951) 3080 40 62 496 651 2240 3800 4040 8230 10000
2026-05-02 20:30 11.68 1720 21100 (2017) 40 (1951) 3080 40 62 496 651 2240 3800 4040 8230 10000
2026-05-02 20:00 12.06 1800 21100 (2017) 40 (1951) 3080 40 62 496 651 2240 3800 4040 8230 10000
2026-05-02 19:30 12.59 1920 21100 (2017) 40 (1951) 3080 40 62 496 651 2240 3800 4040 8230 10000
2026-05-02 19:00 13.03 2020 21100 (2017) 40 (1951) 3080 40 62 496 651 2240 3800 4040 8230 10000
2026-05-02 18:30 13.04 2020 21100 (2017) 40 (1951) 3080 40 62 496 651 2240 3800 4040 8230 10000
2026-05-02 18:00 13.04 2020 21100 (2017) 40 (1951) 3080 40 62 496 651 2240 3800 4040 8230 10000
2026-05-02 17:30 13.03 2020 21100 (2017) 40 (1951) 3080 40 62 496 651 2240 3800 4040 8230 10000
2026-05-02 17:00 13.03 2020 21100 (2017) 40 (1951) 3080 40 62 496 651 2240 3800 4040 8230 10000
2026-05-02 16:30 13.04 2020 21100 (2017) 40 (1951) 3080 40 62 496 651 2240 3800 4040 8230 10000
2026-05-02 16:00 13.04 2020 21100 (2017) 40 (1951) 3080 40 62 496 651 2240 3800 4040 8230 10000
2026-05-02 15:30 13.03 2020 21100 (2017) 40 (1951) 3080 40 62 496 651 2240 3800 4040 8230 10000
2026-05-02 15:00 13.03 2020 21100 (2017) 40 (1951) 3080 40 62 496 651 2240 3800 4040 8230 10000
2026-05-02 14:30 13.04 2020 21100 (2017) 40 (1951) 3080 40 62 496 651 2240 3800 4040 8230 10000
2026-05-02 14:00 13.03 2020 21100 (2017) 40 (1951) 3080 40 62 496 651 2240 3800 4040 8230 10000
2026-05-02 13:30 13.01 2010 21100 (2017) 40 (1951) 3080 40 62 496 651 2240 3800 4040 8230 10000
2026-05-02 13:00 13.04 2020 21100 (2017) 40 (1951) 3080 40 62 496 651 2240 3800 4040 8230 10000
2026-05-02 12:30 13.02 2010 21100 (2017) 40 (1951) 3080 40 62 496 651 2240 3800 4040 8230 10000
2026-05-02 12:00 13.03 2020 21100 (2017) 40 (1951) 3080 40 62 496 651 2240 3800 4040 8230 10000
2026-05-02 11:30 13.05 2020 21100 (2017) 40 (1951) 3080 40 62 496 651 2240 3800 4040 8230 10000
2026-05-02 11:00 13.05 2020 21100 (2017) 40 (1951) 3080 40 62 496 651 2240 3800 4040 8230 10000
2026-05-02 10:30 13.04 2020 21100 (2017) 40 (1951) 3080 40 62 496 651 2240 3800 4040 8230 10000
2026-05-02 10:00 13.05 2020 21100 (2017) 40 (1951) 3080 40 62 496 651 2240 3800 4040 8230 10000
2026-05-02 09:30 13.03 2020 21100 (2017) 40 (1951) 3080 40 62 496 651 2240 3800 4040 8230 10000
2026-05-02 09:00 13.05 2020 21100 (2017) 40 (1951) 3080 40 62 496 651 2240 3800 4040 8230 10000
2026-05-02 08:30 13.05 2020 21100 (2017) 40 (1951) 3080 40 62 496 651 2240 3800 4040 8230 10000
2026-05-02 08:00 13.05 2020 21100 (2017) 40 (1951) 3080 40 62 496 651 2240 3800 4040 8230 10000
2026-05-02 07:30 13.06 2030 21100 (2017) 40 (1951) 3080 40 62 496 651 2240 3800 4040 8230 10000
2026-05-02 07:00 13.04 2020 21100 (2017) 40 (1951) 3080 40 62 496 651 2240 3800 4040 8230 10000
2026-05-02 06:30 13.06 2030 21100 (2017) 40 (1951) 3080 40 62 496 651 2240 3800 4040 8230 10000
2026-05-02 06:00 13.06 2030 21100 (2017) 40 (1951) 3080 40 62 496 651 2240 3800 4040 8230 10000
2026-05-02 05:30 13.06 2030 21100 (2017) 40 (1951) 3080 40 62 496 651 2240 3800 4040 8230 10000
2026-05-02 05:00 13.06 2030 21100 (2017) 40 (1951) 3080 40 62 496 651 2240 3800 4040 8230 10000
2026-05-02 04:30 13.05 2020 21100 (2017) 40 (1951) 3080 40 62 496 651 2240 3800 4040 8230 10000
2026-05-02 04:00 13.06 2030 21100 (2017) 40 (1951) 3080 40 62 496 651 2240 3800 4040 8230 10000
2026-05-02 03:30 13.05 2020 21100 (2017) 40 (1951) 3080 40 62 496 651 2240 3800 4040 8230 10000
2026-05-02 03:00 13.06 2030 21100 (2017) 40 (1951) 3080 40 62 496 651 2240 3800 4040 8230 10000
2026-05-02 02:30 13.06 2030 21100 (2017) 40 (1951) 3080 40 62 496 651 2240 3800 4040 8230 10000
2026-05-02 02:00 13.06 2030 21100 (2017) 40 (1951) 3080 40 62 496 651 2240 3800 4040 8230 10000
2026-05-02 01:30 13.07 2030 21100 (2017) 40 (1951) 3080 40 62 496 651 2240 3800 4040 8230 10000
2026-05-02 01:00 13.07 2030 21100 (2017) 40 (1951) 3080 40 62 496 651 2240 3800 4040 8230 10000
2026-05-02 00:30 13.05 2020 21100 (2017) 40 (1951) 3080 40 62 496 651 2240 3800 4040 8230 10000
2026-05-02 00:00 13.06 2030 21100 (2017) 40 (1951) 3080 40 62 496 651 2240 3800 4040 8230 10000
2026-05-01 23:30 13.05 2020 21100 (2017) 40 (1951) 3080 40 62 496 651 2240 3800 4040 8230 10000
2026-05-01 23:00 13.06 2030 21100 (2017) 40 (1951) 3080 40 62 496 651 2240 3800 4040 8230 10000
2026-05-01 22:30 13.06 2030 13600 (2017) 40 (1980) 2980 87 308 703 855 2080 3820 4070 7470 9910
2026-05-01 22:00 13.06 2030 13600 (2017) 40 (1980) 2980 87 308 703 855 2080 3820 4070 7470 9910
2026-05-01 21:30 13.06 2030 13600 (2017) 40 (1980) 2980 87 308 703 855 2080 3820 4070 7470 9910
2026-05-01 21:00 13.06 2030 13600 (2017) 40 (1980) 2980 87 308 703 855 2080 3820 4070 7470 9910
2026-05-01 20:30 13.06 2030 13600 (2017) 40 (1980) 2980 87 308 703 855 2080 3820 4070 7470 9910
2026-05-01 20:00 13.06 2030 13600 (2017) 40 (1980) 2980 87 308 703 855 2080 3820 4070 7470 9910
2026-05-01 19:30 13.07 2030 13600 (2017) 40 (1980) 2980 87 308 703 855 2080 3820 4070 7470 9910
2026-05-01 19:00 13.06 2030 13600 (2017) 40 (1980) 2980 87 308 703 855 2080 3820 4070 7470 9910
2026-05-01 18:30 13.07 2030 13600 (2017) 40 (1980) 2980 87 308 703 855 2080 3820 4070 7470 9910
2026-05-01 18:00 13.06 2030 13600 (2017) 40 (1980) 2980 87 308 703 855 2080 3820 4070 7470 9910
2026-05-01 17:30 13.08 2030 13600 (2017) 40 (1980) 2980 87 308 703 855 2080 3820 4070 7470 9910
2026-05-01 17:00 13.07 2030 13600 (2017) 40 (1980) 2980 87 308 703 855 2080 3820 4070 7470 9910
2026-05-01 16:30 13.06 2030 13600 (2017) 40 (1980) 2980 87 308 703 855 2080 3820 4070 7470 9910
2026-05-01 16:00 13.06 2030 13600 (2017) 40 (1980) 2980 87 308 703 855 2080 3820 4070 7470 9910
2026-05-01 15:30 13.06 2030 13600 (2017) 40 (1980) 2980 87 308 703 855 2080 3820 4070 7470 9910
2026-05-01 15:00 13.09 2030 13600 (2017) 40 (1980) 2980 87 308 703 855 2080 3820 4070 7470 9910
2026-05-01 14:30 13.07 2030 13600 (2017) 40 (1980) 2980 87 308 703 855 2080 3820 4070 7470 9910
2026-05-01 14:00 13.09 2030 13600 (2017) 40 (1980) 2980 87 308 703 855 2080 3820 4070 7470 9910
2026-05-01 13:30 13.08 2030 13600 (2017) 40 (1980) 2980 87 308 703 855 2080 3820 4070 7470 9910
2026-05-01 13:00 13.07 2030 13600 (2017) 40 (1980) 2980 87 308 703 855 2080 3820 4070 7470 9910
2026-05-01 12:30 13.09 2030 13600 (2017) 40 (1980) 2980 87 308 703 855 2080 3820 4070 7470 9910
2026-05-01 12:00 13.07 2030 13600 (2017) 40 (1980) 2980 87 308 703 855 2080 3820 4070 7470 9910
2026-05-01 11:30 13.08 2030 13600 (2017) 40 (1980) 2980 87 308 703 855 2080 3820 4070 7470 9910
2026-05-01 11:00 13.07 2030 13600 (2017) 40 (1980) 2980 87 308 703 855 2080 3820 4070 7470 9910
2026-05-01 10:30 13.08 2030 13600 (2017) 40 (1980) 2980 87 308 703 855 2080 3820 4070 7470 9910
2026-05-01 10:00 13.08 2030 13600 (2017) 40 (1980) 2980 87 308 703 855 2080 3820 4070 7470 9910
2026-05-01 09:30 13.08 2030 13600 (2017) 40 (1980) 2980 87 308 703 855 2080 3820 4070 7470 9910
2026-05-01 09:00 13.07 2030 13600 (2017) 40 (1980) 2980 87 308 703 855 2080 3820 4070 7470 9910
2026-05-01 08:30 13.07 2030 13600 (2017) 40 (1980) 2980 87 308 703 855 2080 3820 4070 7470 9910
2026-05-01 08:00 13.08 2030 13600 (2017) 40 (1980) 2980 87 308 703 855 2080 3820 4070 7470 9910
2026-05-01 07:30 13.09 2030 13600 (2017) 40 (1980) 2980 87 308 703 855 2080 3820 4070 7470 9910
2026-05-01 07:00 13.06 2030 13600 (2017) 40 (1980) 2980 87 308 703 855 2080 3820 4070 7470 9910
2026-05-01 06:30 13.08 2030 13600 (2017) 40 (1980) 2980 87 308 703 855 2080 3820 4070 7470 9910
2026-05-01 06:00 13.09 2030 13600 (2017) 40 (1980) 2980 87 308 703 855 2080 3820 4070 7470 9910
2026-05-01 05:30 13.09 2030 13600 (2017) 40 (1980) 2980 87 308 703 855 2080 3820 4070 7470 9910
2026-05-01 05:00 13.08 2030 13600 (2017) 40 (1980) 2980 87 308 703 855 2080 3820 4070 7470 9910
2026-05-01 04:30 13.09 2030 13600 (2017) 40 (1980) 2980 87 308 703 855 2080 3820 4070 7470 9910
2026-05-01 04:00 13.09 2030 13600 (2017) 40 (1980) 2980 87 308 703 855 2080 3820 4070 7470 9910
2026-05-01 03:30 13.09 2030 13600 (2017) 40 (1980) 2980 87 308 703 855 2080 3820 4070 7470 9910
2026-05-01 03:00 13.09 2030 13600 (2017) 40 (1980) 2980 87 308 703 855 2080 3820 4070 7470 9910
2026-05-01 02:30 13.08 2030 13600 (2017) 40 (1980) 2980 87 308 703 855 2080 3820 4070 7470 9910
2026-05-01 02:00 13.08 2030 13600 (2017) 40 (1980) 2980 87 308 703 855 2080 3820 4070 7470 9910
2026-05-01 01:30 13.08 2030 13600 (2017) 40 (1980) 2980 87 308 703 855 2080 3820 4070 7470 9910
2026-05-01 01:00 13.10 2040 13600 (2017) 40 (1980) 2980 87 308 703 855 2080 3820 4070 7470 9910
2026-05-01 00:30 13.10 2040 13600 (2017) 40 (1980) 2980 87 308 703 855 2080 3820 4070 7470 9910
2026-05-01 00:00 13.10 2040 13600 (2017) 40 (1980) 2980 87 308 703 855 2080 3820 4070 7470 9910
2026-04-30 23:30 13.10 2040 13600 (2017) 40 (1980) 2980 87 308 703 855 2080 3820 4070 7470 9910
2026-04-30 23:00 13.08 2030 13600 (2017) 40 (1980) 2980 87 308 703 855 2080 3820 4070 7470 9910
2026-04-30 22:30 13.08 2030 11000 (1945) 40 (1980) 3090 118 567 854 1130 2250 3860 4010 8300 9900
2026-04-30 22:00 13.10 2040 11000 (1945) 40 (1980) 3090 118 567 854 1130 2250 3860 4010 8300 9900
2026-04-30 21:30 13.08 2030 11000 (1945) 40 (1980) 3090 118 567 854 1130 2250 3860 4010 8300 9900
2026-04-30 21:00 13.10 2040 11000 (1945) 40 (1980) 3090 118 567 854 1130 2250 3860 4010 8300 9900
2026-04-30 20:30 13.09 2030 11000 (1945) 40 (1980) 3090 118 567 854 1130 2250 3860 4010 8300 9900
2026-04-30 20:00 13.09 2030 11000 (1945) 40 (1980) 3090 118 567 854 1130 2250 3860 4010 8300 9900
2026-04-30 19:30 13.09 2030 11000 (1945) 40 (1980) 3090 118 567 854 1130 2250 3860 4010 8300 9900
2026-04-30 19:00 13.09 2030 11000 (1945) 40 (1980) 3090 118 567 854 1130 2250 3860 4010 8300 9900
2026-04-30 18:30 13.10 2040 11000 (1945) 40 (1980) 3090 118 567 854 1130 2250 3860 4010 8300 9900
2026-04-30 18:00 13.10 2040 11000 (1945) 40 (1980) 3090 118 567 854 1130 2250 3860 4010 8300 9900
2026-04-30 17:30 13.10 2040 11000 (1945) 40 (1980) 3090 118 567 854 1130 2250 3860 4010 8300 9900
2026-04-30 17:00 13.09 2030 11000 (1945) 40 (1980) 3090 118 567 854 1130 2250 3860 4010 8300 9900
2026-04-30 16:30 13.09 2030 11000 (1945) 40 (1980) 3090 118 567 854 1130 2250 3860 4010 8300 9900
2026-04-30 16:00 13.09 2030 11000 (1945) 40 (1980) 3090 118 567 854 1130 2250 3860 4010 8300 9900
2026-04-30 15:30 13.10 2040 11000 (1945) 40 (1980) 3090 118 567 854 1130 2250 3860 4010 8300 9900
2026-04-30 15:00 13.10 2040 11000 (1945) 40 (1980) 3090 118 567 854 1130 2250 3860 4010 8300 9900
2026-04-30 14:30 13.10 2040 11000 (1945) 40 (1980) 3090 118 567 854 1130 2250 3860 4010 8300 9900
2026-04-30 14:00 13.10 2040 11000 (1945) 40 (1980) 3090 118 567 854 1130 2250 3860 4010 8300 9900
2026-04-30 13:30 13.09 2030 11000 (1945) 40 (1980) 3090 118 567 854 1130 2250 3860 4010 8300 9900
2026-04-30 13:00 13.11 2040 11000 (1945) 40 (1980) 3090 118 567 854 1130 2250 3860 4010 8300 9900
2026-04-30 12:30 13.11 2040 11000 (1945) 40 (1980) 3090 118 567 854 1130 2250 3860 4010 8300 9900
2026-04-30 12:00 13.12 2040 11000 (1945) 40 (1980) 3090 118 567 854 1130 2250 3860 4010 8300 9900
2026-04-30 11:30 13.12 2040 11000 (1945) 40 (1980) 3090 118 567 854 1130 2250 3860 4010 8300 9900
2026-04-30 11:00 13.12 2040 11000 (1945) 40 (1980) 3090 118 567 854 1130 2250 3860 4010 8300 9900
2026-04-30 10:30 13.10 2040 11000 (1945) 40 (1980) 3090 118 567 854 1130 2250 3860 4010 8300 9900
2026-04-30 10:00 13.12 2040 11000 (1945) 40 (1980) 3090 118 567 854 1130 2250 3860 4010 8300 9900
2026-04-30 09:30 13.11 2040 11000 (1945) 40 (1980) 3090 118 567 854 1130 2250 3860 4010 8300 9900
2026-04-30 09:00 13.13 2050 11000 (1945) 40 (1980) 3090 118 567 854 1130 2250 3860 4010 8300 9900
2026-04-30 08:30 13.13 2050 11000 (1945) 40 (1980) 3090 118 567 854 1130 2250 3860 4010 8300 9900
2026-04-30 08:00 13.13 2050 11000 (1945) 40 (1980) 3090 118 567 854 1130 2250 3860 4010 8300 9900
2026-04-30 07:30 13.12 2040 11000 (1945) 40 (1980) 3090 118 567 854 1130 2250 3860 4010 8300 9900
2026-04-30 07:00 13.13 2050 11000 (1945) 40 (1980) 3090 118 567 854 1130 2250 3860 4010 8300 9900
2026-04-30 06:30 13.13 2050 11000 (1945) 40 (1980) 3090 118 567 854 1130 2250 3860 4010 8300 9900
2026-04-30 06:00 13.13 2050 11000 (1945) 40 (1980) 3090 118 567 854 1130 2250 3860 4010 8300 9900
2026-04-30 05:30 13.13 2050 11000 (1945) 40 (1980) 3090 118 567 854 1130 2250 3860 4010 8300 9900
2026-04-30 05:00 13.14 2050 11000 (1945) 40 (1980) 3090 118 567 854 1130 2250 3860 4010 8300 9900
2026-04-30 04:30 13.14 2050 11000 (1945) 40 (1980) 3090 118 567 854 1130 2250 3860 4010 8300 9900
2026-04-30 04:00 13.14 2050 11000 (1945) 40 (1980) 3090 118 567 854 1130 2250 3860 4010 8300 9900
2026-04-30 03:30 13.13 2050 11000 (1945) 40 (1980) 3090 118 567 854 1130 2250 3860 4010 8300 9900
2026-04-30 03:00 13.15 2050 11000 (1945) 40 (1980) 3090 118 567 854 1130 2250 3860 4010 8300 9900
2026-04-30 02:30 13.15 2050 11000 (1945) 40 (1980) 3090 118 567 854 1130 2250 3860 4010 8300 9900
2026-04-30 02:00 13.15 2050 11000 (1945) 40 (1980) 3090 118 567 854 1130 2250 3860 4010 8300 9900
2026-04-30 01:30 13.15 2050 11000 (1945) 40 (1980) 3090 118 567 854 1130 2250 3860 4010 8300 9900
2026-04-30 01:00 13.15 2050 11000 (1945) 40 (1980) 3090 118 567 854 1130 2250 3860 4010 8300 9900
2026-04-30 00:30 13.15 2050 11000 (1945) 40 (1980) 3090 118 567 854 1130 2250 3860 4010 8300 9900
2026-04-30 00:00 13.16 2050 11000 (1945) 40 (1980) 3090 118 567 854 1130 2250 3860 4010 8300 9900
2026-04-29 23:30 13.16 2050 11000 (1945) 40 (1980) 3090 118 567 854 1130 2250 3860 4010 8300 9900
2026-04-29 23:00 13.17 2060 11000 (1945) 40 (1980) 3090 118 567 854 1130 2250 3860 4010 8300 9900
2026-04-29 22:30 13.15 2050 11000 (1945) 40 (1980) 3170 80 439 1050 1220 2280 3940 4490 8880 9940
2026-04-29 22:00 13.16 2050 11000 (1945) 40 (1980) 3170 80 439 1050 1220 2280 3940 4490 8880 9940
2026-04-29 21:30 13.16 2050 11000 (1945) 40 (1980) 3170 80 439 1050 1220 2280 3940 4490 8880 9940
2026-04-29 21:00 13.16 2050 11000 (1945) 40 (1980) 3170 80 439 1050 1220 2280 3940 4490 8880 9940
2026-04-29 20:30 13.16 2050 11000 (1945) 40 (1980) 3170 80 439 1050 1220 2280 3940 4490 8880 9940
2026-04-29 20:00 13.17 2060 11000 (1945) 40 (1980) 3170 80 439 1050 1220 2280 3940 4490 8880 9940
2026-04-29 19:30 13.17 2060 11000 (1945) 40 (1980) 3170 80 439 1050 1220 2280 3940 4490 8880 9940
2026-04-29 19:00 13.18 2060 11000 (1945) 40 (1980) 3170 80 439 1050 1220 2280 3940 4490 8880 9940
2026-04-29 18:30 13.18 2060 11000 (1945) 40 (1980) 3170 80 439 1050 1220 2280 3940 4490 8880 9940
2026-04-29 18:00 13.18 2060 11000 (1945) 40 (1980) 3170 80 439 1050 1220 2280 3940 4490 8880 9940
2026-04-29 17:30 13.19 2060 11000 (1945) 40 (1980) 3170 80 439 1050 1220 2280 3940 4490 8880 9940
2026-04-29 17:00 13.17 2060 11000 (1945) 40 (1980) 3170 80 439 1050 1220 2280 3940 4490 8880 9940
2026-04-29 16:30 13.19 2060 11000 (1945) 40 (1980) 3170 80 439 1050 1220 2280 3940 4490 8880 9940
2026-04-29 16:00 13.19 2060 11000 (1945) 40 (1980) 3170 80 439 1050 1220 2280 3940 4490 8880 9940
2026-04-29 15:30 13.20 2070 11000 (1945) 40 (1980) 3170 80 439 1050 1220 2280 3940 4490 8880 9940
2026-04-29 15:00 13.21 2070 11000 (1945) 40 (1980) 3170 80 439 1050 1220 2280 3940 4490 8880 9940
2026-04-29 14:30 13.21 2070 11000 (1945) 40 (1980) 3170 80 439 1050 1220 2280 3940 4490 8880 9940
2026-04-29 14:00 13.20 2070 11000 (1945) 40 (1980) 3170 80 439 1050 1220 2280 3940 4490 8880 9940
2026-04-29 13:30 13.21 2070 11000 (1945) 40 (1980) 3170 80 439 1050 1220 2280 3940 4490 8880 9940
2026-04-29 13:00 13.21 2070 11000 (1945) 40 (1980) 3170 80 439 1050 1220 2280 3940 4490 8880 9940
2026-04-29 12:30 13.22 2070 11000 (1945) 40 (1980) 3170 80 439 1050 1220 2280 3940 4490 8880 9940
2026-04-29 12:00 13.22 2070 11000 (1945) 40 (1980) 3170 80 439 1050 1220 2280 3940 4490 8880 9940
2026-04-29 11:30 13.23 2070 11000 (1945) 40 (1980) 3170 80 439 1050 1220 2280 3940 4490 8880 9940
2026-04-29 11:00 13.23 2070 11000 (1945) 40 (1980) 3170 80 439 1050 1220 2280 3940 4490 8880 9940
2026-04-29 10:30 13.24 2080 11000 (1945) 40 (1980) 3170 80 439 1050 1220 2280 3940 4490 8880 9940
2026-04-29 10:00 13.23 2070 11000 (1945) 40 (1980) 3170 80 439 1050 1220 2280 3940 4490 8880 9940
2026-04-29 09:30 13.25 2080 11000 (1945) 40 (1980) 3170 80 439 1050 1220 2280 3940 4490 8880 9940
2026-04-29 09:00 13.27 2090 11000 (1945) 40 (1980) 3170 80 439 1050 1220 2280 3940 4490 8880 9940
2026-04-29 08:30 13.25 2080 11000 (1945) 40 (1980) 3170 80 439 1050 1220 2280 3940 4490 8880 9940
2026-04-29 08:00 13.27 2090 11000 (1945) 40 (1980) 3170 80 439 1050 1220 2280 3940 4490 8880 9940
2026-04-29 07:30 13.27 2090 11000 (1945) 40 (1980) 3170 80 439 1050 1220 2280 3940 4490 8880 9940
2026-04-29 07:00 13.28 2090 11000 (1945) 40 (1980) 3170 80 439 1050 1220 2280 3940 4490 8880 9940
2026-04-29 06:30 13.27 2090 11000 (1945) 40 (1980) 3170 80 439 1050 1220 2280 3940 4490 8880 9940
2026-04-29 06:00 13.28 2090 11000 (1945) 40 (1980) 3170 80 439 1050 1220 2280 3940 4490 8880 9940
2026-04-29 05:30 13.28 2090 11000 (1945) 40 (1980) 3170 80 439 1050 1220 2280 3940 4490 8880 9940
2026-04-29 05:00 13.29 2090 11000 (1945) 40 (1980) 3170 80 439 1050 1220 2280 3940 4490 8880 9940
2026-04-29 04:30 13.28 2090 11000 (1945) 40 (1980) 3170 80 439 1050 1220 2280 3940 4490 8880 9940
2026-04-29 04:00 13.30 2090 11000 (1945) 40 (1980) 3170 80 439 1050 1220 2280 3940 4490 8880 9940
2026-04-29 03:30 13.30 2090 11000 (1945) 40 (1980) 3170 80 439 1050 1220 2280 3940 4490 8880 9940
2026-04-29 03:00 13.31 2100 11000 (1945) 40 (1980) 3170 80 439 1050 1220 2280 3940 4490 8880 9940
2026-04-29 02:30 13.30 2090 11000 (1945) 40 (1980) 3170 80 439 1050 1220 2280 3940 4490 8880 9940
2026-04-29 02:00 13.30 2090 11000 (1945) 40 (1980) 3170 80 439 1050 1220 2280 3940 4490 8880 9940
2026-04-29 01:30 13.30 2090 11000 (1945) 40 (1980) 3170 80 439 1050 1220 2280 3940 4490 8880 9940
2026-04-29 01:00 13.30 2090 11000 (1945) 40 (1980) 3170 80 439 1050 1220 2280 3940 4490 8880 9940
2026-04-29 00:30 13.30 2090 11000 (1945) 40 (1980) 3170 80 439 1050 1220 2280 3940 4490 8880 9940
2026-04-29 00:00 13.29 2090 11000 (1945) 40 (1980) 3170 80 439 1050 1220 2280 3940 4490 8880 9940
2026-04-28 23:30 13.29 2090 11000 (1945) 40 (1980) 3170 80 439 1050 1220 2280 3940 4490 8880 9940
2026-04-28 23:00 13.27 2090 11000 (1945) 40 (1980) 3170 80 439 1050 1220 2280 3940 4490 8880 9940
2026-04-28 22:30 13.27 2090 10800 (1945) 40 (1980) 3220 121 447 1000 1170 2420 3940 4700 8930 9750
2026-04-28 22:00 13.27 2090 10800 (1945) 40 (1980) 3220 121 447 1000 1170 2420 3940 4700 8930 9750
2026-04-28 21:30 13.26 2080 10800 (1945) 40 (1980) 3220 121 447 1000 1170 2420 3940 4700 8930 9750
2026-04-28 21:00 13.26 2080 10800 (1945) 40 (1980) 3220 121 447 1000 1170 2420 3940 4700 8930 9750
2026-04-28 20:30 13.27 2090 10800 (1945) 40 (1980) 3220 121 447 1000 1170 2420 3940 4700 8930 9750
2026-04-28 20:00 13.26 2080 10800 (1945) 40 (1980) 3220 121 447 1000 1170 2420 3940 4700 8930 9750
2026-04-28 19:30 13.25 2080 10800 (1945) 40 (1980) 3220 121 447 1000 1170 2420 3940 4700 8930 9750
2026-04-28 19:00 13.24 2080 10800 (1945) 40 (1980) 3220 121 447 1000 1170 2420 3940 4700 8930 9750
2026-04-28 18:30 13.20 2070 10800 (1945) 40 (1980) 3220 121 447 1000 1170 2420 3940 4700 8930 9750
2026-04-28 18:00 13.19 2060 10800 (1945) 40 (1980) 3220 121 447 1000 1170 2420 3940 4700 8930 9750
2026-04-28 17:30 13.10 2040 10800 (1945) 40 (1980) 3220 121 447 1000 1170 2420 3940 4700 8930 9750
2026-04-28 17:00 13.07 2030 10800 (1945) 40 (1980) 3220 121 447 1000 1170 2420 3940 4700 8930 9750
2026-04-28 16:30 13.09 2030 10800 (1945) 40 (1980) 3220 121 447 1000 1170 2420 3940 4700 8930 9750
2026-04-28 16:00 13.09 2030 10800 (1945) 40 (1980) 3220 121 447 1000 1170 2420 3940 4700 8930 9750
2026-04-28 15:30 13.10 2040 10800 (1945) 40 (1980) 3220 121 447 1000 1170 2420 3940 4700 8930 9750
2026-04-28 15:00 13.10 2040 10800 (1945) 40 (1980) 3220 121 447 1000 1170 2420 3940 4700 8930 9750
2026-04-28 14:30 13.09 2030 10800 (1945) 40 (1980) 3220 121 447 1000 1170 2420 3940 4700 8930 9750
2026-04-28 14:00 13.11 2040 10800 (1945) 40 (1980) 3220 121 447 1000 1170 2420 3940 4700 8930 9750
2026-04-28 13:30 13.10 2040 10800 (1945) 40 (1980) 3220 121 447 1000 1170 2420 3940 4700 8930 9750
2026-04-28 13:00 13.10 2040 10800 (1945) 40 (1980) 3220 121 447 1000 1170 2420 3940 4700 8930 9750
2026-04-28 12:30 13.11 2040 10800 (1945) 40 (1980) 3220 121 447 1000 1170 2420 3940 4700 8930 9750
2026-04-28 12:00 13.11 2040 10800 (1945) 40 (1980) 3220 121 447 1000 1170 2420 3940 4700 8930 9750
2026-04-28 11:30 13.11 2040 10800 (1945) 40 (1980) 3220 121 447 1000 1170 2420 3940 4700 8930 9750
2026-04-28 11:00 13.12 2040 10800 (1945) 40 (1980) 3220 121 447 1000 1170 2420 3940 4700 8930 9750
2026-04-28 10:30 13.12 2040 10800 (1945) 40 (1980) 3220 121 447 1000 1170 2420 3940 4700 8930 9750
2026-04-28 10:00 13.12 2040 10800 (1945) 40 (1980) 3220 121 447 1000 1170 2420 3940 4700 8930 9750
2026-04-28 09:30 13.12 2040 10800 (1945) 40 (1980) 3220 121 447 1000 1170 2420 3940 4700 8930 9750
2026-04-28 09:00 13.12 2040 10800 (1945) 40 (1980) 3220 121 447 1000 1170 2420 3940 4700 8930 9750
2026-04-28 08:30 13.12 2040 10800 (1945) 40 (1980) 3220 121 447 1000 1170 2420 3940 4700 8930 9750
2026-04-28 08:00 13.13 2050 10800 (1945) 40 (1980) 3220 121 447 1000 1170 2420 3940 4700 8930 9750
2026-04-28 07:30 13.13 2050 10800 (1945) 40 (1980) 3220 121 447 1000 1170 2420 3940 4700 8930 9750
2026-04-28 07:00 13.12 2040 10800 (1945) 40 (1980) 3220 121 447 1000 1170 2420 3940 4700 8930 9750
2026-04-28 06:30 13.12 2040 10800 (1945) 40 (1980) 3220 121 447 1000 1170 2420 3940 4700 8930 9750
2026-04-28 06:00 13.14 2050 10800 (1945) 40 (1980) 3220 121 447 1000 1170 2420 3940 4700 8930 9750
2026-04-28 05:30 13.13 2050 10800 (1945) 40 (1980) 3220 121 447 1000 1170 2420 3940 4700 8930 9750
2026-04-28 05:00 13.13 2050 10800 (1945) 40 (1980) 3220 121 447 1000 1170 2420 3940 4700 8930 9750
2026-04-28 04:30 13.14 2050 10800 (1945) 40 (1980) 3220 121 447 1000 1170 2420 3940 4700 8930 9750
2026-04-28 04:00 13.14 2050 10800 (1945) 40 (1980) 3220 121 447 1000 1170 2420 3940 4700 8930 9750
2026-04-28 03:30 13.13 2050 10800 (1945) 40 (1980) 3220 121 447 1000 1170 2420 3940 4700 8930 9750
2026-04-28 03:00 13.14 2050 10800 (1945) 40 (1980) 3220 121 447 1000 1170 2420 3940 4700 8930 9750
2026-04-28 02:30 13.13 2050 10800 (1945) 40 (1980) 3220 121 447 1000 1170 2420 3940 4700 8930 9750
2026-04-28 02:00 13.15 2050 10800 (1945) 40 (1980) 3220 121 447 1000 1170 2420 3940 4700 8930 9750
2026-04-28 01:30 13.13 2050 10800 (1945) 40 (1980) 3220 121 447 1000 1170 2420 3940 4700 8930 9750
2026-04-28 01:00 13.15 2050 10800 (1945) 40 (1980) 3220 121 447 1000 1170 2420 3940 4700 8930 9750
2026-04-28 00:30 13.14 2050 10800 (1945) 40 (1980) 3220 121 447 1000 1170 2420 3940 4700 8930 9750
2026-04-28 00:00 13.14 2050 10800 (1945) 40 (1980) 3220 121 447 1000 1170 2420 3940 4700 8930 9750
2026-04-27 23:30 13.13 2050 10800 (1945) 40 (1980) 3220 121 447 1000 1170 2420 3940 4700 8930 9750
2026-04-27 23:00 13.15 2050 10800 (1945) 40 (1980) 3220 121 447 1000 1170 2420 3940 4700 8930 9750
2026-04-27 22:00 13.15 2050 10600 (1945) 40 (1980) 3260 130 653 1050 1150 2460 3930 4540 9070 9960
2026-04-27 21:30 13.14 2050 10600 (1945) 40 (1980) 3260 130 653 1050 1150 2460 3930 4540 9070 9960
2026-04-27 21:00 13.16 2050 10600 (1945) 40 (1980) 3260 130 653 1050 1150 2460 3930 4540 9070 9960
2026-04-27 20:30 13.14 2050 10600 (1945) 40 (1980) 3260 130 653 1050 1150 2460 3930 4540 9070 9960
2026-04-27 20:00 13.15 2050 10600 (1945) 40 (1980) 3260 130 653 1050 1150 2460 3930 4540 9070 9960
2026-04-27 19:30 13.16 2050 10600 (1945) 40 (1980) 3260 130 653 1050 1150 2460 3930 4540 9070 9960
2026-04-27 19:00 13.15 2050 10600 (1945) 40 (1980) 3260 130 653 1050 1150 2460 3930 4540 9070 9960
2026-04-27 18:30 13.16 2050 10600 (1945) 40 (1980) 3260 130 653 1050 1150 2460 3930 4540 9070 9960
2026-04-27 18:00 13.17 2060 10600 (1945) 40 (1980) 3260 130 653 1050 1150 2460 3930 4540 9070 9960
2026-04-27 17:30 13.17 2060 10600 (1945) 40 (1980) 3260 130 653 1050 1150 2460 3930 4540 9070 9960
2026-04-27 17:00 13.18 2060 10600 (1945) 40 (1980) 3260 130 653 1050 1150 2460 3930 4540 9070 9960
2026-04-27 16:30 13.17 2060 10600 (1945) 40 (1980) 3260 130 653 1050 1150 2460 3930 4540 9070 9960
2026-04-27 16:00 13.17 2060 10600 (1945) 40 (1980) 3260 130 653 1050 1150 2460 3930 4540 9070 9960
2026-04-27 15:30 13.19 2060 10600 (1945) 40 (1980) 3260 130 653 1050 1150 2460 3930 4540 9070 9960
2026-04-27 15:00 13.18 2060 10600 (1945) 40 (1980) 3260 130 653 1050 1150 2460 3930 4540 9070 9960
2026-04-27 14:30 13.19 2060 10600 (1945) 40 (1980) 3260 130 653 1050 1150 2460 3930 4540 9070 9960
2026-04-27 14:00 13.18 2060 10600 (1945) 40 (1980) 3260 130 653 1050 1150 2460 3930 4540 9070 9960
2026-04-27 13:30 13.21 2070 10600 (1945) 40 (1980) 3260 130 653 1050 1150 2460 3930 4540 9070 9960
2026-04-27 13:00 13.20 2070 10600 (1945) 40 (1980) 3260 130 653 1050 1150 2460 3930 4540 9070 9960
2026-04-27 12:30 13.21 2070 10600 (1945) 40 (1980) 3260 130 653 1050 1150 2460 3930 4540 9070 9960
2026-04-27 12:00 13.20 2070 10600 (1945) 40 (1980) 3260 130 653 1050 1150 2460 3930 4540 9070 9960
2026-04-27 11:30 13.21 2070 10600 (1945) 40 (1980) 3260 130 653 1050 1150 2460 3930 4540 9070 9960
2026-04-27 11:00 13.24 2080 10600 (1945) 40 (1980) 3260 130 653 1050 1150 2460 3930 4540 9070 9960
2026-04-27 10:30 13.24 2080 10600 (1945) 40 (1980) 3260 130 653 1050 1150 2460 3930 4540 9070 9960
2026-04-27 10:00 13.23 2070 10600 (1945) 40 (1980) 3260 130 653 1050 1150 2460 3930 4540 9070 9960
2026-04-27 09:30 13.24 2080 10600 (1945) 40 (1980) 3260 130 653 1050 1150 2460 3930 4540 9070 9960
2026-04-27 09:00 13.24 2080 10600 (1945) 40 (1980) 3260 130 653 1050 1150 2460 3930 4540 9070 9960
2026-04-27 08:30 13.24 2080 10600 (1945) 40 (1980) 3260 130 653 1050 1150 2460 3930 4540 9070 9960
2026-04-27 08:00 13.26 2080 10600 (1945) 40 (1980) 3260 130 653 1050 1150 2460 3930 4540 9070 9960
2026-04-27 07:30 13.26 2080 10600 (1945) 40 (1980) 3260 130 653 1050 1150 2460 3930 4540 9070 9960
2026-04-27 07:00 13.27 2090 10600 (1945) 40 (1980) 3260 130 653 1050 1150 2460 3930 4540 9070 9960
2026-04-27 06:30 13.27 2090 10600 (1945) 40 (1980) 3260 130 653 1050 1150 2460 3930 4540 9070 9960
2026-04-27 06:00 13.28 2090 10600 (1945) 40 (1980) 3260 130 653 1050 1150 2460 3930 4540 9070 9960
2026-04-27 05:30 13.29 2090 10600 (1945) 40 (1980) 3260 130 653 1050 1150 2460 3930 4540 9070 9960
2026-04-27 05:00 13.29 2090 10600 (1945) 40 (1980) 3260 130 653 1050 1150 2460 3930 4540 9070 9960
2026-04-27 04:30 13.30 2090 10600 (1945) 40 (1980) 3260 130 653 1050 1150 2460 3930 4540 9070 9960
2026-04-27 04:00 13.30 2090 10600 (1945) 40 (1980) 3260 130 653 1050 1150 2460 3930 4540 9070 9960
2026-04-27 03:30 13.31 2100 10600 (1945) 40 (1980) 3260 130 653 1050 1150 2460 3930 4540 9070 9960
2026-04-27 03:00 13.33 2100 10600 (1945) 40 (1980) 3260 130 653 1050 1150 2460 3930 4540 9070 9960
2026-04-27 02:30 13.33 2100 10600 (1945) 40 (1980) 3260 130 653 1050 1150 2460 3930 4540 9070 9960
2026-04-27 02:00 13.33 2100 10600 (1945) 40 (1980) 3260 130 653 1050 1150 2460 3930 4540 9070 9960
2026-04-27 01:30 13.35 2110 10600 (1945) 40 (1980) 3260 130 653 1050 1150 2460 3930 4540 9070 9960
2026-04-27 01:00 13.36 2110 10600 (1945) 40 (1980) 3260 130 653 1050 1150 2460 3930 4540 9070 9960
2026-04-27 00:30 13.37 2110 10600 (1945) 40 (1980) 3260 130 653 1050 1150 2460 3930 4540 9070 9960
2026-04-27 00:00 13.38 2120 10600 (1945) 40 (1980) 3260 130 653 1050 1150 2460 3930 4540 9070 9960
2026-04-26 23:30 13.40 2120 10600 (1945) 40 (1980) 3260 130 653 1050 1150 2460 3930 4540 9070 9960
2026-04-26 23:00 13.41 2130 10600 (1945) 40 (1980) 3260 130 653 1050 1150 2460 3930 4540 9070 9960
2026-04-26 22:30 13.42 2130 10600 (1945) 40 (1980) 3250 201 631 948 1130 2510 3870 4590 9050 9870
2026-04-26 22:00 13.43 2130 10600 (1945) 40 (1980) 3250 201 631 948 1130 2510 3870 4590 9050 9870
2026-04-26 21:30 13.46 2140 10600 (1945) 40 (1980) 3250 201 631 948 1130 2510 3870 4590 9050 9870
2026-04-26 21:00 13.47 2140 10600 (1945) 40 (1980) 3250 201 631 948 1130 2510 3870 4590 9050 9870
2026-04-26 20:30 13.49 2150 10600 (1945) 40 (1980) 3250 201 631 948 1130 2510 3870 4590 9050 9870
2026-04-26 20:00 13.50 2150 10600 (1945) 40 (1980) 3250 201 631 948 1130 2510 3870 4590 9050 9870
2026-04-26 19:30 13.53 2160 10600 (1945) 40 (1980) 3250 201 631 948 1130 2510 3870 4590 9050 9870
2026-04-26 19:00 13.53 2160 10600 (1945) 40 (1980) 3250 201 631 948 1130 2510 3870 4590 9050 9870
2026-04-26 18:30 13.57 2170 10600 (1945) 40 (1980) 3250 201 631 948 1130 2510 3870 4590 9050 9870
2026-04-26 18:00 13.59 2180 10600 (1945) 40 (1980) 3250 201 631 948 1130 2510 3870 4590 9050 9870
2026-04-26 17:30 13.62 2190 10600 (1945) 40 (1980) 3250 201 631 948 1130 2510 3870 4590 9050 9870
2026-04-26 17:00 13.65 2200 10600 (1945) 40 (1980) 3250 201 631 948 1130 2510 3870 4590 9050 9870
2026-04-26 16:30 13.68 2210 10600 (1945) 40 (1980) 3250 201 631 948 1130 2510 3870 4590 9050 9870
2026-04-26 16:00 13.71 2210 10600 (1945) 40 (1980) 3250 201 631 948 1130 2510 3870 4590 9050 9870
2026-04-26 15:30 13.75 2230 10600 (1945) 40 (1980) 3250 201 631 948 1130 2510 3870 4590 9050 9870
2026-04-26 15:00 13.77 2230 10600 (1945) 40 (1980) 3250 201 631 948 1130 2510 3870 4590 9050 9870
2026-04-26 14:30 13.83 2250 10600 (1945) 40 (1980) 3250 201 631 948 1130 2510 3870 4590 9050 9870
2026-04-26 14:00 13.88 2260 10600 (1945) 40 (1980) 3250 201 631 948 1130 2510 3870 4590 9050 9870
2026-04-26 13:30 13.91 2270 10600 (1945) 40 (1980) 3250 201 631 948 1130 2510 3870 4590 9050 9870
2026-04-26 13:00 13.97 2290 10600 (1945) 40 (1980) 3250 201 631 948 1130 2510 3870 4590 9050 9870
2026-04-26 12:30 14.03 2310 10600 (1945) 40 (1980) 3250 201 631 948 1130 2510 3870 4590 9050 9870
2026-04-26 12:00 14.10 2330 10600 (1945) 40 (1980) 3250 201 631 948 1130 2510 3870 4590 9050 9870
2026-04-26 11:30 14.17 2350 10600 (1945) 40 (1980) 3250 201 631 948 1130 2510 3870 4590 9050 9870
2026-04-26 11:00 14.25 2370 10600 (1945) 40 (1980) 3250 201 631 948 1130 2510 3870 4590 9050 9870
2026-04-26 10:30 14.36 2410 10600 (1945) 40 (1980) 3250 201 631 948 1130 2510 3870 4590 9050 9870
2026-04-26 10:00 14.47 2440 10600 (1945) 40 (1980) 3250 201 631 948 1130 2510 3870 4590 9050 9870
2026-04-26 09:30 14.70 2510 10600 (1945) 40 (1980) 3250 201 631 948 1130 2510 3870 4590 9050 9870
2026-04-26 09:00 14.72 2520 10600 (1945) 40 (1980) 3250 201 631 948 1130 2510 3870 4590 9050 9870
2026-04-26 08:30 14.71 2510 10600 (1945) 40 (1980) 3250 201 631 948 1130 2510 3870 4590 9050 9870
2026-04-26 08:00 14.71 2510 10600 (1945) 40 (1980) 3250 201 631 948 1130 2510 3870 4590 9050 9870
2026-04-26 07:30 14.72 2520 10600 (1945) 40 (1980) 3250 201 631 948 1130 2510 3870 4590 9050 9870
2026-04-26 07:00 14.75 2530 10600 (1945) 40 (1980) 3250 201 631 948 1130 2510 3870 4590 9050 9870
2026-04-26 06:30 14.74 2520 10600 (1945) 40 (1980) 3250 201 631 948 1130 2510 3870 4590 9050 9870
2026-04-26 06:00 14.75 2530 10600 (1945) 40 (1980) 3250 201 631 948 1130 2510 3870 4590 9050 9870
2026-04-26 05:30 14.76 2530 10600 (1945) 40 (1980) 3250 201 631 948 1130 2510 3870 4590 9050 9870
2026-04-26 05:00 14.76 2530 10600 (1945) 40 (1980) 3250 201 631 948 1130 2510 3870 4590 9050 9870
2026-04-26 04:30 14.77 2530 10600 (1945) 40 (1980) 3250 201 631 948 1130 2510 3870 4590 9050 9870
2026-04-26 04:00 14.77 2530 10600 (1945) 40 (1980) 3250 201 631 948 1130 2510 3870 4590 9050 9870
2026-04-26 03:30 14.78 2530 10600 (1945) 40 (1980) 3250 201 631 948 1130 2510 3870 4590 9050 9870
2026-04-26 03:00 14.79 2540 10600 (1945) 40 (1980) 3250 201 631 948 1130 2510 3870 4590 9050 9870
2026-04-26 02:30 14.81 2540 10600 (1945) 40 (1980) 3250 201 631 948 1130 2510 3870 4590 9050 9870
2026-04-26 02:00 14.82 2550 10600 (1945) 40 (1980) 3250 201 631 948 1130 2510 3870 4590 9050 9870
2026-04-26 01:30 14.81 2540 10600 (1945) 40 (1980) 3250 201 631 948 1130 2510 3870 4590 9050 9870
2026-04-26 01:00 14.85 2560 10600 (1945) 40 (1980) 3250 201 631 948 1130 2510 3870 4590 9050 9870
2026-04-26 00:30 14.86 2560 10600 (1945) 40 (1980) 3250 201 631 948 1130 2510 3870 4590 9050 9870
2026-04-26 00:00 14.87 2560 10600 (1945) 40 (1980) 3250 201 631 948 1130 2510 3870 4590 9050 9870
2026-04-25 23:30 14.88 2570 10600 (1945) 40 (1980) 3250 201 631 948 1130 2510 3870 4590 9050 9870
2026-04-25 23:00 14.91 2570 10600 (1945) 40 (1980) 3250 201 631 948 1130 2510 3870 4590 9050 9870
2026-04-25 22:30 14.92 2580 10800 (1945) 82 (2006) 3140 209 540 973 1030 2650 3860 4400 8270 9780
2026-04-25 22:00 14.93 2580 10800 (1945) 82 (2006) 3140 209 540 973 1030 2650 3860 4400 8270 9780
2026-04-25 21:30 14.95 2590 10800 (1945) 82 (2006) 3140 209 540 973 1030 2650 3860 4400 8270 9780
2026-04-25 21:00 14.97 2590 10800 (1945) 82 (2006) 3140 209 540 973 1030 2650 3860 4400 8270 9780
2026-04-25 20:30 14.99 2600 10800 (1945) 82 (2006) 3140 209 540 973 1030 2650 3860 4400 8270 9780
2026-04-25 20:00 15.01 2610 10800 (1945) 82 (2006) 3140 209 540 973 1030 2650 3860 4400 8270 9780
2026-04-25 19:30 15.05 2620 10800 (1945) 82 (2006) 3140 209 540 973 1030 2650 3860 4400 8270 9780
2026-04-25 19:00 15.05 2620 10800 (1945) 82 (2006) 3140 209 540 973 1030 2650 3860 4400 8270 9780
2026-04-25 18:30 15.09 2630 10800 (1945) 82 (2006) 3140 209 540 973 1030 2650 3860 4400 8270 9780
2026-04-25 18:00 15.12 2640 10800 (1945) 82 (2006) 3140 209 540 973 1030 2650 3860 4400 8270 9780
2026-04-25 17:30 15.13 2640 10800 (1945) 82 (2006) 3140 209 540 973 1030 2650 3860 4400 8270 9780
2026-04-25 17:00 15.18 2660 10800 (1945) 82 (2006) 3140 209 540 973 1030 2650 3860 4400 8270 9780
2026-04-25 16:30 15.22 2670 10800 (1945) 82 (2006) 3140 209 540 973 1030 2650 3860 4400 8270 9780
2026-04-25 16:00 15.26 2680 10800 (1945) 82 (2006) 3140 209 540 973 1030 2650 3860 4400 8270 9780
2026-04-25 15:30 15.30 2700 10800 (1945) 82 (2006) 3140 209 540 973 1030 2650 3860 4400 8270 9780
2026-04-25 15:00 15.35 2710 10800 (1945) 82 (2006) 3140 209 540 973 1030 2650 3860 4400 8270 9780
2026-04-25 14:30 15.39 2720 10800 (1945) 82 (2006) 3140 209 540 973 1030 2650 3860 4400 8270 9780
2026-04-25 14:00 15.44 2740 10800 (1945) 82 (2006) 3140 209 540 973 1030 2650 3860 4400 8270 9780
2026-04-25 13:30 15.50 2760 10800 (1945) 82 (2006) 3140 209 540 973 1030 2650 3860 4400 8270 9780
2026-04-25 13:00 15.56 2780 10800 (1945) 82 (2006) 3140 209 540 973 1030 2650 3860 4400 8270 9780
2026-04-25 12:30 15.63 2800 10800 (1945) 82 (2006) 3140 209 540 973 1030 2650 3860 4400 8270 9780
2026-04-25 12:00 15.72 2830 10800 (1945) 82 (2006) 3140 209 540 973 1030 2650 3860 4400 8270 9780
2026-04-25 11:30 15.81 2860 10800 (1945) 82 (2006) 3140 209 540 973 1030 2650 3860 4400 8270 9780
2026-04-25 11:00 15.93 2890 10800 (1945) 82 (2006) 3140 209 540 973 1030 2650 3860 4400 8270 9780
2026-04-25 10:30 16.06 2940 10800 (1945) 82 (2006) 3140 209 540 973 1030 2650 3860 4400 8270 9780
2026-04-25 10:00 16.24 2990 10800 (1945) 82 (2006) 3140 209 540 973 1030 2650 3860 4400 8270 9780
2026-04-25 09:30 16.23 2990 10800 (1945) 82 (2006) 3140 209 540 973 1030 2650 3860 4400 8270 9780
2026-04-25 09:00 16.24 2990 10800 (1945) 82 (2006) 3140 209 540 973 1030 2650 3860 4400 8270 9780
2026-04-25 08:30 16.23 2990 10800 (1945) 82 (2006) 3140 209 540 973 1030 2650 3860 4400 8270 9780
2026-04-25 08:00 16.25 3000 10800 (1945) 82 (2006) 3140 209 540 973 1030 2650 3860 4400 8270 9780
2026-04-25 07:30 16.24 2990 10800 (1945) 82 (2006) 3140 209 540 973 1030 2650 3860 4400 8270 9780
2026-04-25 07:00 16.25 3000 10800 (1945) 82 (2006) 3140 209 540 973 1030 2650 3860 4400 8270 9780
2026-04-25 06:30 16.24 2990 10800 (1945) 82 (2006) 3140 209 540 973 1030 2650 3860 4400 8270 9780
2026-04-25 06:00 16.26 3000 10800 (1945) 82 (2006) 3140 209 540 973 1030 2650 3860 4400 8270 9780
2026-04-25 05:30 16.26 3000 10800 (1945) 82 (2006) 3140 209 540 973 1030 2650 3860 4400 8270 9780
2026-04-25 05:00 16.27 3000 10800 (1945) 82 (2006) 3140 209 540 973 1030 2650 3860 4400 8270 9780
2026-04-25 04:30 16.27 3000 10800 (1945) 82 (2006) 3140 209 540 973 1030 2650 3860 4400 8270 9780
2026-04-25 04:00 16.26 3000 10800 (1945) 82 (2006) 3140 209 540 973 1030 2650 3860 4400 8270 9780
2026-04-25 03:30 16.27 3000 10800 (1945) 82 (2006) 3140 209 540 973 1030 2650 3860 4400 8270 9780
2026-04-25 03:00 16.26 3000 10800 (1945) 82 (2006) 3140 209 540 973 1030 2650 3860 4400 8270 9780
2026-04-25 02:30 16.28 3010 10800 (1945) 82 (2006) 3140 209 540 973 1030 2650 3860 4400 8270 9780
2026-04-25 02:00 16.27 3000 10800 (1945) 82 (2006) 3140 209 540 973 1030 2650 3860 4400 8270 9780
2026-04-25 01:30 16.27 3000 10800 (1945) 82 (2006) 3140 209 540 973 1030 2650 3860 4400 8270 9780
2026-04-25 01:00 16.27 3000 10800 (1945) 82 (2006) 3140 209 540 973 1030 2650 3860 4400 8270 9780
2026-04-25 00:30 16.24 2990 10800 (1945) 82 (2006) 3140 209 540 973 1030 2650 3860 4400 8270 9780
2026-04-25 00:00 16.26 3000 10800 (1945) 82 (2006) 3140 209 540 973 1030 2650 3860 4400 8270 9780
2026-04-24 23:30 16.28 3010 10800 (1945) 82 (2006) 3140 209 540 973 1030 2650 3860 4400 8270 9780
2026-04-24 23:00 16.28 3010 10800 (1945) 82 (2006) 3140 209 540 973 1030 2650 3860 4400 8270 9780
2026-04-24 22:30 16.27 3000 10800 (1945) 84 (2006) 3100 266 480 946 1080 2520 3790 4160 8150 9520
2026-04-24 22:00 16.28 3010 10800 (1945) 84 (2006) 3100 266 480 946 1080 2520 3790 4160 8150 9520
2026-04-24 21:30 16.28 3010 10800 (1945) 84 (2006) 3100 266 480 946 1080 2520 3790 4160 8150 9520
2026-04-24 21:00 16.30 3010 10800 (1945) 84 (2006) 3100 266 480 946 1080 2520 3790 4160 8150 9520
2026-04-24 20:30 16.28 3010 10800 (1945) 84 (2006) 3100 266 480 946 1080 2520 3790 4160 8150 9520
2026-04-24 20:00 16.28 3010 10800 (1945) 84 (2006) 3100 266 480 946 1080 2520 3790 4160 8150 9520
2026-04-24 19:30 16.29 3010 10800 (1945) 84 (2006) 3100 266 480 946 1080 2520 3790 4160 8150 9520
2026-04-24 19:00 16.30 3010 10800 (1945) 84 (2006) 3100 266 480 946 1080 2520 3790 4160 8150 9520
2026-04-24 18:30 16.30 3010 10800 (1945) 84 (2006) 3100 266 480 946 1080 2520 3790 4160 8150 9520
2026-04-24 18:00 16.30 3010 10800 (1945) 84 (2006) 3100 266 480 946 1080 2520 3790 4160 8150 9520
2026-04-24 17:30 16.31 3020 10800 (1945) 84 (2006) 3100 266 480 946 1080 2520 3790 4160 8150 9520
2026-04-24 17:00 16.32 3020 10800 (1945) 84 (2006) 3100 266 480 946 1080 2520 3790 4160 8150 9520
2026-04-24 16:30 16.30 3010 10800 (1945) 84 (2006) 3100 266 480 946 1080 2520 3790 4160 8150 9520
2026-04-24 16:00 16.32 3020 10800 (1945) 84 (2006) 3100 266 480 946 1080 2520 3790 4160 8150 9520
2026-04-24 15:30 16.31 3020 10800 (1945) 84 (2006) 3100 266 480 946 1080 2520 3790 4160 8150 9520
2026-04-24 15:00 16.32 3020 10800 (1945) 84 (2006) 3100 266 480 946 1080 2520 3790 4160 8150 9520
2026-04-24 14:30 16.33 3020 10800 (1945) 84 (2006) 3100 266 480 946 1080 2520 3790 4160 8150 9520
2026-04-24 14:00 16.34 3030 10800 (1945) 84 (2006) 3100 266 480 946 1080 2520 3790 4160 8150 9520
2026-04-24 13:30 16.33 3020 10800 (1945) 84 (2006) 3100 266 480 946 1080 2520 3790 4160 8150 9520
2026-04-24 13:00 16.32 3020 10800 (1945) 84 (2006) 3100 266 480 946 1080 2520 3790 4160 8150 9520
2026-04-24 12:30 16.33 3020 10800 (1945) 84 (2006) 3100 266 480 946 1080 2520 3790 4160 8150 9520
2026-04-24 12:00 16.34 3030 10800 (1945) 84 (2006) 3100 266 480 946 1080 2520 3790 4160 8150 9520
2026-04-24 11:30 16.33 3020 10800 (1945) 84 (2006) 3100 266 480 946 1080 2520 3790 4160 8150 9520
2026-04-24 11:00 16.34 3030 10800 (1945) 84 (2006) 3100 266 480 946 1080 2520 3790 4160 8150 9520
2026-04-24 10:30 16.34 3030 10800 (1945) 84 (2006) 3100 266 480 946 1080 2520 3790 4160 8150 9520
2026-04-24 10:00 16.31 3020 10800 (1945) 84 (2006) 3100 266 480 946 1080 2520 3790 4160 8150 9520
2026-04-24 09:30 16.32 3020 10800 (1945) 84 (2006) 3100 266 480 946 1080 2520 3790 4160 8150 9520
2026-04-24 09:00 16.31 3020 10800 (1945) 84 (2006) 3100 266 480 946 1080 2520 3790 4160 8150 9520
2026-04-24 08:30 16.31 3020 10800 (1945) 84 (2006) 3100 266 480 946 1080 2520 3790 4160 8150 9520
2026-04-24 08:00 16.29 3010 10800 (1945) 84 (2006) 3100 266 480 946 1080 2520 3790 4160 8150 9520
2026-04-24 07:30 16.29 3010 10800 (1945) 84 (2006) 3100 266 480 946 1080 2520 3790 4160 8150 9520
2026-04-24 07:00 16.27 3000 10800 (1945) 84 (2006) 3100 266 480 946 1080 2520 3790 4160 8150 9520
2026-04-24 06:30 16.28 3010 10800 (1945) 84 (2006) 3100 266 480 946 1080 2520 3790 4160 8150 9520
2026-04-24 06:00 16.27 3000 10800 (1945) 84 (2006) 3100 266 480 946 1080 2520 3790 4160 8150 9520
2026-04-24 05:30 16.29 3010 10800 (1945) 84 (2006) 3100 266 480 946 1080 2520 3790 4160 8150 9520
2026-04-24 05:00 16.29 3010 10800 (1945) 84 (2006) 3100 266 480 946 1080 2520 3790 4160 8150 9520
2026-04-24 04:30 16.28 3010 10800 (1945) 84 (2006) 3100 266 480 946 1080 2520 3790 4160 8150 9520
2026-04-24 04:00 16.28 3010 10800 (1945) 84 (2006) 3100 266 480 946 1080 2520 3790 4160 8150 9520
2026-04-24 03:30 16.30 3010 10800 (1945) 84 (2006) 3100 266 480 946 1080 2520 3790 4160 8150 9520
2026-04-24 03:00 16.29 3010 10800 (1945) 84 (2006) 3100 266 480 946 1080 2520 3790 4160 8150 9520
2026-04-24 02:30 16.29 3010 10800 (1945) 84 (2006) 3100 266 480 946 1080 2520 3790 4160 8150 9520
2026-04-24 02:00 16.29 3010 10800 (1945) 84 (2006) 3100 266 480 946 1080 2520 3790 4160 8150 9520
2026-04-24 01:30 16.29 3010 10800 (1945) 84 (2006) 3100 266 480 946 1080 2520 3790 4160 8150 9520
2026-04-24 01:00 16.29 3010 10800 (1945) 84 (2006) 3100 266 480 946 1080 2520 3790 4160 8150 9520
2026-04-24 00:30 16.28 3010 10800 (1945) 84 (2006) 3100 266 480 946 1080 2520 3790 4160 8150 9520
2026-04-24 00:00 16.28 3010 10800 (1945) 84 (2006) 3100 266 480 946 1080 2520 3790 4160 8150 9520
2026-04-23 23:30 16.29 3010 10800 (1945) 84 (2006) 3100 266 480 946 1080 2520 3790 4160 8150 9520
2026-04-23 23:00 16.29 3010 10800 (1945) 84 (2006) 3100 266 480 946 1080 2520 3790 4160 8150 9520
2026-04-23 22:30 16.29 3010 10800 (1945) 40 (1981) 3030 207 556 988 1120 2170 3810 4150 8090 9740
2026-04-23 22:00 16.29 3010 10800 (1945) 40 (1981) 3030 207 556 988 1120 2170 3810 4150 8090 9740
2026-04-23 21:30 16.29 3010 10800 (1945) 40 (1981) 3030 207 556 988 1120 2170 3810 4150 8090 9740
2026-04-23 21:00 16.29 3010 10800 (1945) 40 (1981) 3030 207 556 988 1120 2170 3810 4150 8090 9740
2026-04-23 20:30 16.29 3010 10800 (1945) 40 (1981) 3030 207 556 988 1120 2170 3810 4150 8090 9740
2026-04-23 20:00 16.28 3010 10800 (1945) 40 (1981) 3030 207 556 988 1120 2170 3810 4150 8090 9740
2026-04-23 19:30 16.28 3010 10800 (1945) 40 (1981) 3030 207 556 988 1120 2170 3810 4150 8090 9740
2026-04-23 19:00 16.28 3010 10800 (1945) 40 (1981) 3030 207 556 988 1120 2170 3810 4150 8090 9740
2026-04-23 18:30 16.29 3010 10800 (1945) 40 (1981) 3030 207 556 988 1120 2170 3810 4150 8090 9740
2026-04-23 18:00 16.29 3010 10800 (1945) 40 (1981) 3030 207 556 988 1120 2170 3810 4150 8090 9740
2026-04-23 17:30 16.27 3000 10800 (1945) 40 (1981) 3030 207 556 988 1120 2170 3810 4150 8090 9740
2026-04-23 17:00 16.29 3010 10800 (1945) 40 (1981) 3030 207 556 988 1120 2170 3810 4150 8090 9740
2026-04-23 16:30 16.28 3010 10800 (1945) 40 (1981) 3030 207 556 988 1120 2170 3810 4150 8090 9740
2026-04-23 16:00 16.29 3010 10800 (1945) 40 (1981) 3030 207 556 988 1120 2170 3810 4150 8090 9740
2026-04-23 15:30 16.28 3010 10800 (1945) 40 (1981) 3030 207 556 988 1120 2170 3810 4150 8090 9740
2026-04-23 15:00 16.27 3000 10800 (1945) 40 (1981) 3030 207 556 988 1120 2170 3810 4150 8090 9740
2026-04-23 14:30 16.29 3010 10800 (1945) 40 (1981) 3030 207 556 988 1120 2170 3810 4150 8090 9740
2026-04-23 14:00 16.27 3000 10800 (1945) 40 (1981) 3030 207 556 988 1120 2170 3810 4150 8090 9740
2026-04-23 13:30 16.27 3000 10800 (1945) 40 (1981) 3030 207 556 988 1120 2170 3810 4150 8090 9740
2026-04-23 13:00 16.25 3000 10800 (1945) 40 (1981) 3030 207 556 988 1120 2170 3810 4150 8090 9740
2026-04-23 12:30 16.28 3010 10800 (1945) 40 (1981) 3030 207 556 988 1120 2170 3810 4150 8090 9740
2026-04-23 12:00 16.27 3000 10800 (1945) 40 (1981) 3030 207 556 988 1120 2170 3810 4150 8090 9740
2026-04-23 11:30 16.30 3010 10800 (1945) 40 (1981) 3030 207 556 988 1120 2170 3810 4150 8090 9740
2026-04-23 11:00 16.26 3000 10800 (1945) 40 (1981) 3030 207 556 988 1120 2170 3810 4150 8090 9740
2026-04-23 10:30 16.26 3000 10800 (1945) 40 (1981) 3030 207 556 988 1120 2170 3810 4150 8090 9740
2026-04-23 10:00 16.27 3000 10800 (1945) 40 (1981) 3030 207 556 988 1120 2170 3810 4150 8090 9740
2026-04-23 09:30 16.26 3000 10800 (1945) 40 (1981) 3030 207 556 988 1120 2170 3810 4150 8090 9740
2026-04-23 09:00 16.25 3000 10800 (1945) 40 (1981) 3030 207 556 988 1120 2170 3810 4150 8090 9740
2026-04-23 08:30 16.25 3000 10800 (1945) 40 (1981) 3030 207 556 988 1120 2170 3810 4150 8090 9740
2026-04-23 08:00 16.26 3000 10800 (1945) 40 (1981) 3030 207 556 988 1120 2170 3810 4150 8090 9740
2026-04-23 07:30 16.26 3000 10800 (1945) 40 (1981) 3030 207 556 988 1120 2170 3810 4150 8090 9740
2026-04-23 07:00 16.25 3000 10800 (1945) 40 (1981) 3030 207 556 988 1120 2170 3810 4150 8090 9740
2026-04-23 06:30 16.24 2990 10800 (1945) 40 (1981) 3030 207 556 988 1120 2170 3810 4150 8090 9740
2026-04-23 06:00 16.24 2990 10800 (1945) 40 (1981) 3030 207 556 988 1120 2170 3810 4150 8090 9740
2026-04-23 05:30 16.22 2990 10800 (1945) 40 (1981) 3030 207 556 988 1120 2170 3810 4150 8090 9740
2026-04-23 05:00 16.23 2990 10800 (1945) 40 (1981) 3030 207 556 988 1120 2170 3810 4150 8090 9740
2026-04-23 04:30 16.23 2990 10800 (1945) 40 (1981) 3030 207 556 988 1120 2170 3810 4150 8090 9740
2026-04-23 04:00 16.20 2980 10800 (1945) 40 (1981) 3030 207 556 988 1120 2170 3810 4150 8090 9740
2026-04-23 03:30 16.19 2980 10800 (1945) 40 (1981) 3030 207 556 988 1120 2170 3810 4150 8090 9740
2026-04-23 03:00 16.19 2980 10800 (1945) 40 (1981) 3030 207 556 988 1120 2170 3810 4150 8090 9740
2026-04-23 02:30 16.17 2970 10800 (1945) 40 (1981) 3030 207 556 988 1120 2170 3810 4150 8090 9740
2026-04-23 02:00 16.16 2970 10800 (1945) 40 (1981) 3030 207 556 988 1120 2170 3810 4150 8090 9740
2026-04-23 01:30 16.15 2970 10800 (1945) 40 (1981) 3030 207 556 988 1120 2170 3810 4150 8090 9740
2026-04-23 01:00 16.13 2960 10800 (1945) 40 (1981) 3030 207 556 988 1120 2170 3810 4150 8090 9740
2026-04-23 00:30 16.12 2960 10800 (1945) 40 (1981) 3030 207 556 988 1120 2170 3810 4150 8090 9740
2026-04-23 00:00 16.12 2960 10800 (1945) 40 (1981) 3030 207 556 988 1120 2170 3810 4150 8090 9740
2026-04-22 23:30 16.08 2940 10800 (1945) 40 (1981) 3030 207 556 988 1120 2170 3810 4150 8090 9740
2026-04-22 23:00 16.08 2940 10800 (1945) 40 (1981) 3030 207 556 988 1120 2170 3810 4150 8090 9740
2026-04-22 22:30 16.05 2930 11000 (1945) 40 (1981) 2940 194 469 971 1110 2070 3770 3910 8140 8970
2026-04-22 22:00 16.03 2930 11000 (1945) 40 (1981) 2940 194 469 971 1110 2070 3770 3910 8140 8970
2026-04-22 21:30 15.99 2910 11000 (1945) 40 (1981) 2940 194 469 971 1110 2070 3770 3910 8140 8970
2026-04-22 21:00 15.98 2910 11000 (1945) 40 (1981) 2940 194 469 971 1110 2070 3770 3910 8140 8970
2026-04-22 20:30 15.94 2900 11000 (1945) 40 (1981) 2940 194 469 971 1110 2070 3770 3910 8140 8970
2026-04-22 20:00 15.89 2880 11000 (1945) 40 (1981) 2940 194 469 971 1110 2070 3770 3910 8140 8970
2026-04-22 19:30 15.85 2870 11000 (1945) 40 (1981) 2940 194 469 971 1110 2070 3770 3910 8140 8970
2026-04-22 19:00 15.79 2850 11000 (1945) 40 (1981) 2940 194 469 971 1110 2070 3770 3910 8140 8970
2026-04-22 18:30 15.71 2820 11000 (1945) 40 (1981) 2940 194 469 971 1110 2070 3770 3910 8140 8970
2026-04-22 18:00 15.71 2820 11000 (1945) 40 (1981) 2940 194 469 971 1110 2070 3770 3910 8140 8970
2026-04-22 17:30 15.70 2820 11000 (1945) 40 (1981) 2940 194 469 971 1110 2070 3770 3910 8140 8970
2026-04-22 17:00 15.69 2820 11000 (1945) 40 (1981) 2940 194 469 971 1110 2070 3770 3910 8140 8970
2026-04-22 16:30 15.70 2820 11000 (1945) 40 (1981) 2940 194 469 971 1110 2070 3770 3910 8140 8970
2026-04-22 16:00 15.70 2820 11000 (1945) 40 (1981) 2940 194 469 971 1110 2070 3770 3910 8140 8970
2026-04-22 15:30 15.68 2820 11000 (1945) 40 (1981) 2940 194 469 971 1110 2070 3770 3910 8140 8970
2026-04-22 15:00 15.70 2820 11000 (1945) 40 (1981) 2940 194 469 971 1110 2070 3770 3910 8140 8970
2026-04-22 14:30 15.70 2820 11000 (1945) 40 (1981) 2940 194 469 971 1110 2070 3770 3910 8140 8970
2026-04-22 14:00 15.69 2820 11000 (1945) 40 (1981) 2940 194 469 971 1110 2070 3770 3910 8140 8970
2026-04-22 13:30 15.69 2820 11000 (1945) 40 (1981) 2940 194 469 971 1110 2070 3770 3910 8140 8970
2026-04-22 13:00 15.71 2820 11000 (1945) 40 (1981) 2940 194 469 971 1110 2070 3770 3910 8140 8970
2026-04-22 12:30 15.70 2820 11000 (1945) 40 (1981) 2940 194 469 971 1110 2070 3770 3910 8140 8970
2026-04-22 12:00 15.70 2820 11000 (1945) 40 (1981) 2940 194 469 971 1110 2070 3770 3910 8140 8970
2026-04-22 11:30 15.70 2820 11000 (1945) 40 (1981) 2940 194 469 971 1110 2070 3770 3910 8140 8970
2026-04-22 11:00 15.70 2820 11000 (1945) 40 (1981) 2940 194 469 971 1110 2070 3770 3910 8140 8970
2026-04-22 10:30 15.69 2820 11000 (1945) 40 (1981) 2940 194 469 971 1110 2070 3770 3910 8140 8970
2026-04-22 10:00 15.70 2820 11000 (1945) 40 (1981) 2940 194 469 971 1110 2070 3770 3910 8140 8970
2026-04-22 09:30 15.69 2820 11000 (1945) 40 (1981) 2940 194 469 971 1110 2070 3770 3910 8140 8970
2026-04-22 09:00 15.69 2820 11000 (1945) 40 (1981) 2940 194 469 971 1110 2070 3770 3910 8140 8970
2026-04-22 08:30 15.68 2820 11000 (1945) 40 (1981) 2940 194 469 971 1110 2070 3770 3910 8140 8970
2026-04-22 08:00 15.67 2810 11000 (1945) 40 (1981) 2940 194 469 971 1110 2070 3770 3910 8140 8970
2026-04-22 07:30 15.68 2820 11000 (1945) 40 (1981) 2940 194 469 971 1110 2070 3770 3910 8140 8970
2026-04-22 07:00 15.67 2810 11000 (1945) 40 (1981) 2940 194 469 971 1110 2070 3770 3910 8140 8970
2026-04-22 06:30 15.67 2810 11000 (1945) 40 (1981) 2940 194 469 971 1110 2070 3770 3910 8140 8970
2026-04-22 06:00 15.67 2810 11000 (1945) 40 (1981) 2940 194 469 971 1110 2070 3770 3910 8140 8970
2026-04-22 05:30 15.65 2810 11000 (1945) 40 (1981) 2940 194 469 971 1110 2070 3770 3910 8140 8970
2026-04-22 05:00 15.65 2810 11000 (1945) 40 (1981) 2940 194 469 971 1110 2070 3770 3910 8140 8970
2026-04-22 04:30 15.64 2800 11000 (1945) 40 (1981) 2940 194 469 971 1110 2070 3770 3910 8140 8970
2026-04-22 04:00 15.65 2810 11000 (1945) 40 (1981) 2940 194 469 971 1110 2070 3770 3910 8140 8970
2026-04-22 03:30 15.64 2800 11000 (1945) 40 (1981) 2940 194 469 971 1110 2070 3770 3910 8140 8970
2026-04-22 03:00 15.63 2800 11000 (1945) 40 (1981) 2940 194 469 971 1110 2070 3770 3910 8140 8970
2026-04-22 02:30 15.61 2790 11000 (1945) 40 (1981) 2940 194 469 971 1110 2070 3770 3910 8140 8970
2026-04-22 02:00 15.60 2790 11000 (1945) 40 (1981) 2940 194 469 971 1110 2070 3770 3910 8140 8970
2026-04-22 01:30 15.61 2790 11000 (1945) 40 (1981) 2940 194 469 971 1110 2070 3770 3910 8140 8970
2026-04-22 01:00 15.59 2790 11000 (1945) 40 (1981) 2940 194 469 971 1110 2070 3770 3910 8140 8970
2026-04-22 00:30 15.60 2790 11000 (1945) 40 (1981) 2940 194 469 971 1110 2070 3770 3910 8140 8970
2026-04-22 00:00 15.57 2780 11000 (1945) 40 (1981) 2940 194 469 971 1110 2070 3770 3910 8140 8970
2026-04-21 23:30 15.56 2780 11000 (1945) 40 (1981) 2940 194 469 971 1110 2070 3770 3910 8140 8970
2026-04-21 23:00 15.53 2770 11000 (1945) 40 (1981) 2940 194 469 971 1110 2070 3770 3910 8140 8970
2026-04-21 22:30 15.54 2770 11700 (1945) 40 (1981) 2860 197 451 961 1040 1940 3790 3950 7310 8940
2026-04-21 22:00 15.53 2770 11700 (1945) 40 (1981) 2860 197 451 961 1040 1940 3790 3950 7310 8940
2026-04-21 21:30 15.52 2760 11700 (1945) 40 (1981) 2860 197 451 961 1040 1940 3790 3950 7310 8940
2026-04-21 21:00 15.49 2760 11700 (1945) 40 (1981) 2860 197 451 961 1040 1940 3790 3950 7310 8940
2026-04-21 20:30 15.49 2760 11700 (1945) 40 (1981) 2860 197 451 961 1040 1940 3790 3950 7310 8940
2026-04-21 20:00 15.47 2750 11700 (1945) 40 (1981) 2860 197 451 961 1040 1940 3790 3950 7310 8940
2026-04-21 19:30 15.45 2740 11700 (1945) 40 (1981) 2860 197 451 961 1040 1940 3790 3950 7310 8940
2026-04-21 19:00 15.44 2740 11700 (1945) 40 (1981) 2860 197 451 961 1040 1940 3790 3950 7310 8940
2026-04-21 18:30 15.42 2730 11700 (1945) 40 (1981) 2860 197 451 961 1040 1940 3790 3950 7310 8940
2026-04-21 18:00 15.36 2710 11700 (1945) 40 (1981) 2860 197 451 961 1040 1940 3790 3950 7310 8940
2026-04-21 17:30 15.36 2710 11700 (1945) 40 (1981) 2860 197 451 961 1040 1940 3790 3950 7310 8940
2026-04-21 17:00 15.33 2710 11700 (1945) 40 (1981) 2860 197 451 961 1040 1940 3790 3950 7310 8940
2026-04-21 16:30 15.32 2700 11700 (1945) 40 (1981) 2860 197 451 961 1040 1940 3790 3950 7310 8940
2026-04-21 16:00 15.28 2690 11700 (1945) 40 (1981) 2860 197 451 961 1040 1940 3790 3950 7310 8940
2026-04-21 15:30 15.23 2670 11700 (1945) 40 (1981) 2860 197 451 961 1040 1940 3790 3950 7310 8940
2026-04-21 15:00 15.21 2670 11700 (1945) 40 (1981) 2860 197 451 961 1040 1940 3790 3950 7310 8940
2026-04-21 14:30 15.18 2660 11700 (1945) 40 (1981) 2860 197 451 961 1040 1940 3790 3950 7310 8940
2026-04-21 14:00 15.13 2640 11700 (1945) 40 (1981) 2860 197 451 961 1040 1940 3790 3950 7310 8940
2026-04-21 13:30 15.08 2630 11700 (1945) 40 (1981) 2860 197 451 961 1040 1940 3790 3950 7310 8940
2026-04-21 13:00 15.03 2610 11700 (1945) 40 (1981) 2860 197 451 961 1040 1940 3790 3950 7310 8940
2026-04-21 12:30 14.99 2600 11700 (1945) 40 (1981) 2860 197 451 961 1040 1940 3790 3950 7310 8940
2026-04-21 12:00 14.92 2580 11700 (1945) 40 (1981) 2860 197 451 961 1040 1940 3790 3950 7310 8940
2026-04-21 11:30 14.85 2560 11700 (1945) 40 (1981) 2860 197 451 961 1040 1940 3790 3950 7310 8940
2026-04-21 11:00 14.77 2530 11700 (1945) 40 (1981) 2860 197 451 961 1040 1940 3790 3950 7310 8940
2026-04-21 10:30 14.67 2500 11700 (1945) 40 (1981) 2860 197 451 961 1040 1940 3790 3950 7310 8940
2026-04-21 10:00 14.41 2420 11700 (1945) 40 (1981) 2860 197 451 961 1040 1940 3790 3950 7310 8940
2026-04-21 09:30 14.23 2370 11700 (1945) 40 (1981) 2860 197 451 961 1040 1940 3790 3950 7310 8940
2026-04-21 09:00 14.23 2370 11700 (1945) 40 (1981) 2860 197 451 961 1040 1940 3790 3950 7310 8940
2026-04-21 08:30 14.21 2360 11700 (1945) 40 (1981) 2860 197 451 961 1040 1940 3790 3950 7310 8940
2026-04-21 08:00 14.20 2360 11700 (1945) 40 (1981) 2860 197 451 961 1040 1940 3790 3950 7310 8940
2026-04-21 07:30 14.19 2360 11700 (1945) 40 (1981) 2860 197 451 961 1040 1940 3790 3950 7310 8940
2026-04-21 07:00 14.18 2350 11700 (1945) 40 (1981) 2860 197 451 961 1040 1940 3790 3950 7310 8940
2026-04-21 06:30 14.18 2350 11700 (1945) 40 (1981) 2860 197 451 961 1040 1940 3790 3950 7310 8940
2026-04-21 06:00 14.16 2350 11700 (1945) 40 (1981) 2860 197 451 961 1040 1940 3790 3950 7310 8940
2026-04-21 05:30 14.15 2340 11700 (1945) 40 (1981) 2860 197 451 961 1040 1940 3790 3950 7310 8940
2026-04-21 05:00 14.14 2340 11700 (1945) 40 (1981) 2860 197 451 961 1040 1940 3790 3950 7310 8940
2026-04-21 04:30 14.13 2340 11700 (1945) 40 (1981) 2860 197 451 961 1040 1940 3790 3950 7310 8940
2026-04-21 04:00 14.11 2330 11700 (1945) 40 (1981) 2860 197 451 961 1040 1940 3790 3950 7310 8940
2026-04-21 03:30 14.10 2330 11700 (1945) 40 (1981) 2860 197 451 961 1040 1940 3790 3950 7310 8940
2026-04-21 03:00 14.10 2330 11700 (1945) 40 (1981) 2860 197 451 961 1040 1940 3790 3950 7310 8940
2026-04-21 02:30 14.08 2320 11700 (1945) 40 (1981) 2860 197 451 961 1040 1940 3790 3950 7310 8940
2026-04-21 02:00 14.06 2320 11700 (1945) 40 (1981) 2860 197 451 961 1040 1940 3790 3950 7310 8940
2026-04-21 01:30 14.04 2310 11700 (1945) 40 (1981) 2860 197 451 961 1040 1940 3790 3950 7310 8940
2026-04-21 01:00 14.03 2310 11700 (1945) 40 (1981) 2860 197 451 961 1040 1940 3790 3950 7310 8940
2026-04-21 00:30 14.01 2300 11700 (1945) 40 (1981) 2860 197 451 961 1040 1940 3790 3950 7310 8940
2026-04-21 00:00 14.00 2300 11700 (1945) 40 (1981) 2860 197 451 961 1040 1940 3790 3950 7310 8940
2026-04-20 23:30 13.96 2290 11700 (1945) 40 (1981) 2860 197 451 961 1040 1940 3790 3950 7310 8940
2026-04-20 23:00 13.94 2280 11700 (1945) 40 (1981) 2860 197 451 961 1040 1940 3790 3950 7310 8940
2026-04-20 22:30 13.92 2280 12500 (1945) 33 (1944) 2770 229 508 921 1060 2000 3800 4050 5640 8970
2026-04-20 22:00 13.90 2270 12500 (1945) 33 (1944) 2770 229 508 921 1060 2000 3800 4050 5640 8970
2026-04-20 21:30 13.87 2260 12500 (1945) 33 (1944) 2770 229 508 921 1060 2000 3800 4050 5640 8970
2026-04-20 21:00 13.84 2250 12500 (1945) 33 (1944) 2770 229 508 921 1060 2000 3800 4050 5640 8970
2026-04-20 20:30 13.81 2240 12500 (1945) 33 (1944) 2770 229 508 921 1060 2000 3800 4050 5640 8970
2026-04-20 20:00 13.78 2230 12500 (1945) 33 (1944) 2770 229 508 921 1060 2000 3800 4050 5640 8970
2026-04-20 19:30 13.75 2230 12500 (1945) 33 (1944) 2770 229 508 921 1060 2000 3800 4050 5640 8970
2026-04-20 19:00 13.71 2210 12500 (1945) 33 (1944) 2770 229 508 921 1060 2000 3800 4050 5640 8970
2026-04-20 18:30 13.67 2200 12500 (1945) 33 (1944) 2770 229 508 921 1060 2000 3800 4050 5640 8970
2026-04-20 18:00 13.61 2180 12500 (1945) 33 (1944) 2770 229 508 921 1060 2000 3800 4050 5640 8970
2026-04-20 17:30 13.59 2180 12500 (1945) 33 (1944) 2770 229 508 921 1060 2000 3800 4050 5640 8970
2026-04-20 17:00 13.52 2160 12500 (1945) 33 (1944) 2770 229 508 921 1060 2000 3800 4050 5640 8970
2026-04-20 16:30 13.47 2140 12500 (1945) 33 (1944) 2770 229 508 921 1060 2000 3800 4050 5640 8970
2026-04-20 16:00 13.41 2130 12500 (1945) 33 (1944) 2770 229 508 921 1060 2000 3800 4050 5640 8970
2026-04-20 15:30 13.36 2110 12500 (1945) 33 (1944) 2770 229 508 921 1060 2000 3800 4050 5640 8970
2026-04-20 15:00 13.27 2090 12500 (1945) 33 (1944) 2770 229 508 921 1060 2000 3800 4050 5640 8970
2026-04-20 14:30 13.19 2060 12500 (1945) 33 (1944) 2770 229 508 921 1060 2000 3800 4050 5640 8970
2026-04-20 14:00 13.10 2040 12500 (1945) 33 (1944) 2770 229 508 921 1060 2000 3800 4050 5640 8970
2026-04-20 13:30 12.99 2010 12500 (1945) 33 (1944) 2770 229 508 921 1060 2000 3800 4050 5640 8970
2026-04-20 13:00 12.86 1980 12500 (1945) 33 (1944) 2770 229 508 921 1060 2000 3800 4050 5640 8970
2026-04-20 12:30 12.68 1940 12500 (1945) 33 (1944) 2770 229 508 921 1060 2000 3800 4050 5640 8970
2026-04-20 12:00 12.53 1910 12500 (1945) 33 (1944) 2770 229 508 921 1060 2000 3800 4050 5640 8970
2026-04-20 11:30 12.48 1890 12500 (1945) 33 (1944) 2770 229 508 921 1060 2000 3800 4050 5640 8970
2026-04-20 11:00 12.36 1830 12500 (1945) 33 (1944) 2770 229 508 921 1060 2000 3800 4050 5640 8970
2026-04-20 10:30 12.26 1800 12500 (1945) 33 (1944) 2770 229 508 921 1060 2000 3800 4050 5640 8970
2026-04-20 10:00 12.11 1760 12500 (1945) 33 (1944) 2770 229 508 921 1060 2000 3800 4050 5640 8970
2026-04-20 09:30 11.95 1710 12500 (1945) 33 (1944) 2770 229 508 921 1060 2000 3800 4050 5640 8970
2026-04-20 09:00 11.93 1710 12500 (1945) 33 (1944) 2770 229 508 921 1060 2000 3800 4050 5640 8970
2026-04-20 08:30 11.92 1710 12500 (1945) 33 (1944) 2770 229 508 921 1060 2000 3800 4050 5640 8970
2026-04-20 08:00 11.91 1700 12500 (1945) 33 (1944) 2770 229 508 921 1060 2000 3800 4050 5640 8970
2026-04-20 07:30 11.91 1700 12500 (1945) 33 (1944) 2770 229 508 921 1060 2000 3800 4050 5640 8970
2026-04-20 07:00 11.90 1700 12500 (1945) 33 (1944) 2770 229 508 921 1060 2000 3800 4050 5640 8970
2026-04-20 06:30 11.90 1700 12500 (1945) 33 (1944) 2770 229 508 921 1060 2000 3800 4050 5640 8970
2026-04-20 06:00 11.89 1700 12500 (1945) 33 (1944) 2770 229 508 921 1060 2000 3800 4050 5640 8970
2026-04-20 05:30 11.89 1700 12500 (1945) 33 (1944) 2770 229 508 921 1060 2000 3800 4050 5640 8970
2026-04-20 05:00 11.89 1700 12500 (1945) 33 (1944) 2770 229 508 921 1060 2000 3800 4050 5640 8970
2026-04-20 04:30 11.86 1690 12500 (1945) 33 (1944) 2770 229 508 921 1060 2000 3800 4050 5640 8970
2026-04-20 04:00 11.87 1690 12500 (1945) 33 (1944) 2770 229 508 921 1060 2000 3800 4050 5640 8970
2026-04-20 03:30 11.85 1690 12500 (1945) 33 (1944) 2770 229 508 921 1060 2000 3800 4050 5640 8970
2026-04-20 03:00 11.84 1680 12500 (1945) 33 (1944) 2770 229 508 921 1060 2000 3800 4050 5640 8970
2026-04-20 02:30 11.83 1680 12500 (1945) 33 (1944) 2770 229 508 921 1060 2000 3800 4050 5640 8970
2026-04-20 02:00 11.81 1680 12500 (1945) 33 (1944) 2770 229 508 921 1060 2000 3800 4050 5640 8970
2026-04-20 01:30 11.82 1680 12500 (1945) 33 (1944) 2770 229 508 921 1060 2000 3800 4050 5640 8970
2026-04-20 01:00 11.81 1680 12500 (1945) 33 (1944) 2770 229 508 921 1060 2000 3800 4050 5640 8970
2026-04-20 00:30 11.80 1670 12500 (1945) 33 (1944) 2770 229 508 921 1060 2000 3800 4050 5640 8970
2026-04-20 00:00 11.77 1660 12500 (1945) 33 (1944) 2770 229 508 921 1060 2000 3800 4050 5640 8970
2026-04-19 23:30 11.75 1660 12500 (1945) 33 (1944) 2770 229 508 921 1060 2000 3800 4050 5640 8970
2026-04-19 23:00 11.75 1660 12500 (1945) 33 (1944) 2770 229 508 921 1060 2000 3800 4050 5640 8970
2026-04-19 22:30 11.73 1650 13000 (1945) 31 (1944) 2730 274 657 870 1040 2150 3480 4130 5710 9000
2026-04-19 22:00 11.72 1650 13000 (1945) 31 (1944) 2730 274 657 870 1040 2150 3480 4130 5710 9000
2026-04-19 21:30 11.70 1650 13000 (1945) 31 (1944) 2730 274 657 870 1040 2150 3480 4130 5710 9000
2026-04-19 21:00 11.68 1640 13000 (1945) 31 (1944) 2730 274 657 870 1040 2150 3480 4130 5710 9000
2026-04-19 20:30 11.67 1640 13000 (1945) 31 (1944) 2730 274 657 870 1040 2150 3480 4130 5710 9000
2026-04-19 20:00 11.64 1630 13000 (1945) 31 (1944) 2730 274 657 870 1040 2150 3480 4130 5710 9000
2026-04-19 19:30 11.63 1630 13000 (1945) 31 (1944) 2730 274 657 870 1040 2150 3480 4130 5710 9000
2026-04-19 19:00 11.61 1620 13000 (1945) 31 (1944) 2730 274 657 870 1040 2150 3480 4130 5710 9000
2026-04-19 18:30 11.58 1610 13000 (1945) 31 (1944) 2730 274 657 870 1040 2150 3480 4130 5710 9000
2026-04-19 18:00 11.55 1610 13000 (1945) 31 (1944) 2730 274 657 870 1040 2150 3480 4130 5710 9000
2026-04-19 17:30 11.53 1600 13000 (1945) 31 (1944) 2730 274 657 870 1040 2150 3480 4130 5710 9000
2026-04-19 17:00 11.51 1590 13000 (1945) 31 (1944) 2730 274 657 870 1040 2150 3480 4130 5710 9000
2026-04-19 16:30 11.48 1590 13000 (1945) 31 (1944) 2730 274 657 870 1040 2150 3480 4130 5710 9000
2026-04-19 16:00 11.46 1580 13000 (1945) 31 (1944) 2730 274 657 870 1040 2150 3480 4130 5710 9000
2026-04-19 15:30 11.41 1570 13000 (1945) 31 (1944) 2730 274 657 870 1040 2150 3480 4130 5710 9000
2026-04-19 15:00 11.37 1560 13000 (1945) 31 (1944) 2730 274 657 870 1040 2150 3480 4130 5710 9000
2026-04-19 14:30 11.34 1550 13000 (1945) 31 (1944) 2730 274 657 870 1040 2150 3480 4130 5710 9000
2026-04-19 14:00 11.30 1540 13000 (1945) 31 (1944) 2730 274 657 870 1040 2150 3480 4130 5710 9000
2026-04-19 13:30 11.26 1530 13000 (1945) 31 (1944) 2730 274 657 870 1040 2150 3480 4130 5710 9000
2026-04-19 13:00 11.21 1520 13000 (1945) 31 (1944) 2730 274 657 870 1040 2150 3480 4130 5710 9000
2026-04-19 12:30 11.15 1500 13000 (1945) 31 (1944) 2730 274 657 870 1040 2150 3480 4130 5710 9000
2026-04-19 12:00 11.08 1480 13000 (1945) 31 (1944) 2730 274 657 870 1040 2150 3480 4130 5710 9000
2026-04-19 11:30 11.02 1460 13000 (1945) 31 (1944) 2730 274 657 870 1040 2150 3480 4130 5710 9000
2026-04-19 11:00 10.93 1440 13000 (1945) 31 (1944) 2730 274 657 870 1040 2150 3480 4130 5710 9000
2026-04-19 10:30 10.86 1420 13000 (1945) 31 (1944) 2730 274 657 870 1040 2150 3480 4130 5710 9000
2026-04-19 10:00 10.74 1390 13000 (1945) 31 (1944) 2730 274 657 870 1040 2150 3480 4130 5710 9000
2026-04-19 09:30 10.62 1350 13000 (1945) 31 (1944) 2730 274 657 870 1040 2150 3480 4130 5710 9000
2026-04-19 09:00 10.42 1300 13000 (1945) 31 (1944) 2730 274 657 870 1040 2150 3480 4130 5710 9000
2026-04-19 08:30 10.33 1280 13000 (1945) 31 (1944) 2730 274 657 870 1040 2150 3480 4130 5710 9000
2026-04-19 08:00 10.31 1270 13000 (1945) 31 (1944) 2730 274 657 870 1040 2150 3480 4130 5710 9000
2026-04-19 07:30 10.30 1270 13000 (1945) 31 (1944) 2730 274 657 870 1040 2150 3480 4130 5710 9000
2026-04-19 07:00 10.29 1270 13000 (1945) 31 (1944) 2730 274 657 870 1040 2150 3480 4130 5710 9000
2026-04-19 06:30 10.27 1260 13000 (1945) 31 (1944) 2730 274 657 870 1040 2150 3480 4130 5710 9000
2026-04-19 06:00 10.27 1260 13000 (1945) 31 (1944) 2730 274 657 870 1040 2150 3480 4130 5710 9000
2026-04-19 05:30 10.25 1260 13000 (1945) 31 (1944) 2730 274 657 870 1040 2150 3480 4130 5710 9000
2026-04-19 05:00 10.23 1250 13000 (1945) 31 (1944) 2730 274 657 870 1040 2150 3480 4130 5710 9000
2026-04-19 04:30 10.21 1250 13000 (1945) 31 (1944) 2730 274 657 870 1040 2150 3480 4130 5710 9000
2026-04-19 04:00 10.20 1240 13000 (1945) 31 (1944) 2730 274 657 870 1040 2150 3480 4130 5710 9000
2026-04-19 03:30 10.18 1240 13000 (1945) 31 (1944) 2730 274 657 870 1040 2150 3480 4130 5710 9000
2026-04-19 03:00 10.17 1240 13000 (1945) 31 (1944) 2730 274 657 870 1040 2150 3480 4130 5710 9000
2026-04-19 02:30 10.14 1230 13000 (1945) 31 (1944) 2730 274 657 870 1040 2150 3480 4130 5710 9000
2026-04-19 02:00 10.12 1220 13000 (1945) 31 (1944) 2730 274 657 870 1040 2150 3480 4130 5710 9000
2026-04-19 01:30 10.10 1220 13000 (1945) 31 (1944) 2730 274 657 870 1040 2150 3480 4130 5710 9000
2026-04-19 01:00 10.08 1210 13000 (1945) 31 (1944) 2730 274 657 870 1040 2150 3480 4130 5710 9000
2026-04-19 00:00 10.03 1200 13000 (1945) 31 (1944) 2730 274 657 870 1040 2150 3480 4130 5710 9000
2026-04-18 23:30 10.01 1190 13000 (1945) 31 (1944) 2730 274 657 870 1040 2150 3480 4130 5710 9000
2026-04-18 23:00 9.98 1190 13000 (1945) 31 (1944) 2730 274 657 870 1040 2150 3480 4130 5710 9000
2026-04-18 22:30 9.97 1180 14800 (1945) 33 (1944) 2790 448 627 853 978 1960 3530 4310 5750 8960
2026-04-18 22:00 9.94 1180 14800 (1945) 33 (1944) 2790 448 627 853 978 1960 3530 4310 5750 8960
2026-04-18 21:30 9.90 1170 14800 (1945) 33 (1944) 2790 448 627 853 978 1960 3530 4310 5750 8960
2026-04-18 21:00 9.87 1160 14800 (1945) 33 (1944) 2790 448 627 853 978 1960 3530 4310 5750 8960
2026-04-18 20:30 9.82 1150 14800 (1945) 33 (1944) 2790 448 627 853 978 1960 3530 4310 5750 8960
2026-04-18 20:00 9.78 1140 14800 (1945) 33 (1944) 2790 448 627 853 978 1960 3530 4310 5750 8960
2026-04-18 19:30 9.73 1120 14800 (1945) 33 (1944) 2790 448 627 853 978 1960 3530 4310 5750 8960
2026-04-18 19:00 9.69 1110 14800 (1945) 33 (1944) 2790 448 627 853 978 1960 3530 4310 5750 8960
2026-04-18 18:30 9.64 1100 14800 (1945) 33 (1944) 2790 448 627 853 978 1960 3530 4310 5750 8960
2026-04-18 18:00 9.57 1080 14800 (1945) 33 (1944) 2790 448 627 853 978 1960 3530 4310 5750 8960
2026-04-18 17:30 9.52 1070 14800 (1945) 33 (1944) 2790 448 627 853 978 1960 3530 4310 5750 8960
2026-04-18 17:00 9.45 1050 14800 (1945) 33 (1944) 2790 448 627 853 978 1960 3530 4310 5750 8960
2026-04-18 16:30 9.37 1030 14800 (1945) 33 (1944) 2790 448 627 853 978 1960 3530 4310 5750 8960
2026-04-18 16:00 9.28 1010 14800 (1945) 33 (1944) 2790 448 627 853 978 1960 3530 4310 5750 8960
2026-04-18 15:30 9.20 992 14800 (1945) 33 (1944) 2790 448 627 853 978 1960 3530 4310 5750 8960
2026-04-18 15:00 9.09 965 14800 (1945) 33 (1944) 2790 448 627 853 978 1960 3530 4310 5750 8960
2026-04-18 14:30 8.97 937 14800 (1945) 33 (1944) 2790 448 627 853 978 1960 3530 4310 5750 8960
2026-04-18 14:00 8.81 899 14800 (1945) 33 (1944) 2790 448 627 853 978 1960 3530 4310 5750 8960
2026-04-18 13:30 8.64 860 14800 (1945) 33 (1944) 2790 448 627 853 978 1960 3530 4310 5750 8960
2026-04-18 13:00 8.41 808 14800 (1945) 33 (1944) 2790 448 627 853 978 1960 3530 4310 5750 8960
2026-04-18 12:30 7.95 707 14800 (1945) 33 (1944) 2790 448 627 853 978 1960 3530 4310 5750 8960
2026-04-18 12:00 7.95 707 14800 (1945) 33 (1944) 2790 448 627 853 978 1960 3530 4310 5750 8960
2026-04-18 11:30 7.94 705 14800 (1945) 33 (1944) 2790 448 627 853 978 1960 3530 4310 5750 8960
2026-04-18 11:00 7.95 707 14800 (1945) 33 (1944) 2790 448 627 853 978 1960 3530 4310 5750 8960
2026-04-18 10:30 7.94 705 14800 (1945) 33 (1944) 2790 448 627 853 978 1960 3530 4310 5750 8960
2026-04-18 10:00 7.95 707 14800 (1945) 33 (1944) 2790 448 627 853 978 1960 3530 4310 5750 8960
2026-04-18 09:30 7.94 705 14800 (1945) 33 (1944) 2790 448 627 853 978 1960 3530 4310 5750 8960
2026-04-18 09:00 7.93 703 14800 (1945) 33 (1944) 2790 448 627 853 978 1960 3530 4310 5750 8960
2026-04-18 08:30 7.94 705 14800 (1945) 33 (1944) 2790 448 627 853 978 1960 3530 4310 5750 8960
2026-04-18 08:00 7.93 703 14800 (1945) 33 (1944) 2790 448 627 853 978 1960 3530 4310 5750 8960
2026-04-18 07:30 7.93 703 14800 (1945) 33 (1944) 2790 448 627 853 978 1960 3530 4310 5750 8960
2026-04-18 07:00 7.93 703 14800 (1945) 33 (1944) 2790 448 627 853 978 1960 3530 4310 5750 8960
2026-04-18 06:30 7.92 701 14800 (1945) 33 (1944) 2790 448 627 853 978 1960 3530 4310 5750 8960
2026-04-18 06:00 7.92 701 14800 (1945) 33 (1944) 2790 448 627 853 978 1960 3530 4310 5750 8960
2026-04-18 05:30 7.92 701 14800 (1945) 33 (1944) 2790 448 627 853 978 1960 3530 4310 5750 8960
2026-04-18 05:00 7.90 697 14800 (1945) 33 (1944) 2790 448 627 853 978 1960 3530 4310 5750 8960
2026-04-18 04:30 7.88 693 14800 (1945) 33 (1944) 2790 448 627 853 978 1960 3530 4310 5750 8960
2026-04-18 04:00 7.87 690 14800 (1945) 33 (1944) 2790 448 627 853 978 1960 3530 4310 5750 8960
2026-04-18 03:30 7.86 688 14800 (1945) 33 (1944) 2790 448 627 853 978 1960 3530 4310 5750 8960
2026-04-18 03:00 7.86 688 14800 (1945) 33 (1944) 2790 448 627 853 978 1960 3530 4310 5750 8960
2026-04-18 02:30 7.87 690 14800 (1945) 33 (1944) 2790 448 627 853 978 1960 3530 4310 5750 8960
2026-04-18 02:00 7.86 688 14800 (1945) 33 (1944) 2790 448 627 853 978 1960 3530 4310 5750 8960
2026-04-18 01:30 7.86 688 14800 (1945) 33 (1944) 2790 448 627 853 978 1960 3530 4310 5750 8960
2026-04-18 01:00 7.86 688 14800 (1945) 33 (1944) 2790 448 627 853 978 1960 3530 4310 5750 8960
2026-04-18 00:30 7.86 688 14800 (1945) 33 (1944) 2790 448 627 853 978 1960 3530 4310 5750 8960
2026-04-18 00:00 7.86 688 14800 (1945) 33 (1944) 2790 448 627 853 978 1960 3530 4310 5750 8960
2026-04-17 23:30 7.86 688 14800 (1945) 33 (1944) 2790 448 627 853 978 1960 3530 4310 5750 8960
2026-04-17 23:00 7.85 686 14800 (1945) 33 (1944) 2790 448 627 853 978 1960 3530 4310 5750 8960
2026-04-17 22:30 7.86 688 19000 (1945) 35 (1944) 2890 345 627 869 1020 2290 3650 4200 6110 8860
2026-04-17 22:00 7.85 686 19000 (1945) 35 (1944) 2890 345 627 869 1020 2290 3650 4200 6110 8860
2026-04-17 21:30 7.86 688 19000 (1945) 35 (1944) 2890 345 627 869 1020 2290 3650 4200 6110 8860
2026-04-17 21:00 7.85 686 19000 (1945) 35 (1944) 2890 345 627 869 1020 2290 3650 4200 6110 8860
2026-04-17 20:30 7.85 686 19000 (1945) 35 (1944) 2890 345 627 869 1020 2290 3650 4200 6110 8860
2026-04-17 20:00 7.86 688 19000 (1945) 35 (1944) 2890 345 627 869 1020 2290 3650 4200 6110 8860
2026-04-17 19:30 7.86 688 19000 (1945) 35 (1944) 2890 345 627 869 1020 2290 3650 4200 6110 8860
2026-04-17 19:00 7.85 686 19000 (1945) 35 (1944) 2890 345 627 869 1020 2290 3650 4200 6110 8860
2026-04-17 18:30 7.86 688 19000 (1945) 35 (1944) 2890 345 627 869 1020 2290 3650 4200 6110 8860
2026-04-17 18:00 7.85 686 19000 (1945) 35 (1944) 2890 345 627 869 1020 2290 3650 4200 6110 8860
2026-04-17 17:30 7.86 688 19000 (1945) 35 (1944) 2890 345 627 869 1020 2290 3650 4200 6110 8860
2026-04-17 17:00 7.86 688 19000 (1945) 35 (1944) 2890 345 627 869 1020 2290 3650 4200 6110 8860
2026-04-17 16:30 7.86 688 19000 (1945) 35 (1944) 2890 345 627 869 1020 2290 3650 4200 6110 8860
2026-04-17 16:00 7.86 688 19000 (1945) 35 (1944) 2890 345 627 869 1020 2290 3650 4200 6110 8860
2026-04-17 15:30 7.85 686 19000 (1945) 35 (1944) 2890 345 627 869 1020 2290 3650 4200 6110 8860
2026-04-17 15:00 7.85 686 19000 (1945) 35 (1944) 2890 345 627 869 1020 2290 3650 4200 6110 8860
2026-04-17 14:30 7.86 688 19000 (1945) 35 (1944) 2890 345 627 869 1020 2290 3650 4200 6110 8860
2026-04-17 14:00 7.85 686 19000 (1945) 35 (1944) 2890 345 627 869 1020 2290 3650 4200 6110 8860
2026-04-17 13:30 7.86 688 19000 (1945) 35 (1944) 2890 345 627 869 1020 2290 3650 4200 6110 8860
2026-04-17 13:00 7.86 688 19000 (1945) 35 (1944) 2890 345 627 869 1020 2290 3650 4200 6110 8860
2026-04-17 12:30 7.86 688 19000 (1945) 35 (1944) 2890 345 627 869 1020 2290 3650 4200 6110 8860
2026-04-17 12:00 7.86 688 19000 (1945) 35 (1944) 2890 345 627 869 1020 2290 3650 4200 6110 8860
2026-04-17 11:30 7.85 686 19000 (1945) 35 (1944) 2890 345 627 869 1020 2290 3650 4200 6110 8860
2026-04-17 11:00 7.86 688 19000 (1945) 35 (1944) 2890 345 627 869 1020 2290 3650 4200 6110 8860
2026-04-17 10:30 7.86 688 19000 (1945) 35 (1944) 2890 345 627 869 1020 2290 3650 4200 6110 8860
2026-04-17 10:00 7.86 688 19000 (1945) 35 (1944) 2890 345 627 869 1020 2290 3650 4200 6110 8860
2026-04-17 09:30 7.86 688 19000 (1945) 35 (1944) 2890 345 627 869 1020 2290 3650 4200 6110 8860
2026-04-17 09:00 7.87 690 19000 (1945) 35 (1944) 2890 345 627 869 1020 2290 3650 4200 6110 8860
2026-04-17 08:30 7.87 690 19000 (1945) 35 (1944) 2890 345 627 869 1020 2290 3650 4200 6110 8860
2026-04-17 08:00 7.86 688 19000 (1945) 35 (1944) 2890 345 627 869 1020 2290 3650 4200 6110 8860
2026-04-17 07:30 7.87 690 19000 (1945) 35 (1944) 2890 345 627 869 1020 2290 3650 4200 6110 8860
2026-04-17 07:00 7.87 690 19000 (1945) 35 (1944) 2890 345 627 869 1020 2290 3650 4200 6110 8860
2026-04-17 06:30 7.86 688 19000 (1945) 35 (1944) 2890 345 627 869 1020 2290 3650 4200 6110 8860
2026-04-17 06:00 7.87 690 19000 (1945) 35 (1944) 2890 345 627 869 1020 2290 3650 4200 6110 8860
2026-04-17 05:30 7.87 690 19000 (1945) 35 (1944) 2890 345 627 869 1020 2290 3650 4200 6110 8860
2026-04-17 05:00 7.87 690 19000 (1945) 35 (1944) 2890 345 627 869 1020 2290 3650 4200 6110 8860
2026-04-17 04:30 7.87 690 19000 (1945) 35 (1944) 2890 345 627 869 1020 2290 3650 4200 6110 8860
2026-04-17 04:00 7.87 690 19000 (1945) 35 (1944) 2890 345 627 869 1020 2290 3650 4200 6110 8860
2026-04-17 03:30 7.87 690 19000 (1945) 35 (1944) 2890 345 627 869 1020 2290 3650 4200 6110 8860
2026-04-17 03:00 7.86 688 19000 (1945) 35 (1944) 2890 345 627 869 1020 2290 3650 4200 6110 8860
2026-04-17 02:30 7.87 690 19000 (1945) 35 (1944) 2890 345 627 869 1020 2290 3650 4200 6110 8860
2026-04-17 02:00 7.86 688 19000 (1945) 35 (1944) 2890 345 627 869 1020 2290 3650 4200 6110 8860
2026-04-17 01:30 7.86 688 19000 (1945) 35 (1944) 2890 345 627 869 1020 2290 3650 4200 6110 8860
2026-04-17 01:00 7.86 688 19000 (1945) 35 (1944) 2890 345 627 869 1020 2290 3650 4200 6110 8860
2026-04-17 00:30 7.86 688 19000 (1945) 35 (1944) 2890 345 627 869 1020 2290 3650 4200 6110 8860
2026-04-17 00:00 7.86 688 19000 (1945) 35 (1944) 2890 345 627 869 1020 2290 3650 4200 6110 8860
2026-04-16 23:30 7.87 690 19000 (1945) 35 (1944) 2890 345 627 869 1020 2290 3650 4200 6110 8860
2026-04-16 23:00 7.86 688 19000 (1945) 35 (1944) 2890 345 627 869 1020 2290 3650 4200 6110 8860
2026-04-16 22:30 7.87 690 21800 (1945) 40 (1981) 2930 454 569 802 910 2200 3730 4370 6400 9250
2026-04-16 22:00 7.87 690 21800 (1945) 40 (1981) 2930 454 569 802 910 2200 3730 4370 6400 9250
2026-04-16 21:30 7.87 690 21800 (1945) 40 (1981) 2930 454 569 802 910 2200 3730 4370 6400 9250
2026-04-16 21:00 7.87 690 21800 (1945) 40 (1981) 2930 454 569 802 910 2200 3730 4370 6400 9250
2026-04-16 20:30 7.87 690 21800 (1945) 40 (1981) 2930 454 569 802 910 2200 3730 4370 6400 9250
2026-04-16 20:00 7.87 690 21800 (1945) 40 (1981) 2930 454 569 802 910 2200 3730 4370 6400 9250
2026-04-16 19:30 7.87 690 21800 (1945) 40 (1981) 2930 454 569 802 910 2200 3730 4370 6400 9250
2026-04-16 19:00 7.88 693 21800 (1945) 40 (1981) 2930 454 569 802 910 2200 3730 4370 6400 9250
2026-04-16 18:30 7.89 695 21800 (1945) 40 (1981) 2930 454 569 802 910 2200 3730 4370 6400 9250
2026-04-16 18:00 7.87 690 21800 (1945) 40 (1981) 2930 454 569 802 910 2200 3730 4370 6400 9250
2026-04-16 17:30 7.84 684 21800 (1945) 40 (1981) 2930 454 569 802 910 2200 3730 4370 6400 9250
2026-04-16 17:00 7.84 684 21800 (1945) 40 (1981) 2930 454 569 802 910 2200 3730 4370 6400 9250
2026-04-16 16:30 7.84 684 21800 (1945) 40 (1981) 2930 454 569 802 910 2200 3730 4370 6400 9250
2026-04-16 16:00 7.84 684 21800 (1945) 40 (1981) 2930 454 569 802 910 2200 3730 4370 6400 9250
2026-04-16 15:30 7.84 684 21800 (1945) 40 (1981) 2930 454 569 802 910 2200 3730 4370 6400 9250
2026-04-16 15:00 7.84 684 21800 (1945) 40 (1981) 2930 454 569 802 910 2200 3730 4370 6400 9250
2026-04-16 14:30 7.84 684 21800 (1945) 40 (1981) 2930 454 569 802 910 2200 3730 4370 6400 9250
2026-04-16 14:00 7.84 684 21800 (1945) 40 (1981) 2930 454 569 802 910 2200 3730 4370 6400 9250
2026-04-16 13:30 7.84 684 21800 (1945) 40 (1981) 2930 454 569 802 910 2200 3730 4370 6400 9250
2026-04-16 13:00 7.85 686 21800 (1945) 40 (1981) 2930 454 569 802 910 2200 3730 4370 6400 9250
2026-04-16 12:30 7.85 686 21800 (1945) 40 (1981) 2930 454 569 802 910 2200 3730 4370 6400 9250
2026-04-16 12:00 7.86 688 21800 (1945) 40 (1981) 2930 454 569 802 910 2200 3730 4370 6400 9250
2026-04-16 11:30 7.85 686 21800 (1945) 40 (1981) 2930 454 569 802 910 2200 3730 4370 6400 9250
2026-04-16 11:00 7.85 686 21800 (1945) 40 (1981) 2930 454 569 802 910 2200 3730 4370 6400 9250
2026-04-16 10:30 7.85 686 21800 (1945) 40 (1981) 2930 454 569 802 910 2200 3730 4370 6400 9250
2026-04-16 10:00 7.86 688 21800 (1945) 40 (1981) 2930 454 569 802 910 2200 3730 4370 6400 9250
2026-04-16 09:30 7.86 688 21800 (1945) 40 (1981) 2930 454 569 802 910 2200 3730 4370 6400 9250
2026-04-16 09:00 7.86 688 21800 (1945) 40 (1981) 2930 454 569 802 910 2200 3730 4370 6400 9250
2026-04-16 08:30 7.86 688 21800 (1945) 40 (1981) 2930 454 569 802 910 2200 3730 4370 6400 9250
2026-04-16 08:00 7.86 688 21800 (1945) 40 (1981) 2930 454 569 802 910 2200 3730 4370 6400 9250
2026-04-16 07:30 7.87 690 21800 (1945) 40 (1981) 2930 454 569 802 910 2200 3730 4370 6400 9250
2026-04-16 07:00 7.87 690 21800 (1945) 40 (1981) 2930 454 569 802 910 2200 3730 4370 6400 9250
2026-04-16 06:30 7.87 690 21800 (1945) 40 (1981) 2930 454 569 802 910 2200 3730 4370 6400 9250
2026-04-16 06:00 7.87 690 21800 (1945) 40 (1981) 2930 454 569 802 910 2200 3730 4370 6400 9250
2026-04-16 05:30 7.87 690 21800 (1945) 40 (1981) 2930 454 569 802 910 2200 3730 4370 6400 9250
2026-04-16 05:00 7.87 690 21800 (1945) 40 (1981) 2930 454 569 802 910 2200 3730 4370 6400 9250
2026-04-16 04:30 7.88 693 21800 (1945) 40 (1981) 2930 454 569 802 910 2200 3730 4370 6400 9250
2026-04-16 04:00 7.87 690 21800 (1945) 40 (1981) 2930 454 569 802 910 2200 3730 4370 6400 9250
2026-04-16 03:30 7.88 693 21800 (1945) 40 (1981) 2930 454 569 802 910 2200 3730 4370 6400 9250
2026-04-16 03:00 7.83 682 21800 (1945) 40 (1981) 2930 454 569 802 910 2200 3730 4370 6400 9250
2026-04-16 02:30 7.84 684 21800 (1945) 40 (1981) 2930 454 569 802 910 2200 3730 4370 6400 9250
2026-04-16 02:00 7.84 684 21800 (1945) 40 (1981) 2930 454 569 802 910 2200 3730 4370 6400 9250
2026-04-16 01:30 7.83 682 21800 (1945) 40 (1981) 2930 454 569 802 910 2200 3730 4370 6400 9250
2026-04-16 01:00 7.83 682 21800 (1945) 40 (1981) 2930 454 569 802 910 2200 3730 4370 6400 9250
2026-04-16 00:30 7.84 684 21800 (1945) 40 (1981) 2930 454 569 802 910 2200 3730 4370 6400 9250
2026-04-16 00:00 7.84 684 21800 (1945) 40 (1981) 2930 454 569 802 910 2200 3730 4370 6400 9250
2026-04-15 23:30 7.84 684 21800 (1945) 40 (1981) 2930 454 569 802 910 2200 3730 4370 6400 9250
2026-04-15 23:00 7.84 684 21800 (1945) 40 (1981) 2930 454 569 802 910 2200 3730 4370 6400 9250
2026-04-15 22:30 7.84 684 15600 (1945) 40 (1981) 2860 411 599 833 1010 2120 3590 4160 6590 9880
2026-04-15 22:00 7.84 684 15600 (1945) 40 (1981) 2860 411 599 833 1010 2120 3590 4160 6590 9880
2026-04-15 21:30 7.84 684 15600 (1945) 40 (1981) 2860 411 599 833 1010 2120 3590 4160 6590 9880
2026-04-15 21:00 7.84 684 15600 (1945) 40 (1981) 2860 411 599 833 1010 2120 3590 4160 6590 9880
2026-04-15 20:30 7.84 684 15600 (1945) 40 (1981) 2860 411 599 833 1010 2120 3590 4160 6590 9880
2026-04-15 20:00 7.84 684 15600 (1945) 40 (1981) 2860 411 599 833 1010 2120 3590 4160 6590 9880
2026-04-15 19:30 7.84 684 15600 (1945) 40 (1981) 2860 411 599 833 1010 2120 3590 4160 6590 9880
2026-04-15 19:00 7.84 684 15600 (1945) 40 (1981) 2860 411 599 833 1010 2120 3590 4160 6590 9880
2026-04-15 18:30 7.85 686 15600 (1945) 40 (1981) 2860 411 599 833 1010 2120 3590 4160 6590 9880
2026-04-15 18:00 7.85 686 15600 (1945) 40 (1981) 2860 411 599 833 1010 2120 3590 4160 6590 9880
2026-04-15 17:30 7.85 686 15600 (1945) 40 (1981) 2860 411 599 833 1010 2120 3590 4160 6590 9880
2026-04-15 17:00 7.85 686 15600 (1945) 40 (1981) 2860 411 599 833 1010 2120 3590 4160 6590 9880
2026-04-15 16:30 7.86 688 15600 (1945) 40 (1981) 2860 411 599 833 1010 2120 3590 4160 6590 9880
2026-04-15 16:00 7.85 686 15600 (1945) 40 (1981) 2860 411 599 833 1010 2120 3590 4160 6590 9880
2026-04-15 15:30 7.85 686 15600 (1945) 40 (1981) 2860 411 599 833 1010 2120 3590 4160 6590 9880
2026-04-15 15:00 7.86 688 15600 (1945) 40 (1981) 2860 411 599 833 1010 2120 3590 4160 6590 9880
2026-04-15 14:30 7.85 686 15600 (1945) 40 (1981) 2860 411 599 833 1010 2120 3590 4160 6590 9880
2026-04-15 14:00 7.86 688 15600 (1945) 40 (1981) 2860 411 599 833 1010 2120 3590 4160 6590 9880
2026-04-15 13:30 7.87 690 15600 (1945) 40 (1981) 2860 411 599 833 1010 2120 3590 4160 6590 9880
2026-04-15 13:00 7.87 690 15600 (1945) 40 (1981) 2860 411 599 833 1010 2120 3590 4160 6590 9880
2026-04-15 12:30 7.87 690 15600 (1945) 40 (1981) 2860 411 599 833 1010 2120 3590 4160 6590 9880
2026-04-15 12:00 7.88 693 15600 (1945) 40 (1981) 2860 411 599 833 1010 2120 3590 4160 6590 9880
2026-04-15 11:30 7.87 690 15600 (1945) 40 (1981) 2860 411 599 833 1010 2120 3590 4160 6590 9880
2026-04-15 11:00 7.87 690 15600 (1945) 40 (1981) 2860 411 599 833 1010 2120 3590 4160 6590 9880
2026-04-15 10:30 7.88 693 15600 (1945) 40 (1981) 2860 411 599 833 1010 2120 3590 4160 6590 9880
2026-04-15 10:00 7.89 695 15600 (1945) 40 (1981) 2860 411 599 833 1010 2120 3590 4160 6590 9880
2026-04-15 09:30 7.89 695 15600 (1945) 40 (1981) 2860 411 599 833 1010 2120 3590 4160 6590 9880
2026-04-15 09:00 7.89 695 15600 (1945) 40 (1981) 2860 411 599 833 1010 2120 3590 4160 6590 9880
2026-04-15 08:30 7.89 695 15600 (1945) 40 (1981) 2860 411 599 833 1010 2120 3590 4160 6590 9880
2026-04-15 08:00 7.90 697 15600 (1945) 40 (1981) 2860 411 599 833 1010 2120 3590 4160 6590 9880
2026-04-15 07:30 7.90 697 15600 (1945) 40 (1981) 2860 411 599 833 1010 2120 3590 4160 6590 9880
2026-04-15 07:00 7.90 697 15600 (1945) 40 (1981) 2860 411 599 833 1010 2120 3590 4160 6590 9880
2026-04-15 06:30 7.91 699 15600 (1945) 40 (1981) 2860 411 599 833 1010 2120 3590 4160 6590 9880
2026-04-15 06:00 7.91 699 15600 (1945) 40 (1981) 2860 411 599 833 1010 2120 3590 4160 6590 9880
2026-04-15 05:30 7.92 701 15600 (1945) 40 (1981) 2860 411 599 833 1010 2120 3590 4160 6590 9880
2026-04-15 05:00 7.92 701 15600 (1945) 40 (1981) 2860 411 599 833 1010 2120 3590 4160 6590 9880
2026-04-15 04:30 7.93 703 15600 (1945) 40 (1981) 2860 411 599 833 1010 2120 3590 4160 6590 9880
2026-04-15 04:00 7.93 703 15600 (1945) 40 (1981) 2860 411 599 833 1010 2120 3590 4160 6590 9880
2026-04-15 03:30 7.94 705 15600 (1945) 40 (1981) 2860 411 599 833 1010 2120 3590 4160 6590 9880
2026-04-15 03:00 7.95 707 15600 (1945) 40 (1981) 2860 411 599 833 1010 2120 3590 4160 6590 9880
2026-04-15 02:30 7.95 707 15600 (1945) 40 (1981) 2860 411 599 833 1010 2120 3590 4160 6590 9880
2026-04-15 02:00 7.96 710 15600 (1945) 40 (1981) 2860 411 599 833 1010 2120 3590 4160 6590 9880
2026-04-15 01:30 7.97 712 15600 (1945) 40 (1981) 2860 411 599 833 1010 2120 3590 4160 6590 9880
2026-04-15 01:00 7.97 712 15600 (1945) 40 (1981) 2860 411 599 833 1010 2120 3590 4160 6590 9880
2026-04-15 00:30 7.99 716 15600 (1945) 40 (1981) 2860 411 599 833 1010 2120 3590 4160 6590 9880
2026-04-15 00:00 7.99 716 15600 (1945) 40 (1981) 2860 411 599 833 1010 2120 3590 4160 6590 9880
2026-04-14 23:30 8.01 720 15600 (1945) 40 (1981) 2860 411 599 833 1010 2120 3590 4160 6590 9880
2026-04-14 23:00 8.02 722 15600 (1945) 40 (1981) 2860 411 599 833 1010 2120 3590 4160 6590 9880
2026-04-14 22:30 8.03 725 10800 (1945) 40 (1981) 2830 456 746 903 958 2110 3700 3980 6670 9910
2026-04-14 22:00 8.04 727 10800 (1945) 40 (1981) 2830 456 746 903 958 2110 3700 3980 6670 9910
2026-04-14 21:30 8.05 729 10800 (1945) 40 (1981) 2830 456 746 903 958 2110 3700 3980 6670 9910
2026-04-14 21:00 8.07 733 10800 (1945) 40 (1981) 2830 456 746 903 958 2110 3700 3980 6670 9910
2026-04-14 20:30 8.09 738 10800 (1945) 40 (1981) 2830 456 746 903 958 2110 3700 3980 6670 9910
2026-04-14 20:00 8.11 742 10800 (1945) 40 (1981) 2830 456 746 903 958 2110 3700 3980 6670 9910
2026-04-14 19:30 8.12 744 10800 (1945) 40 (1981) 2830 456 746 903 958 2110 3700 3980 6670 9910
2026-04-14 19:00 8.13 746 10800 (1945) 40 (1981) 2830 456 746 903 958 2110 3700 3980 6670 9910
2026-04-14 18:30 8.16 753 10800 (1945) 40 (1981) 2830 456 746 903 958 2110 3700 3980 6670 9910
2026-04-14 18:00 8.18 757 10800 (1945) 40 (1981) 2830 456 746 903 958 2110 3700 3980 6670 9910
2026-04-14 17:30 8.21 764 10800 (1945) 40 (1981) 2830 456 746 903 958 2110 3700 3980 6670 9910
2026-04-14 17:00 8.23 768 10800 (1945) 40 (1981) 2830 456 746 903 958 2110 3700 3980 6670 9910
2026-04-14 16:30 8.26 775 10800 (1945) 40 (1981) 2830 456 746 903 958 2110 3700 3980 6670 9910
2026-04-14 16:00 8.28 779 10800 (1945) 40 (1981) 2830 456 746 903 958 2110 3700 3980 6670 9910
2026-04-14 15:30 8.32 788 10800 (1945) 40 (1981) 2830 456 746 903 958 2110 3700 3980 6670 9910
2026-04-14 15:00 8.36 797 10800 (1945) 40 (1981) 2830 456 746 903 958 2110 3700 3980 6670 9910
2026-04-14 14:30 8.40 806 10800 (1945) 40 (1981) 2830 456 746 903 958 2110 3700 3980 6670 9910
2026-04-14 14:00 8.45 817 10800 (1945) 40 (1981) 2830 456 746 903 958 2110 3700 3980 6670 9910
2026-04-14 13:30 8.49 826 10800 (1945) 40 (1981) 2830 456 746 903 958 2110 3700 3980 6670 9910
2026-04-14 13:00 8.54 837 10800 (1945) 40 (1981) 2830 456 746 903 958 2110 3700 3980 6670 9910
2026-04-14 12:30 8.60 851 10800 (1945) 40 (1981) 2830 456 746 903 958 2110 3700 3980 6670 9910
2026-04-14 12:00 8.66 865 10800 (1945) 40 (1981) 2830 456 746 903 958 2110 3700 3980 6670 9910
2026-04-14 10:00 9.03 951 10800 (1945) 40 (1981) 2830 456 746 903 958 2110 3700 3980 6670 9910
2026-04-14 09:00 9.23 999 10800 (1945) 40 (1981) 2830 456 746 903 958 2110 3700 3980 6670 9910
2026-04-14 08:30 9.23 999 10800 (1945) 40 (1981) 2830 456 746 903 958 2110 3700 3980 6670 9910
2026-04-14 08:00 9.23 999 10800 (1945) 40 (1981) 2830 456 746 903 958 2110 3700 3980 6670 9910
2026-04-14 07:30 9.24 1000 10800 (1945) 40 (1981) 2830 456 746 903 958 2110 3700 3980 6670 9910
2026-04-14 07:00 9.24 1000 10800 (1945) 40 (1981) 2830 456 746 903 958 2110 3700 3980 6670 9910
2026-04-14 06:30 9.23 999 10800 (1945) 40 (1981) 2830 456 746 903 958 2110 3700 3980 6670 9910
2026-04-14 06:00 9.24 1000 10800 (1945) 40 (1981) 2830 456 746 903 958 2110 3700 3980 6670 9910
2026-04-14 05:30 9.24 1000 10800 (1945) 40 (1981) 2830 456 746 903 958 2110 3700 3980 6670 9910
2026-04-14 05:00 9.24 1000 10800 (1945) 40 (1981) 2830 456 746 903 958 2110 3700 3980 6670 9910
2026-04-14 04:30 9.24 1000 10800 (1945) 40 (1981) 2830 456 746 903 958 2110 3700 3980 6670 9910
2026-04-14 04:00 9.24 1000 10800 (1945) 40 (1981) 2830 456 746 903 958 2110 3700 3980 6670 9910
2026-04-14 03:30 9.24 1000 10800 (1945) 40 (1981) 2830 456 746 903 958 2110 3700 3980 6670 9910
2026-04-14 03:00 9.23 999 10800 (1945) 40 (1981) 2830 456 746 903 958 2110 3700 3980 6670 9910
2026-04-14 02:30 9.23 999 10800 (1945) 40 (1981) 2830 456 746 903 958 2110 3700 3980 6670 9910
2026-04-14 02:00 9.24 1000 10800 (1945) 40 (1981) 2830 456 746 903 958 2110 3700 3980 6670 9910
2026-04-14 01:30 9.24 1000 10800 (1945) 40 (1981) 2830 456 746 903 958 2110 3700 3980 6670 9910
2026-04-14 01:00 9.24 1000 10800 (1945) 40 (1981) 2830 456 746 903 958 2110 3700 3980 6670 9910
2026-04-14 00:30 9.24 1000 10800 (1945) 40 (1981) 2830 456 746 903 958 2110 3700 3980 6670 9910
2026-04-14 00:00 9.24 1000 10800 (1945) 40 (1981) 2830 456 746 903 958 2110 3700 3980 6670 9910
2026-04-13 23:30 9.24 1000 10800 (1945) 40 (1981) 2830 456 746 903 958 2110 3700 3980 6670 9910
2026-04-13 23:00 9.24 1000 10800 (1945) 40 (1981) 2830 456 746 903 958 2110 3700 3980 6670 9910
2026-04-13 22:30 9.24 1000 10600 (1945) 40 (1981) 2770 482 718 884 1020 2010 3690 4090 6480 9940
2026-04-13 22:00 9.24 1000 10600 (1945) 40 (1981) 2770 482 718 884 1020 2010 3690 4090 6480 9940
2026-04-13 21:30 9.25 1000 10600 (1945) 40 (1981) 2770 482 718 884 1020 2010 3690 4090 6480 9940
2026-04-13 21:00 9.24 1000 10600 (1945) 40 (1981) 2770 482 718 884 1020 2010 3690 4090 6480 9940
2026-04-13 20:30 9.24 1000 10600 (1945) 40 (1981) 2770 482 718 884 1020 2010 3690 4090 6480 9940
2026-04-13 20:00 9.24 1000 10600 (1945) 40 (1981) 2770 482 718 884 1020 2010 3690 4090 6480 9940
2026-04-13 19:30 9.23 999 10600 (1945) 40 (1981) 2770 482 718 884 1020 2010 3690 4090 6480 9940
2026-04-13 19:00 9.25 1000 10600 (1945) 40 (1981) 2770 482 718 884 1020 2010 3690 4090 6480 9940
2026-04-13 18:30 9.25 1000 10600 (1945) 40 (1981) 2770 482 718 884 1020 2010 3690 4090 6480 9940
2026-04-13 18:00 9.25 1000 10600 (1945) 40 (1981) 2770 482 718 884 1020 2010 3690 4090 6480 9940
2026-04-13 17:30 9.24 1000 10600 (1945) 40 (1981) 2770 482 718 884 1020 2010 3690 4090 6480 9940
2026-04-13 17:00 9.24 1000 10600 (1945) 40 (1981) 2770 482 718 884 1020 2010 3690 4090 6480 9940
2026-04-13 16:30 9.25 1000 10600 (1945) 40 (1981) 2770 482 718 884 1020 2010 3690 4090 6480 9940
2026-04-13 16:00 9.25 1000 10600 (1945) 40 (1981) 2770 482 718 884 1020 2010 3690 4090 6480 9940
2026-04-13 15:30 9.24 1000 10600 (1945) 40 (1981) 2770 482 718 884 1020 2010 3690 4090 6480 9940
2026-04-13 15:00 9.25 1000 10600 (1945) 40 (1981) 2770 482 718 884 1020 2010 3690 4090 6480 9940
2026-04-13 14:30 9.24 1000 10600 (1945) 40 (1981) 2770 482 718 884 1020 2010 3690 4090 6480 9940
2026-04-13 14:00 9.24 1000 10600 (1945) 40 (1981) 2770 482 718 884 1020 2010 3690 4090 6480 9940
2026-04-13 13:30 9.25 1000 10600 (1945) 40 (1981) 2770 482 718 884 1020 2010 3690 4090 6480 9940
2026-04-13 13:00 9.25 1000 10600 (1945) 40 (1981) 2770 482 718 884 1020 2010 3690 4090 6480 9940
2026-04-13 12:30 9.26 1010 10600 (1945) 40 (1981) 2770 482 718 884 1020 2010 3690 4090 6480 9940
2026-04-13 12:00 9.24 1000 10600 (1945) 40 (1981) 2770 482 718 884 1020 2010 3690 4090 6480 9940
2026-04-13 11:30 9.26 1010 10600 (1945) 40 (1981) 2770 482 718 884 1020 2010 3690 4090 6480 9940
2026-04-13 11:00 9.25 1000 10600 (1945) 40 (1981) 2770 482 718 884 1020 2010 3690 4090 6480 9940
2026-04-13 10:30 9.25 1000 10600 (1945) 40 (1981) 2770 482 718 884 1020 2010 3690 4090 6480 9940
2026-04-13 10:00 9.25 1000 10600 (1945) 40 (1981) 2770 482 718 884 1020 2010 3690 4090 6480 9940
2026-04-13 09:30 9.25 1000 10600 (1945) 40 (1981) 2770 482 718 884 1020 2010 3690 4090 6480 9940
2026-04-13 09:00 9.25 1000 10600 (1945) 40 (1981) 2770 482 718 884 1020 2010 3690 4090 6480 9940
2026-04-13 08:30 9.25 1000 10600 (1945) 40 (1981) 2770 482 718 884 1020 2010 3690 4090 6480 9940
2026-04-13 08:00 9.26 1010 10600 (1945) 40 (1981) 2770 482 718 884 1020 2010 3690 4090 6480 9940
2026-04-13 07:30 9.25 1000 10600 (1945) 40 (1981) 2770 482 718 884 1020 2010 3690 4090 6480 9940
2026-04-13 07:00 9.25 1000 10600 (1945) 40 (1981) 2770 482 718 884 1020 2010 3690 4090 6480 9940
2026-04-13 06:30 9.25 1000 10600 (1945) 40 (1981) 2770 482 718 884 1020 2010 3690 4090 6480 9940
2026-04-13 06:00 9.26 1010 10600 (1945) 40 (1981) 2770 482 718 884 1020 2010 3690 4090 6480 9940
2026-04-13 05:30 9.25 1000 10600 (1945) 40 (1981) 2770 482 718 884 1020 2010 3690 4090 6480 9940
2026-04-13 05:00 9.25 1000 10600 (1945) 40 (1981) 2770 482 718 884 1020 2010 3690 4090 6480 9940
2026-04-13 04:30 9.25 1000 10600 (1945) 40 (1981) 2770 482 718 884 1020 2010 3690 4090 6480 9940
2026-04-13 04:00 9.25 1000 10600 (1945) 40 (1981) 2770 482 718 884 1020 2010 3690 4090 6480 9940
2026-04-13 03:30 9.25 1000 10600 (1945) 40 (1981) 2770 482 718 884 1020 2010 3690 4090 6480 9940
2026-04-13 03:00 9.25 1000 10600 (1945) 40 (1981) 2770 482 718 884 1020 2010 3690 4090 6480 9940
2026-04-13 02:30 9.25 1000 10600 (1945) 40 (1981) 2770 482 718 884 1020 2010 3690 4090 6480 9940
2026-04-13 02:00 9.24 1000 10600 (1945) 40 (1981) 2770 482 718 884 1020 2010 3690 4090 6480 9940
2026-04-13 01:30 9.26 1010 10600 (1945) 40 (1981) 2770 482 718 884 1020 2010 3690 4090 6480 9940
2026-04-13 01:00 9.26 1010 10600 (1945) 40 (1981) 2770 482 718 884 1020 2010 3690 4090 6480 9940
2026-04-13 00:30 9.25 1000 10600 (1945) 40 (1981) 2770 482 718 884 1020 2010 3690 4090 6480 9940
2026-04-13 00:00 9.26 1010 10600 (1945) 40 (1981) 2770 482 718 884 1020 2010 3690 4090 6480 9940
2026-04-12 23:30 9.25 1000 10600 (1945) 40 (1981) 2770 482 718 884 1020 2010 3690 4090 6480 9940
2026-04-12 23:00 9.25 1000 10600 (1945) 40 (1981) 2770 482 718 884 1020 2010 3690 4090 6480 9940
2026-04-12 22:30 9.25 1000 10600 (1945) 40 (1981) 2760 493 618 949 1030 1990 3840 4240 6890 9480
2026-04-12 22:00 9.25 1000 10600 (1945) 40 (1981) 2760 493 618 949 1030 1990 3840 4240 6890 9480
2026-04-12 21:30 9.25 1000 10600 (1945) 40 (1981) 2760 493 618 949 1030 1990 3840 4240 6890 9480
2026-04-12 21:00 9.26 1010 10600 (1945) 40 (1981) 2760 493 618 949 1030 1990 3840 4240 6890 9480
2026-04-12 20:30 9.26 1010 10600 (1945) 40 (1981) 2760 493 618 949 1030 1990 3840 4240 6890 9480
2026-04-12 20:00 9.26 1010 10600 (1945) 40 (1981) 2760 493 618 949 1030 1990 3840 4240 6890 9480
2026-04-12 19:30 9.25 1000 10600 (1945) 40 (1981) 2760 493 618 949 1030 1990 3840 4240 6890 9480
2026-04-12 19:00 9.25 1000 10600 (1945) 40 (1981) 2760 493 618 949 1030 1990 3840 4240 6890 9480
2026-04-12 18:30 9.25 1000 10600 (1945) 40 (1981) 2760 493 618 949 1030 1990 3840 4240 6890 9480
2026-04-12 18:00 9.26 1010 10600 (1945) 40 (1981) 2760 493 618 949 1030 1990 3840 4240 6890 9480
2026-04-12 17:30 9.25 1000 10600 (1945) 40 (1981) 2760 493 618 949 1030 1990 3840 4240 6890 9480
2026-04-12 17:00 9.26 1010 10600 (1945) 40 (1981) 2760 493 618 949 1030 1990 3840 4240 6890 9480
2026-04-12 16:30 9.26 1010 10600 (1945) 40 (1981) 2760 493 618 949 1030 1990 3840 4240 6890 9480
2026-04-12 16:00 9.25 1000 10600 (1945) 40 (1981) 2760 493 618 949 1030 1990 3840 4240 6890 9480
2026-04-12 15:30 9.26 1010 10600 (1945) 40 (1981) 2760 493 618 949 1030 1990 3840 4240 6890 9480
2026-04-12 15:00 9.28 1010 10600 (1945) 40 (1981) 2760 493 618 949 1030 1990 3840 4240 6890 9480
2026-04-12 14:30 9.25 1000 10600 (1945) 40 (1981) 2760 493 618 949 1030 1990 3840 4240 6890 9480
2026-04-12 14:00 9.26 1010 10600 (1945) 40 (1981) 2760 493 618 949 1030 1990 3840 4240 6890 9480
2026-04-12 13:30 9.26 1010 10600 (1945) 40 (1981) 2760 493 618 949 1030 1990 3840 4240 6890 9480
2026-04-12 13:00 9.26 1010 10600 (1945) 40 (1981) 2760 493 618 949 1030 1990 3840 4240 6890 9480
2026-04-12 12:30 9.27 1010 10600 (1945) 40 (1981) 2760 493 618 949 1030 1990 3840 4240 6890 9480
2026-04-12 12:00 9.26 1010 10600 (1945) 40 (1981) 2760 493 618 949 1030 1990 3840 4240 6890 9480
2026-04-12 11:30 9.25 1000 10600 (1945) 40 (1981) 2760 493 618 949 1030 1990 3840 4240 6890 9480
2026-04-12 11:00 9.27 1010 10600 (1945) 40 (1981) 2760 493 618 949 1030 1990 3840 4240 6890 9480
2026-04-12 10:30 9.26 1010 10600 (1945) 40 (1981) 2760 493 618 949 1030 1990 3840 4240 6890 9480
2026-04-12 10:00 9.26 1010 10600 (1945) 40 (1981) 2760 493 618 949 1030 1990 3840 4240 6890 9480
2026-04-12 09:30 9.26 1010 10600 (1945) 40 (1981) 2760 493 618 949 1030 1990 3840 4240 6890 9480
2026-04-12 09:00 9.27 1010 10600 (1945) 40 (1981) 2760 493 618 949 1030 1990 3840 4240 6890 9480
2026-04-12 08:30 9.26 1010 10600 (1945) 40 (1981) 2760 493 618 949 1030 1990 3840 4240 6890 9480
2026-04-12 08:00 9.26 1010 10600 (1945) 40 (1981) 2760 493 618 949 1030 1990 3840 4240 6890 9480
2026-04-12 07:30 9.27 1010 10600 (1945) 40 (1981) 2760 493 618 949 1030 1990 3840 4240 6890 9480
2026-04-12 07:00 9.26 1010 10600 (1945) 40 (1981) 2760 493 618 949 1030 1990 3840 4240 6890 9480
2026-04-12 06:30 9.26 1010 10600 (1945) 40 (1981) 2760 493 618 949 1030 1990 3840 4240 6890 9480
2026-04-12 06:00 9.27 1010 10600 (1945) 40 (1981) 2760 493 618 949 1030 1990 3840 4240 6890 9480
2026-04-12 05:30 9.26 1010 10600 (1945) 40 (1981) 2760 493 618 949 1030 1990 3840 4240 6890 9480
2026-04-12 05:00 9.27 1010 10600 (1945) 40 (1981) 2760 493 618 949 1030 1990 3840 4240 6890 9480
2026-04-12 04:30 9.27 1010 10600 (1945) 40 (1981) 2760 493 618 949 1030 1990 3840 4240 6890 9480
2026-04-12 04:00 9.27 1010 10600 (1945) 40 (1981) 2760 493 618 949 1030 1990 3840 4240 6890 9480
2026-04-12 03:30 9.26 1010 10600 (1945) 40 (1981) 2760 493 618 949 1030 1990 3840 4240 6890 9480
2026-04-12 03:00 9.27 1010 10600 (1945) 40 (1981) 2760 493 618 949 1030 1990 3840 4240 6890 9480
2026-04-12 02:30 9.27 1010 10600 (1945) 40 (1981) 2760 493 618 949 1030 1990 3840 4240 6890 9480
2026-04-12 02:00 9.26 1010 10600 (1945) 40 (1981) 2760 493 618 949 1030 1990 3840 4240 6890 9480
2026-04-12 01:30 9.27 1010 10600 (1945) 40 (1981) 2760 493 618 949 1030 1990 3840 4240 6890 9480
2026-04-12 01:00 9.26 1010 10600 (1945) 40 (1981) 2760 493 618 949 1030 1990 3840 4240 6890 9480
2026-04-12 00:30 9.27 1010 10600 (1945) 40 (1981) 2760 493 618 949 1030 1990 3840 4240 6890 9480
2026-04-12 00:00 9.26 1010 10600 (1945) 40 (1981) 2760 493 618 949 1030 1990 3840 4240 6890 9480
2026-04-11 23:30 9.27 1010 10600 (1945) 40 (1981) 2760 493 618 949 1030 1990 3840 4240 6890 9480
2026-04-11 23:00 9.26 1010 10600 (1945) 40 (1981) 2760 493 618 949 1030 1990 3840 4240 6890 9480
2026-04-11 22:30 9.27 1010 10600 (1945) 40 (1981) 2770 444 569 896 1070 1890 3880 4610 6500 8510
2026-04-11 22:00 9.27 1010 10600 (1945) 40 (1981) 2770 444 569 896 1070 1890 3880 4610 6500 8510
2026-04-11 21:30 9.27 1010 10600 (1945) 40 (1981) 2770 444 569 896 1070 1890 3880 4610 6500 8510
2026-04-11 21:00 9.26 1010 10600 (1945) 40 (1981) 2770 444 569 896 1070 1890 3880 4610 6500 8510
2026-04-11 20:30 9.27 1010 10600 (1945) 40 (1981) 2770 444 569 896 1070 1890 3880 4610 6500 8510
2026-04-11 20:00 9.27 1010 10600 (1945) 40 (1981) 2770 444 569 896 1070 1890 3880 4610 6500 8510
2026-04-11 19:30 9.27 1010 10600 (1945) 40 (1981) 2770 444 569 896 1070 1890 3880 4610 6500 8510
2026-04-11 19:00 9.27 1010 10600 (1945) 40 (1981) 2770 444 569 896 1070 1890 3880 4610 6500 8510
2026-04-11 18:30 9.27 1010 10600 (1945) 40 (1981) 2770 444 569 896 1070 1890 3880 4610 6500 8510
2026-04-11 18:00 9.26 1010 10600 (1945) 40 (1981) 2770 444 569 896 1070 1890 3880 4610 6500 8510
2026-04-11 17:30 9.27 1010 10600 (1945) 40 (1981) 2770 444 569 896 1070 1890 3880 4610 6500 8510
2026-04-11 17:00 9.27 1010 10600 (1945) 40 (1981) 2770 444 569 896 1070 1890 3880 4610 6500 8510
2026-04-11 16:30 9.28 1010 10600 (1945) 40 (1981) 2770 444 569 896 1070 1890 3880 4610 6500 8510
2026-04-11 16:00 9.27 1010 10600 (1945) 40 (1981) 2770 444 569 896 1070 1890 3880 4610 6500 8510
2026-04-11 15:30 9.28 1010 10600 (1945) 40 (1981) 2770 444 569 896 1070 1890 3880 4610 6500 8510
2026-04-11 15:00 9.27 1010 10600 (1945) 40 (1981) 2770 444 569 896 1070 1890 3880 4610 6500 8510
2026-04-11 14:30 9.28 1010 10600 (1945) 40 (1981) 2770 444 569 896 1070 1890 3880 4610 6500 8510
2026-04-11 14:00 9.27 1010 10600 (1945) 40 (1981) 2770 444 569 896 1070 1890 3880 4610 6500 8510
2026-04-11 13:30 9.28 1010 10600 (1945) 40 (1981) 2770 444 569 896 1070 1890 3880 4610 6500 8510
2026-04-11 13:00 9.28 1010 10600 (1945) 40 (1981) 2770 444 569 896 1070 1890 3880 4610 6500 8510
2026-04-11 12:30 9.27 1010 10600 (1945) 40 (1981) 2770 444 569 896 1070 1890 3880 4610 6500 8510
2026-04-11 12:00 9.28 1010 10600 (1945) 40 (1981) 2770 444 569 896 1070 1890 3880 4610 6500 8510
2026-04-11 11:30 9.28 1010 10600 (1945) 40 (1981) 2770 444 569 896 1070 1890 3880 4610 6500 8510
2026-04-11 11:00 9.28 1010 10600 (1945) 40 (1981) 2770 444 569 896 1070 1890 3880 4610 6500 8510
2026-04-11 10:30 9.28 1010 10600 (1945) 40 (1981) 2770 444 569 896 1070 1890 3880 4610 6500 8510
2026-04-11 10:00 9.28 1010 10600 (1945) 40 (1981) 2770 444 569 896 1070 1890 3880 4610 6500 8510
2026-04-11 09:30 9.27 1010 10600 (1945) 40 (1981) 2770 444 569 896 1070 1890 3880 4610 6500 8510
2026-04-11 09:00 9.28 1010 10600 (1945) 40 (1981) 2770 444 569 896 1070 1890 3880 4610 6500 8510
2026-04-11 08:30 9.28 1010 10600 (1945) 40 (1981) 2770 444 569 896 1070 1890 3880 4610 6500 8510
2026-04-11 08:00 9.29 1010 10600 (1945) 40 (1981) 2770 444 569 896 1070 1890 3880 4610 6500 8510
2026-04-11 07:30 9.28 1010 10600 (1945) 40 (1981) 2770 444 569 896 1070 1890 3880 4610 6500 8510
2026-04-11 07:00 9.28 1010 10600 (1945) 40 (1981) 2770 444 569 896 1070 1890 3880 4610 6500 8510
2026-04-11 06:30 9.29 1010 10600 (1945) 40 (1981) 2770 444 569 896 1070 1890 3880 4610 6500 8510
2026-04-11 06:00 9.29 1010 10600 (1945) 40 (1981) 2770 444 569 896 1070 1890 3880 4610 6500 8510
2026-04-11 05:30 9.28 1010 10600 (1945) 40 (1981) 2770 444 569 896 1070 1890 3880 4610 6500 8510
2026-04-11 05:00 9.28 1010 10600 (1945) 40 (1981) 2770 444 569 896 1070 1890 3880 4610 6500 8510
2026-04-11 04:30 9.28 1010 10600 (1945) 40 (1981) 2770 444 569 896 1070 1890 3880 4610 6500 8510
2026-04-11 04:00 9.28 1010 10600 (1945) 40 (1981) 2770 444 569 896 1070 1890 3880 4610 6500 8510
2026-04-11 03:30 9.28 1010 10600 (1945) 40 (1981) 2770 444 569 896 1070 1890 3880 4610 6500 8510
2026-04-11 03:00 9.28 1010 10600 (1945) 40 (1981) 2770 444 569 896 1070 1890 3880 4610 6500 8510
2026-04-11 02:30 9.29 1010 10600 (1945) 40 (1981) 2770 444 569 896 1070 1890 3880 4610 6500 8510
2026-04-11 02:00 9.29 1010 10600 (1945) 40 (1981) 2770 444 569 896 1070 1890 3880 4610 6500 8510
2026-04-11 01:30 9.29 1010 10600 (1945) 40 (1981) 2770 444 569 896 1070 1890 3880 4610 6500 8510
2026-04-11 01:00 9.28 1010 10600 (1945) 40 (1981) 2770 444 569 896 1070 1890 3880 4610 6500 8510
2026-04-11 00:30 9.28 1010 10600 (1945) 40 (1981) 2770 444 569 896 1070 1890 3880 4610 6500 8510
2026-04-11 00:00 9.29 1010 10600 (1945) 40 (1981) 2770 444 569 896 1070 1890 3880 4610 6500 8510
2026-04-10 23:30 9.28 1010 10600 (1945) 40 (1981) 2770 444 569 896 1070 1890 3880 4610 6500 8510
2026-04-10 23:00 9.28 1010 10600 (1945) 40 (1981) 2770 444 569 896 1070 1890 3880 4610 6500 8510
2026-04-10 22:30 9.29 1010 10800 (1945) 40 (1981) 2770 334 580 849 966 2030 3730 4380 6030 8680
2026-04-10 22:00 9.28 1010 10800 (1945) 40 (1981) 2770 334 580 849 966 2030 3730 4380 6030 8680
2026-04-10 21:30 9.29 1010 10800 (1945) 40 (1981) 2770 334 580 849 966 2030 3730 4380 6030 8680
2026-04-10 21:00 9.29 1010 10800 (1945) 40 (1981) 2770 334 580 849 966 2030 3730 4380 6030 8680
2026-04-10 20:30 9.29 1010 10800 (1945) 40 (1981) 2770 334 580 849 966 2030 3730 4380 6030 8680
2026-04-10 20:00 9.28 1010 10800 (1945) 40 (1981) 2770 334 580 849 966 2030 3730 4380 6030 8680
2026-04-10 19:30 9.30 1020 10800 (1945) 40 (1981) 2770 334 580 849 966 2030 3730 4380 6030 8680
2026-04-10 19:00 9.30 1020 10800 (1945) 40 (1981) 2770 334 580 849 966 2030 3730 4380 6030 8680
2026-04-10 18:30 9.30 1020 10800 (1945) 40 (1981) 2770 334 580 849 966 2030 3730 4380 6030 8680
2026-04-10 18:00 9.31 1020 10800 (1945) 40 (1981) 2770 334 580 849 966 2030 3730 4380 6030 8680
2026-04-10 17:30 9.30 1020 10800 (1945) 40 (1981) 2770 334 580 849 966 2030 3730 4380 6030 8680
2026-04-10 17:00 9.27 1010 10800 (1945) 40 (1981) 2770 334 580 849 966 2030 3730 4380 6030 8680
2026-04-10 16:30 9.26 1010 10800 (1945) 40 (1981) 2770 334 580 849 966 2030 3730 4380 6030 8680
2026-04-10 16:00 9.27 1010 10800 (1945) 40 (1981) 2770 334 580 849 966 2030 3730 4380 6030 8680
2026-04-10 15:30 9.26 1010 10800 (1945) 40 (1981) 2770 334 580 849 966 2030 3730 4380 6030 8680
2026-04-10 15:00 9.27 1010 10800 (1945) 40 (1981) 2770 334 580 849 966 2030 3730 4380 6030 8680
2026-04-10 14:30 9.27 1010 10800 (1945) 40 (1981) 2770 334 580 849 966 2030 3730 4380 6030 8680
2026-04-10 14:00 9.27 1010 10800 (1945) 40 (1981) 2770 334 580 849 966 2030 3730 4380 6030 8680
2026-04-10 13:30 9.27 1010 10800 (1945) 40 (1981) 2770 334 580 849 966 2030 3730 4380 6030 8680
2026-04-10 13:00 9.27 1010 10800 (1945) 40 (1981) 2770 334 580 849 966 2030 3730 4380 6030 8680
2026-04-10 12:30 9.26 1010 10800 (1945) 40 (1981) 2770 334 580 849 966 2030 3730 4380 6030 8680
2026-04-10 12:00 9.27 1010 10800 (1945) 40 (1981) 2770 334 580 849 966 2030 3730 4380 6030 8680
2026-04-10 11:30 9.27 1010 10800 (1945) 40 (1981) 2770 334 580 849 966 2030 3730 4380 6030 8680
2026-04-10 11:00 9.27 1010 10800 (1945) 40 (1981) 2770 334 580 849 966 2030 3730 4380 6030 8680
2026-04-10 10:30 9.27 1010 10800 (1945) 40 (1981) 2770 334 580 849 966 2030 3730 4380 6030 8680
2026-04-10 10:00 9.27 1010 10800 (1945) 40 (1981) 2770 334 580 849 966 2030 3730 4380 6030 8680
2026-04-10 09:30 9.27 1010 10800 (1945) 40 (1981) 2770 334 580 849 966 2030 3730 4380 6030 8680
2026-04-10 09:00 9.27 1010 10800 (1945) 40 (1981) 2770 334 580 849 966 2030 3730 4380 6030 8680
2026-04-10 08:30 9.27 1010 10800 (1945) 40 (1981) 2770 334 580 849 966 2030 3730 4380 6030 8680
2026-04-10 08:00 9.27 1010 10800 (1945) 40 (1981) 2770 334 580 849 966 2030 3730 4380 6030 8680
2026-04-10 07:30 9.28 1010 10800 (1945) 40 (1981) 2770 334 580 849 966 2030 3730 4380 6030 8680
2026-04-10 07:00 9.27 1010 10800 (1945) 40 (1981) 2770 334 580 849 966 2030 3730 4380 6030 8680
2026-04-10 06:30 9.28 1010 10800 (1945) 40 (1981) 2770 334 580 849 966 2030 3730 4380 6030 8680
2026-04-10 06:00 9.27 1010 10800 (1945) 40 (1981) 2770 334 580 849 966 2030 3730 4380 6030 8680
2026-04-10 05:30 9.27 1010 10800 (1945) 40 (1981) 2770 334 580 849 966 2030 3730 4380 6030 8680
2026-04-10 05:00 9.27 1010 10800 (1945) 40 (1981) 2770 334 580 849 966 2030 3730 4380 6030 8680
2026-04-10 04:30 9.27 1010 10800 (1945) 40 (1981) 2770 334 580 849 966 2030 3730 4380 6030 8680
2026-04-10 04:00 9.27 1010 10800 (1945) 40 (1981) 2770 334 580 849 966 2030 3730 4380 6030 8680
2026-04-10 03:30 9.27 1010 10800 (1945) 40 (1981) 2770 334 580 849 966 2030 3730 4380 6030 8680
2026-04-10 03:00 9.28 1010 10800 (1945) 40 (1981) 2770 334 580 849 966 2030 3730 4380 6030 8680
2026-04-10 02:30 9.27 1010 10800 (1945) 40 (1981) 2770 334 580 849 966 2030 3730 4380 6030 8680
2026-04-10 02:00 9.26 1010 10800 (1945) 40 (1981) 2770 334 580 849 966 2030 3730 4380 6030 8680
2026-04-10 01:30 9.27 1010 10800 (1945) 40 (1981) 2770 334 580 849 966 2030 3730 4380 6030 8680
2026-04-10 01:00 9.27 1010 10800 (1945) 40 (1981) 2770 334 580 849 966 2030 3730 4380 6030 8680
2026-04-10 00:30 9.27 1010 10800 (1945) 40 (1981) 2770 334 580 849 966 2030 3730 4380 6030 8680
2026-04-10 00:00 9.27 1010 10800 (1945) 40 (1981) 2770 334 580 849 966 2030 3730 4380 6030 8680
2026-04-09 23:30 9.27 1010 10800 (1945) 40 (1981) 2770 334 580 849 966 2030 3730 4380 6030 8680
2026-04-09 23:00 9.27 1010 10800 (1945) 40 (1981) 2770 334 580 849 966 2030 3730 4380 6030 8680
2026-04-09 22:30 9.26 1010 10600 (1945) 40 (1972) 2760 78 502 938 1030 2250 3630 4150 6360 8820
2026-04-09 22:00 9.27 1010 10600 (1945) 40 (1972) 2760 78 502 938 1030 2250 3630 4150 6360 8820
2026-04-09 21:30 9.27 1010 10600 (1945) 40 (1972) 2760 78 502 938 1030 2250 3630 4150 6360 8820
2026-04-09 21:00 9.27 1010 10600 (1945) 40 (1972) 2760 78 502 938 1030 2250 3630 4150 6360 8820
2026-04-09 20:30 9.26 1010 10600 (1945) 40 (1972) 2760 78 502 938 1030 2250 3630 4150 6360 8820
2026-04-09 20:00 9.27 1010 10600 (1945) 40 (1972) 2760 78 502 938 1030 2250 3630 4150 6360 8820
2026-04-09 19:30 9.27 1010 10600 (1945) 40 (1972) 2760 78 502 938 1030 2250 3630 4150 6360 8820
2026-04-09 19:00 9.27 1010 10600 (1945) 40 (1972) 2760 78 502 938 1030 2250 3630 4150 6360 8820
2026-04-09 18:30 9.27 1010 10600 (1945) 40 (1972) 2760 78 502 938 1030 2250 3630 4150 6360 8820
2026-04-09 18:00 9.27 1010 10600 (1945) 40 (1972) 2760 78 502 938 1030 2250 3630 4150 6360 8820
2026-04-09 17:30 9.28 1010 10600 (1945) 40 (1972) 2760 78 502 938 1030 2250 3630 4150 6360 8820
2026-04-09 17:00 9.27 1010 10600 (1945) 40 (1972) 2760 78 502 938 1030 2250 3630 4150 6360 8820
2026-04-09 16:30 9.28 1010 10600 (1945) 40 (1972) 2760 78 502 938 1030 2250 3630 4150 6360 8820
2026-04-09 16:00 9.27 1010 10600 (1945) 40 (1972) 2760 78 502 938 1030 2250 3630 4150 6360 8820
2026-04-09 15:30 9.27 1010 10600 (1945) 40 (1972) 2760 78 502 938 1030 2250 3630 4150 6360 8820
2026-04-09 15:00 9.27 1010 10600 (1945) 40 (1972) 2760 78 502 938 1030 2250 3630 4150 6360 8820
2026-04-09 14:30 9.27 1010 10600 (1945) 40 (1972) 2760 78 502 938 1030 2250 3630 4150 6360 8820
2026-04-09 14:00 9.28 1010 10600 (1945) 40 (1972) 2760 78 502 938 1030 2250 3630 4150 6360 8820
2026-04-09 13:30 9.27 1010 10600 (1945) 40 (1972) 2760 78 502 938 1030 2250 3630 4150 6360 8820
2026-04-09 13:00 9.28 1010 10600 (1945) 40 (1972) 2760 78 502 938 1030 2250 3630 4150 6360 8820
2026-04-09 12:30 9.27 1010 10600 (1945) 40 (1972) 2760 78 502 938 1030 2250 3630 4150 6360 8820
2026-04-09 12:00 9.28 1010 10600 (1945) 40 (1972) 2760 78 502 938 1030 2250 3630 4150 6360 8820
2026-04-09 11:30 9.27 1010 10600 (1945) 40 (1972) 2760 78 502 938 1030 2250 3630 4150 6360 8820
2026-04-09 11:00 9.26 1010 10600 (1945) 40 (1972) 2760 78 502 938 1030 2250 3630 4150 6360 8820
2026-04-09 10:30 9.27 1010 10600 (1945) 40 (1972) 2760 78 502 938 1030 2250 3630 4150 6360 8820
2026-04-09 10:00 1010 10600 (1945) 40 (1972) 2760 78 502 938 1030 2250 3630 4150 6360 8820
2026-04-08 19:00 9.26 1010 10600 (1945) 29 (1982) 2800 68 525 989 1120 2310 3500 4390 6940 8950
2026-04-08 18:30 9.26 1010 10600 (1945) 29 (1982) 2800 68 525 989 1120 2310 3500 4390 6940 8950
2026-04-08 18:00 9.26 1010 10600 (1945) 29 (1982) 2800 68 525 989 1120 2310 3500 4390 6940 8950
2026-04-08 17:30 9.27 1010 10600 (1945) 29 (1982) 2800 68 525 989 1120 2310 3500 4390 6940 8950
2026-04-08 17:00 9.26 1010 10600 (1945) 29 (1982) 2800 68 525 989 1120 2310 3500 4390 6940 8950
2026-04-08 16:30 9.26 1010 10600 (1945) 29 (1982) 2800 68 525 989 1120 2310 3500 4390 6940 8950
2026-04-08 16:00 9.26 1010 10600 (1945) 29 (1982) 2800 68 525 989 1120 2310 3500 4390 6940 8950
2026-04-08 15:30 9.26 1010 10600 (1945) 29 (1982) 2800 68 525 989 1120 2310 3500 4390 6940 8950
2026-04-08 15:00 9.26 1010 10600 (1945) 29 (1982) 2800 68 525 989 1120 2310 3500 4390 6940 8950
2026-04-08 14:30 9.26 1010 10600 (1945) 29 (1982) 2800 68 525 989 1120 2310 3500 4390 6940 8950
2026-04-08 14:00 9.19 989 10600 (1945) 29 (1982) 2800 68 525 989 1120 2310 3500 4390 6940 8950
2026-04-08 13:30 9.19 989 10600 (1945) 29 (1982) 2800 68 525 989 1120 2310 3500 4390 6940 8950
2026-04-08 13:00 9.20 992 10600 (1945) 29 (1982) 2800 68 525 989 1120 2310 3500 4390 6940 8950
2026-04-08 12:30 9.19 989 10600 (1945) 29 (1982) 2800 68 525 989 1120 2310 3500 4390 6940 8950
2026-04-08 12:00 9.20 992 10600 (1945) 29 (1982) 2800 68 525 989 1120 2310 3500 4390 6940 8950
2026-04-08 11:30 9.18 987 10600 (1945) 29 (1982) 2800 68 525 989 1120 2310 3500 4390 6940 8950
2026-04-08 11:00 9.20 992 10600 (1945) 29 (1982) 2800 68 525 989 1120 2310 3500 4390 6940 8950
2026-04-08 10:30 9.19 989 10600 (1945) 29 (1982) 2800 68 525 989 1120 2310 3500 4390 6940 8950
2026-04-08 10:00 9.18 987 10600 (1945) 29 (1982) 2800 68 525 989 1120 2310 3500 4390 6940 8950
2026-04-08 09:30 9.19 989 10600 (1945) 29 (1982) 2800 68 525 989 1120 2310 3500 4390 6940 8950
2026-04-08 09:00 9.19 989 10600 (1945) 29 (1982) 2800 68 525 989 1120 2310 3500 4390 6940 8950
2026-04-08 08:30 9.19 989 10600 (1945) 29 (1982) 2800 68 525 989 1120 2310 3500 4390 6940 8950
2026-04-08 08:00 9.19 989 10600 (1945) 29 (1982) 2800 68 525 989 1120 2310 3500 4390 6940 8950
2026-04-08 07:30 9.19 989 10600 (1945) 29 (1982) 2800 68 525 989 1120 2310 3500 4390 6940 8950
2026-04-08 07:00 9.18 987 10600 (1945) 29 (1982) 2800 68 525 989 1120 2310 3500 4390 6940 8950
2026-04-08 06:30 9.19 989 10600 (1945) 29 (1982) 2800 68 525 989 1120 2310 3500 4390 6940 8950
2026-04-08 06:00 9.19 989 10600 (1945) 29 (1982) 2800 68 525 989 1120 2310 3500 4390 6940 8950
2026-04-08 05:30 9.18 987 10600 (1945) 29 (1982) 2800 68 525 989 1120 2310 3500 4390 6940 8950
2026-04-08 05:00 9.18 987 10600 (1945) 29 (1982) 2800 68 525 989 1120 2310 3500 4390 6940 8950
2026-04-08 04:30 9.18 987 10600 (1945) 29 (1982) 2800 68 525 989 1120 2310 3500 4390 6940 8950
2026-04-08 04:00 9.18 987 10600 (1945) 29 (1982) 2800 68 525 989 1120 2310 3500 4390 6940 8950
2026-04-08 03:30 9.18 987 10600 (1945) 29 (1982) 2800 68 525 989 1120 2310 3500 4390 6940 8950
2026-04-08 03:00 9.17 985 10600 (1945) 29 (1982) 2800 68 525 989 1120 2310 3500 4390 6940 8950
2026-04-08 02:30 9.17 985 10600 (1945) 29 (1982) 2800 68 525 989 1120 2310 3500 4390 6940 8950
2026-04-08 02:00 9.17 985 10600 (1945) 29 (1982) 2800 68 525 989 1120 2310 3500 4390 6940 8950
2026-04-08 01:30 9.17 985 10600 (1945) 29 (1982) 2800 68 525 989 1120 2310 3500 4390 6940 8950
2026-04-08 01:00 9.17 985 10600 (1945) 29 (1982) 2800 68 525 989 1120 2310 3500 4390 6940 8950
2026-04-08 00:30 9.17 985 10600 (1945) 29 (1982) 2800 68 525 989 1120 2310 3500 4390 6940 8950
2026-04-08 00:00 9.16 982 10600 (1945) 29 (1982) 2800 68 525 989 1120 2310 3500 4390 6940 8950
2026-04-07 23:30 9.17 985 10600 (1945) 29 (1982) 2800 68 525 989 1120 2310 3500 4390 6940 8950
2026-04-07 23:00 9.15 980 10600 (1945) 29 (1982) 2800 68 525 989 1120 2310 3500 4390 6940 8950
2026-04-07 22:30 9.15 980 11200 (1945) 25 (1982) 2860 40 533 963 1110 2150 3650 4600 7110 9510
2026-04-07 22:00 9.15 980 11200 (1945) 25 (1982) 2860 40 533 963 1110 2150 3650 4600 7110 9510
2026-04-07 21:30 9.15 980 11200 (1945) 25 (1982) 2860 40 533 963 1110 2150 3650 4600 7110 9510
2026-04-07 21:00 9.15 980 11200 (1945) 25 (1982) 2860 40 533 963 1110 2150 3650 4600 7110 9510
2026-04-07 20:30 9.15 980 11200 (1945) 25 (1982) 2860 40 533 963 1110 2150 3650 4600 7110 9510
2026-04-07 20:00 9.14 977 11200 (1945) 25 (1982) 2860 40 533 963 1110 2150 3650 4600 7110 9510
2026-04-07 19:30 9.14 977 11200 (1945) 25 (1982) 2860 40 533 963 1110 2150 3650 4600 7110 9510
2026-04-07 19:00 9.14 977 11200 (1945) 25 (1982) 2860 40 533 963 1110 2150 3650 4600 7110 9510
2026-04-07 18:30 9.15 980 11200 (1945) 25 (1982) 2860 40 533 963 1110 2150 3650 4600 7110 9510
2026-04-07 18:00 9.15 980 11200 (1945) 25 (1982) 2860 40 533 963 1110 2150 3650 4600 7110 9510
2026-04-07 17:30 9.14 977 11200 (1945) 25 (1982) 2860 40 533 963 1110 2150 3650 4600 7110 9510
2026-04-07 17:00 9.13 975 11200 (1945) 25 (1982) 2860 40 533 963 1110 2150 3650 4600 7110 9510
2026-04-07 16:30 9.12 973 11200 (1945) 25 (1982) 2860 40 533 963 1110 2150 3650 4600 7110 9510
2026-04-07 16:00 9.12 973 11200 (1945) 25 (1982) 2860 40 533 963 1110 2150 3650 4600 7110 9510
2026-04-07 15:30 9.12 973 11200 (1945) 25 (1982) 2860 40 533 963 1110 2150 3650 4600 7110 9510
2026-04-07 15:00 9.12 973 11200 (1945) 25 (1982) 2860 40 533 963 1110 2150 3650 4600 7110 9510
2026-04-07 14:30 9.12 973 11200 (1945) 25 (1982) 2860 40 533 963 1110 2150 3650 4600 7110 9510
2026-04-07 14:00 9.12 973 11200 (1945) 25 (1982) 2860 40 533 963 1110 2150 3650 4600 7110 9510
2026-04-07 13:30 9.12 973 11200 (1945) 25 (1982) 2860 40 533 963 1110 2150 3650 4600 7110 9510
2026-04-07 13:00 9.12 973 11200 (1945) 25 (1982) 2860 40 533 963 1110 2150 3650 4600 7110 9510
2026-04-07 12:30 9.11 970 11200 (1945) 25 (1982) 2860 40 533 963 1110 2150 3650 4600 7110 9510
2026-04-07 12:00 9.10 968 11200 (1945) 25 (1982) 2860 40 533 963 1110 2150 3650 4600 7110 9510
2026-04-07 11:30 9.09 965 11200 (1945) 25 (1982) 2860 40 533 963 1110 2150 3650 4600 7110 9510
2026-04-07 11:00 9.10 968 11200 (1945) 25 (1982) 2860 40 533 963 1110 2150 3650 4600 7110 9510
2026-04-07 10:30 9.08 963 11200 (1945) 25 (1982) 2860 40 533 963 1110 2150 3650 4600 7110 9510
2026-04-07 10:00 9.07 961 11200 (1945) 25 (1982) 2860 40 533 963 1110 2150 3650 4600 7110 9510
2026-04-07 09:30 9.07 961 11200 (1945) 25 (1982) 2860 40 533 963 1110 2150 3650 4600 7110 9510
2026-04-07 09:00 9.07 961 11200 (1945) 25 (1982) 2860 40 533 963 1110 2150 3650 4600 7110 9510
2026-04-07 08:30 9.06 958 11200 (1945) 25 (1982) 2860 40 533 963 1110 2150 3650 4600 7110 9510
2026-04-07 08:00 9.05 956 11200 (1945) 25 (1982) 2860 40 533 963 1110 2150 3650 4600 7110 9510
2026-04-07 07:30 9.04 954 11200 (1945) 25 (1982) 2860 40 533 963 1110 2150 3650 4600 7110 9510
2026-04-07 07:00 9.03 951 11200 (1945) 25 (1982) 2860 40 533 963 1110 2150 3650 4600 7110 9510
2026-04-07 06:30 9.03 951 11200 (1945) 25 (1982) 2860 40 533 963 1110 2150 3650 4600 7110 9510
2026-04-07 06:00 9.01 946 11200 (1945) 25 (1982) 2860 40 533 963 1110 2150 3650 4600 7110 9510
2026-04-07 05:30 9.00 944 11200 (1945) 25 (1982) 2860 40 533 963 1110 2150 3650 4600 7110 9510
2026-04-07 05:00 8.98 939 11200 (1945) 25 (1982) 2860 40 533 963 1110 2150 3650 4600 7110 9510
2026-04-07 04:30 8.98 939 11200 (1945) 25 (1982) 2860 40 533 963 1110 2150 3650 4600 7110 9510
2026-04-07 04:00 8.96 935 11200 (1945) 25 (1982) 2860 40 533 963 1110 2150 3650 4600 7110 9510
2026-04-07 03:30 8.96 935 11200 (1945) 25 (1982) 2860 40 533 963 1110 2150 3650 4600 7110 9510
2026-04-07 03:00 8.94 930 11200 (1945) 25 (1982) 2860 40 533 963 1110 2150 3650 4600 7110 9510
2026-04-07 02:30 8.93 928 11200 (1945) 25 (1982) 2860 40 533 963 1110 2150 3650 4600 7110 9510
2026-04-07 02:00 8.91 923 11200 (1945) 25 (1982) 2860 40 533 963 1110 2150 3650 4600 7110 9510
2026-04-07 01:30 8.89 918 11200 (1945) 25 (1982) 2860 40 533 963 1110 2150 3650 4600 7110 9510
2026-04-07 01:00 8.87 913 11200 (1945) 25 (1982) 2860 40 533 963 1110 2150 3650 4600 7110 9510
2026-04-07 00:30 8.86 911 11200 (1945) 25 (1982) 2860 40 533 963 1110 2150 3650 4600 7110 9510
2026-04-07 00:00 8.83 904 11200 (1945) 25 (1982) 2860 40 533 963 1110 2150 3650 4600 7110 9510
2026-04-06 23:30 8.81 899 11200 (1945) 25 (1982) 2860 40 533 963 1110 2150 3650 4600 7110 9510
2026-04-06 23:00 8.79 895 11200 (1945) 25 (1982) 2860 40 533 963 1110 2150 3650 4600 7110 9510
2026-04-06 22:30 8.76 888 12100 (1945) 23 (1982) 2910 40 438 982 1090 2260 3810 4470 7150 9860
2026-04-06 22:00 8.73 881 12100 (1945) 23 (1982) 2910 40 438 982 1090 2260 3810 4470 7150 9860
2026-04-06 21:30 8.71 876 12100 (1945) 23 (1982) 2910 40 438 982 1090 2260 3810 4470 7150 9860
2026-04-06 21:00 8.68 869 12100 (1945) 23 (1982) 2910 40 438 982 1090 2260 3810 4470 7150 9860
2026-04-06 20:30 8.64 860 12100 (1945) 23 (1982) 2910 40 438 982 1090 2260 3810 4470 7150 9860
2026-04-06 20:00 8.61 853 12100 (1945) 23 (1982) 2910 40 438 982 1090 2260 3810 4470 7150 9860
2026-04-06 19:30 8.56 842 12100 (1945) 23 (1982) 2910 40 438 982 1090 2260 3810 4470 7150 9860
2026-04-06 19:00 8.52 833 12100 (1945) 23 (1982) 2910 40 438 982 1090 2260 3810 4470 7150 9860
2026-04-06 18:30 8.47 822 12100 (1945) 23 (1982) 2910 40 438 982 1090 2260 3810 4470 7150 9860
2026-04-06 18:00 8.42 810 12100 (1945) 23 (1982) 2910 40 438 982 1090 2260 3810 4470 7150 9860
2026-04-06 17:30 8.37 799 12100 (1945) 23 (1982) 2910 40 438 982 1090 2260 3810 4470 7150 9860
2026-04-06 17:00 8.31 786 12100 (1945) 23 (1982) 2910 40 438 982 1090 2260 3810 4470 7150 9860
2026-04-06 16:30 8.24 770 12100 (1945) 23 (1982) 2910 40 438 982 1090 2260 3810 4470 7150 9860
2026-04-06 16:00 8.15 751 12100 (1945) 23 (1982) 2910 40 438 982 1090 2260 3810 4470 7150 9860
2026-04-06 15:30 8.08 735 12100 (1945) 23 (1982) 2910 40 438 982 1090 2260 3810 4470 7150 9860
2026-04-06 15:00 7.98 714 12100 (1945) 23 (1982) 2910 40 438 982 1090 2260 3810 4470 7150 9860
2026-04-06 14:30 7.88 693 12100 (1945) 23 (1982) 2910 40 438 982 1090 2260 3810 4470 7150 9860
2026-04-06 14:00 7.76 667 12100 (1945) 23 (1982) 2910 40 438 982 1090 2260 3810 4470 7150 9860
2026-04-06 13:30 7.62 638 12100 (1945) 23 (1982) 2910 40 438 982 1090 2260 3810 4470 7150 9860
2026-04-06 13:00 7.46 606 12100 (1945) 23 (1982) 2910 40 438 982 1090 2260 3810 4470 7150 9860
2026-04-06 12:30 7.27 568 12100 (1945) 23 (1982) 2910 40 438 982 1090 2260 3810 4470 7150 9860
2026-04-06 12:00 7.06 527 12100 (1945) 23 (1982) 2910 40 438 982 1090 2260 3810 4470 7150 9860
2026-04-06 11:30 6.90 496 12100 (1945) 23 (1982) 2910 40 438 982 1090 2260 3810 4470 7150 9860
2026-04-06 11:00 6.67 454 12100 (1945) 23 (1982) 2910 40 438 982 1090 2260 3810 4470 7150 9860
2026-04-06 10:30 6.38 402 12100 (1945) 23 (1982) 2910 40 438 982 1090 2260 3810 4470 7150 9860
2026-04-06 10:00 5.99 336 12100 (1945) 23 (1982) 2910 40 438 982 1090 2260 3810 4470 7150 9860
2026-04-06 09:30 5.61 276 12100 (1945) 23 (1982) 2910 40 438 982 1090 2260 3810 4470 7150 9860
2026-04-06 09:00 5.62 278 12100 (1945) 23 (1982) 2910 40 438 982 1090 2260 3810 4470 7150 9860
2026-04-06 08:30 5.61 276 12100 (1945) 23 (1982) 2910 40 438 982 1090 2260 3810 4470 7150 9860
2026-04-06 08:00 5.61 276 12100 (1945) 23 (1982) 2910 40 438 982 1090 2260 3810 4470 7150 9860
2026-04-06 07:30 5.61 276 12100 (1945) 23 (1982) 2910 40 438 982 1090 2260 3810 4470 7150 9860
2026-04-06 07:00 5.61 276 12100 (1945) 23 (1982) 2910 40 438 982 1090 2260 3810 4470 7150 9860
2026-04-06 06:30 5.61 276 12100 (1945) 23 (1982) 2910 40 438 982 1090 2260 3810 4470 7150 9860
2026-04-06 06:00 5.61 276 12100 (1945) 23 (1982) 2910 40 438 982 1090 2260 3810 4470 7150 9860
2026-04-06 05:30 5.61 276 12100 (1945) 23 (1982) 2910 40 438 982 1090 2260 3810 4470 7150 9860
2026-04-06 05:00 5.61 276 12100 (1945) 23 (1982) 2910 40 438 982 1090 2260 3810 4470 7150 9860
2026-04-06 04:30 5.61 276 12100 (1945) 23 (1982) 2910 40 438 982 1090 2260 3810 4470 7150 9860
2026-04-06 04:00 5.61 276 12100 (1945) 23 (1982) 2910 40 438 982 1090 2260 3810 4470 7150 9860
2026-04-06 03:30 5.61 276 12100 (1945) 23 (1982) 2910 40 438 982 1090 2260 3810 4470 7150 9860
2026-04-06 03:00 5.61 276 12100 (1945) 23 (1982) 2910 40 438 982 1090 2260 3810 4470 7150 9860
2026-04-06 02:30 5.61 276 12100 (1945) 23 (1982) 2910 40 438 982 1090 2260 3810 4470 7150 9860
2026-04-06 02:00 5.61 276 12100 (1945) 23 (1982) 2910 40 438 982 1090 2260 3810 4470 7150 9860
2026-04-06 01:30 5.60 275 12100 (1945) 23 (1982) 2910 40 438 982 1090 2260 3810 4470 7150 9860
2026-04-06 01:00 5.61 276 12100 (1945) 23 (1982) 2910 40 438 982 1090 2260 3810 4470 7150 9860
2026-04-06 00:30 5.60 275 12100 (1945) 23 (1982) 2910 40 438 982 1090 2260 3810 4470 7150 9860
2026-04-06 00:00 5.61 276 12100 (1945) 23 (1982) 2910 40 438 982 1090 2260 3810 4470 7150 9860
2026-04-05 23:30 5.61 276 12100 (1945) 23 (1982) 2910 40 438 982 1090 2260 3810 4470 7150 9860
2026-04-05 23:00 5.61 276 12100 (1945) 23 (1982) 2910 40 438 982 1090 2260 3810 4470 7150 9860
2026-04-05 22:30 5.61 276 13100 (1945) 31 (1982) 2960 40 348 997 1140 2100 3870 4130 7260 9960
2026-04-05 22:00 5.60 275 13100 (1945) 31 (1982) 2960 40 348 997 1140 2100 3870 4130 7260 9960
2026-04-05 21:30 5.60 275 13100 (1945) 31 (1982) 2960 40 348 997 1140 2100 3870 4130 7260 9960
2026-04-05 21:00 5.61 276 13100 (1945) 31 (1982) 2960 40 348 997 1140 2100 3870 4130 7260 9960
2026-04-05 20:30 5.61 276 13100 (1945) 31 (1982) 2960 40 348 997 1140 2100 3870 4130 7260 9960
2026-04-05 20:00 5.61 276 13100 (1945) 31 (1982) 2960 40 348 997 1140 2100 3870 4130 7260 9960
2026-04-05 19:30 5.61 276 13100 (1945) 31 (1982) 2960 40 348 997 1140 2100 3870 4130 7260 9960
2026-04-05 19:00 5.61 276 13100 (1945) 31 (1982) 2960 40 348 997 1140 2100 3870 4130 7260 9960
2026-04-05 18:30 5.62 278 13100 (1945) 31 (1982) 2960 40 348 997 1140 2100 3870 4130 7260 9960
2026-04-05 18:00 5.61 276 13100 (1945) 31 (1982) 2960 40 348 997 1140 2100 3870 4130 7260 9960
2026-04-05 17:30 5.61 276 13100 (1945) 31 (1982) 2960 40 348 997 1140 2100 3870 4130 7260 9960
2026-04-05 17:00 5.61 276 13100 (1945) 31 (1982) 2960 40 348 997 1140 2100 3870 4130 7260 9960
2026-04-05 16:30 5.62 278 13100 (1945) 31 (1982) 2960 40 348 997 1140 2100 3870 4130 7260 9960
2026-04-05 16:00 5.61 276 13100 (1945) 31 (1982) 2960 40 348 997 1140 2100 3870 4130 7260 9960
2026-04-05 15:30 5.62 278 13100 (1945) 31 (1982) 2960 40 348 997 1140 2100 3870 4130 7260 9960
2026-04-05 15:00 5.61 276 13100 (1945) 31 (1982) 2960 40 348 997 1140 2100 3870 4130 7260 9960
2026-04-05 14:30 5.61 276 13100 (1945) 31 (1982) 2960 40 348 997 1140 2100 3870 4130 7260 9960
2026-04-05 14:00 5.61 276 13100 (1945) 31 (1982) 2960 40 348 997 1140 2100 3870 4130 7260 9960
2026-04-05 13:30 5.61 276 13100 (1945) 31 (1982) 2960 40 348 997 1140 2100 3870 4130 7260 9960
2026-04-05 13:00 5.60 275 13100 (1945) 31 (1982) 2960 40 348 997 1140 2100 3870 4130 7260 9960
2026-04-05 12:30 5.60 275 13100 (1945) 31 (1982) 2960 40 348 997 1140 2100 3870 4130 7260 9960
2026-04-05 12:00 5.61 276 13100 (1945) 31 (1982) 2960 40 348 997 1140 2100 3870 4130 7260 9960
2026-04-05 11:30 5.60 275 13100 (1945) 31 (1982) 2960 40 348 997 1140 2100 3870 4130 7260 9960
2026-04-05 11:00 5.60 275 13100 (1945) 31 (1982) 2960 40 348 997 1140 2100 3870 4130 7260 9960
2026-04-05 10:30 5.60 275 13100 (1945) 31 (1982) 2960 40 348 997 1140 2100 3870 4130 7260 9960
2026-04-05 10:00 5.60 275 13100 (1945) 31 (1982) 2960 40 348 997 1140 2100 3870 4130 7260 9960
2026-04-05 09:30 5.59 273 13100 (1945) 31 (1982) 2960 40 348 997 1140 2100 3870 4130 7260 9960
2026-04-05 09:00 5.59 273 13100 (1945) 31 (1982) 2960 40 348 997 1140 2100 3870 4130 7260 9960
2026-04-05 08:30 5.59 273 13100 (1945) 31 (1982) 2960 40 348 997 1140 2100 3870 4130 7260 9960
2026-04-05 08:00 5.59 273 13100 (1945) 31 (1982) 2960 40 348 997 1140 2100 3870 4130 7260 9960
2026-04-05 07:30 5.59 273 13100 (1945) 31 (1982) 2960 40 348 997 1140 2100 3870 4130 7260 9960
2026-04-05 07:00 5.59 273 13100 (1945) 31 (1982) 2960 40 348 997 1140 2100 3870 4130 7260 9960
2026-04-05 06:30 5.59 273 13100 (1945) 31 (1982) 2960 40 348 997 1140 2100 3870 4130 7260 9960
2026-04-05 06:00 5.59 13100 (1945) 31 (1982) 2960 40 348 997 1140 2100 3870 4130 7260 9960
2026-04-05 05:30 273 13100 (1945) 31 (1982) 2960 40 348 997 1140 2100 3870 4130 7260 9960
2026-04-05 05:00 273 13100 (1945) 31 (1982) 2960 40 348 997 1140 2100 3870 4130 7260 9960
2026-04-05 04:30 5.59 13100 (1945) 31 (1982) 2960 40 348 997 1140 2100 3870 4130 7260 9960
2026-04-05 04:00 5.59 13100 (1945) 31 (1982) 2960 40 348 997 1140 2100 3870 4130 7260 9960
2026-04-05 03:30 273 13100 (1945) 31 (1982) 2960 40 348 997 1140 2100 3870 4130 7260 9960
2026-04-05 03:00 5.59 273 13100 (1945) 31 (1982) 2960 40 348 997 1140 2100 3870 4130 7260 9960
2026-04-05 02:30 5.59 273 13100 (1945) 31 (1982) 2960 40 348 997 1140 2100 3870 4130 7260 9960
2026-04-05 01:30 5.59 273 13100 (1945) 31 (1982) 2960 40 348 997 1140 2100 3870 4130 7260 9960
2026-04-05 01:00 5.59 273 13100 (1945) 31 (1982) 2960 40 348 997 1140 2100 3870 4130 7260 9960
2026-04-05 00:30 5.59 273 13100 (1945) 31 (1982) 2960 40 348 997 1140 2100 3870 4130 7260 9960
2026-04-05 00:00 5.59 273 13100 (1945) 31 (1982) 2960 40 348 997 1140 2100 3870 4130 7260 9960
2026-04-04 23:30 5.59 273 13100 (1945) 31 (1982) 2960 40 348 997 1140 2100 3870 4130 7260 9960
2026-04-04 23:00 5.59 273 13100 (1945) 31 (1982) 2960 40 348 997 1140 2100 3870 4130 7260 9960
2026-04-04 22:30 5.60 275 12400 (1945) 40 (1971) 2930 66 231 863 1170 2170 3870 4630 6740 8970
2026-04-04 22:00 5.60 275 12400 (1945) 40 (1971) 2930 66 231 863 1170 2170 3870 4630 6740 8970
2026-04-04 21:30 5.60 275 12400 (1945) 40 (1971) 2930 66 231 863 1170 2170 3870 4630 6740 8970
2026-04-04 21:00 5.60 275 12400 (1945) 40 (1971) 2930 66 231 863 1170 2170 3870 4630 6740 8970
2026-04-04 20:30 5.60 275 12400 (1945) 40 (1971) 2930 66 231 863 1170 2170 3870 4630 6740 8970
2026-04-04 20:00 5.61 276 12400 (1945) 40 (1971) 2930 66 231 863 1170 2170 3870 4630 6740 8970
2026-04-04 19:30 5.60 275 12400 (1945) 40 (1971) 2930 66 231 863 1170 2170 3870 4630 6740 8970
2026-04-04 19:00 5.61 276 12400 (1945) 40 (1971) 2930 66 231 863 1170 2170 3870 4630 6740 8970
2026-04-04 18:30 5.61 276 12400 (1945) 40 (1971) 2930 66 231 863 1170 2170 3870 4630 6740 8970
2026-04-04 18:00 5.61 276 12400 (1945) 40 (1971) 2930 66 231 863 1170 2170 3870 4630 6740 8970
2026-04-04 17:30 5.62 278 12400 (1945) 40 (1971) 2930 66 231 863 1170 2170 3870 4630 6740 8970
2026-04-04 17:00 5.62 278 12400 (1945) 40 (1971) 2930 66 231 863 1170 2170 3870 4630 6740 8970
2026-04-04 16:30 5.62 278 12400 (1945) 40 (1971) 2930 66 231 863 1170 2170 3870 4630 6740 8970
2026-04-04 16:00 5.62 278 12400 (1945) 40 (1971) 2930 66 231 863 1170 2170 3870 4630 6740 8970
2026-04-04 15:30 5.62 278 12400 (1945) 40 (1971) 2930 66 231 863 1170 2170 3870 4630 6740 8970
2026-04-04 15:00 5.62 278 12400 (1945) 40 (1971) 2930 66 231 863 1170 2170 3870 4630 6740 8970
2026-04-04 14:30 5.61 276 12400 (1945) 40 (1971) 2930 66 231 863 1170 2170 3870 4630 6740 8970
2026-04-04 14:00 5.61 276 12400 (1945) 40 (1971) 2930 66 231 863 1170 2170 3870 4630 6740 8970
2026-04-04 13:30 5.61 276 12400 (1945) 40 (1971) 2930 66 231 863 1170 2170 3870 4630 6740 8970
2026-04-04 13:00 5.61 276 12400 (1945) 40 (1971) 2930 66 231 863 1170 2170 3870 4630 6740 8970
2026-04-04 12:30 5.61 276 12400 (1945) 40 (1971) 2930 66 231 863 1170 2170 3870 4630 6740 8970
2026-04-04 12:00 5.61 276 12400 (1945) 40 (1971) 2930 66 231 863 1170 2170 3870 4630 6740 8970
2026-04-04 11:30 5.62 278 12400 (1945) 40 (1971) 2930 66 231 863 1170 2170 3870 4630 6740 8970
2026-04-04 11:00 5.62 278 12400 (1945) 40 (1971) 2930 66 231 863 1170 2170 3870 4630 6740 8970
2026-04-04 10:30 5.62 278 12400 (1945) 40 (1971) 2930 66 231 863 1170 2170 3870 4630 6740 8970
2026-04-04 10:00 5.62 278 12400 (1945) 40 (1971) 2930 66 231 863 1170 2170 3870 4630 6740 8970
2026-04-04 09:30 5.62 278 12400 (1945) 40 (1971) 2930 66 231 863 1170 2170 3870 4630 6740 8970
2026-04-04 09:00 5.63 279 12400 (1945) 40 (1971) 2930 66 231 863 1170 2170 3870 4630 6740 8970
2026-04-04 08:30 5.62 278 12400 (1945) 40 (1971) 2930 66 231 863 1170 2170 3870 4630 6740 8970
2026-04-04 08:00 5.63 279 12400 (1945) 40 (1971) 2930 66 231 863 1170 2170 3870 4630 6740 8970
2026-04-04 07:30 5.63 279 12400 (1945) 40 (1971) 2930 66 231 863 1170 2170 3870 4630 6740 8970
2026-04-04 07:00 5.61 276 12400 (1945) 40 (1971) 2930 66 231 863 1170 2170 3870 4630 6740 8970
2026-04-04 06:30 5.61 276 12400 (1945) 40 (1971) 2930 66 231 863 1170 2170 3870 4630 6740 8970
2026-04-04 06:00 5.59 273 12400 (1945) 40 (1971) 2930 66 231 863 1170 2170 3870 4630 6740 8970
2026-04-04 05:30 5.59 273 12400 (1945) 40 (1971) 2930 66 231 863 1170 2170 3870 4630 6740 8970
2026-04-04 05:00 5.59 273 12400 (1945) 40 (1971) 2930 66 231 863 1170 2170 3870 4630 6740 8970
2026-04-04 04:30 5.59 273 12400 (1945) 40 (1971) 2930 66 231 863 1170 2170 3870 4630 6740 8970
2026-04-04 04:00 5.59 273 12400 (1945) 40 (1971) 2930 66 231 863 1170 2170 3870 4630 6740 8970
2026-04-04 03:30 5.59 273 12400 (1945) 40 (1971) 2930 66 231 863 1170 2170 3870 4630 6740 8970
2026-04-04 03:00 5.59 273 12400 (1945) 40 (1971) 2930 66 231 863 1170 2170 3870 4630 6740 8970
2026-04-04 02:30 5.58 272 12400 (1945) 40 (1971) 2930 66 231 863 1170 2170 3870 4630 6740 8970
2026-04-04 02:00 5.58 272 12400 (1945) 40 (1971) 2930 66 231 863 1170 2170 3870 4630 6740 8970
2026-04-04 01:30 5.57 270 12400 (1945) 40 (1971) 2930 66 231 863 1170 2170 3870 4630 6740 8970
2026-04-04 01:00 5.57 270 12400 (1945) 40 (1971) 2930 66 231 863 1170 2170 3870 4630 6740 8970
2026-04-04 00:30 5.57 270 12400 (1945) 40 (1971) 2930 66 231 863 1170 2170 3870 4630 6740 8970
2026-04-04 00:00 5.57 270 12400 (1945) 40 (1971) 2930 66 231 863 1170 2170 3870 4630 6740 8970
2026-04-03 23:30 5.57 270 12400 (1945) 40 (1971) 2930 66 231 863 1170 2170 3870 4630 6740 8970
2026-04-03 23:00 5.57 270 12400 (1945) 40 (1971) 2930 66 231 863 1170 2170 3870 4630 6740 8970
2026-04-03 22:30 5.57 270 12800 (1945) 40 (1971) 2880 88 334 797 1150 2160 4050 5030 6390 7500
2026-04-03 22:00 5.57 270 12800 (1945) 40 (1971) 2880 88 334 797 1150 2160 4050 5030 6390 7500
2026-04-03 21:30 5.57 270 12800 (1945) 40 (1971) 2880 88 334 797 1150 2160 4050 5030 6390 7500
2026-04-03 21:00 5.57 270 12800 (1945) 40 (1971) 2880 88 334 797 1150 2160 4050 5030 6390 7500
2026-04-03 20:30 5.57 270 12800 (1945) 40 (1971) 2880 88 334 797 1150 2160 4050 5030 6390 7500
2026-04-03 20:00 5.57 270 12800 (1945) 40 (1971) 2880 88 334 797 1150 2160 4050 5030 6390 7500
2026-04-03 19:30 5.57 270 12800 (1945) 40 (1971) 2880 88 334 797 1150 2160 4050 5030 6390 7500
2026-04-03 19:00 5.57 270 12800 (1945) 40 (1971) 2880 88 334 797 1150 2160 4050 5030 6390 7500
2026-04-03 18:30 5.57 270 12800 (1945) 40 (1971) 2880 88 334 797 1150 2160 4050 5030 6390 7500
2026-04-03 18:00 5.57 270 12800 (1945) 40 (1971) 2880 88 334 797 1150 2160 4050 5030 6390 7500
2026-04-03 17:30 5.58 272 12800 (1945) 40 (1971) 2880 88 334 797 1150 2160 4050 5030 6390 7500
2026-04-03 17:00 5.58 272 12800 (1945) 40 (1971) 2880 88 334 797 1150 2160 4050 5030 6390 7500
2026-04-03 16:30 5.58 272 12800 (1945) 40 (1971) 2880 88 334 797 1150 2160 4050 5030 6390 7500
2026-04-03 16:00 5.59 273 12800 (1945) 40 (1971) 2880 88 334 797 1150 2160 4050 5030 6390 7500
2026-04-03 15:30 5.59 273 12800 (1945) 40 (1971) 2880 88 334 797 1150 2160 4050 5030 6390 7500
2026-04-03 15:00 5.58 272 12800 (1945) 40 (1971) 2880 88 334 797 1150 2160 4050 5030 6390 7500
2026-04-03 14:30 5.57 270 12800 (1945) 40 (1971) 2880 88 334 797 1150 2160 4050 5030 6390 7500
2026-04-03 14:00 5.58 272 12800 (1945) 40 (1971) 2880 88 334 797 1150 2160 4050 5030 6390 7500
2026-04-03 13:30 5.58 272 12800 (1945) 40 (1971) 2880 88 334 797 1150 2160 4050 5030 6390 7500
2026-04-03 13:00 5.58 272 12800 (1945) 40 (1971) 2880 88 334 797 1150 2160 4050 5030 6390 7500
2026-04-03 12:30 5.58 272 12800 (1945) 40 (1971) 2880 88 334 797 1150 2160 4050 5030 6390 7500
2026-04-03 12:00 5.58 272 12800 (1945) 40 (1971) 2880 88 334 797 1150 2160 4050 5030 6390 7500
2026-04-03 11:30 5.58 272 12800 (1945) 40 (1971) 2880 88 334 797 1150 2160 4050 5030 6390 7500
2026-04-03 11:00 5.58 272 12800 (1945) 40 (1971) 2880 88 334 797 1150 2160 4050 5030 6390 7500
2026-04-03 10:30 5.57 270 12800 (1945) 40 (1971) 2880 88 334 797 1150 2160 4050 5030 6390 7500
2026-04-03 10:00 5.58 272 12800 (1945) 40 (1971) 2880 88 334 797 1150 2160 4050 5030 6390 7500
2026-04-03 09:30 5.57 270 12800 (1945) 40 (1971) 2880 88 334 797 1150 2160 4050 5030 6390 7500
2026-04-03 09:00 5.58 272 12800 (1945) 40 (1971) 2880 88 334 797 1150 2160 4050 5030 6390 7500
2026-04-03 08:30 5.58 272 12800 (1945) 40 (1971) 2880 88 334 797 1150 2160 4050 5030 6390 7500
2026-04-03 08:00 5.58 272 12800 (1945) 40 (1971) 2880 88 334 797 1150 2160 4050 5030 6390 7500
2026-04-03 07:30 5.58 272 12800 (1945) 40 (1971) 2880 88 334 797 1150 2160 4050 5030 6390 7500
2026-04-03 07:00 5.58 272 12800 (1945) 40 (1971) 2880 88 334 797 1150 2160 4050 5030 6390 7500
2026-04-03 06:30 5.58 272 12800 (1945) 40 (1971) 2880 88 334 797 1150 2160 4050 5030 6390 7500
2026-04-03 06:00 5.58 272 12800 (1945) 40 (1971) 2880 88 334 797 1150 2160 4050 5030 6390 7500
2026-04-03 05:30 5.58 272 12800 (1945) 40 (1971) 2880 88 334 797 1150 2160 4050 5030 6390 7500
2026-04-03 05:00 5.58 272 12800 (1945) 40 (1971) 2880 88 334 797 1150 2160 4050 5030 6390 7500
2026-04-03 04:30 5.58 272 12800 (1945) 40 (1971) 2880 88 334 797 1150 2160 4050 5030 6390 7500
2026-04-03 04:00 5.58 272 12800 (1945) 40 (1971) 2880 88 334 797 1150 2160 4050 5030 6390 7500
2026-04-03 03:30 5.58 272 12800 (1945) 40 (1971) 2880 88 334 797 1150 2160 4050 5030 6390 7500
2026-04-03 03:00 5.58 272 12800 (1945) 40 (1971) 2880 88 334 797 1150 2160 4050 5030 6390 7500
2026-04-03 02:30 5.58 272 12800 (1945) 40 (1971) 2880 88 334 797 1150 2160 4050 5030 6390 7500
2026-04-03 02:00 5.58 272 12800 (1945) 40 (1971) 2880 88 334 797 1150 2160 4050 5030 6390 7500
2026-04-03 01:30 5.58 272 12800 (1945) 40 (1971) 2880 88 334 797 1150 2160 4050 5030 6390 7500
2026-04-03 01:00 5.58 272 12800 (1945) 40 (1971) 2880 88 334 797 1150 2160 4050 5030 6390 7500
2026-04-03 00:30 5.58 272 12800 (1945) 40 (1971) 2880 88 334 797 1150 2160 4050 5030 6390 7500
2026-04-03 00:00 5.58 272 12800 (1945) 40 (1971) 2880 88 334 797 1150 2160 4050 5030 6390 7500
2026-04-02 23:30 5.58 272 12800 (1945) 40 (1971) 2880 88 334 797 1150 2160 4050 5030 6390 7500
2026-04-02 23:00 5.58 272 12800 (1945) 40 (1971) 2880 88 334 797 1150 2160 4050 5030 6390 7500
2026-04-02 22:30 5.58 272 9980 (2008) 40 (1971) 2930 161 494 741 980 2500 4120 4990 6830 7690
2026-04-02 22:00 5.58 272 9980 (2008) 40 (1971) 2930 161 494 741 980 2500 4120 4990 6830 7690
2026-04-02 21:30 5.58 272 9980 (2008) 40 (1971) 2930 161 494 741 980 2500 4120 4990 6830 7690
2026-04-02 21:00 5.58 272 9980 (2008) 40 (1971) 2930 161 494 741 980 2500 4120 4990 6830 7690
2026-04-02 20:30 5.58 272 9980 (2008) 40 (1971) 2930 161 494 741 980 2500 4120 4990 6830 7690
2026-04-02 20:00 5.58 272 9980 (2008) 40 (1971) 2930 161 494 741 980 2500 4120 4990 6830 7690
2026-04-02 19:30 5.58 272 9980 (2008) 40 (1971) 2930 161 494 741 980 2500 4120 4990 6830 7690
2026-04-02 19:00 5.59 273 9980 (2008) 40 (1971) 2930 161 494 741 980 2500 4120 4990 6830 7690
2026-04-02 18:30 5.58 272 9980 (2008) 40 (1971) 2930 161 494 741 980 2500 4120 4990 6830 7690
2026-04-02 18:00 5.59 273 9980 (2008) 40 (1971) 2930 161 494 741 980 2500 4120 4990 6830 7690
2026-04-02 17:30 5.59 273 9980 (2008) 40 (1971) 2930 161 494 741 980 2500 4120 4990 6830 7690
2026-04-02 17:00 5.58 272 9980 (2008) 40 (1971) 2930 161 494 741 980 2500 4120 4990 6830 7690
2026-04-02 16:30 5.58 272 9980 (2008) 40 (1971) 2930 161 494 741 980 2500 4120 4990 6830 7690
2026-04-02 16:00 5.58 272 9980 (2008) 40 (1971) 2930 161 494 741 980 2500 4120 4990 6830 7690
2026-04-02 15:30 5.58 272 9980 (2008) 40 (1971) 2930 161 494 741 980 2500 4120 4990 6830 7690
2026-04-02 15:00 5.58 272 9980 (2008) 40 (1971) 2930 161 494 741 980 2500 4120 4990 6830 7690
2026-04-02 14:30 5.57 270 9980 (2008) 40 (1971) 2930 161 494 741 980 2500 4120 4990 6830 7690
2026-04-02 14:00 5.58 272 9980 (2008) 40 (1971) 2930 161 494 741 980 2500 4120 4990 6830 7690
2026-04-02 13:30 5.57 270 9980 (2008) 40 (1971) 2930 161 494 741 980 2500 4120 4990 6830 7690
2026-04-02 13:00 5.58 272 9980 (2008) 40 (1971) 2930 161 494 741 980 2500 4120 4990 6830 7690
2026-04-02 12:30 5.58 272 9980 (2008) 40 (1971) 2930 161 494 741 980 2500 4120 4990 6830 7690
2026-04-02 12:00 5.57 270 9980 (2008) 40 (1971) 2930 161 494 741 980 2500 4120 4990 6830 7690
2026-04-02 11:30 5.57 270 9980 (2008) 40 (1971) 2930 161 494 741 980 2500 4120 4990 6830 7690
2026-04-02 09:30 5.56 269 9980 (2008) 40 (1971) 2930 161 494 741 980 2500 4120 4990 6830 7690
2026-04-02 09:00 5.57 270 9980 (2008) 40 (1971) 2930 161 494 741 980 2500 4120 4990 6830 7690
2026-04-02 08:30 5.57 270 9980 (2008) 40 (1971) 2930 161 494 741 980 2500 4120 4990 6830 7690
2026-04-02 08:00 5.57 270 9980 (2008) 40 (1971) 2930 161 494 741 980 2500 4120 4990 6830 7690
2026-04-02 07:30 5.57 270 9980 (2008) 40 (1971) 2930 161 494 741 980 2500 4120 4990 6830 7690
2026-04-02 07:00 5.57 270 9980 (2008) 40 (1971) 2930 161 494 741 980 2500 4120 4990 6830 7690
2026-04-02 06:30 5.57 270 9980 (2008) 40 (1971) 2930 161 494 741 980 2500 4120 4990 6830 7690
2026-04-02 06:00 5.57 270 9980 (2008) 40 (1971) 2930 161 494 741 980 2500 4120 4990 6830 7690
2026-04-02 05:30 5.57 270 9980 (2008) 40 (1971) 2930 161 494 741 980 2500 4120 4990 6830 7690
2026-04-02 05:00 5.57 270 9980 (2008) 40 (1971) 2930 161 494 741 980 2500 4120 4990 6830 7690
2026-04-02 04:30 5.57 270 9980 (2008) 40 (1971) 2930 161 494 741 980 2500 4120 4990 6830 7690
2026-04-02 04:00 5.57 270 9980 (2008) 40 (1971) 2930 161 494 741 980 2500 4120 4990 6830 7690
2026-04-02 03:30 5.57 270 9980 (2008) 40 (1971) 2930 161 494 741 980 2500 4120 4990 6830 7690
2026-04-02 03:00 5.57 270 9980 (2008) 40 (1971) 2930 161 494 741 980 2500 4120 4990 6830 7690
2026-04-02 02:30 5.57 270 9980 (2008) 40 (1971) 2930 161 494 741 980 2500 4120 4990 6830 7690
2026-04-02 02:00 5.57 270 9980 (2008) 40 (1971) 2930 161 494 741 980 2500 4120 4990 6830 7690
2026-04-02 01:30 5.57 270 9980 (2008) 40 (1971) 2930 161 494 741 980 2500 4120 4990 6830 7690
2026-04-02 01:00 5.57 270 9980 (2008) 40 (1971) 2930 161 494 741 980 2500 4120 4990 6830 7690
2026-04-02 00:30 5.57 270 9980 (2008) 40 (1971) 2930 161 494 741 980 2500 4120 4990 6830 7690
2026-04-02 00:00 5.57 270 9980 (2008) 40 (1971) 2930 161 494 741 980 2500 4120 4990 6830 7690
2026-04-01 23:30 5.57 270 9980 (2008) 40 (1971) 2930 161 494 741 980 2500 4120 4990 6830 7690
2026-04-01 23:00 5.57 270 9980 (2008) 40 (1971) 2930 161 494 741 980 2500 4120 4990 6830 7690
2026-04-01 22:30 5.57 270 9980 (2008) 40 (1971) 3010 225 579 790 1030 2500 4430 5350 6930 8380
2026-04-01 22:00 5.57 270 9980 (2008) 40 (1971) 3010 225 579 790 1030 2500 4430 5350 6930 8380
2026-04-01 21:30 5.57 270 9980 (2008) 40 (1971) 3010 225 579 790 1030 2500 4430 5350 6930 8380
2026-04-01 21:00 5.57 270 9980 (2008) 40 (1971) 3010 225 579 790 1030 2500 4430 5350 6930 8380
2026-04-01 20:30 5.57 270 9980 (2008) 40 (1971) 3010 225 579 790 1030 2500 4430 5350 6930 8380
2026-04-01 20:00 5.57 270 9980 (2008) 40 (1971) 3010 225 579 790 1030 2500 4430 5350 6930 8380
2026-04-01 19:30 5.57 270 9980 (2008) 40 (1971) 3010 225 579 790 1030 2500 4430 5350 6930 8380
2026-04-01 19:00 5.57 270 9980 (2008) 40 (1971) 3010 225 579 790 1030 2500 4430 5350 6930 8380
2026-04-01 18:30 5.58 272 9980 (2008) 40 (1971) 3010 225 579 790 1030 2500 4430 5350 6930 8380
2026-04-01 18:00 5.57 270 9980 (2008) 40 (1971) 3010 225 579 790 1030 2500 4430 5350 6930 8380
2026-04-01 17:30 5.58 272 9980 (2008) 40 (1971) 3010 225 579 790 1030 2500 4430 5350 6930 8380
2026-04-01 17:00 5.58 272 9980 (2008) 40 (1971) 3010 225 579 790 1030 2500 4430 5350 6930 8380
2026-04-01 16:30 5.57 270 9980 (2008) 40 (1971) 3010 225 579 790 1030 2500 4430 5350 6930 8380
2026-04-01 16:00 5.58 272 9980 (2008) 40 (1971) 3010 225 579 790 1030 2500 4430 5350 6930 8380
2026-04-01 15:30 5.58 272 9980 (2008) 40 (1971) 3010 225 579 790 1030 2500 4430 5350 6930 8380
2026-04-01 15:00 5.57 270 9980 (2008) 40 (1971) 3010 225 579 790 1030 2500 4430 5350 6930 8380
2026-04-01 14:30 5.58 272 9980 (2008) 40 (1971) 3010 225 579 790 1030 2500 4430 5350 6930 8380
2026-04-01 14:00 5.57 270 9980 (2008) 40 (1971) 3010 225 579 790 1030 2500 4430 5350 6930 8380
2026-04-01 13:30 5.58 272 9980 (2008) 40 (1971) 3010 225 579 790 1030 2500 4430 5350 6930 8380
2026-04-01 13:00 5.58 272 9980 (2008) 40 (1971) 3010 225 579 790 1030 2500 4430 5350 6930 8380
2026-04-01 12:30 5.57 270 9980 (2008) 40 (1971) 3010 225 579 790 1030 2500 4430 5350 6930 8380
2026-04-01 12:00 5.58 272 9980 (2008) 40 (1971) 3010 225 579 790 1030 2500 4430 5350 6930 8380
2026-04-01 11:30 5.58 272 9980 (2008) 40 (1971) 3010 225 579 790 1030 2500 4430 5350 6930 8380
2026-04-01 11:00 5.57 270 9980 (2008) 40 (1971) 3010 225 579 790 1030 2500 4430 5350 6930 8380
2026-04-01 10:30 5.57 270 9980 (2008) 40 (1971) 3010 225 579 790 1030 2500 4430 5350 6930 8380
2026-04-01 10:00 5.58 272 9980 (2008) 40 (1971) 3010 225 579 790 1030 2500 4430 5350 6930 8380
2026-04-01 09:30 5.57 270 9980 (2008) 40 (1971) 3010 225 579 790 1030 2500 4430 5350 6930 8380
2026-04-01 09:00 5.58 272 9980 (2008) 40 (1971) 3010 225 579 790 1030 2500 4430 5350 6930 8380
2026-04-01 08:30 5.58 272 9980 (2008) 40 (1971) 3010 225 579 790 1030 2500 4430 5350 6930 8380
2026-04-01 08:00 5.58 272 9980 (2008) 40 (1971) 3010 225 579 790 1030 2500 4430 5350 6930 8380
2026-04-01 07:30 5.58 272 9980 (2008) 40 (1971) 3010 225 579 790 1030 2500 4430 5350 6930 8380
2026-04-01 07:00 5.58 272 9980 (2008) 40 (1971) 3010 225 579 790 1030 2500 4430 5350 6930 8380
2026-04-01 06:30 5.58 272 9980 (2008) 40 (1971) 3010 225 579 790 1030 2500 4430 5350 6930 8380
2026-04-01 06:00 5.58 272 9980 (2008) 40 (1971) 3010 225 579 790 1030 2500 4430 5350 6930 8380
2026-04-01 05:30 5.58 272 9980 (2008) 40 (1971) 3010 225 579 790 1030 2500 4430 5350 6930 8380
2026-04-01 05:00 5.58 272 9980 (2008) 40 (1971) 3010 225 579 790 1030 2500 4430 5350 6930 8380
2026-04-01 04:30 5.58 272 9980 (2008) 40 (1971) 3010 225 579 790 1030 2500 4430 5350 6930 8380
2026-04-01 04:00 5.58 272 9980 (2008) 40 (1971) 3010 225 579 790 1030 2500 4430 5350 6930 8380
2026-04-01 03:30 5.58 272 9980 (2008) 40 (1971) 3010 225 579 790 1030 2500 4430 5350 6930 8380
2026-04-01 03:00 5.58 272 9980 (2008) 40 (1971) 3010 225 579 790 1030 2500 4430 5350 6930 8380
2026-04-01 02:30 5.58 272 9980 (2008) 40 (1971) 3010 225 579 790 1030 2500 4430 5350 6930 8380
2026-04-01 02:00 5.58 272 9980 (2008) 40 (1971) 3010 225 579 790 1030 2500 4430 5350 6930 8380
2026-04-01 01:30 5.58 272 9980 (2008) 40 (1971) 3010 225 579 790 1030 2500 4430 5350 6930 8380
2026-04-01 01:00 5.58 272 9980 (2008) 40 (1971) 3010 225 579 790 1030 2500 4430 5350 6930 8380
2026-04-01 00:30 5.58 272 9980 (2008) 40 (1971) 3010 225 579 790 1030 2500 4430 5350 6930 8380
2026-04-01 00:00 5.58 272 9980 (2008) 40 (1971) 3010 225 579 790 1030 2500 4430 5350 6930 8380
2026-03-31 23:30 5.58 272 9980 (2008) 40 (1971) 3010 225 579 790 1030 2500 4430 5350 6930 8380
2026-03-31 23:00 5.58 272 9980 (2008) 40 (1971) 3010 225 579 790 1030 2500 4430 5350 6930 8380
2026-03-31 22:30 5.58 272 9880 (2008) 40 (1971) 3070 294 662 902 1080 2520 4390 4730 6890 9330
2026-03-31 22:00 5.58 272 9880 (2008) 40 (1971) 3070 294 662 902 1080 2520 4390 4730 6890 9330
2026-03-31 21:30 5.58 272 9880 (2008) 40 (1971) 3070 294 662 902 1080 2520 4390 4730 6890 9330
2026-03-31 21:00 5.58 272 9880 (2008) 40 (1971) 3070 294 662 902 1080 2520 4390 4730 6890 9330
2026-03-31 20:30 5.58 272 9880 (2008) 40 (1971) 3070 294 662 902 1080 2520 4390 4730 6890 9330
2026-03-31 20:00 5.58 272 9880 (2008) 40 (1971) 3070 294 662 902 1080 2520 4390 4730 6890 9330
2026-03-31 19:30 5.59 273 9880 (2008) 40 (1971) 3070 294 662 902 1080 2520 4390 4730 6890 9330
2026-03-31 19:00 5.58 272 9880 (2008) 40 (1971) 3070 294 662 902 1080 2520 4390 4730 6890 9330
2026-03-31 18:30 5.58 272 9880 (2008) 40 (1971) 3070 294 662 902 1080 2520 4390 4730 6890 9330
2026-03-31 18:00 5.59 273 9880 (2008) 40 (1971) 3070 294 662 902 1080 2520 4390 4730 6890 9330
2026-03-31 17:30 5.58 272 9880 (2008) 40 (1971) 3070 294 662 902 1080 2520 4390 4730 6890 9330
2026-03-31 17:00 5.59 273 9880 (2008) 40 (1971) 3070 294 662 902 1080 2520 4390 4730 6890 9330
2026-03-31 16:30 5.59 273 9880 (2008) 40 (1971) 3070 294 662 902 1080 2520 4390 4730 6890 9330
2026-03-31 16:00 5.58 272 9880 (2008) 40 (1971) 3070 294 662 902 1080 2520 4390 4730 6890 9330
2026-03-31 15:30 5.58 272 9880 (2008) 40 (1971) 3070 294 662 902 1080 2520 4390 4730 6890 9330
2026-03-31 15:00 5.59 273 9880 (2008) 40 (1971) 3070 294 662 902 1080 2520 4390 4730 6890 9330
2026-03-31 14:30 5.58 272 9880 (2008) 40 (1971) 3070 294 662 902 1080 2520 4390 4730 6890 9330
2026-03-31 14:00 5.58 272 9880 (2008) 40 (1971) 3070 294 662 902 1080 2520 4390 4730 6890 9330
2026-03-31 13:30 5.58 272 9880 (2008) 40 (1971) 3070 294 662 902 1080 2520 4390 4730 6890 9330
2026-03-31 13:00 5.58 272 9880 (2008) 40 (1971) 3070 294 662 902 1080 2520 4390 4730 6890 9330
2026-03-31 12:30 5.58 272 9880 (2008) 40 (1971) 3070 294 662 902 1080 2520 4390 4730 6890 9330
2026-03-31 12:00 5.58 272 9880 (2008) 40 (1971) 3070 294 662 902 1080 2520 4390 4730 6890 9330
2026-03-31 11:30 5.59 273 9880 (2008) 40 (1971) 3070 294 662 902 1080 2520 4390 4730 6890 9330
2026-03-31 11:00 5.58 272 9880 (2008) 40 (1971) 3070 294 662 902 1080 2520 4390 4730 6890 9330
2026-03-31 10:30 5.57 270 9880 (2008) 40 (1971) 3070 294 662 902 1080 2520 4390 4730 6890 9330
2026-03-31 10:00 5.59 273 9880 (2008) 40 (1971) 3070 294 662 902 1080 2520 4390 4730 6890 9330
2026-03-31 09:30 5.58 272 9880 (2008) 40 (1971) 3070 294 662 902 1080 2520 4390 4730 6890 9330
2026-03-31 09:00 5.58 272 9880 (2008) 40 (1971) 3070 294 662 902 1080 2520 4390 4730 6890 9330
2026-03-31 08:30 5.58 272 9880 (2008) 40 (1971) 3070 294 662 902 1080 2520 4390 4730 6890 9330
2026-03-31 08:00 5.58 272 9880 (2008) 40 (1971) 3070 294 662 902 1080 2520 4390 4730 6890 9330
2026-03-31 07:30 5.58 272 9880 (2008) 40 (1971) 3070 294 662 902 1080 2520 4390 4730 6890 9330
2026-03-31 07:00 5.58 272 9880 (2008) 40 (1971) 3070 294 662 902 1080 2520 4390 4730 6890 9330
2026-03-31 06:30 5.58 272 9880 (2008) 40 (1971) 3070 294 662 902 1080 2520 4390 4730 6890 9330
2026-03-31 06:00 5.58 272 9880 (2008) 40 (1971) 3070 294 662 902 1080 2520 4390 4730 6890 9330
2026-03-31 05:30 5.58 272 9880 (2008) 40 (1971) 3070 294 662 902 1080 2520 4390 4730 6890 9330
2026-03-31 05:00 5.59 273 9880 (2008) 40 (1971) 3070 294 662 902 1080 2520 4390 4730 6890 9330
2026-03-31 04:30 5.58 272 9880 (2008) 40 (1971) 3070 294 662 902 1080 2520 4390 4730 6890 9330
2026-03-31 04:00 5.59 273 9880 (2008) 40 (1971) 3070 294 662 902 1080 2520 4390 4730 6890 9330
2026-03-31 03:30 5.58 272 9880 (2008) 40 (1971) 3070 294 662 902 1080 2520 4390 4730 6890 9330
2026-03-31 03:00 5.59 273 9880 (2008) 40 (1971) 3070 294 662 902 1080 2520 4390 4730 6890 9330
2026-03-31 02:30 5.59 273 9880 (2008) 40 (1971) 3070 294 662 902 1080 2520 4390 4730 6890 9330
2026-03-31 02:00 5.58 272 9880 (2008) 40 (1971) 3070 294 662 902 1080 2520 4390 4730 6890 9330
2026-03-31 01:30 5.59 273 9880 (2008) 40 (1971) 3070 294 662 902 1080 2520 4390 4730 6890 9330
2026-03-31 01:00 5.58 272 9880 (2008) 40 (1971) 3070 294 662 902 1080 2520 4390 4730 6890 9330
2026-03-31 00:30 5.59 273 9880 (2008) 40 (1971) 3070 294 662 902 1080 2520 4390 4730 6890 9330
2026-03-31 00:00 5.59 273 9880 (2008) 40 (1971) 3070 294 662 902 1080 2520 4390 4730 6890 9330
2026-03-30 23:30 5.59 273 9880 (2008) 40 (1971) 3070 294 662 902 1080 2520 4390 4730 6890 9330
2026-03-30 23:00 5.59 273 9880 (2008) 40 (1971) 3070 294 662 902 1080 2520 4390 4730 6890 9330
2026-03-30 22:30 5.59 273 9980 (1958) 239 (2024) 3080 408 683 903 1260 2220 4610 4890 6540 8340
2026-03-30 22:00 5.59 273 9980 (1958) 239 (2024) 3080 408 683 903 1260 2220 4610 4890 6540 8340
2026-03-30 21:30 5.59 273 9980 (1958) 239 (2024) 3080 408 683 903 1260 2220 4610 4890 6540 8340
2026-03-30 21:00 5.59 273 9980 (1958) 239 (2024) 3080 408 683 903 1260 2220 4610 4890 6540 8340
2026-03-30 20:30 5.59 273 9980 (1958) 239 (2024) 3080 408 683 903 1260 2220 4610 4890 6540 8340
2026-03-30 20:00 5.59 273 9980 (1958) 239 (2024) 3080 408 683 903 1260 2220 4610 4890 6540 8340
2026-03-30 19:30 5.59 273 9980 (1958) 239 (2024) 3080 408 683 903 1260 2220 4610 4890 6540 8340
2026-03-30 19:00 5.59 273 9980 (1958) 239 (2024) 3080 408 683 903 1260 2220 4610 4890 6540 8340
2026-03-30 18:30 5.59 273 9980 (1958) 239 (2024) 3080 408 683 903 1260 2220 4610 4890 6540 8340
2026-03-30 18:00 5.59 273 9980 (1958) 239 (2024) 3080 408 683 903 1260 2220 4610 4890 6540 8340
2026-03-30 17:30 5.58 272 9980 (1958) 239 (2024) 3080 408 683 903 1260 2220 4610 4890 6540 8340
2026-03-30 17:00 5.59 273 9980 (1958) 239 (2024) 3080 408 683 903 1260 2220 4610 4890 6540 8340
2026-03-30 16:30 5.59 273 9980 (1958) 239 (2024) 3080 408 683 903 1260 2220 4610 4890 6540 8340
2026-03-30 16:00 5.58 272 9980 (1958) 239 (2024) 3080 408 683 903 1260 2220 4610 4890 6540 8340
2026-03-30 15:30 5.58 272 9980 (1958) 239 (2024) 3080 408 683 903 1260 2220 4610 4890 6540 8340
2026-03-30 15:00 5.58 272 9980 (1958) 239 (2024) 3080 408 683 903 1260 2220 4610 4890 6540 8340
2026-03-30 14:30 5.58 272 9980 (1958) 239 (2024) 3080 408 683 903 1260 2220 4610 4890 6540 8340
2026-03-30 14:00 5.58 272 9980 (1958) 239 (2024) 3080 408 683 903 1260 2220 4610 4890 6540 8340
2026-03-30 13:30 5.59 273 9980 (1958) 239 (2024) 3080 408 683 903 1260 2220 4610 4890 6540 8340
2026-03-30 13:00 5.59 273 9980 (1958) 239 (2024) 3080 408 683 903 1260 2220 4610 4890 6540 8340
2026-03-30 12:30 5.58 272 9980 (1958) 239 (2024) 3080 408 683 903 1260 2220 4610 4890 6540 8340
2026-03-30 12:00 5.58 272 9980 (1958) 239 (2024) 3080 408 683 903 1260 2220 4610 4890 6540 8340
2026-03-30 11:30 5.59 273 9980 (1958) 239 (2024) 3080 408 683 903 1260 2220 4610 4890 6540 8340
2026-03-30 11:00 5.58 272 9980 (1958) 239 (2024) 3080 408 683 903 1260 2220 4610 4890 6540 8340
2026-03-30 10:30 5.59 273 9980 (1958) 239 (2024) 3080 408 683 903 1260 2220 4610 4890 6540 8340
2026-03-30 10:00 5.58 272 9980 (1958) 239 (2024) 3080 408 683 903 1260 2220 4610 4890 6540 8340
2026-03-30 09:30 5.58 272 9980 (1958) 239 (2024) 3080 408 683 903 1260 2220 4610 4890 6540 8340
2026-03-30 09:00 5.58 272 9980 (1958) 239 (2024) 3080 408 683 903 1260 2220 4610 4890 6540 8340
2026-03-30 08:30 5.59 273 9980 (1958) 239 (2024) 3080 408 683 903 1260 2220 4610 4890 6540 8340
2026-03-30 08:00 5.58 272 9980 (1958) 239 (2024) 3080 408 683 903 1260 2220 4610 4890 6540 8340
2026-03-30 07:30 5.58 272 9980 (1958) 239 (2024) 3080 408 683 903 1260 2220 4610 4890 6540 8340
2026-03-30 07:00 5.58 272 9980 (1958) 239 (2024) 3080 408 683 903 1260 2220 4610 4890 6540 8340
2026-03-30 06:30 5.59 273 9980 (1958) 239 (2024) 3080 408 683 903 1260 2220 4610 4890 6540 8340
2026-03-30 06:00 5.59 273 9980 (1958) 239 (2024) 3080 408 683 903 1260 2220 4610 4890 6540 8340
2026-03-30 05:30 5.59 273 9980 (1958) 239 (2024) 3080 408 683 903 1260 2220 4610 4890 6540 8340
2026-03-30 05:00 5.58 272 9980 (1958) 239 (2024) 3080 408 683 903 1260 2220 4610 4890 6540 8340
2026-03-30 04:30 5.58 272 9980 (1958) 239 (2024) 3080 408 683 903 1260 2220 4610 4890 6540 8340
2026-03-30 04:00 5.58 272 9980 (1958) 239 (2024) 3080 408 683 903 1260 2220 4610 4890 6540 8340
2026-03-30 03:30 5.58 272 9980 (1958) 239 (2024) 3080 408 683 903 1260 2220 4610 4890 6540 8340
2026-03-30 03:00 5.59 273 9980 (1958) 239 (2024) 3080 408 683 903 1260 2220 4610 4890 6540 8340
2026-03-30 02:30 5.58 272 9980 (1958) 239 (2024) 3080 408 683 903 1260 2220 4610 4890 6540 8340
2026-03-30 02:00 5.59 273 9980 (1958) 239 (2024) 3080 408 683 903 1260 2220 4610 4890 6540 8340
2026-03-30 01:30 5.59 273 9980 (1958) 239 (2024) 3080 408 683 903 1260 2220 4610 4890 6540 8340
2026-03-30 01:00 5.59 273 9980 (1958) 239 (2024) 3080 408 683 903 1260 2220 4610 4890 6540 8340
2026-03-30 00:30 5.59 273 9980 (1958) 239 (2024) 3080 408 683 903 1260 2220 4610 4890 6540 8340
2026-03-30 00:00 5.59 273 9980 (1958) 239 (2024) 3080 408 683 903 1260 2220 4610 4890 6540 8340
2026-03-29 23:30 5.59 273 9980 (1958) 239 (2024) 3080 408 683 903 1260 2220 4610 4890 6540 8340
2026-03-29 23:00 5.59 273 9980 (1958) 239 (2024) 3080 408 683 903 1260 2220 4610 4890 6540 8340
2026-03-29 22:30 5.59 273 9990 (1958) 198 (1985) 3100 390 585 848 1050 2160 4650 5250 6660 7930
2026-03-29 22:00 5.59 273 9990 (1958) 198 (1985) 3100 390 585 848 1050 2160 4650 5250 6660 7930
2026-03-29 21:30 5.59 273 9990 (1958) 198 (1985) 3100 390 585 848 1050 2160 4650 5250 6660 7930
2026-03-29 21:00 5.59 273 9990 (1958) 198 (1985) 3100 390 585 848 1050 2160 4650 5250 6660 7930
2026-03-29 20:30 5.59 273 9990 (1958) 198 (1985) 3100 390 585 848 1050 2160 4650 5250 6660 7930
2026-03-29 20:00 5.59 273 9990 (1958) 198 (1985) 3100 390 585 848 1050 2160 4650 5250 6660 7930
2026-03-29 19:30 5.60 275 9990 (1958) 198 (1985) 3100 390 585 848 1050 2160 4650 5250 6660 7930
2026-03-29 19:00 5.59 273 9990 (1958) 198 (1985) 3100 390 585 848 1050 2160 4650 5250 6660 7930
2026-03-29 18:30 5.59 273 9990 (1958) 198 (1985) 3100 390 585 848 1050 2160 4650 5250 6660 7930
2026-03-29 18:00 5.60 275 9990 (1958) 198 (1985) 3100 390 585 848 1050 2160 4650 5250 6660 7930
2026-03-29 17:30 5.60 275 9990 (1958) 198 (1985) 3100 390 585 848 1050 2160 4650 5250 6660 7930
2026-03-29 17:00 5.60 275 9990 (1958) 198 (1985) 3100 390 585 848 1050 2160 4650 5250 6660 7930
2026-03-29 16:30 5.60 275 9990 (1958) 198 (1985) 3100 390 585 848 1050 2160 4650 5250 6660 7930
2026-03-29 16:00 5.59 273 9990 (1958) 198 (1985) 3100 390 585 848 1050 2160 4650 5250 6660 7930
2026-03-29 15:30 5.59 273 9990 (1958) 198 (1985) 3100 390 585 848 1050 2160 4650 5250 6660 7930
2026-03-29 15:00 5.59 273 9990 (1958) 198 (1985) 3100 390 585 848 1050 2160 4650 5250 6660 7930
2026-03-29 14:30 5.60 275 9990 (1958) 198 (1985) 3100 390 585 848 1050 2160 4650 5250 6660 7930
2026-03-29 14:00 5.60 275 9990 (1958) 198 (1985) 3100 390 585 848 1050 2160 4650 5250 6660 7930
2026-03-29 13:30 5.59 273 9990 (1958) 198 (1985) 3100 390 585 848 1050 2160 4650 5250 6660 7930
2026-03-29 13:00 5.60 275 9990 (1958) 198 (1985) 3100 390 585 848 1050 2160 4650 5250 6660 7930
2026-03-29 12:30 5.60 275 9990 (1958) 198 (1985) 3100 390 585 848 1050 2160 4650 5250 6660 7930
2026-03-29 12:00 5.60 275 9990 (1958) 198 (1985) 3100 390 585 848 1050 2160 4650 5250 6660 7930
2026-03-29 11:30 5.60 275 9990 (1958) 198 (1985) 3100 390 585 848 1050 2160 4650 5250 6660 7930
2026-03-29 11:00 5.60 275 9990 (1958) 198 (1985) 3100 390 585 848 1050 2160 4650 5250 6660 7930
2026-03-29 10:30 5.60 275 9990 (1958) 198 (1985) 3100 390 585 848 1050 2160 4650 5250 6660 7930
2026-03-29 10:00 5.60 275 9990 (1958) 198 (1985) 3100 390 585 848 1050 2160 4650 5250 6660 7930
2026-03-29 09:30 5.60 275 9990 (1958) 198 (1985) 3100 390 585 848 1050 2160 4650 5250 6660 7930
2026-03-29 09:00 5.60 275 9990 (1958) 198 (1985) 3100 390 585 848 1050 2160 4650 5250 6660 7930
2026-03-29 08:30 5.60 275 9990 (1958) 198 (1985) 3100 390 585 848 1050 2160 4650 5250 6660 7930
2026-03-29 08:00 5.60 275 9990 (1958) 198 (1985) 3100 390 585 848 1050 2160 4650 5250 6660 7930
2026-03-29 07:30 5.60 275 9990 (1958) 198 (1985) 3100 390 585 848 1050 2160 4650 5250 6660 7930
2026-03-29 07:00 5.61 276 9990 (1958) 198 (1985) 3100 390 585 848 1050 2160 4650 5250 6660 7930
2026-03-29 06:30 5.60 275 9990 (1958) 198 (1985) 3100 390 585 848 1050 2160 4650 5250 6660 7930
2026-03-29 06:00 5.60 275 9990 (1958) 198 (1985) 3100 390 585 848 1050 2160 4650 5250 6660 7930
2026-03-29 05:30 5.61 276 9990 (1958) 198 (1985) 3100 390 585 848 1050 2160 4650 5250 6660 7930
2026-03-29 05:00 5.61 276 9990 (1958) 198 (1985) 3100 390 585 848 1050 2160 4650 5250 6660 7930
2026-03-29 04:30 5.61 276 9990 (1958) 198 (1985) 3100 390 585 848 1050 2160 4650 5250 6660 7930
2026-03-29 04:00 5.61 276 9990 (1958) 198 (1985) 3100 390 585 848 1050 2160 4650 5250 6660 7930
2026-03-29 03:30 5.61 276 9990 (1958) 198 (1985) 3100 390 585 848 1050 2160 4650 5250 6660 7930
2026-03-29 03:00 5.61 276 9990 (1958) 198 (1985) 3100 390 585 848 1050 2160 4650 5250 6660 7930
2026-03-29 02:30 5.61 276 9990 (1958) 198 (1985) 3100 390 585 848 1050 2160 4650 5250 6660 7930
2026-03-29 02:00 5.62 278 9990 (1958) 198 (1985) 3100 390 585 848 1050 2160 4650 5250 6660 7930
2026-03-29 01:30 5.62 278 9990 (1958) 198 (1985) 3100 390 585 848 1050 2160 4650 5250 6660 7930
2026-03-29 01:00 5.62 278 9990 (1958) 198 (1985) 3100 390 585 848 1050 2160 4650 5250 6660 7930
2026-03-29 00:30 5.62 278 9990 (1958) 198 (1985) 3100 390 585 848 1050 2160 4650 5250 6660 7930
2026-03-29 00:00 5.62 278 9990 (1958) 198 (1985) 3100 390 585 848 1050 2160 4650 5250 6660 7930
2026-03-28 23:30 5.62 278 9990 (1958) 198 (1985) 3100 390 585 848 1050 2160 4650 5250 6660 7930
2026-03-28 23:00 5.62 278 9990 (1958) 198 (1985) 3100 390 585 848 1050 2160 4650 5250 6660 7930
2026-03-28 22:30 5.63 279 9990 (1958) 42 (1985) 3110 469 565 890 1200 2110 4810 5240 6600 7900
2026-03-28 22:00 5.63 279 9990 (1958) 42 (1985) 3110 469 565 890 1200 2110 4810 5240 6600 7900
2026-03-28 21:30 5.63 279 9990 (1958) 42 (1985) 3110 469 565 890 1200 2110 4810 5240 6600 7900
2026-03-28 21:00 5.64 281 9990 (1958) 42 (1985) 3110 469 565 890 1200 2110 4810 5240 6600 7900
2026-03-28 20:30 5.64 281 9990 (1958) 42 (1985) 3110 469 565 890 1200 2110 4810 5240 6600 7900
2026-03-28 20:00 5.64 281 9990 (1958) 42 (1985) 3110 469 565 890 1200 2110 4810 5240 6600 7900
2026-03-28 19:30 5.65 282 9990 (1958) 42 (1985) 3110 469 565 890 1200 2110 4810 5240 6600 7900
2026-03-28 19:00 5.65 282 9990 (1958) 42 (1985) 3110 469 565 890 1200 2110 4810 5240 6600 7900
2026-03-28 18:30 5.65 282 9990 (1958) 42 (1985) 3110 469 565 890 1200 2110 4810 5240 6600 7900
2026-03-28 18:00 5.66 284 9990 (1958) 42 (1985) 3110 469 565 890 1200 2110 4810 5240 6600 7900
2026-03-28 17:30 5.66 284 9990 (1958) 42 (1985) 3110 469 565 890 1200 2110 4810 5240 6600 7900
2026-03-28 17:00 5.66 284 9990 (1958) 42 (1985) 3110 469 565 890 1200 2110 4810 5240 6600 7900
2026-03-28 16:30 5.67 285 9990 (1958) 42 (1985) 3110 469 565 890 1200 2110 4810 5240 6600 7900
2026-03-28 16:00 5.67 285 9990 (1958) 42 (1985) 3110 469 565 890 1200 2110 4810 5240 6600 7900
2026-03-28 15:30 5.67 285 9990 (1958) 42 (1985) 3110 469 565 890 1200 2110 4810 5240 6600 7900
2026-03-28 15:00 5.68 287 9990 (1958) 42 (1985) 3110 469 565 890 1200 2110 4810 5240 6600 7900
2026-03-28 14:30 5.69 289 9990 (1958) 42 (1985) 3110 469 565 890 1200 2110 4810 5240 6600 7900
2026-03-28 14:00 5.69 289 9990 (1958) 42 (1985) 3110 469 565 890 1200 2110 4810 5240 6600 7900
2026-03-28 13:30 5.70 290 9990 (1958) 42 (1985) 3110 469 565 890 1200 2110 4810 5240 6600 7900
2026-03-28 13:00 5.71 292 9990 (1958) 42 (1985) 3110 469 565 890 1200 2110 4810 5240 6600 7900
2026-03-28 12:30 5.71 292 9990 (1958) 42 (1985) 3110 469 565 890 1200 2110 4810 5240 6600 7900
2026-03-28 12:00 5.72 293 9990 (1958) 42 (1985) 3110 469 565 890 1200 2110 4810 5240 6600 7900
2026-03-28 11:30 5.73 295 9990 (1958) 42 (1985) 3110 469 565 890 1200 2110 4810 5240 6600 7900
2026-03-28 11:00 5.74 296 9990 (1958) 42 (1985) 3110 469 565 890 1200 2110 4810 5240 6600 7900
2026-03-28 10:30 5.75 298 9990 (1958) 42 (1985) 3110 469 565 890 1200 2110 4810 5240 6600 7900
2026-03-28 10:00 5.76 299 9990 (1958) 42 (1985) 3110 469 565 890 1200 2110 4810 5240 6600 7900
2026-03-28 09:30 5.76 299 9990 (1958) 42 (1985) 3110 469 565 890 1200 2110 4810 5240 6600 7900
2026-03-28 09:00 5.78 303 9990 (1958) 42 (1985) 3110 469 565 890 1200 2110 4810 5240 6600 7900
2026-03-28 08:30 5.78 303 9990 (1958) 42 (1985) 3110 469 565 890 1200 2110 4810 5240 6600 7900
2026-03-28 08:00 5.80 306 9990 (1958) 42 (1985) 3110 469 565 890 1200 2110 4810 5240 6600 7900
2026-03-28 07:30 5.81 307 9990 (1958) 42 (1985) 3110 469 565 890 1200 2110 4810 5240 6600 7900
2026-03-28 07:00 5.82 309 9990 (1958) 42 (1985) 3110 469 565 890 1200 2110 4810 5240 6600 7900
2026-03-28 06:30 5.84 312 9990 (1958) 42 (1985) 3110 469 565 890 1200 2110 4810 5240 6600 7900
2026-03-28 06:00 5.86 315 9990 (1958) 42 (1985) 3110 469 565 890 1200 2110 4810 5240 6600 7900
2026-03-28 05:30 5.87 317 9990 (1958) 42 (1985) 3110 469 565 890 1200 2110 4810 5240 6600 7900
2026-03-28 05:00 5.88 318 9990 (1958) 42 (1985) 3110 469 565 890 1200 2110 4810 5240 6600 7900
2026-03-28 04:30 5.91 323 9990 (1958) 42 (1985) 3110 469 565 890 1200 2110 4810 5240 6600 7900
2026-03-28 04:00 5.93 327 9990 (1958) 42 (1985) 3110 469 565 890 1200 2110 4810 5240 6600 7900
2026-03-28 03:30 5.95 330 9990 (1958) 42 (1985) 3110 469 565 890 1200 2110 4810 5240 6600 7900
2026-03-28 03:00 5.97 333 9990 (1958) 42 (1985) 3110 469 565 890 1200 2110 4810 5240 6600 7900
2026-03-28 02:30 5.99 336 9990 (1958) 42 (1985) 3110 469 565 890 1200 2110 4810 5240 6600 7900
2026-03-28 02:00 6.02 341 9990 (1958) 42 (1985) 3110 469 565 890 1200 2110 4810 5240 6600 7900
2026-03-28 01:30 6.04 344 9990 (1958) 42 (1985) 3110 469 565 890 1200 2110 4810 5240 6600 7900
2026-03-28 01:00 6.08 351 9990 (1958) 42 (1985) 3110 469 565 890 1200 2110 4810 5240 6600 7900
2026-03-28 00:30 6.11 356 9990 (1958) 42 (1985) 3110 469 565 890 1200 2110 4810 5240 6600 7900
2026-03-28 00:00 6.14 361 9990 (1958) 42 (1985) 3110 469 565 890 1200 2110 4810 5240 6600 7900
2026-03-27 23:30 6.18 368 9990 (1958) 42 (1985) 3110 469 565 890 1200 2110 4810 5240 6600 7900
2026-03-27 23:00 6.22 375 9990 (1958) 42 (1985) 3110 469 565 890 1200 2110 4810 5240 6600 7900
2026-03-27 22:30 6.26 381 10100 (1958) 101 (1985) 3120 431 579 832 1210 2260 4550 5100 6970 7870
2026-03-27 22:00 6.30 388 10100 (1958) 101 (1985) 3120 431 579 832 1210 2260 4550 5100 6970 7870
2026-03-27 21:30 6.35 397 10100 (1958) 101 (1985) 3120 431 579 832 1210 2260 4550 5100 6970 7870
2026-03-27 21:00 6.41 407 10100 (1958) 101 (1985) 3120 431 579 832 1210 2260 4550 5100 6970 7870
2026-03-27 20:30 6.46 416 10100 (1958) 101 (1985) 3120 431 579 832 1210 2260 4550 5100 6970 7870
2026-03-27 20:00 6.52 427 10100 (1958) 101 (1985) 3120 431 579 832 1210 2260 4550 5100 6970 7870
2026-03-27 19:30 6.58 438 10100 (1958) 101 (1985) 3120 431 579 832 1210 2260 4550 5100 6970 7870
2026-03-27 19:00 6.66 452 10100 (1958) 101 (1985) 3120 431 579 832 1210 2260 4550 5100 6970 7870
2026-03-27 18:30 6.73 465 10100 (1958) 101 (1985) 3120 431 579 832 1210 2260 4550 5100 6970 7870
2026-03-27 18:00 6.81 480 10100 (1958) 101 (1985) 3120 431 579 832 1210 2260 4550 5100 6970 7870
2026-03-27 17:30 6.90 496 10100 (1958) 101 (1985) 3120 431 579 832 1210 2260 4550 5100 6970 7870
2026-03-27 17:00 6.99 513 10100 (1958) 101 (1985) 3120 431 579 832 1210 2260 4550 5100 6970 7870
2026-03-27 16:30 7.10 535 10100 (1958) 101 (1985) 3120 431 579 832 1210 2260 4550 5100 6970 7870
2026-03-27 16:00 7.20 554 10100 (1958) 101 (1985) 3120 431 579 832 1210 2260 4550 5100 6970 7870
2026-03-27 15:30 7.34 582 10100 (1958) 101 (1985) 3120 431 579 832 1210 2260 4550 5100 6970 7870
2026-03-27 15:00 7.49 612 10100 (1958) 101 (1985) 3120 431 579 832 1210 2260 4550 5100 6970 7870
2026-03-27 14:30 7.65 644 10100 (1958) 101 (1985) 3120 431 579 832 1210 2260 4550 5100 6970 7870
2026-03-27 14:00 7.87 690 10100 (1958) 101 (1985) 3120 431 579 832 1210 2260 4550 5100 6970 7870
2026-03-27 13:30 8.20 762 10100 (1958) 101 (1985) 3120 431 579 832 1210 2260 4550 5100 6970 7870
2026-03-27 13:00 8.20 762 10100 (1958) 101 (1985) 3120 431 579 832 1210 2260 4550 5100 6970 7870
2026-03-27 12:30 8.22 766 10100 (1958) 101 (1985) 3120 431 579 832 1210 2260 4550 5100 6970 7870
2026-03-27 12:00 8.21 764 10100 (1958) 101 (1985) 3120 431 579 832 1210 2260 4550 5100 6970 7870
2026-03-27 11:30 8.21 764 10100 (1958) 101 (1985) 3120 431 579 832 1210 2260 4550 5100 6970 7870
2026-03-27 11:00 8.21 764 10100 (1958) 101 (1985) 3120 431 579 832 1210 2260 4550 5100 6970 7870
2026-03-27 10:30 8.21 764 10100 (1958) 101 (1985) 3120 431 579 832 1210 2260 4550 5100 6970 7870
2026-03-27 10:00 8.22 766 10100 (1958) 101 (1985) 3120 431 579 832 1210 2260 4550 5100 6970 7870
2026-03-27 09:30 8.23 768 10100 (1958) 101 (1985) 3120 431 579 832 1210 2260 4550 5100 6970 7870
2026-03-27 09:00 8.23 768 10100 (1958) 101 (1985) 3120 431 579 832 1210 2260 4550 5100 6970 7870
2026-03-27 08:30 8.25 773 10100 (1958) 101 (1985) 3120 431 579 832 1210 2260 4550 5100 6970 7870
2026-03-27 08:00 8.25 773 10100 (1958) 101 (1985) 3120 431 579 832 1210 2260 4550 5100 6970 7870
2026-03-27 07:30 8.25 773 10100 (1958) 101 (1985) 3120 431 579 832 1210 2260 4550 5100 6970 7870
2026-03-27 07:00 8.26 775 10100 (1958) 101 (1985) 3120 431 579 832 1210 2260 4550 5100 6970 7870
2026-03-27 06:30 8.25 773 10100 (1958) 101 (1985) 3120 431 579 832 1210 2260 4550 5100 6970 7870
2026-03-27 06:00 8.28 779 10100 (1958) 101 (1985) 3120 431 579 832 1210 2260 4550 5100 6970 7870
2026-03-27 05:30 8.29 781 10100 (1958) 101 (1985) 3120 431 579 832 1210 2260 4550 5100 6970 7870
2026-03-27 05:00 8.30 784 10100 (1958) 101 (1985) 3120 431 579 832 1210 2260 4550 5100 6970 7870
2026-03-27 04:30 8.29 781 10100 (1958) 101 (1985) 3120 431 579 832 1210 2260 4550 5100 6970 7870
2026-03-27 04:00 8.31 786 10100 (1958) 101 (1985) 3120 431 579 832 1210 2260 4550 5100 6970 7870
2026-03-27 03:30 8.32 788 10100 (1958) 101 (1985) 3120 431 579 832 1210 2260 4550 5100 6970 7870
2026-03-27 03:00 8.34 792 10100 (1958) 101 (1985) 3120 431 579 832 1210 2260 4550 5100 6970 7870
2026-03-27 02:30 8.34 792 10100 (1958) 101 (1985) 3120 431 579 832 1210 2260 4550 5100 6970 7870
2026-03-27 02:00 8.36 797 10100 (1958) 101 (1985) 3120 431 579 832 1210 2260 4550 5100 6970 7870
2026-03-27 01:30 8.36 797 10100 (1958) 101 (1985) 3120 431 579 832 1210 2260 4550 5100 6970 7870
2026-03-27 01:00 8.39 804 10100 (1958) 101 (1985) 3120 431 579 832 1210 2260 4550 5100 6970 7870
2026-03-27 00:30 8.40 806 10100 (1958) 101 (1985) 3120 431 579 832 1210 2260 4550 5100 6970 7870
2026-03-27 00:00 8.41 808 10100 (1958) 101 (1985) 3120 431 579 832 1210 2260 4550 5100 6970 7870
2026-03-26 23:30 8.43 813 10100 (1958) 101 (1985) 3120 431 579 832 1210 2260 4550 5100 6970 7870
2026-03-26 23:00 8.45 817 10100 (1958) 101 (1985) 3120 431 579 832 1210 2260 4550 5100 6970 7870
2026-03-26 22:30 8.46 819 9990 (1958) 300 (1981) 3140 489 683 844 1030 2580 4490 5020 6960 7770
2026-03-26 22:00 8.49 826 9990 (1958) 300 (1981) 3140 489 683 844 1030 2580 4490 5020 6960 7770
2026-03-26 21:30 8.50 828 9990 (1958) 300 (1981) 3140 489 683 844 1030 2580 4490 5020 6960 7770
2026-03-26 21:00 8.53 835 9990 (1958) 300 (1981) 3140 489 683 844 1030 2580 4490 5020 6960 7770
2026-03-26 20:30 8.55 840 9990 (1958) 300 (1981) 3140 489 683 844 1030 2580 4490 5020 6960 7770
2026-03-26 20:00 8.58 846 9990 (1958) 300 (1981) 3140 489 683 844 1030 2580 4490 5020 6960 7770
2026-03-26 19:30 8.62 856 9990 (1958) 300 (1981) 3140 489 683 844 1030 2580 4490 5020 6960 7770
2026-03-26 19:00 8.64 860 9990 (1958) 300 (1981) 3140 489 683 844 1030 2580 4490 5020 6960 7770
2026-03-26 18:30 8.69 872 9990 (1958) 300 (1981) 3140 489 683 844 1030 2580 4490 5020 6960 7770
2026-03-26 18:00 8.72 879 9990 (1958) 300 (1981) 3140 489 683 844 1030 2580 4490 5020 6960 7770
2026-03-26 17:30 8.74 883 9990 (1958) 300 (1981) 3140 489 683 844 1030 2580 4490 5020 6960 7770
2026-03-26 17:00 8.79 895 9990 (1958) 300 (1981) 3140 489 683 844 1030 2580 4490 5020 6960 7770
2026-03-26 16:30 8.83 904 9990 (1958) 300 (1981) 3140 489 683 844 1030 2580 4490 5020 6960 7770
2026-03-26 16:00 8.87 913 9990 (1958) 300 (1981) 3140 489 683 844 1030 2580 4490 5020 6960 7770
2026-03-26 15:30 8.91 923 9990 (1958) 300 (1981) 3140 489 683 844 1030 2580 4490 5020 6960 7770
2026-03-26 15:00 8.98 939 9990 (1958) 300 (1981) 3140 489 683 844 1030 2580 4490 5020 6960 7770
2026-03-26 14:30 9.03 951 9990 (1958) 300 (1981) 3140 489 683 844 1030 2580 4490 5020 6960 7770
2026-03-26 14:00 9.09 965 9990 (1958) 300 (1981) 3140 489 683 844 1030 2580 4490 5020 6960 7770
2026-03-26 13:30 9.15 980 9990 (1958) 300 (1981) 3140 489 683 844 1030 2580 4490 5020 6960 7770
2026-03-26 13:00 9.24 1000 9990 (1958) 300 (1981) 3140 489 683 844 1030 2580 4490 5020 6960 7770
2026-03-26 12:30 9.31 1020 9990 (1958) 300 (1981) 3140 489 683 844 1030 2580 4490 5020 6960 7770
2026-03-26 12:00 9.41 1040 9990 (1958) 300 (1981) 3140 489 683 844 1030 2580 4490 5020 6960 7770
2026-03-26 11:30 9.51 1070 9990 (1958) 300 (1981) 3140 489 683 844 1030 2580 4490 5020 6960 7770
2026-03-26 11:00 9.64 1100 9990 (1958) 300 (1981) 3140 489 683 844 1030 2580 4490 5020 6960 7770
2026-03-26 10:30 9.77 1130 9990 (1958) 300 (1981) 3140 489 683 844 1030 2580 4490 5020 6960 7770
2026-03-26 10:00 9.95 1180 9990 (1958) 300 (1981) 3140 489 683 844 1030 2580 4490 5020 6960 7770
2026-03-26 09:30 10.24 1250 9990 (1958) 300 (1981) 3140 489 683 844 1030 2580 4490 5020 6960 7770
2026-03-26 09:00 10.24 1250 9990 (1958) 300 (1981) 3140 489 683 844 1030 2580 4490 5020 6960 7770
2026-03-26 08:30 10.25 1260 9990 (1958) 300 (1981) 3140 489 683 844 1030 2580 4490 5020 6960 7770
2026-03-26 08:00 10.26 1260 9990 (1958) 300 (1981) 3140 489 683 844 1030 2580 4490 5020 6960 7770
2026-03-26 07:30 10.26 1260 9990 (1958) 300 (1981) 3140 489 683 844 1030 2580 4490 5020 6960 7770
2026-03-26 07:00 10.27 1260 9990 (1958) 300 (1981) 3140 489 683 844 1030 2580 4490 5020 6960 7770
2026-03-26 06:30 10.28 1260 9990 (1958) 300 (1981) 3140 489 683 844 1030 2580 4490 5020 6960 7770
2026-03-26 06:00 10.28 1260 9990 (1958) 300 (1981) 3140 489 683 844 1030 2580 4490 5020 6960 7770
2026-03-26 05:30 10.30 1270 9990 (1958) 300 (1981) 3140 489 683 844 1030 2580 4490 5020 6960 7770
2026-03-26 05:00 10.30 1270 9990 (1958) 300 (1981) 3140 489 683 844 1030 2580 4490 5020 6960 7770
2026-03-26 04:30 10.30 1270 9990 (1958) 300 (1981) 3140 489 683 844 1030 2580 4490 5020 6960 7770
2026-03-26 04:00 10.31 1270 9990 (1958) 300 (1981) 3140 489 683 844 1030 2580 4490 5020 6960 7770
2026-03-26 03:30 10.32 1270 9990 (1958) 300 (1981) 3140 489 683 844 1030 2580 4490 5020 6960 7770
2026-03-26 03:00 10.33 1280 9990 (1958) 300 (1981) 3140 489 683 844 1030 2580 4490 5020 6960 7770
2026-03-26 02:30 10.34 1280 9990 (1958) 300 (1981) 3140 489 683 844 1030 2580 4490 5020 6960 7770
2026-03-26 02:00 10.35 1280 9990 (1958) 300 (1981) 3140 489 683 844 1030 2580 4490 5020 6960 7770
2026-03-26 01:30 10.36 1290 9990 (1958) 300 (1981) 3140 489 683 844 1030 2580 4490 5020 6960 7770
2026-03-26 01:00 10.36 1290 9990 (1958) 300 (1981) 3140 489 683 844 1030 2580 4490 5020 6960 7770
2026-03-26 00:30 10.38 1290 9990 (1958) 300 (1981) 3140 489 683 844 1030 2580 4490 5020 6960 7770
2026-03-26 00:00 10.40 1300 9990 (1958) 300 (1981) 3140 489 683 844 1030 2580 4490 5020 6960 7770
2026-03-25 23:30 10.40 1300 9990 (1958) 300 (1981) 3140 489 683 844 1030 2580 4490 5020 6960 7770
2026-03-25 23:00 10.43 1300 9990 (1958) 300 (1981) 3140 489 683 844 1030 2580 4490 5020 6960 7770
2026-03-25 22:30 10.44 1310 10000 (1958) 300 (1981) 3180 588 676 922 1170 2460 4440 5260 7340 8060
2026-03-25 22:00 10.45 1310 10000 (1958) 300 (1981) 3180 588 676 922 1170 2460 4440 5260 7340 8060
2026-03-25 21:30 10.47 1310 10000 (1958) 300 (1981) 3180 588 676 922 1170 2460 4440 5260 7340 8060
2026-03-25 21:00 10.49 1320 10000 (1958) 300 (1981) 3180 588 676 922 1170 2460 4440 5260 7340 8060
2026-03-25 20:30 10.50 1320 10000 (1958) 300 (1981) 3180 588 676 922 1170 2460 4440 5260 7340 8060
2026-03-25 20:00 10.53 1330 10000 (1958) 300 (1981) 3180 588 676 922 1170 2460 4440 5260 7340 8060
2026-03-25 19:30 10.55 1340 10000 (1958) 300 (1981) 3180 588 676 922 1170 2460 4440 5260 7340 8060
2026-03-25 19:00 10.57 1340 10000 (1958) 300 (1981) 3180 588 676 922 1170 2460 4440 5260 7340 8060
2026-03-25 18:30 10.60 1350 10000 (1958) 300 (1981) 3180 588 676 922 1170 2460 4440 5260 7340 8060
2026-03-25 18:00 10.64 1360 10000 (1958) 300 (1981) 3180 588 676 922 1170 2460 4440 5260 7340 8060
2026-03-25 17:30 10.65 1360 10000 (1958) 300 (1981) 3180 588 676 922 1170 2460 4440 5260 7340 8060
2026-03-25 17:00 10.69 1370 10000 (1958) 300 (1981) 3180 588 676 922 1170 2460 4440 5260 7340 8060
2026-03-25 16:30 10.72 1380 10000 (1958) 300 (1981) 3180 588 676 922 1170 2460 4440 5260 7340 8060
2026-03-25 16:00 10.75 1390 10000 (1958) 300 (1981) 3180 588 676 922 1170 2460 4440 5260 7340 8060
2026-03-25 15:30 10.80 1400 10000 (1958) 300 (1981) 3180 588 676 922 1170 2460 4440 5260 7340 8060
2026-03-25 15:00 10.85 1420 10000 (1958) 300 (1981) 3180 588 676 922 1170 2460 4440 5260 7340 8060
2026-03-25 14:30 10.89 1430 10000 (1958) 300 (1981) 3180 588 676 922 1170 2460 4440 5260 7340 8060
2026-03-25 14:00 10.95 1440 10000 (1958) 300 (1981) 3180 588 676 922 1170 2460 4440 5260 7340 8060
2026-03-25 13:30 11.00 1460 10000 (1958) 300 (1981) 3180 588 676 922 1170 2460 4440 5260 7340 8060
2026-03-25 13:00 11.07 1480 10000 (1958) 300 (1981) 3180 588 676 922 1170 2460 4440 5260 7340 8060
2026-03-25 12:30 11.14 1500 10000 (1958) 300 (1981) 3180 588 676 922 1170 2460 4440 5260 7340 8060
2026-03-25 12:00 11.21 1520 10000 (1958) 300 (1981) 3180 588 676 922 1170 2460 4440 5260 7340 8060
2026-03-25 11:30 11.30 1540 10000 (1958) 300 (1981) 3180 588 676 922 1170 2460 4440 5260 7340 8060
2026-03-25 11:00 11.42 1570 10000 (1958) 300 (1981) 3180 588 676 922 1170 2460 4440 5260 7340 8060
2026-03-25 10:30 11.55 1610 10000 (1958) 300 (1981) 3180 588 676 922 1170 2460 4440 5260 7340 8060
2026-03-25 10:00 11.77 1660 10000 (1958) 300 (1981) 3180 588 676 922 1170 2460 4440 5260 7340 8060
2026-03-25 09:30 11.78 1670 10000 (1958) 300 (1981) 3180 588 676 922 1170 2460 4440 5260 7340 8060
2026-03-25 09:00 11.79 1670 10000 (1958) 300 (1981) 3180 588 676 922 1170 2460 4440 5260 7340 8060
2026-03-25 08:30 11.78 1670 10000 (1958) 300 (1981) 3180 588 676 922 1170 2460 4440 5260 7340 8060
2026-03-25 08:00 11.79 1670 10000 (1958) 300 (1981) 3180 588 676 922 1170 2460 4440 5260 7340 8060
2026-03-25 07:30 11.80 1670 10000 (1958) 300 (1981) 3180 588 676 922 1170 2460 4440 5260 7340 8060
2026-03-25 07:00 11.80 1670 10000 (1958) 300 (1981) 3180 588 676 922 1170 2460 4440 5260 7340 8060
2026-03-25 06:30 11.81 1680 10000 (1958) 300 (1981) 3180 588 676 922 1170 2460 4440 5260 7340 8060
2026-03-25 06:00 11.82 1680 10000 (1958) 300 (1981) 3180 588 676 922 1170 2460 4440 5260 7340 8060
2026-03-25 05:30 11.83 1680 10000 (1958) 300 (1981) 3180 588 676 922 1170 2460 4440 5260 7340 8060
2026-03-25 05:00 11.84 1680 10000 (1958) 300 (1981) 3180 588 676 922 1170 2460 4440 5260 7340 8060
2026-03-25 04:30 11.85 1690 10000 (1958) 300 (1981) 3180 588 676 922 1170 2460 4440 5260 7340 8060
2026-03-25 04:00 11.85 1690 10000 (1958) 300 (1981) 3180 588 676 922 1170 2460 4440 5260 7340 8060
2026-03-25 03:30 11.86 1690 10000 (1958) 300 (1981) 3180 588 676 922 1170 2460 4440 5260 7340 8060
2026-03-25 03:00 11.87 1690 10000 (1958) 300 (1981) 3180 588 676 922 1170 2460 4440 5260 7340 8060
2026-03-25 02:30 11.88 1690 10000 (1958) 300 (1981) 3180 588 676 922 1170 2460 4440 5260 7340 8060
2026-03-25 02:00 11.89 1700 10000 (1958) 300 (1981) 3180 588 676 922 1170 2460 4440 5260 7340 8060
2026-03-25 01:30 11.89 1700 10000 (1958) 300 (1981) 3180 588 676 922 1170 2460 4440 5260 7340 8060
2026-03-25 01:00 11.91 1700 10000 (1958) 300 (1981) 3180 588 676 922 1170 2460 4440 5260 7340 8060
2026-03-25 00:30 11.93 1710 10000 (1958) 300 (1981) 3180 588 676 922 1170 2460 4440 5260 7340 8060
2026-03-25 00:00 11.95 1710 10000 (1958) 300 (1981) 3180 588 676 922 1170 2460 4440 5260 7340 8060
2026-03-24 23:30 11.96 1720 10000 (1958) 300 (1981) 3180 588 676 922 1170 2460 4440 5260 7340 8060
2026-03-24 23:00 11.97 1720 10000 (1958) 300 (1981) 3180 588 676 922 1170 2460 4440 5260 7340 8060
2026-03-24 22:30 11.99 1720 9880 (2008) 300 (1981) 3220 511 668 952 1180 2330 4700 5470 7460 8150
2026-03-24 22:00 12.01 1730 9880 (2008) 300 (1981) 3220 511 668 952 1180 2330 4700 5470 7460 8150
2026-03-24 21:30 12.02 1730 9880 (2008) 300 (1981) 3220 511 668 952 1180 2330 4700 5470 7460 8150
2026-03-24 21:00 12.04 1740 9880 (2008) 300 (1981) 3220 511 668 952 1180 2330 4700 5470 7460 8150
2026-03-24 20:30 12.06 1740 9880 (2008) 300 (1981) 3220 511 668 952 1180 2330 4700 5470 7460 8150
2026-03-24 20:00 12.09 1750 9880 (2008) 300 (1981) 3220 511 668 952 1180 2330 4700 5470 7460 8150
2026-03-24 19:30 12.11 1760 9880 (2008) 300 (1981) 3220 511 668 952 1180 2330 4700 5470 7460 8150
2026-03-24 19:00 12.14 1770 9880 (2008) 300 (1981) 3220 511 668 952 1180 2330 4700 5470 7460 8150
2026-03-24 18:30 12.16 1770 9880 (2008) 300 (1981) 3220 511 668 952 1180 2330 4700 5470 7460 8150
2026-03-24 18:00 12.20 1780 9880 (2008) 300 (1981) 3220 511 668 952 1180 2330 4700 5470 7460 8150
2026-03-24 17:30 12.23 1790 9880 (2008) 300 (1981) 3220 511 668 952 1180 2330 4700 5470 7460 8150
2026-03-24 17:00 12.26 1800 9880 (2008) 300 (1981) 3220 511 668 952 1180 2330 4700 5470 7460 8150
2026-03-24 16:30 12.29 1810 9880 (2008) 300 (1981) 3220 511 668 952 1180 2330 4700 5470 7460 8150
2026-03-24 16:00 12.33 1820 9880 (2008) 300 (1981) 3220 511 668 952 1180 2330 4700 5470 7460 8150
2026-03-24 15:30 12.38 1830 9880 (2008) 300 (1981) 3220 511 668 952 1180 2330 4700 5470 7460 8150
2026-03-24 15:00 12.41 1840 9880 (2008) 300 (1981) 3220 511 668 952 1180 2330 4700 5470 7460 8150
2026-03-24 14:30 12.47 1860 9880 (2008) 300 (1981) 3220 511 668 952 1180 2330 4700 5470 7460 8150
2026-03-24 14:00 12.52 1870 9880 (2008) 300 (1981) 3220 511 668 952 1180 2330 4700 5470 7460 8150
2026-03-24 13:30 12.57 1890 9880 (2008) 300 (1981) 3220 511 668 952 1180 2330 4700 5470 7460 8150
2026-03-24 13:00 12.63 1900 9880 (2008) 300 (1981) 3220 511 668 952 1180 2330 4700 5470 7460 8150
2026-03-24 12:30 12.70 1920 9880 (2008) 300 (1981) 3220 511 668 952 1180 2330 4700 5470 7460 8150
2026-03-24 12:00 12.78 1950 9880 (2008) 300 (1981) 3220 511 668 952 1180 2330 4700 5470 7460 8150
2026-03-24 11:30 12.88 1970 9880 (2008) 300 (1981) 3220 511 668 952 1180 2330 4700 5470 7460 8150
2026-03-24 11:00 12.98 2000 9880 (2008) 300 (1981) 3220 511 668 952 1180 2330 4700 5470 7460 8150
2026-03-24 10:30 13.11 2040 9880 (2008) 300 (1981) 3220 511 668 952 1180 2330 4700 5470 7460 8150
2026-03-24 10:00 13.31 2100 9880 (2008) 300 (1981) 3220 511 668 952 1180 2330 4700 5470 7460 8150
2026-03-24 09:30 13.41 2130 9880 (2008) 300 (1981) 3220 511 668 952 1180 2330 4700 5470 7460 8150
2026-03-24 09:00 13.40 2120 9880 (2008) 300 (1981) 3220 511 668 952 1180 2330 4700 5470 7460 8150
2026-03-24 08:30 13.40 2120 9880 (2008) 300 (1981) 3220 511 668 952 1180 2330 4700 5470 7460 8150
2026-03-24 08:00 13.42 2130 9880 (2008) 300 (1981) 3220 511 668 952 1180 2330 4700 5470 7460 8150
2026-03-24 07:30 13.43 2130 9880 (2008) 300 (1981) 3220 511 668 952 1180 2330 4700 5470 7460 8150
2026-03-24 07:00 13.43 2130 9880 (2008) 300 (1981) 3220 511 668 952 1180 2330 4700 5470 7460 8150
2026-03-24 06:30 13.45 2140 9880 (2008) 300 (1981) 3220 511 668 952 1180 2330 4700 5470 7460 8150
2026-03-24 06:00 13.46 2140 9880 (2008) 300 (1981) 3220 511 668 952 1180 2330 4700 5470 7460 8150
2026-03-24 05:30 13.47 2140 9880 (2008) 300 (1981) 3220 511 668 952 1180 2330 4700 5470 7460 8150
2026-03-24 05:00 13.47 2140 9880 (2008) 300 (1981) 3220 511 668 952 1180 2330 4700 5470 7460 8150
2026-03-24 04:30 13.47 2140 9880 (2008) 300 (1981) 3220 511 668 952 1180 2330 4700 5470 7460 8150
2026-03-24 04:00 13.49 2150 9880 (2008) 300 (1981) 3220 511 668 952 1180 2330 4700 5470 7460 8150
2026-03-24 03:30 13.49 2150 9880 (2008) 300 (1981) 3220 511 668 952 1180 2330 4700 5470 7460 8150
2026-03-24 03:00 13.49 2150 9880 (2008) 300 (1981) 3220 511 668 952 1180 2330 4700 5470 7460 8150
2026-03-24 02:30 13.51 2160 9880 (2008) 300 (1981) 3220 511 668 952 1180 2330 4700 5470 7460 8150
2026-03-24 02:00 13.52 2160 9880 (2008) 300 (1981) 3220 511 668 952 1180 2330 4700 5470 7460 8150
2026-03-24 01:30 13.53 2160 9880 (2008) 300 (1981) 3220 511 668 952 1180 2330 4700 5470 7460 8150
2026-03-24 01:00 13.53 2160 9880 (2008) 300 (1981) 3220 511 668 952 1180 2330 4700 5470 7460 8150
2026-03-24 00:30 13.55 2170 9880 (2008) 300 (1981) 3220 511 668 952 1180 2330 4700 5470 7460 8150
2026-03-24 00:00 13.56 2170 9880 (2008) 300 (1981) 3220 511 668 952 1180 2330 4700 5470 7460 8150
2026-03-23 23:30 13.57 2170 9880 (2008) 300 (1981) 3220 511 668 952 1180 2330 4700 5470 7460 8150
2026-03-23 23:00 13.58 2180 9880 (2008) 300 (1981) 3220 511 668 952 1180 2330 4700 5470 7460 8150
2026-03-23 22:30 13.60 2180 9840 (2008) 320 (1972) 3260 434 720 1040 1180 2430 4770 5530 7560 8550
2026-03-23 22:00 13.61 2180 9840 (2008) 320 (1972) 3260 434 720 1040 1180 2430 4770 5530 7560 8550
2026-03-23 21:30 13.62 2190 9840 (2008) 320 (1972) 3260 434 720 1040 1180 2430 4770 5530 7560 8550
2026-03-23 21:00 13.64 2190 9840 (2008) 320 (1972) 3260 434 720 1040 1180 2430 4770 5530 7560 8550
2026-03-23 20:30 13.66 2200 9840 (2008) 320 (1972) 3260 434 720 1040 1180 2430 4770 5530 7560 8550
2026-03-23 20:00 13.68 2210 9840 (2008) 320 (1972) 3260 434 720 1040 1180 2430 4770 5530 7560 8550
2026-03-23 19:30 13.69 2210 9840 (2008) 320 (1972) 3260 434 720 1040 1180 2430 4770 5530 7560 8550
2026-03-23 19:00 13.72 2220 9840 (2008) 320 (1972) 3260 434 720 1040 1180 2430 4770 5530 7560 8550
2026-03-23 18:30 13.72 2220 9840 (2008) 320 (1972) 3260 434 720 1040 1180 2430 4770 5530 7560 8550
2026-03-23 18:00 13.77 2230 9840 (2008) 320 (1972) 3260 434 720 1040 1180 2430 4770 5530 7560 8550
2026-03-23 17:30 13.79 2240 9840 (2008) 320 (1972) 3260 434 720 1040 1180 2430 4770 5530 7560 8550
2026-03-23 17:00 13.81 2240 9840 (2008) 320 (1972) 3260 434 720 1040 1180 2430 4770 5530 7560 8550
2026-03-23 16:30 13.84 2250 9840 (2008) 320 (1972) 3260 434 720 1040 1180 2430 4770 5530 7560 8550
2026-03-23 16:00 13.85 2260 9840 (2008) 320 (1972) 3260 434 720 1040 1180 2430 4770 5530 7560 8550
2026-03-23 15:30 13.90 2270 9840 (2008) 320 (1972) 3260 434 720 1040 1180 2430 4770 5530 7560 8550
2026-03-23 15:00 13.94 2280 9840 (2008) 320 (1972) 3260 434 720 1040 1180 2430 4770 5530 7560 8550
2026-03-23 14:30 13.96 2290 9840 (2008) 320 (1972) 3260 434 720 1040 1180 2430 4770 5530 7560 8550
2026-03-23 14:00 13.99 2300 9840 (2008) 320 (1972) 3260 434 720 1040 1180 2430 4770 5530 7560 8550
2026-03-23 13:30 14.05 2310 9840 (2008) 320 (1972) 3260 434 720 1040 1180 2430 4770 5530 7560 8550
2026-03-23 13:00 14.09 2330 9840 (2008) 320 (1972) 3260 434 720 1040 1180 2430 4770 5530 7560 8550
2026-03-23 12:30 14.14 2340 9840 (2008) 320 (1972) 3260 434 720 1040 1180 2430 4770 5530 7560 8550
2026-03-23 12:00 14.17 2350 9840 (2008) 320 (1972) 3260 434 720 1040 1180 2430 4770 5530 7560 8550
2026-03-23 11:30 14.23 2370 9840 (2008) 320 (1972) 3260 434 720 1040 1180 2430 4770 5530 7560 8550
2026-03-23 11:00 14.31 2390 9840 (2008) 320 (1972) 3260 434 720 1040 1180 2430 4770 5530 7560 8550
2026-03-23 10:30 14.38 2410 9840 (2008) 320 (1972) 3260 434 720 1040 1180 2430 4770 5530 7560 8550
2026-03-23 10:00 14.46 2440 9840 (2008) 320 (1972) 3260 434 720 1040 1180 2430 4770 5530 7560 8550
2026-03-23 09:30 14.57 2470 9840 (2008) 320 (1972) 3260 434 720 1040 1180 2430 4770 5530 7560 8550
2026-03-23 09:00 14.77 2530 9840 (2008) 320 (1972) 3260 434 720 1040 1180 2430 4770 5530 7560 8550
2026-03-23 08:30 14.78 2530 9840 (2008) 320 (1972) 3260 434 720 1040 1180 2430 4770 5530 7560 8550
2026-03-23 08:00 14.79 2540 9840 (2008) 320 (1972) 3260 434 720 1040 1180 2430 4770 5530 7560 8550
2026-03-23 07:30 14.80 2540 9840 (2008) 320 (1972) 3260 434 720 1040 1180 2430 4770 5530 7560 8550
2026-03-23 07:00 14.81 2540 9840 (2008) 320 (1972) 3260 434 720 1040 1180 2430 4770 5530 7560 8550
2026-03-23 06:30 14.80 2540 9840 (2008) 320 (1972) 3260 434 720 1040 1180 2430 4770 5530 7560 8550
2026-03-23 06:00 14.81 2540 9840 (2008) 320 (1972) 3260 434 720 1040 1180 2430 4770 5530 7560 8550
2026-03-23 05:30 14.82 2550 9840 (2008) 320 (1972) 3260 434 720 1040 1180 2430 4770 5530 7560 8550
2026-03-23 05:00 14.83 2550 9840 (2008) 320 (1972) 3260 434 720 1040 1180 2430 4770 5530 7560 8550
2026-03-23 04:30 14.84 2550 9840 (2008) 320 (1972) 3260 434 720 1040 1180 2430 4770 5530 7560 8550
2026-03-23 04:00 14.86 2560 9840 (2008) 320 (1972) 3260 434 720 1040 1180 2430 4770 5530 7560 8550
2026-03-23 03:30 14.87 2560 9840 (2008) 320 (1972) 3260 434 720 1040 1180 2430 4770 5530 7560 8550
2026-03-23 03:00 14.88 2570 9840 (2008) 320 (1972) 3260 434 720 1040 1180 2430 4770 5530 7560 8550
2026-03-23 02:30 14.89 2570 9840 (2008) 320 (1972) 3260 434 720 1040 1180 2430 4770 5530 7560 8550
2026-03-23 02:00 14.91 2570 9840 (2008) 320 (1972) 3260 434 720 1040 1180 2430 4770 5530 7560 8550
2026-03-23 01:30 14.91 2570 9840 (2008) 320 (1972) 3260 434 720 1040 1180 2430 4770 5530 7560 8550
2026-03-23 01:00 14.93 2580 9840 (2008) 320 (1972) 3260 434 720 1040 1180 2430 4770 5530 7560 8550
2026-03-23 00:30 14.94 2580 9840 (2008) 320 (1972) 3260 434 720 1040 1180 2430 4770 5530 7560 8550
2026-03-23 00:00 14.96 2590 9840 (2008) 320 (1972) 3260 434 720 1040 1180 2430 4770 5530 7560 8550
2026-03-22 23:30 14.98 2600 9840 (2008) 320 (1972) 3260 434 720 1040 1180 2430 4770 5530 7560 8550
2026-03-22 23:00 15.00 2600 9840 (2008) 320 (1972) 3260 434 720 1040 1180 2430 4770 5530 7560 8550
2026-03-22 22:30 15.01 2610 9840 (2008) 368 (1954) 3300 595 770 1060 1340 2470 5050 5490 7820 8740
2026-03-22 22:00 15.04 2610 9840 (2008) 368 (1954) 3300 595 770 1060 1340 2470 5050 5490 7820 8740
2026-03-22 21:30 15.05 2620 9840 (2008) 368 (1954) 3300 595 770 1060 1340 2470 5050 5490 7820 8740
2026-03-22 21:00 15.07 2620 9840 (2008) 368 (1954) 3300 595 770 1060 1340 2470 5050 5490 7820 8740
2026-03-22 20:30 15.08 2630 9840 (2008) 368 (1954) 3300 595 770 1060 1340 2470 5050 5490 7820 8740
2026-03-22 20:00 15.11 2640 9840 (2008) 368 (1954) 3300 595 770 1060 1340 2470 5050 5490 7820 8740
2026-03-22 19:30 15.13 2640 9840 (2008) 368 (1954) 3300 595 770 1060 1340 2470 5050 5490 7820 8740
2026-03-22 19:00 15.17 2660 9840 (2008) 368 (1954) 3300 595 770 1060 1340 2470 5050 5490 7820 8740
2026-03-22 18:30 15.18 2660 9840 (2008) 368 (1954) 3300 595 770 1060 1340 2470 5050 5490 7820 8740
2026-03-22 18:00 15.22 2670 9840 (2008) 368 (1954) 3300 595 770 1060 1340 2470 5050 5490 7820 8740
2026-03-22 17:30 15.25 2680 9840 (2008) 368 (1954) 3300 595 770 1060 1340 2470 5050 5490 7820 8740
2026-03-22 17:00 15.28 2690 9840 (2008) 368 (1954) 3300 595 770 1060 1340 2470 5050 5490 7820 8740
2026-03-22 16:30 15.32 2700 9840 (2008) 368 (1954) 3300 595 770 1060 1340 2470 5050 5490 7820 8740
2026-03-22 16:00 15.37 2720 9840 (2008) 368 (1954) 3300 595 770 1060 1340 2470 5050 5490 7820 8740
2026-03-22 15:30 15.40 2730 9840 (2008) 368 (1954) 3300 595 770 1060 1340 2470 5050 5490 7820 8740
2026-03-22 15:00 15.44 2740 9840 (2008) 368 (1954) 3300 595 770 1060 1340 2470 5050 5490 7820 8740
2026-03-22 14:30 15.49 2760 9840 (2008) 368 (1954) 3300 595 770 1060 1340 2470 5050 5490 7820 8740
2026-03-22 14:00 15.54 2770 9840 (2008) 368 (1954) 3300 595 770 1060 1340 2470 5050 5490 7820 8740
2026-03-22 13:30 15.59 2790 9840 (2008) 368 (1954) 3300 595 770 1060 1340 2470 5050 5490 7820 8740
2026-03-22 13:00 15.66 2810 9840 (2008) 368 (1954) 3300 595 770 1060 1340 2470 5050 5490 7820 8740
2026-03-22 12:30 15.71 2820 9840 (2008) 368 (1954) 3300 595 770 1060 1340 2470 5050 5490 7820 8740
2026-03-22 12:00 15.79 2850 9840 (2008) 368 (1954) 3300 595 770 1060 1340 2470 5050 5490 7820 8740
2026-03-22 11:30 15.86 2870 9840 (2008) 368 (1954) 3300 595 770 1060 1340 2470 5050 5490 7820 8740
2026-03-22 11:00 15.95 2900 9840 (2008) 368 (1954) 3300 595 770 1060 1340 2470 5050 5490 7820 8740
2026-03-22 10:30 16.06 2940 9840 (2008) 368 (1954) 3300 595 770 1060 1340 2470 5050 5490 7820 8740
2026-03-22 10:00 16.18 2970 9840 (2008) 368 (1954) 3300 595 770 1060 1340 2470 5050 5490 7820 8740
2026-03-22 09:30 16.44 3060 9840 (2008) 368 (1954) 3300 595 770 1060 1340 2470 5050 5490 7820 8740
2026-03-22 09:00 16.44 3060 9840 (2008) 368 (1954) 3300 595 770 1060 1340 2470 5050 5490 7820 8740
2026-03-22 08:30 16.45 3060 9840 (2008) 368 (1954) 3300 595 770 1060 1340 2470 5050 5490 7820 8740
2026-03-22 08:00 16.47 3070 9840 (2008) 368 (1954) 3300 595 770 1060 1340 2470 5050 5490 7820 8740
2026-03-22 07:30 16.48 3070 9840 (2008) 368 (1954) 3300 595 770 1060 1340 2470 5050 5490 7820 8740
2026-03-22 07:00 16.49 3080 9840 (2008) 368 (1954) 3300 595 770 1060 1340 2470 5050 5490 7820 8740
2026-03-22 06:30 16.48 3070 9840 (2008) 368 (1954) 3300 595 770 1060 1340 2470 5050 5490 7820 8740
2026-03-22 06:00 16.50 3080 9840 (2008) 368 (1954) 3300 595 770 1060 1340 2470 5050 5490 7820 8740
2026-03-22 05:30 16.49 3080 9840 (2008) 368 (1954) 3300 595 770 1060 1340 2470 5050 5490 7820 8740
2026-03-22 05:00 16.52 3090 9840 (2008) 368 (1954) 3300 595 770 1060 1340 2470 5050 5490 7820 8740
2026-03-22 04:30 16.53 3090 9840 (2008) 368 (1954) 3300 595 770 1060 1340 2470 5050 5490 7820 8740
2026-03-22 04:00 16.52 3090 9840 (2008) 368 (1954) 3300 595 770 1060 1340 2470 5050 5490 7820 8740
2026-03-22 03:30 16.54 3090 9840 (2008) 368 (1954) 3300 595 770 1060 1340 2470 5050 5490 7820 8740
2026-03-22 03:00 16.57 3100 9840 (2008) 368 (1954) 3300 595 770 1060 1340 2470 5050 5490 7820 8740
2026-03-22 02:30 16.57 3100 9840 (2008) 368 (1954) 3300 595 770 1060 1340 2470 5050 5490 7820 8740
2026-03-22 02:00 16.57 3100 9840 (2008) 368 (1954) 3300 595 770 1060 1340 2470 5050 5490 7820 8740
2026-03-22 01:30 16.59 3110 9840 (2008) 368 (1954) 3300 595 770 1060 1340 2470 5050 5490 7820 8740
2026-03-22 01:00 16.60 3110 9840 (2008) 368 (1954) 3300 595 770 1060 1340 2470 5050 5490 7820 8740
2026-03-22 00:30 16.61 3110 9840 (2008) 368 (1954) 3300 595 770 1060 1340 2470 5050 5490 7820 8740
2026-03-22 00:00 16.64 3120 9840 (2008) 368 (1954) 3300 595 770 1060 1340 2470 5050 5490 7820 8740
2026-03-21 23:30 16.64 3120 9840 (2008) 368 (1954) 3300 595 770 1060 1340 2470 5050 5490 7820 8740
2026-03-21 23:00 16.63 3120 9840 (2008) 368 (1954) 3300 595 770 1060 1340 2470 5050 5490 7820 8740
2026-03-21 22:30 16.67 3130 9720 (2008) 377 (1954) 3230 594 843 1130 1450 2690 5010 5300 6520 8220
2026-03-21 22:00 16.67 3130 9720 (2008) 377 (1954) 3230 594 843 1130 1450 2690 5010 5300 6520 8220
2026-03-21 21:30 16.69 3140 9720 (2008) 377 (1954) 3230 594 843 1130 1450 2690 5010 5300 6520 8220
2026-03-21 21:00 16.71 3150 9720 (2008) 377 (1954) 3230 594 843 1130 1450 2690 5010 5300 6520 8220
2026-03-21 20:30 16.71 3150 9720 (2008) 377 (1954) 3230 594 843 1130 1450 2690 5010 5300 6520 8220
2026-03-21 20:00 16.75 3160 9720 (2008) 377 (1954) 3230 594 843 1130 1450 2690 5010 5300 6520 8220
2026-03-21 19:30 16.75 3160 9720 (2008) 377 (1954) 3230 594 843 1130 1450 2690 5010 5300 6520 8220
2026-03-21 19:00 16.76 3160 9720 (2008) 377 (1954) 3230 594 843 1130 1450 2690 5010 5300 6520 8220
2026-03-21 18:30 16.79 3170 9720 (2008) 377 (1954) 3230 594 843 1130 1450 2690 5010 5300 6520 8220
2026-03-21 18:00 16.80 3180 9720 (2008) 377 (1954) 3230 594 843 1130 1450 2690 5010 5300 6520 8220
2026-03-21 17:30 16.83 3190 9720 (2008) 377 (1954) 3230 594 843 1130 1450 2690 5010 5300 6520 8220
2026-03-21 17:00 16.86 3200 9720 (2008) 377 (1954) 3230 594 843 1130 1450 2690 5010 5300 6520 8220
2026-03-21 16:30 16.88 3200 9720 (2008) 377 (1954) 3230 594 843 1130 1450 2690 5010 5300 6520 8220
2026-03-21 16:00 16.92 3220 9720 (2008) 377 (1954) 3230 594 843 1130 1450 2690 5010 5300 6520 8220
2026-03-21 15:30 16.91 3210 9720 (2008) 377 (1954) 3230 594 843 1130 1450 2690 5010 5300 6520 8220
2026-03-21 15:00 16.96 3230 9720 (2008) 377 (1954) 3230 594 843 1130 1450 2690 5010 5300 6520 8220
2026-03-21 14:30 17.00 3240 9720 (2008) 377 (1954) 3230 594 843 1130 1450 2690 5010 5300 6520 8220
2026-03-21 14:00 17.02 3250 9720 (2008) 377 (1954) 3230 594 843 1130 1450 2690 5010 5300 6520 8220
2026-03-21 13:30 17.05 3260 9720 (2008) 377 (1954) 3230 594 843 1130 1450 2690 5010 5300 6520 8220
2026-03-21 13:00 17.09 3270 9720 (2008) 377 (1954) 3230 594 843 1130 1450 2690 5010 5300 6520 8220
2026-03-21 12:30 17.14 3290 9720 (2008) 377 (1954) 3230 594 843 1130 1450 2690 5010 5300 6520 8220
2026-03-21 12:00 17.18 3300 9720 (2008) 377 (1954) 3230 594 843 1130 1450 2690 5010 5300 6520 8220
2026-03-21 11:30 17.23 3320 9720 (2008) 377 (1954) 3230 594 843 1130 1450 2690 5010 5300 6520 8220
2026-03-21 11:00 17.29 3340 9720 (2008) 377 (1954) 3230 594 843 1130 1450 2690 5010 5300 6520 8220
2026-03-21 10:30 17.35 3360 9720 (2008) 377 (1954) 3230 594 843 1130 1450 2690 5010 5300 6520 8220
2026-03-21 10:00 17.43 3390 9720 (2008) 377 (1954) 3230 594 843 1130 1450 2690 5010 5300 6520 8220
2026-03-21 09:30 17.53 3420 9720 (2008) 377 (1954) 3230 594 843 1130 1450 2690 5010 5300 6520 8220
2026-03-21 09:00 17.61 3450 9720 (2008) 377 (1954) 3230 594 843 1130 1450 2690 5010 5300 6520 8220
2026-03-21 08:30 17.63 3450 9720 (2008) 377 (1954) 3230 594 843 1130 1450 2690 5010 5300 6520 8220
2026-03-21 08:00 17.62 3450 9720 (2008) 377 (1954) 3230 594 843 1130 1450 2690 5010 5300 6520 8220
2026-03-21 07:30 17.64 3460 9720 (2008) 377 (1954) 3230 594 843 1130 1450 2690 5010 5300 6520 8220
2026-03-21 07:00 17.64 3460 9720 (2008) 377 (1954) 3230 594 843 1130 1450 2690 5010 5300 6520 8220
2026-03-21 06:30 17.65 3460 9720 (2008) 377 (1954) 3230 594 843 1130 1450 2690 5010 5300 6520 8220
2026-03-21 06:00 17.66 3460 9720 (2008) 377 (1954) 3230 594 843 1130 1450 2690 5010 5300 6520 8220
2026-03-21 05:30 17.66 3460 9720 (2008) 377 (1954) 3230 594 843 1130 1450 2690 5010 5300 6520 8220
2026-03-21 05:00 17.68 3470 9720 (2008) 377 (1954) 3230 594 843 1130 1450 2690 5010 5300 6520 8220
2026-03-21 04:30 17.70 3480 9720 (2008) 377 (1954) 3230 594 843 1130 1450 2690 5010 5300 6520 8220
2026-03-21 04:00 17.71 3480 9720 (2008) 377 (1954) 3230 594 843 1130 1450 2690 5010 5300 6520 8220
2026-03-21 03:30 17.73 3490 9720 (2008) 377 (1954) 3230 594 843 1130 1450 2690 5010 5300 6520 8220
2026-03-21 03:00 17.74 3490 9720 (2008) 377 (1954) 3230 594 843 1130 1450 2690 5010 5300 6520 8220
2026-03-21 02:30 17.74 3490 9720 (2008) 377 (1954) 3230 594 843 1130 1450 2690 5010 5300 6520 8220
2026-03-21 02:00 17.75 3490 9720 (2008) 377 (1954) 3230 594 843 1130 1450 2690 5010 5300 6520 8220
2026-03-21 01:30 17.76 3500 9720 (2008) 377 (1954) 3230 594 843 1130 1450 2690 5010 5300 6520 8220
2026-03-21 01:00 17.79 3510 9720 (2008) 377 (1954) 3230 594 843 1130 1450 2690 5010 5300 6520 8220
2026-03-21 00:30 17.80 3510 9720 (2008) 377 (1954) 3230 594 843 1130 1450 2690 5010 5300 6520 8220
2026-03-21 00:00 17.80 3510 9720 (2008) 377 (1954) 3230 594 843 1130 1450 2690 5010 5300 6520 8220
2026-03-20 23:30 17.82 3520 9720 (2008) 377 (1954) 3230 594 843 1130 1450 2690 5010 5300 6520 8220
2026-03-20 23:00 17.83 3520 9720 (2008) 377 (1954) 3230 594 843 1130 1450 2690 5010 5300 6520 8220
2026-03-20 22:30 17.84 3520 9800 (1964) 394 (1954) 3090 593 838 1190 1360 2550 4320 5010 6070 8200
2026-03-20 22:00 17.87 3530 9800 (1964) 394 (1954) 3090 593 838 1190 1360 2550 4320 5010 6070 8200
2026-03-20 21:30 17.88 3540 9800 (1964) 394 (1954) 3090 593 838 1190 1360 2550 4320 5010 6070 8200
2026-03-20 21:00 17.90 3550 9800 (1964) 394 (1954) 3090 593 838 1190 1360 2550 4320 5010 6070 8200
2026-03-20 20:30 17.93 3560 9800 (1964) 394 (1954) 3090 593 838 1190 1360 2550 4320 5010 6070 8200
2026-03-20 20:00 17.94 3560 9800 (1964) 394 (1954) 3090 593 838 1190 1360 2550 4320 5010 6070 8200
2026-03-20 19:30 17.94 3560 9800 (1964) 394 (1954) 3090 593 838 1190 1360 2550 4320 5010 6070 8200
2026-03-20 19:00 17.97 3570 9800 (1964) 394 (1954) 3090 593 838 1190 1360 2550 4320 5010 6070 8200
2026-03-20 18:30 18.02 3590 9800 (1964) 394 (1954) 3090 593 838 1190 1360 2550 4320 5010 6070 8200
2026-03-20 18:00 18.02 3590 9800 (1964) 394 (1954) 3090 593 838 1190 1360 2550 4320 5010 6070 8200
2026-03-20 17:30 18.05 3600 9800 (1964) 394 (1954) 3090 593 838 1190 1360 2550 4320 5010 6070 8200
2026-03-20 17:00 18.08 3610 9800 (1964) 394 (1954) 3090 593 838 1190 1360 2550 4320 5010 6070 8200
2026-03-20 16:30 18.11 3620 9800 (1964) 394 (1954) 3090 593 838 1190 1360 2550 4320 5010 6070 8200
2026-03-20 16:00 18.14 3630 9800 (1964) 394 (1954) 3090 593 838 1190 1360 2550 4320 5010 6070 8200
2026-03-20 15:30 18.16 3630 9800 (1964) 394 (1954) 3090 593 838 1190 1360 2550 4320 5010 6070 8200
2026-03-20 15:00 18.20 3650 9800 (1964) 394 (1954) 3090 593 838 1190 1360 2550 4320 5010 6070 8200
2026-03-20 14:30 18.23 3660 9800 (1964) 394 (1954) 3090 593 838 1190 1360 2550 4320 5010 6070 8200
2026-03-20 14:00 18.27 3670 9800 (1964) 394 (1954) 3090 593 838 1190 1360 2550 4320 5010 6070 8200
2026-03-20 13:30 18.29 3680 9800 (1964) 394 (1954) 3090 593 838 1190 1360 2550 4320 5010 6070 8200
2026-03-20 13:00 18.36 3700 9800 (1964) 394 (1954) 3090 593 838 1190 1360 2550 4320 5010 6070 8200
2026-03-20 12:30 18.41 3720 9800 (1964) 394 (1954) 3090 593 838 1190 1360 2550 4320 5010 6070 8200
2026-03-20 12:00 18.45 3730 9800 (1964) 394 (1954) 3090 593 838 1190 1360 2550 4320 5010 6070 8200
2026-03-20 11:30 18.51 3750 9800 (1964) 394 (1954) 3090 593 838 1190 1360 2550 4320 5010 6070 8200
2026-03-20 11:00 18.58 3780 9800 (1964) 394 (1954) 3090 593 838 1190 1360 2550 4320 5010 6070 8200
2026-03-20 10:30 18.68 3810 9800 (1964) 394 (1954) 3090 593 838 1190 1360 2550 4320 5010 6070 8200
2026-03-20 10:00 18.79 3850 9800 (1964) 394 (1954) 3090 593 838 1190 1360 2550 4320 5010 6070 8200
2026-03-20 09:30 18.81 3860 9800 (1964) 394 (1954) 3090 593 838 1190 1360 2550 4320 5010 6070 8200
2026-03-20 09:00 18.80 3860 9800 (1964) 394 (1954) 3090 593 838 1190 1360 2550 4320 5010 6070 8200
2026-03-20 08:30 18.81 3860 9800 (1964) 394 (1954) 3090 593 838 1190 1360 2550 4320 5010 6070 8200
2026-03-20 08:00 18.82 3860 9800 (1964) 394 (1954) 3090 593 838 1190 1360 2550 4320 5010 6070 8200
2026-03-20 07:30 18.83 3870 9800 (1964) 394 (1954) 3090 593 838 1190 1360 2550 4320 5010 6070 8200
2026-03-20 07:00 18.85 3870 9800 (1964) 394 (1954) 3090 593 838 1190 1360 2550 4320 5010 6070 8200
2026-03-20 06:30 18.86 3880 9800 (1964) 394 (1954) 3090 593 838 1190 1360 2550 4320 5010 6070 8200
2026-03-20 06:00 18.86 3880 9800 (1964) 394 (1954) 3090 593 838 1190 1360 2550 4320 5010 6070 8200
2026-03-20 05:30 18.88 3880 9800 (1964) 394 (1954) 3090 593 838 1190 1360 2550 4320 5010 6070 8200
2026-03-20 05:00 18.87 3880 9800 (1964) 394 (1954) 3090 593 838 1190 1360 2550 4320 5010 6070 8200
2026-03-20 04:30 18.91 3890 9800 (1964) 394 (1954) 3090 593 838 1190 1360 2550 4320 5010 6070 8200
2026-03-20 04:00 18.92 3900 9800 (1964) 394 (1954) 3090 593 838 1190 1360 2550 4320 5010 6070 8200
2026-03-20 03:30 18.91 3890 9800 (1964) 394 (1954) 3090 593 838 1190 1360 2550 4320 5010 6070 8200
2026-03-20 03:00 18.94 3900 9800 (1964) 394 (1954) 3090 593 838 1190 1360 2550 4320 5010 6070 8200
2026-03-20 02:30 18.94 3900 9800 (1964) 394 (1954) 3090 593 838 1190 1360 2550 4320 5010 6070 8200
2026-03-20 02:00 18.96 3910 9800 (1964) 394 (1954) 3090 593 838 1190 1360 2550 4320 5010 6070 8200
2026-03-20 01:30 18.98 3920 9800 (1964) 394 (1954) 3090 593 838 1190 1360 2550 4320 5010 6070 8200
2026-03-20 01:00 18.99 3920 9800 (1964) 394 (1954) 3090 593 838 1190 1360 2550 4320 5010 6070 8200
2026-03-20 00:30 18.99 3920 9800 (1964) 394 (1954) 3090 593 838 1190 1360 2550 4320 5010 6070 8200
2026-03-20 00:00 19.02 3930 9800 (1964) 394 (1954) 3090 593 838 1190 1360 2550 4320 5010 6070 8200
2026-03-19 23:30 19.02 3930 9800 (1964) 394 (1954) 3090 593 838 1190 1360 2550 4320 5010 6070 8200
2026-03-19 23:00 19.04 3940 9800 (1964) 394 (1954) 3090 593 838 1190 1360 2550 4320 5010 6070 8200
2026-03-19 22:30 19.07 3950 10000 (1964) 398 (1954) 2980 496 825 1120 1310 2320 4090 4600 5960 7220
2026-03-19 22:00 19.09 3960 10000 (1964) 398 (1954) 2980 496 825 1120 1310 2320 4090 4600 5960 7220
2026-03-19 21:30 19.11 3960 10000 (1964) 398 (1954) 2980 496 825 1120 1310 2320 4090 4600 5960 7220
2026-03-19 21:00 19.11 3960 10000 (1964) 398 (1954) 2980 496 825 1120 1310 2320 4090 4600 5960 7220
2026-03-19 20:30 19.13 3970 10000 (1964) 398 (1954) 2980 496 825 1120 1310 2320 4090 4600 5960 7220
2026-03-19 20:00 19.17 3990 10000 (1964) 398 (1954) 2980 496 825 1120 1310 2320 4090 4600 5960 7220
2026-03-19 19:30 19.18 3990 10000 (1964) 398 (1954) 2980 496 825 1120 1310 2320 4090 4600 5960 7220
2026-03-19 19:00 19.20 4000 10000 (1964) 398 (1954) 2980 496 825 1120 1310 2320 4090 4600 5960 7220
2026-03-19 18:30 19.23 4010 10000 (1964) 398 (1954) 2980 496 825 1120 1310 2320 4090 4600 5960 7220
2026-03-19 18:00 19.23 4010 10000 (1964) 398 (1954) 2980 496 825 1120 1310 2320 4090 4600 5960 7220
2026-03-19 17:30 19.28 4020 10000 (1964) 398 (1954) 2980 496 825 1120 1310 2320 4090 4600 5960 7220
2026-03-19 17:00 19.30 4030 10000 (1964) 398 (1954) 2980 496 825 1120 1310 2320 4090 4600 5960 7220
2026-03-19 16:30 19.34 4050 10000 (1964) 398 (1954) 2980 496 825 1120 1310 2320 4090 4600 5960 7220
2026-03-19 16:00 19.35 4050 10000 (1964) 398 (1954) 2980 496 825 1120 1310 2320 4090 4600 5960 7220
2026-03-19 15:30 19.38 4060 10000 (1964) 398 (1954) 2980 496 825 1120 1310 2320 4090 4600 5960 7220
2026-03-19 15:00 19.42 4070 10000 (1964) 398 (1954) 2980 496 825 1120 1310 2320 4090 4600 5960 7220
2026-03-19 14:30 19.45 4090 10000 (1964) 398 (1954) 2980 496 825 1120 1310 2320 4090 4600 5960 7220
2026-03-19 14:00 19.50 4100 10000 (1964) 398 (1954) 2980 496 825 1120 1310 2320 4090 4600 5960 7220
2026-03-19 13:30 19.54 4120 10000 (1964) 398 (1954) 2980 496 825 1120 1310 2320 4090 4600 5960 7220
2026-03-19 13:00 19.60 4140 10000 (1964) 398 (1954) 2980 496 825 1120 1310 2320 4090 4600 5960 7220
2026-03-19 12:30 19.63 4150 10000 (1964) 398 (1954) 2980 496 825 1120 1310 2320 4090 4600 5960 7220
2026-03-19 12:00 19.70 4170 10000 (1964) 398 (1954) 2980 496 825 1120 1310 2320 4090 4600 5960 7220
2026-03-19 11:30 19.75 4190 10000 (1964) 398 (1954) 2980 496 825 1120 1310 2320 4090 4600 5960 7220
2026-03-19 11:00 19.90 4250 10000 (1964) 398 (1954) 2980 496 825 1120 1310 2320 4090 4600 5960 7220
2026-03-19 10:30 19.89 4240 10000 (1964) 398 (1954) 2980 496 825 1120 1310 2320 4090 4600 5960 7220
2026-03-19 10:00 19.92 4250 10000 (1964) 398 (1954) 2980 496 825 1120 1310 2320 4090 4600 5960 7220
2026-03-19 09:30 19.93 4260 10000 (1964) 398 (1954) 2980 496 825 1120 1310 2320 4090 4600 5960 7220
2026-03-19 09:00 19.95 4260 10000 (1964) 398 (1954) 2980 496 825 1120 1310 2320 4090 4600 5960 7220
2026-03-19 08:30 19.95 4260 10000 (1964) 398 (1954) 2980 496 825 1120 1310 2320 4090 4600 5960 7220
2026-03-19 08:00 19.96 4270 10000 (1964) 398 (1954) 2980 496 825 1120 1310 2320 4090 4600 5960 7220
2026-03-19 07:30 19.96 4270 10000 (1964) 398 (1954) 2980 496 825 1120 1310 2320 4090 4600 5960 7220
2026-03-19 07:00 19.98 4280 10000 (1964) 398 (1954) 2980 496 825 1120 1310 2320 4090 4600 5960 7220
2026-03-19 06:30 19.99 4280 10000 (1964) 398 (1954) 2980 496 825 1120 1310 2320 4090 4600 5960 7220
2026-03-19 06:00 2 4280 10000 (1964) 398 (1954) 2980 496 825 1120 1310 2320 4090 4600 5960 7220
2026-03-19 05:30 2 4280 10000 (1964) 398 (1954) 2980 496 825 1120 1310 2320 4090 4600 5960 7220
2026-03-19 05:00 20.03 4290 10000 (1964) 398 (1954) 2980 496 825 1120 1310 2320 4090 4600 5960 7220
2026-03-19 04:30 20.04 4300 10000 (1964) 398 (1954) 2980 496 825 1120 1310 2320 4090 4600 5960 7220
2026-03-19 04:00 20.04 4300 10000 (1964) 398 (1954) 2980 496 825 1120 1310 2320 4090 4600 5960 7220
2026-03-19 03:30 20.06 4300 10000 (1964) 398 (1954) 2980 496 825 1120 1310 2320 4090 4600 5960 7220
2026-03-19 03:00 20.08 4310 10000 (1964) 398 (1954) 2980 496 825 1120 1310 2320 4090 4600 5960 7220
2026-03-19 02:30 20.10 4320 10000 (1964) 398 (1954) 2980 496 825 1120 1310 2320 4090 4600 5960 7220
2026-03-19 02:00 20.10 4320 10000 (1964) 398 (1954) 2980 496 825 1120 1310 2320 4090 4600 5960 7220
2026-03-19 01:30 20.10 4320 10000 (1964) 398 (1954) 2980 496 825 1120 1310 2320 4090 4600 5960 7220
2026-03-19 01:00 20.12 4330 10000 (1964) 398 (1954) 2980 496 825 1120 1310 2320 4090 4600 5960 7220
2026-03-19 00:30 20.15 4340 10000 (1964) 398 (1954) 2980 496 825 1120 1310 2320 4090 4600 5960 7220
2026-03-19 00:00 20.14 4330 10000 (1964) 398 (1954) 2980 496 825 1120 1310 2320 4090 4600 5960 7220
2026-03-18 23:30 20.17 4340 10000 (1964) 398 (1954) 2980 496 825 1120 1310 2320 4090 4600 5960 7220
2026-03-18 23:00 20.18 4350 10000 (1964) 398 (1954) 2980 496 825 1120 1310 2320 4090 4600 5960 7220
2026-03-18 22:30 20.21 4360 10000 (1964) 261 (2007) 2920 434 705 1150 1300 2310 4130 4620 5690 7410
2026-03-18 22:00 20.21 4360 10000 (1964) 261 (2007) 2920 434 705 1150 1300 2310 4130 4620 5690 7410
2026-03-18 21:30 20.24 4370 10000 (1964) 261 (2007) 2920 434 705 1150 1300 2310 4130 4620 5690 7410
2026-03-18 21:00 20.26 4380 10000 (1964) 261 (2007) 2920 434 705 1150 1300 2310 4130 4620 5690 7410
2026-03-18 20:30 20.28 4380 10000 (1964) 261 (2007) 2920 434 705 1150 1300 2310 4130 4620 5690 7410
2026-03-18 20:00 20.30 4390 10000 (1964) 261 (2007) 2920 434 705 1150 1300 2310 4130 4620 5690 7410
2026-03-18 19:30 20.31 4400 10000 (1964) 261 (2007) 2920 434 705 1150 1300 2310 4130 4620 5690 7410
2026-03-18 19:00 20.34 4410 10000 (1964) 261 (2007) 2920 434 705 1150 1300 2310 4130 4620 5690 7410
2026-03-18 18:30 20.37 4420 10000 (1964) 261 (2007) 2920 434 705 1150 1300 2310 4130 4620 5690 7410
2026-03-18 18:00 20.37 4420 10000 (1964) 261 (2007) 2920 434 705 1150 1300 2310 4130 4620 5690 7410
2026-03-18 17:30 20.42 4440 10000 (1964) 261 (2007) 2920 434 705 1150 1300 2310 4130 4620 5690 7410
2026-03-18 17:00 20.42 4440 10000 (1964) 261 (2007) 2920 434 705 1150 1300 2310 4130 4620 5690 7410
2026-03-18 16:30 20.48 4460 10000 (1964) 261 (2007) 2920 434 705 1150 1300 2310 4130 4620 5690 7410
2026-03-18 16:00 20.48 4460 10000 (1964) 261 (2007) 2920 434 705 1150 1300 2310 4130 4620 5690 7410
2026-03-18 15:30 20.53 4480 10000 (1964) 261 (2007) 2920 434 705 1150 1300 2310 4130 4620 5690 7410
2026-03-18 15:00 20.55 4480 10000 (1964) 261 (2007) 2920 434 705 1150 1300 2310 4130 4620 5690 7410
2026-03-18 14:30 20.59 4500 10000 (1964) 261 (2007) 2920 434 705 1150 1300 2310 4130 4620 5690 7410
2026-03-18 14:00 20.61 4510 10000 (1964) 261 (2007) 2920 434 705 1150 1300 2310 4130 4620 5690 7410
2026-03-18 13:30 20.65 4520 10000 (1964) 261 (2007) 2920 434 705 1150 1300 2310 4130 4620 5690 7410
2026-03-18 13:00 20.70 4540 10000 (1964) 261 (2007) 2920 434 705 1150 1300 2310 4130 4620 5690 7410
2026-03-18 12:30 20.73 4550 10000 (1964) 261 (2007) 2920 434 705 1150 1300 2310 4130 4620 5690 7410
2026-03-18 12:00 20.79 4570 10000 (1964) 261 (2007) 2920 434 705 1150 1300 2310 4130 4620 5690 7410
2026-03-18 11:30 20.82 4580 10000 (1964) 261 (2007) 2920 434 705 1150 1300 2310 4130 4620 5690 7410
2026-03-18 11:00 20.89 4610 10000 (1964) 261 (2007) 2920 434 705 1150 1300 2310 4130 4620 5690 7410
2026-03-18 10:30 20.96 4630 10000 (1964) 261 (2007) 2920 434 705 1150 1300 2310 4130 4620 5690 7410
2026-03-18 10:00 21.11 4690 10000 (1964) 261 (2007) 2920 434 705 1150 1300 2310 4130 4620 5690 7410
2026-03-18 09:30 21.12 4690 10000 (1964) 261 (2007) 2920 434 705 1150 1300 2310 4130 4620 5690 7410
2026-03-18 09:00 21.10 4690 10000 (1964) 261 (2007) 2920 434 705 1150 1300 2310 4130 4620 5690 7410
2026-03-18 08:30 21.14 4700 10000 (1964) 261 (2007) 2920 434 705 1150 1300 2310 4130 4620 5690 7410
2026-03-18 08:00 21.14 4700 10000 (1964) 261 (2007) 2920 434 705 1150 1300 2310 4130 4620 5690 7410
2026-03-18 07:30 21.14 4700 10000 (1964) 261 (2007) 2920 434 705 1150 1300 2310 4130 4620 5690 7410
2026-03-18 07:00 21.19 4720 10000 (1964) 261 (2007) 2920 434 705 1150 1300 2310 4130 4620 5690 7410
2026-03-18 06:30 21.19 4720 10000 (1964) 261 (2007) 2920 434 705 1150 1300 2310 4130 4620 5690 7410
2026-03-18 06:00 21.20 4720 10000 (1964) 261 (2007) 2920 434 705 1150 1300 2310 4130 4620 5690 7410
2026-03-18 05:30 21.21 4730 10000 (1964) 261 (2007) 2920 434 705 1150 1300 2310 4130 4620 5690 7410
2026-03-18 05:00 21.23 4730 10000 (1964) 261 (2007) 2920 434 705 1150 1300 2310 4130 4620 5690 7410
2026-03-18 04:30 21.25 4740 10000 (1964) 261 (2007) 2920 434 705 1150 1300 2310 4130 4620 5690 7410
2026-03-18 04:00 21.25 4740 10000 (1964) 261 (2007) 2920 434 705 1150 1300 2310 4130 4620 5690 7410
2026-03-18 03:30 21.27 4750 10000 (1964) 261 (2007) 2920 434 705 1150 1300 2310 4130 4620 5690 7410
2026-03-18 03:00 21.29 4760 10000 (1964) 261 (2007) 2920 434 705 1150 1300 2310 4130 4620 5690 7410
2026-03-18 02:30 21.28 4750 10000 (1964) 261 (2007) 2920 434 705 1150 1300 2310 4130 4620 5690 7410
2026-03-18 02:00 21.31 4760 10000 (1964) 261 (2007) 2920 434 705 1150 1300 2310 4130 4620 5690 7410
2026-03-18 01:30 21.34 4780 10000 (1964) 261 (2007) 2920 434 705 1150 1300 2310 4130 4620 5690 7410
2026-03-18 01:00 21.37 4790 10000 (1964) 261 (2007) 2920 434 705 1150 1300 2310 4130 4620 5690 7410
2026-03-18 00:30 21.39 4790 10000 (1964) 261 (2007) 2920 434 705 1150 1300 2310 4130 4620 5690 7410
2026-03-18 00:00 21.40 4800 10000 (1964) 261 (2007) 2920 434 705 1150 1300 2310 4130 4620 5690 7410
2026-03-17 23:30 21.40 4800 10000 (1964) 261 (2007) 2920 434 705 1150 1300 2310 4130 4620 5690 7410
2026-03-17 23:00 21.45 4820 10000 (1964) 261 (2007) 2920 434 705 1150 1300 2310 4130 4620 5690 7410
2026-03-17 22:30 21.47 4820 10000 (1964) 168 (2007) 2870 440 671 1070 1170 2320 4110 4280 5990 7130
2026-03-17 22:00 21.49 4830 10000 (1964) 168 (2007) 2870 440 671 1070 1170 2320 4110 4280 5990 7130
2026-03-17 21:30 21.50 4840 10000 (1964) 168 (2007) 2870 440 671 1070 1170 2320 4110 4280 5990 7130
2026-03-17 21:00 21.54 4850 10000 (1964) 168 (2007) 2870 440 671 1070 1170 2320 4110 4280 5990 7130
2026-03-17 20:30 21.56 4860 10000 (1964) 168 (2007) 2870 440 671 1070 1170 2320 4110 4280 5990 7130
2026-03-17 20:00 21.58 4870 10000 (1964) 168 (2007) 2870 440 671 1070 1170 2320 4110 4280 5990 7130
2026-03-17 19:30 21.61 4880 10000 (1964) 168 (2007) 2870 440 671 1070 1170 2320 4110 4280 5990 7130
2026-03-17 19:00 21.65 4890 10000 (1964) 168 (2007) 2870 440 671 1070 1170 2320 4110 4280 5990 7130
2026-03-17 18:30 21.67 4900 10000 (1964) 168 (2007) 2870 440 671 1070 1170 2320 4110 4280 5990 7130
2026-03-17 18:00 21.71 4910 10000 (1964) 168 (2007) 2870 440 671 1070 1170 2320 4110 4280 5990 7130
2026-03-17 17:30 21.74 4930 10000 (1964) 168 (2007) 2870 440 671 1070 1170 2320 4110 4280 5990 7130
2026-03-17 17:00 21.78 4940 10000 (1964) 168 (2007) 2870 440 671 1070 1170 2320 4110 4280 5990 7130
2026-03-17 16:30 21.80 4950 10000 (1964) 168 (2007) 2870 440 671 1070 1170 2320 4110 4280 5990 7130
2026-03-17 16:00 21.84 4960 10000 (1964) 168 (2007) 2870 440 671 1070 1170 2320 4110 4280 5990 7130
2026-03-17 15:30 21.89 4980 10000 (1964) 168 (2007) 2870 440 671 1070 1170 2320 4110 4280 5990 7130
2026-03-17 15:00 21.93 5000 10000 (1964) 168 (2007) 2870 440 671 1070 1170 2320 4110 4280 5990 7130
2026-03-17 14:30 21.95 5010 10000 (1964) 168 (2007) 2870 440 671 1070 1170 2320 4110 4280 5990 7130
2026-03-17 14:00 22.00 5020 10000 (1964) 168 (2007) 2870 440 671 1070 1170 2320 4110 4280 5990 7130
2026-03-17 13:30 22.04 5040 10000 (1964) 168 (2007) 2870 440 671 1070 1170 2320 4110 4280 5990 7130
2026-03-17 13:00 22.08 5060 10000 (1964) 168 (2007) 2870 440 671 1070 1170 2320 4110 4280 5990 7130
2026-03-17 12:30 22.14 5080 10000 (1964) 168 (2007) 2870 440 671 1070 1170 2320 4110 4280 5990 7130
2026-03-17 12:00 22.21 5100 10000 (1964) 168 (2007) 2870 440 671 1070 1170 2320 4110 4280 5990 7130
2026-03-17 11:30 22.26 5120 10000 (1964) 168 (2007) 2870 440 671 1070 1170 2320 4110 4280 5990 7130
2026-03-17 11:00 22.32 5150 10000 (1964) 168 (2007) 2870 440 671 1070 1170 2320 4110 4280 5990 7130
2026-03-17 10:30 22.42 5190 10000 (1964) 168 (2007) 2870 440 671 1070 1170 2320 4110 4280 5990 7130
2026-03-17 10:00 22.52 5220 10000 (1964) 168 (2007) 2870 440 671 1070 1170 2320 4110 4280 5990 7130
2026-03-17 09:30 22.70 5290 10000 (1964) 168 (2007) 2870 440 671 1070 1170 2320 4110 4280 5990 7130
2026-03-17 09:00 22.69 5290 10000 (1964) 168 (2007) 2870 440 671 1070 1170 2320 4110 4280 5990 7130
2026-03-17 08:30 22.74 5310 10000 (1964) 168 (2007) 2870 440 671 1070 1170 2320 4110 4280 5990 7130
2026-03-17 08:00 22.73 5310 10000 (1964) 168 (2007) 2870 440 671 1070 1170 2320 4110 4280 5990 7130
2026-03-17 07:30 22.74 5310 10000 (1964) 168 (2007) 2870 440 671 1070 1170 2320 4110 4280 5990 7130
2026-03-17 07:00 22.78 5320 10000 (1964) 168 (2007) 2870 440 671 1070 1170 2320 4110 4280 5990 7130
2026-03-17 06:30 22.79 5330 10000 (1964) 168 (2007) 2870 440 671 1070 1170 2320 4110 4280 5990 7130
2026-03-17 06:00 22.78 5320 10000 (1964) 168 (2007) 2870 440 671 1070 1170 2320 4110 4280 5990 7130
2026-03-17 05:30 22.80 5330 10000 (1964) 168 (2007) 2870 440 671 1070 1170 2320 4110 4280 5990 7130
2026-03-17 05:00 22.82 5340 10000 (1964) 168 (2007) 2870 440 671 1070 1170 2320 4110 4280 5990 7130
2026-03-17 04:30 22.85 5350 10000 (1964) 168 (2007) 2870 440 671 1070 1170 2320 4110 4280 5990 7130
2026-03-17 04:00 22.87 5360 10000 (1964) 168 (2007) 2870 440 671 1070 1170 2320 4110 4280 5990 7130
2026-03-17 03:30 22.90 5370 10000 (1964) 168 (2007) 2870 440 671 1070 1170 2320 4110 4280 5990 7130
2026-03-17 03:00 22.90 5370 10000 (1964) 168 (2007) 2870 440 671 1070 1170 2320 4110 4280 5990 7130
2026-03-17 02:30 22.93 5380 10000 (1964) 168 (2007) 2870 440 671 1070 1170 2320 4110 4280 5990 7130
2026-03-17 02:00 22.96 5390 10000 (1964) 168 (2007) 2870 440 671 1070 1170 2320 4110 4280 5990 7130
2026-03-17 01:30 22.95 5390 10000 (1964) 168 (2007) 2870 440 671 1070 1170 2320 4110 4280 5990 7130
2026-03-17 01:00 22.99 5410 10000 (1964) 168 (2007) 2870 440 671 1070 1170 2320 4110 4280 5990 7130
2026-03-17 00:30 23.01 5410 10000 (1964) 168 (2007) 2870 440 671 1070 1170 2320 4110 4280 5990 7130
2026-03-17 00:00 23.04 5430 10000 (1964) 168 (2007) 2870 440 671 1070 1170 2320 4110 4280 5990 7130
2026-03-16 23:30 23.04 5430 10000 (1964) 168 (2007) 2870 440 671 1070 1170 2320 4110 4280 5990 7130
2026-03-16 23:00 23.08 5440 10000 (1964) 168 (2007) 2870 440 671 1070 1170 2320 4110 4280 5990 7130
2026-03-16 22:30 23.11 5450 10100 (1964) 209 (2007) 2890 439 607 1090 1300 2220 4180 4330 6260 7650
2026-03-16 22:00 23.12 5460 10100 (1964) 209 (2007) 2890 439 607 1090 1300 2220 4180 4330 6260 7650
2026-03-16 21:30 23.15 5470 10100 (1964) 209 (2007) 2890 439 607 1090 1300 2220 4180 4330 6260 7650
2026-03-16 21:00 23.17 5480 10100 (1964) 209 (2007) 2890 439 607 1090 1300 2220 4180 4330 6260 7650
2026-03-16 20:30 23.18 5480 10100 (1964) 209 (2007) 2890 439 607 1090 1300 2220 4180 4330 6260 7650
2026-03-16 20:00 23.22 5500 10100 (1964) 209 (2007) 2890 439 607 1090 1300 2220 4180 4330 6260 7650
2026-03-16 19:30 23.24 5500 10100 (1964) 209 (2007) 2890 439 607 1090 1300 2220 4180 4330 6260 7650
2026-03-16 19:00 23.27 5520 10100 (1964) 209 (2007) 2890 439 607 1090 1300 2220 4180 4330 6260 7650
2026-03-16 18:30 23.31 5530 10100 (1964) 209 (2007) 2890 439 607 1090 1300 2220 4180 4330 6260 7650
2026-03-16 18:00 23.34 5540 10100 (1964) 209 (2007) 2890 439 607 1090 1300 2220 4180 4330 6260 7650
2026-03-16 17:30 23.37 5550 10100 (1964) 209 (2007) 2890 439 607 1090 1300 2220 4180 4330 6260 7650
2026-03-16 17:00 23.40 5570 10100 (1964) 209 (2007) 2890 439 607 1090 1300 2220 4180 4330 6260 7650
2026-03-16 16:30 23.44 5580 10100 (1964) 209 (2007) 2890 439 607 1090 1300 2220 4180 4330 6260 7650
2026-03-16 16:00 23.46 5590 10100 (1964) 209 (2007) 2890 439 607 1090 1300 2220 4180 4330 6260 7650
2026-03-16 15:30 23.47 5590 10100 (1964) 209 (2007) 2890 439 607 1090 1300 2220 4180 4330 6260 7650
2026-03-16 15:00 23.55 5630 10100 (1964) 209 (2007) 2890 439 607 1090 1300 2220 4180 4330 6260 7650
2026-03-16 14:30 23.57 5630 10100 (1964) 209 (2007) 2890 439 607 1090 1300 2220 4180 4330 6260 7650
2026-03-16 14:00 23.59 5640 10100 (1964) 209 (2007) 2890 439 607 1090 1300 2220 4180 4330 6260 7650
2026-03-16 13:30 23.65 5660 10100 (1964) 209 (2007) 2890 439 607 1090 1300 2220 4180 4330 6260 7650
2026-03-16 13:00 23.68 5680 10100 (1964) 209 (2007) 2890 439 607 1090 1300 2220 4180 4330 6260 7650
2026-03-16 12:30 23.72 5690 10100 (1964) 209 (2007) 2890 439 607 1090 1300 2220 4180 4330 6260 7650
2026-03-16 12:00 23.80 5720 10100 (1964) 209 (2007) 2890 439 607 1090 1300 2220 4180 4330 6260 7650
2026-03-16 11:30 23.85 5740 10100 (1964) 209 (2007) 2890 439 607 1090 1300 2220 4180 4330 6260 7650
2026-03-16 11:00 23.91 5770 10100 (1964) 209 (2007) 2890 439 607 1090 1300 2220 4180 4330 6260 7650
2026-03-16 10:30 23.99 5800 10100 (1964) 209 (2007) 2890 439 607 1090 1300 2220 4180 4330 6260 7650
2026-03-16 10:00 24.08 5840 10100 (1964) 209 (2007) 2890 439 607 1090 1300 2220 4180 4330 6260 7650
2026-03-16 09:30 24.26 5910 10100 (1964) 209 (2007) 2890 439 607 1090 1300 2220 4180 4330 6260 7650
2026-03-16 09:00 24.25 5900 10100 (1964) 209 (2007) 2890 439 607 1090 1300 2220 4180 4330 6260 7650
2026-03-16 08:30 24.27 5910 10100 (1964) 209 (2007) 2890 439 607 1090 1300 2220 4180 4330 6260 7650
2026-03-16 08:00 24.26 5910 10100 (1964) 209 (2007) 2890 439 607 1090 1300 2220 4180 4330 6260 7650
2026-03-16 07:30 24.28 5920 10100 (1964) 209 (2007) 2890 439 607 1090 1300 2220 4180 4330 6260 7650
2026-03-16 07:00 24.32 5930 10100 (1964) 209 (2007) 2890 439 607 1090 1300 2220 4180 4330 6260 7650
2026-03-16 06:30 24.33 5940 10100 (1964) 209 (2007) 2890 439 607 1090 1300 2220 4180 4330 6260 7650
2026-03-16 06:00 24.32 5930 10100 (1964) 209 (2007) 2890 439 607 1090 1300 2220 4180 4330 6260 7650
2026-03-16 05:30 24.34 5940 10100 (1964) 209 (2007) 2890 439 607 1090 1300 2220 4180 4330 6260 7650
2026-03-16 05:00 24.35 5940 10100 (1964) 209 (2007) 2890 439 607 1090 1300 2220 4180 4330 6260 7650
2026-03-16 04:30 24.37 5950 10100 (1964) 209 (2007) 2890 439 607 1090 1300 2220 4180 4330 6260 7650
2026-03-16 04:00 24.36 5950 10100 (1964) 209 (2007) 2890 439 607 1090 1300 2220 4180 4330 6260 7650
2026-03-16 03:30 24.38 5960 10100 (1964) 209 (2007) 2890 439 607 1090 1300 2220 4180 4330 6260 7650
2026-03-16 03:00 24.39 5960 10100 (1964) 209 (2007) 2890 439 607 1090 1300 2220 4180 4330 6260 7650
2026-03-16 02:30 24.40 5960 10100 (1964) 209 (2007) 2890 439 607 1090 1300 2220 4180 4330 6260 7650
2026-03-16 02:00 24.40 5960 10100 (1964) 209 (2007) 2890 439 607 1090 1300 2220 4180 4330 6260 7650
2026-03-16 01:30 24.41 5970 10100 (1964) 209 (2007) 2890 439 607 1090 1300 2220 4180 4330 6260 7650
2026-03-16 01:00 24.42 5970 10100 (1964) 209 (2007) 2890 439 607 1090 1300 2220 4180 4330 6260 7650
2026-03-16 00:30 24.42 5970 10100 (1964) 209 (2007) 2890 439 607 1090 1300 2220 4180 4330 6260 7650
2026-03-16 00:00 24.45 5980 10100 (1964) 209 (2007) 2890 439 607 1090 1300 2220 4180 4330 6260 7650
2026-03-15 23:30 24.45 5980 10100 (1964) 209 (2007) 2890 439 607 1090 1300 2220 4180 4330 6260 7650
2026-03-15 23:00 24.43 5980 10100 (1964) 209 (2007) 2890 439 607 1090 1300 2220 4180 4330 6260 7650
2026-03-15 22:30 24.44 5980 9970 (1964) 104 (2007) 2900 456 606 1120 1260 2110 4160 4390 6380 7430
2026-03-15 22:00 24.47 5990 9970 (1964) 104 (2007) 2900 456 606 1120 1260 2110 4160 4390 6380 7430
2026-03-15 21:30 24.47 5990 9970 (1964) 104 (2007) 2900 456 606 1120 1260 2110 4160 4390 6380 7430
2026-03-15 21:00 24.46 5990 9970 (1964) 104 (2007) 2900 456 606 1120 1260 2110 4160 4390 6380 7430
2026-03-15 20:30 24.48 6000 9970 (1964) 104 (2007) 2900 456 606 1120 1260 2110 4160 4390 6380 7430
2026-03-15 20:00 24.49 6000 9970 (1964) 104 (2007) 2900 456 606 1120 1260 2110 4160 4390 6380 7430
2026-03-15 19:30 24.51 6010 9970 (1964) 104 (2007) 2900 456 606 1120 1260 2110 4160 4390 6380 7430
2026-03-15 19:00 24.48 6000 9970 (1964) 104 (2007) 2900 456 606 1120 1260 2110 4160 4390 6380 7430
2026-03-15 18:30 24.46 5990 9970 (1964) 104 (2007) 2900 456 606 1120 1260 2110 4160 4390 6380 7430
2026-03-15 18:00 24.49 6000 9970 (1964) 104 (2007) 2900 456 606 1120 1260 2110 4160 4390 6380 7430
2026-03-15 17:30 24.50 6000 9970 (1964) 104 (2007) 2900 456 606 1120 1260 2110 4160 4390 6380 7430
2026-03-15 17:00 24.48 6000 9970 (1964) 104 (2007) 2900 456 606 1120 1260 2110 4160 4390 6380 7430
2026-03-15 16:30 24.52 6010 9970 (1964) 104 (2007) 2900 456 606 1120 1260 2110 4160 4390 6380 7430
2026-03-15 16:00 24.52 6010 9970 (1964) 104 (2007) 2900 456 606 1120 1260 2110 4160 4390 6380 7430
2026-03-15 15:30 24.53 6020 9970 (1964) 104 (2007) 2900 456 606 1120 1260 2110 4160 4390 6380 7430
2026-03-15 15:00 24.53 6020 9970 (1964) 104 (2007) 2900 456 606 1120 1260 2110 4160 4390 6380 7430
2026-03-15 14:30 24.53 6020 9970 (1964) 104 (2007) 2900 456 606 1120 1260 2110 4160 4390 6380 7430
2026-03-15 14:00 24.56 6030 9970 (1964) 104 (2007) 2900 456 606 1120 1260 2110 4160 4390 6380 7430
2026-03-15 13:30 24.53 6020 9970 (1964) 104 (2007) 2900 456 606 1120 1260 2110 4160 4390 6380 7430
2026-03-15 13:00 24.57 6030 9970 (1964) 104 (2007) 2900 456 606 1120 1260 2110 4160 4390 6380 7430
2026-03-15 12:30 24.58 6040 9970 (1964) 104 (2007) 2900 456 606 1120 1260 2110 4160 4390 6380 7430
2026-03-15 12:00 24.59 6040 9970 (1964) 104 (2007) 2900 456 606 1120 1260 2110 4160 4390 6380 7430
2026-03-15 11:30 24.59 6040 9970 (1964) 104 (2007) 2900 456 606 1120 1260 2110 4160 4390 6380 7430
2026-03-15 11:00 24.59 6040 9970 (1964) 104 (2007) 2900 456 606 1120 1260 2110 4160 4390 6380 7430
2026-03-15 10:30 24.62 6050 9970 (1964) 104 (2007) 2900 456 606 1120 1260 2110 4160 4390 6380 7430
2026-03-15 10:00 24.63 6060 9970 (1964) 104 (2007) 2900 456 606 1120 1260 2110 4160 4390 6380 7430
2026-03-15 09:30 24.63 6060 9970 (1964) 104 (2007) 2900 456 606 1120 1260 2110 4160 4390 6380 7430
2026-03-15 09:00 24.63 6060 9970 (1964) 104 (2007) 2900 456 606 1120 1260 2110 4160 4390 6380 7430
2026-03-15 08:30 24.64 6060 9970 (1964) 104 (2007) 2900 456 606 1120 1260 2110 4160 4390 6380 7430
2026-03-15 08:00 24.65 6060 9970 (1964) 104 (2007) 2900 456 606 1120 1260 2110 4160 4390 6380 7430
2026-03-15 07:30 24.67 6070 9970 (1964) 104 (2007) 2900 456 606 1120 1260 2110 4160 4390 6380 7430
2026-03-15 07:00 24.68 6080 9970 (1964) 104 (2007) 2900 456 606 1120 1260 2110 4160 4390 6380 7430
2026-03-15 06:30 24.66 6070 9970 (1964) 104 (2007) 2900 456 606 1120 1260 2110 4160 4390 6380 7430
2026-03-15 06:00 24.68 6080 9970 (1964) 104 (2007) 2900 456 606 1120 1260 2110 4160 4390 6380 7430
2026-03-15 05:30 24.70 6080 9970 (1964) 104 (2007) 2900 456 606 1120 1260 2110 4160 4390 6380 7430
2026-03-15 05:00 24.71 6090 9970 (1964) 104 (2007) 2900 456 606 1120 1260 2110 4160 4390 6380 7430
2026-03-15 04:30 24.72 6090 9970 (1964) 104 (2007) 2900 456 606 1120 1260 2110 4160 4390 6380 7430
2026-03-15 04:00 24.71 6090 9970 (1964) 104 (2007) 2900 456 606 1120 1260 2110 4160 4390 6380 7430
2026-03-15 03:30 24.74 6100 9970 (1964) 104 (2007) 2900 456 606 1120 1260 2110 4160 4390 6380 7430
2026-03-15 03:00 24.74 6100 9970 (1964) 104 (2007) 2900 456 606 1120 1260 2110 4160 4390 6380 7430
2026-03-15 02:30 24.76 6110 9970 (1964) 104 (2007) 2900 456 606 1120 1260 2110 4160 4390 6380 7430
2026-03-15 02:00 24.75 6100 9970 (1964) 104 (2007) 2900 456 606 1120 1260 2110 4160 4390 6380 7430
2026-03-15 01:30 24.78 6120 9970 (1964) 104 (2007) 2900 456 606 1120 1260 2110 4160 4390 6380 7430
2026-03-15 01:00 24.78 6120 9970 (1964) 104 (2007) 2900 456 606 1120 1260 2110 4160 4390 6380 7430
2026-03-15 00:30 24.76 6110 9970 (1964) 104 (2007) 2900 456 606 1120 1260 2110 4160 4390 6380 7430
2026-03-15 00:00 24.79 6120 9970 (1964) 104 (2007) 2900 456 606 1120 1260 2110 4160 4390 6380 7430
2026-03-14 23:30 24.78 6120 9970 (1964) 104 (2007) 2900 456 606 1120 1260 2110 4160 4390 6380 7430
2026-03-14 23:00 24.80 6130 9970 (1964) 104 (2007) 2900 456 606 1120 1260 2110 4160 4390 6380 7430
2026-03-14 22:30 24.81 6130 10100 (1964) 310 (1980) 2910 459 622 1130 1270 2270 3940 4450 6090 8040
2026-03-14 22:00 24.83 6140 10100 (1964) 310 (1980) 2910 459 622 1130 1270 2270 3940 4450 6090 8040
2026-03-14 21:30 24.83 6140 10100 (1964) 310 (1980) 2910 459 622 1130 1270 2270 3940 4450 6090 8040
2026-03-14 21:00 24.85 6150 10100 (1964) 310 (1980) 2910 459 622 1130 1270 2270 3940 4450 6090 8040
2026-03-14 20:30 24.84 6140 10100 (1964) 310 (1980) 2910 459 622 1130 1270 2270 3940 4450 6090 8040
2026-03-14 20:00 24.87 6150 10100 (1964) 310 (1980) 2910 459 622 1130 1270 2270 3940 4450 6090 8040
2026-03-14 19:30 24.88 6160 10100 (1964) 310 (1980) 2910 459 622 1130 1270 2270 3940 4450 6090 8040
2026-03-14 19:00 24.88 6160 10100 (1964) 310 (1980) 2910 459 622 1130 1270 2270 3940 4450 6090 8040
2026-03-14 18:30 24.91 6170 10100 (1964) 310 (1980) 2910 459 622 1130 1270 2270 3940 4450 6090 8040
2026-03-14 18:00 24.90 6170 10100 (1964) 310 (1980) 2910 459 622 1130 1270 2270 3940 4450 6090 8040
2026-03-14 17:30 24.90 6170 10100 (1964) 310 (1980) 2910 459 622 1130 1270 2270 3940 4450 6090 8040
2026-03-14 17:00 24.91 6170 10100 (1964) 310 (1980) 2910 459 622 1130 1270 2270 3940 4450 6090 8040
2026-03-14 16:30 24.91 6170 10100 (1964) 310 (1980) 2910 459 622 1130 1270 2270 3940 4450 6090 8040
2026-03-14 16:00 24.93 6180 10100 (1964) 310 (1980) 2910 459 622 1130 1270 2270 3940 4450 6090 8040
2026-03-14 15:30 24.95 6190 10100 (1964) 310 (1980) 2910 459 622 1130 1270 2270 3940 4450 6090 8040
2026-03-14 15:00 24.95 6190 10100 (1964) 310 (1980) 2910 459 622 1130 1270 2270 3940 4450 6090 8040
2026-03-14 14:30 24.93 6180 10100 (1964) 310 (1980) 2910 459 622 1130 1270 2270 3940 4450 6090 8040
2026-03-14 14:00 24.96 6190 10100 (1964) 310 (1980) 2910 459 622 1130 1270 2270 3940 4450 6090 8040
2026-03-14 13:30 24.97 6190 10100 (1964) 310 (1980) 2910 459 622 1130 1270 2270 3940 4450 6090 8040
2026-03-14 13:00 24.99 6200 10100 (1964) 310 (1980) 2910 459 622 1130 1270 2270 3940 4450 6090 8040
2026-03-14 12:30 24.99 6200 10100 (1964) 310 (1980) 2910 459 622 1130 1270 2270 3940 4450 6090 8040
2026-03-14 12:00 25.01 6210 10100 (1964) 310 (1980) 2910 459 622 1130 1270 2270 3940 4450 6090 8040
2026-03-14 11:30 24.98 6200 10100 (1964) 310 (1980) 2910 459 622 1130 1270 2270 3940 4450 6090 8040
2026-03-14 11:00 25.00 6210 10100 (1964) 310 (1980) 2910 459 622 1130 1270 2270 3940 4450 6090 8040
2026-03-14 10:30 25.02 6210 10100 (1964) 310 (1980) 2910 459 622 1130 1270 2270 3940 4450 6090 8040
2026-03-14 10:00 25.03 6220 10100 (1964) 310 (1980) 2910 459 622 1130 1270 2270 3940 4450 6090 8040
2026-03-14 09:30 25.03 6220 10100 (1964) 310 (1980) 2910 459 622 1130 1270 2270 3940 4450 6090 8040
2026-03-14 09:00 25.04 6220 10100 (1964) 310 (1980) 2910 459 622 1130 1270 2270 3940 4450 6090 8040
2026-03-14 08:30 25.06 6230 10100 (1964) 310 (1980) 2910 459 622 1130 1270 2270 3940 4450 6090 8040
2026-03-14 08:00 25.06 6230 10100 (1964) 310 (1980) 2910 459 622 1130 1270 2270 3940 4450 6090 8040
2026-03-14 07:30 25.07 6230 10100 (1964) 310 (1980) 2910 459 622 1130 1270 2270 3940 4450 6090 8040
2026-03-14 07:00 25.08 6240 10100 (1964) 310 (1980) 2910 459 622 1130 1270 2270 3940 4450 6090 8040
2026-03-14 06:30 25.08 6240 10100 (1964) 310 (1980) 2910 459 622 1130 1270 2270 3940 4450 6090 8040
2026-03-14 06:00 25.09 6240 10100 (1964) 310 (1980) 2910 459 622 1130 1270 2270 3940 4450 6090 8040
2026-03-14 05:30 25.10 6250 10100 (1964) 310 (1980) 2910 459 622 1130 1270 2270 3940 4450 6090 8040
2026-03-14 05:00 25.11 6250 10100 (1964) 310 (1980) 2910 459 622 1130 1270 2270 3940 4450 6090 8040
2026-03-14 04:30 25.12 6260 10100 (1964) 310 (1980) 2910 459 622 1130 1270 2270 3940 4450 6090 8040
2026-03-14 04:00 25.12 6260 10100 (1964) 310 (1980) 2910 459 622 1130 1270 2270 3940 4450 6090 8040
2026-03-14 03:30 25.13 6260 10100 (1964) 310 (1980) 2910 459 622 1130 1270 2270 3940 4450 6090 8040
2026-03-14 03:00 25.14 6260 10100 (1964) 310 (1980) 2910 459 622 1130 1270 2270 3940 4450 6090 8040
2026-03-14 02:30 25.14 6260 10100 (1964) 310 (1980) 2910 459 622 1130 1270 2270 3940 4450 6090 8040
2026-03-14 02:00 25.16 6270 10100 (1964) 310 (1980) 2910 459 622 1130 1270 2270 3940 4450 6090 8040
2026-03-14 01:30 25.17 6280 10100 (1964) 310 (1980) 2910 459 622 1130 1270 2270 3940 4450 6090 8040
2026-03-14 01:00 25.18 6280 10100 (1964) 310 (1980) 2910 459 622 1130 1270 2270 3940 4450 6090 8040
2026-03-14 00:30 25.19 6280 10100 (1964) 310 (1980) 2910 459 622 1130 1270 2270 3940 4450 6090 8040
2026-03-14 00:00 25.14 6260 10100 (1964) 310 (1980) 2910 459 622 1130 1270 2270 3940 4450 6090 8040
2026-03-13 23:30 25.20 6290 10100 (1964) 310 (1980) 2910 459 622 1130 1270 2270 3940 4450 6090 8040
2026-03-13 23:00 25.19 6280 10100 (1964) 310 (1980) 2910 459 622 1130 1270 2270 3940 4450 6090 8040
2026-03-13 22:30 25.21 6290 9990 (1973) 158 (1991) 2860 470 541 1210 1340 2230 3910 4050 5820 8530
2026-03-13 22:00 25.20 6290 9990 (1973) 158 (1991) 2860 470 541 1210 1340 2230 3910 4050 5820 8530
2026-03-13 21:30 25.21 6290 9990 (1973) 158 (1991) 2860 470 541 1210 1340 2230 3910 4050 5820 8530
2026-03-13 21:00 25.23 6300 9990 (1973) 158 (1991) 2860 470 541 1210 1340 2230 3910 4050 5820 8530
2026-03-13 20:30 25.24 6300 9990 (1973) 158 (1991) 2860 470 541 1210 1340 2230 3910 4050 5820 8530
2026-03-13 20:00 25.24 6300 9990 (1973) 158 (1991) 2860 470 541 1210 1340 2230 3910 4050 5820 8530
2026-03-13 19:30 25.24 6300 9990 (1973) 158 (1991) 2860 470 541 1210 1340 2230 3910 4050 5820 8530
2026-03-13 19:00 25.25 6310 9990 (1973) 158 (1991) 2860 470 541 1210 1340 2230 3910 4050 5820 8530
2026-03-13 18:30 25.27 6320 9990 (1973) 158 (1991) 2860 470 541 1210 1340 2230 3910 4050 5820 8530
2026-03-13 18:00 25.29 6320 9990 (1973) 158 (1991) 2860 470 541 1210 1340 2230 3910 4050 5820 8530
2026-03-13 17:30 25.27 6320 9990 (1973) 158 (1991) 2860 470 541 1210 1340 2230 3910 4050 5820 8530
2026-03-13 17:00 25.29 6320 9990 (1973) 158 (1991) 2860 470 541 1210 1340 2230 3910 4050 5820 8530
2026-03-13 16:30 25.30 6330 9990 (1973) 158 (1991) 2860 470 541 1210 1340 2230 3910 4050 5820 8530
2026-03-13 16:00 25.32 6340 9990 (1973) 158 (1991) 2860 470 541 1210 1340 2230 3910 4050 5820 8530
2026-03-13 15:30 25.32 6340 9990 (1973) 158 (1991) 2860 470 541 1210 1340 2230 3910 4050 5820 8530
2026-03-13 15:00 25.32 6340 9990 (1973) 158 (1991) 2860 470 541 1210 1340 2230 3910 4050 5820 8530
2026-03-13 14:30 25.31 6330 9990 (1973) 158 (1991) 2860 470 541 1210 1340 2230 3910 4050 5820 8530
2026-03-13 14:00 25.33 6340 9990 (1973) 158 (1991) 2860 470 541 1210 1340 2230 3910 4050 5820 8530
2026-03-13 13:30 25.32 6340 9990 (1973) 158 (1991) 2860 470 541 1210 1340 2230 3910 4050 5820 8530
2026-03-13 13:00 25.36 6350 9990 (1973) 158 (1991) 2860 470 541 1210 1340 2230 3910 4050 5820 8530
2026-03-13 12:30 25.36 6350 9990 (1973) 158 (1991) 2860 470 541 1210 1340 2230 3910 4050 5820 8530
2026-03-13 12:00 25.35 6350 9990 (1973) 158 (1991) 2860 470 541 1210 1340 2230 3910 4050 5820 8530
2026-03-13 11:30 25.36 6350 9990 (1973) 158 (1991) 2860 470 541 1210 1340 2230 3910 4050 5820 8530
2026-03-13 11:00 25.36 6350 9990 (1973) 158 (1991) 2860 470 541 1210 1340 2230 3910 4050 5820 8530
2026-03-13 10:30 25.37 6360 9990 (1973) 158 (1991) 2860 470 541 1210 1340 2230 3910 4050 5820 8530
2026-03-13 10:00 25.39 6370 9990 (1973) 158 (1991) 2860 470 541 1210 1340 2230 3910 4050 5820 8530
2026-03-13 09:30 25.37 6360 9990 (1973) 158 (1991) 2860 470 541 1210 1340 2230 3910 4050 5820 8530
2026-03-13 09:00 25.39 6370 9990 (1973) 158 (1991) 2860 470 541 1210 1340 2230 3910 4050 5820 8530
2026-03-13 08:30 25.38 6360 9990 (1973) 158 (1991) 2860 470 541 1210 1340 2230 3910 4050 5820 8530
2026-03-13 08:00 25.41 6370 9990 (1973) 158 (1991) 2860 470 541 1210 1340 2230 3910 4050 5820 8530
2026-03-13 07:30 25.41 6370 9990 (1973) 158 (1991) 2860 470 541 1210 1340 2230 3910 4050 5820 8530
2026-03-13 07:00 25.42 6380 9990 (1973) 158 (1991) 2860 470 541 1210 1340 2230 3910 4050 5820 8530
2026-03-13 06:30 25.43 6380 9990 (1973) 158 (1991) 2860 470 541 1210 1340 2230 3910 4050 5820 8530
2026-03-13 06:00 25.40 6370 9990 (1973) 158 (1991) 2860 470 541 1210 1340 2230 3910 4050 5820 8530
2026-03-13 05:30 25.42 6380 9990 (1973) 158 (1991) 2860 470 541 1210 1340 2230 3910 4050 5820 8530
2026-03-13 05:00 25.44 6390 9990 (1973) 158 (1991) 2860 470 541 1210 1340 2230 3910 4050 5820 8530
2026-03-13 04:30 25.45 6390 9990 (1973) 158 (1991) 2860 470 541 1210 1340 2230 3910 4050 5820 8530
2026-03-13 04:00 25.47 6400 9990 (1973) 158 (1991) 2860 470 541 1210 1340 2230 3910 4050 5820 8530
2026-03-13 03:30 25.46 6390 9990 (1973) 158 (1991) 2860 470 541 1210 1340 2230 3910 4050 5820 8530
2026-03-13 03:00 25.46 6390 9990 (1973) 158 (1991) 2860 470 541 1210 1340 2230 3910 4050 5820 8530
2026-03-13 02:30 25.47 6400 9990 (1973) 158 (1991) 2860 470 541 1210 1340 2230 3910 4050 5820 8530
2026-03-13 02:00 25.49 6410 9990 (1973) 158 (1991) 2860 470 541 1210 1340 2230 3910 4050 5820 8530
2026-03-13 01:30 25.50 6410 9990 (1973) 158 (1991) 2860 470 541 1210 1340 2230 3910 4050 5820 8530
2026-03-13 01:00 25.48 6400 9990 (1973) 158 (1991) 2860 470 541 1210 1340 2230 3910 4050 5820 8530
2026-03-13 00:30 25.49 6410 9990 (1973) 158 (1991) 2860 470 541 1210 1340 2230 3910 4050 5820 8530
2026-03-13 00:00 25.50 6410 9990 (1973) 158 (1991) 2860 470 541 1210 1340 2230 3910 4050 5820 8530
2026-03-12 23:30 25.48 6400 9990 (1973) 158 (1991) 2860 470 541 1210 1340 2230 3910 4050 5820 8530
2026-03-12 23:00 25.50 6410 9990 (1973) 158 (1991) 2860 470 541 1210 1340 2230 3910 4050 5820 8530
2026-03-12 22:30 25.52 6420 10000 (1964) 407 (1991) 2790 478 596 1170 1270 2030 3770 4270 5890 8410
2026-03-12 22:00 25.51 6410 10000 (1964) 407 (1991) 2790 478 596 1170 1270 2030 3770 4270 5890 8410
2026-03-12 21:30 25.53 6420 10000 (1964) 407 (1991) 2790 478 596 1170 1270 2030 3770 4270 5890 8410
2026-03-12 21:00 25.52 6420 10000 (1964) 407 (1991) 2790 478 596 1170 1270 2030 3770 4270 5890 8410
2026-03-12 20:30 25.55 6430 10000 (1964) 407 (1991) 2790 478 596 1170 1270 2030 3770 4270 5890 8410
2026-03-12 20:00 25.55 6430 10000 (1964) 407 (1991) 2790 478 596 1170 1270 2030 3770 4270 5890 8410
2026-03-12 19:30 25.53 6420 10000 (1964) 407 (1991) 2790 478 596 1170 1270 2030 3770 4270 5890 8410
2026-03-12 19:00 25.55 6430 10000 (1964) 407 (1991) 2790 478 596 1170 1270 2030 3770 4270 5890 8410
2026-03-12 18:30 25.57 6440 10000 (1964) 407 (1991) 2790 478 596 1170 1270 2030 3770 4270 5890 8410
2026-03-12 18:00 25.58 6440 10000 (1964) 407 (1991) 2790 478 596 1170 1270 2030 3770 4270 5890 8410
2026-03-12 17:30 25.59 6450 10000 (1964) 407 (1991) 2790 478 596 1170 1270 2030 3770 4270 5890 8410
2026-03-12 17:00 25.59 6450 10000 (1964) 407 (1991) 2790 478 596 1170 1270 2030 3770 4270 5890 8410
2026-03-12 16:30 25.60 6450 10000 (1964) 407 (1991) 2790 478 596 1170 1270 2030 3770 4270 5890 8410
2026-03-12 16:00 25.60 6450 10000 (1964) 407 (1991) 2790 478 596 1170 1270 2030 3770 4270 5890 8410
2026-03-12 15:30 25.58 6440 10000 (1964) 407 (1991) 2790 478 596 1170 1270 2030 3770 4270 5890 8410
2026-03-12 15:00 25.61 6460 10000 (1964) 407 (1991) 2790 478 596 1170 1270 2030 3770 4270 5890 8410
2026-03-12 14:30 25.62 6460 10000 (1964) 407 (1991) 2790 478 596 1170 1270 2030 3770 4270 5890 8410
2026-03-12 14:00 25.61 6460 10000 (1964) 407 (1991) 2790 478 596 1170 1270 2030 3770 4270 5890 8410
2026-03-12 13:30 25.63 6460 10000 (1964) 407 (1991) 2790 478 596 1170 1270 2030 3770 4270 5890 8410
2026-03-12 13:00 25.60 6450 10000 (1964) 407 (1991) 2790 478 596 1170 1270 2030 3770 4270 5890 8410
2026-03-12 12:30 25.65 6470 10000 (1964) 407 (1991) 2790 478 596 1170 1270 2030 3770 4270 5890 8410
2026-03-12 12:00 25.64 6470 10000 (1964) 407 (1991) 2790 478 596 1170 1270 2030 3770 4270 5890 8410
2026-03-12 11:30 25.65 6470 10000 (1964) 407 (1991) 2790 478 596 1170 1270 2030 3770 4270 5890 8410
2026-03-12 11:00 25.64 6470 10000 (1964) 407 (1991) 2790 478 596 1170 1270 2030 3770 4270 5890 8410
2026-03-12 10:30 25.66 6480 10000 (1964) 407 (1991) 2790 478 596 1170 1270 2030 3770 4270 5890 8410
2026-03-12 10:00 25.65 6470 10000 (1964) 407 (1991) 2790 478 596 1170 1270 2030 3770 4270 5890 8410
2026-03-12 09:30 25.67 6480 10000 (1964) 407 (1991) 2790 478 596 1170 1270 2030 3770 4270 5890 8410
2026-03-12 09:00 25.66 6480 10000 (1964) 407 (1991) 2790 478 596 1170 1270 2030 3770 4270 5890 8410
2026-03-12 08:30 25.66 6480 10000 (1964) 407 (1991) 2790 478 596 1170 1270 2030 3770 4270 5890 8410
2026-03-12 08:00 25.69 6490 10000 (1964) 407 (1991) 2790 478 596 1170 1270 2030 3770 4270 5890 8410
2026-03-12 07:30 25.69 6490 10000 (1964) 407 (1991) 2790 478 596 1170 1270 2030 3770 4270 5890 8410
2026-03-12 07:00 25.69 6490 10000 (1964) 407 (1991) 2790 478 596 1170 1270 2030 3770 4270 5890 8410
2026-03-12 06:30 25.70 6490 10000 (1964) 407 (1991) 2790 478 596 1170 1270 2030 3770 4270 5890 8410
2026-03-12 06:00 25.72 6500 10000 (1964) 407 (1991) 2790 478 596 1170 1270 2030 3770 4270 5890 8410
2026-03-12 05:30 25.71 6500 10000 (1964) 407 (1991) 2790 478 596 1170 1270 2030 3770 4270 5890 8410
2026-03-12 05:00 25.71 6500 10000 (1964) 407 (1991) 2790 478 596 1170 1270 2030 3770 4270 5890 8410
2026-03-12 04:30 25.72 6500 10000 (1964) 407 (1991) 2790 478 596 1170 1270 2030 3770 4270 5890 8410
2026-03-12 04:00 25.68 6480 10000 (1964) 407 (1991) 2790 478 596 1170 1270 2030 3770 4270 5890 8410
2026-03-12 03:30 25.74 6510 10000 (1964) 407 (1991) 2790 478 596 1170 1270 2030 3770 4270 5890 8410
2026-03-12 03:00 25.74 6510 10000 (1964) 407 (1991) 2790 478 596 1170 1270 2030 3770 4270 5890 8410
2026-03-12 02:30 25.74 6510 10000 (1964) 407 (1991) 2790 478 596 1170 1270 2030 3770 4270 5890 8410
2026-03-12 02:00 25.75 6510 10000 (1964) 407 (1991) 2790 478 596 1170 1270 2030 3770 4270 5890 8410
2026-03-12 01:30 25.75 6510 10000 (1964) 407 (1991) 2790 478 596 1170 1270 2030 3770 4270 5890 8410
2026-03-12 01:00 25.75 6510 10000 (1964) 407 (1991) 2790 478 596 1170 1270 2030 3770 4270 5890 8410
2026-03-12 00:30 25.76 6520 10000 (1964) 407 (1991) 2790 478 596 1170 1270 2030 3770 4270 5890 8410
2026-03-12 00:00 25.79 6530 10000 (1964) 407 (1991) 2790 478 596 1170 1270 2030 3770 4270 5890 8410
2026-03-11 23:30 25.76 6520 10000 (1964) 407 (1991) 2790 478 596 1170 1270 2030 3770 4270 5890 8410
2026-03-11 23:00 25.77 6520 10000 (1964) 407 (1991) 2790 478 596 1170 1270 2030 3770 4270 5890 8410
2026-03-11 22:30 25.79 6530 10000 (1964) 468 (1968) 2710 514 580 940 1120 2200 3750 4530 5690 7300
2026-03-11 22:00 25.78 6530 10000 (1964) 468 (1968) 2710 514 580 940 1120 2200 3750 4530 5690 7300
2026-03-11 21:30 25.79 6530 10000 (1964) 468 (1968) 2710 514 580 940 1120 2200 3750 4530 5690 7300
2026-03-11 21:00 25.79 6530 10000 (1964) 468 (1968) 2710 514 580 940 1120 2200 3750 4530 5690 7300
2026-03-11 20:30 25.82 6540 10000 (1964) 468 (1968) 2710 514 580 940 1120 2200 3750 4530 5690 7300
2026-03-11 20:00 25.81 6540 10000 (1964) 468 (1968) 2710 514 580 940 1120 2200 3750 4530 5690 7300
2026-03-11 19:30 25.79 6530 10000 (1964) 468 (1968) 2710 514 580 940 1120 2200 3750 4530 5690 7300
2026-03-11 19:00 25.82 6540 10000 (1964) 468 (1968) 2710 514 580 940 1120 2200 3750 4530 5690 7300
2026-03-11 18:30 25.82 6540 10000 (1964) 468 (1968) 2710 514 580 940 1120 2200 3750 4530 5690 7300
2026-03-11 18:00 25.83 6550 10000 (1964) 468 (1968) 2710 514 580 940 1120 2200 3750 4530 5690 7300
2026-03-11 17:30 25.83 6550 10000 (1964) 468 (1968) 2710 514 580 940 1120 2200 3750 4530 5690 7300
2026-03-11 17:00 25.83 6550 10000 (1964) 468 (1968) 2710 514 580 940 1120 2200 3750 4530 5690 7300
2026-03-11 16:30 25.84 6550 10000 (1964) 468 (1968) 2710 514 580 940 1120 2200 3750 4530 5690 7300
2026-03-11 16:00 25.84 6550 10000 (1964) 468 (1968) 2710 514 580 940 1120 2200 3750 4530 5690 7300
2026-03-11 15:30 25.82 6540 10000 (1964) 468 (1968) 2710 514 580 940 1120 2200 3750 4530 5690 7300
2026-03-11 15:00 25.84 6550 10000 (1964) 468 (1968) 2710 514 580 940 1120 2200 3750 4530 5690 7300
2026-03-11 14:30 25.86 6560 10000 (1964) 468 (1968) 2710 514 580 940 1120 2200 3750 4530 5690 7300
2026-03-11 14:00 25.85 6560 10000 (1964) 468 (1968) 2710 514 580 940 1120 2200 3750 4530 5690 7300
2026-03-11 13:30 25.84 6550 10000 (1964) 468 (1968) 2710 514 580 940 1120 2200 3750 4530 5690 7300
2026-03-11 13:00 25.85 6560 10000 (1964) 468 (1968) 2710 514 580 940 1120 2200 3750 4530 5690 7300
2026-03-11 12:30 25.85 6560 10000 (1964) 468 (1968) 2710 514 580 940 1120 2200 3750 4530 5690 7300
2026-03-11 12:00 25.84 6550 10000 (1964) 468 (1968) 2710 514 580 940 1120 2200 3750 4530 5690 7300
2026-03-11 11:30 25.85 6560 10000 (1964) 468 (1968) 2710 514 580 940 1120 2200 3750 4530 5690 7300
2026-03-11 11:00 25.84 6550 10000 (1964) 468 (1968) 2710 514 580 940 1120 2200 3750 4530 5690 7300
2026-03-11 10:30 25.86 6560 10000 (1964) 468 (1968) 2710 514 580 940 1120 2200 3750 4530 5690 7300
2026-03-11 10:00 25.88 6570 10000 (1964) 468 (1968) 2710 514 580 940 1120 2200 3750 4530 5690 7300
2026-03-11 09:30 25.88 6570 10000 (1964) 468 (1968) 2710 514 580 940 1120 2200 3750 4530 5690 7300
2026-03-11 09:00 25.88 6570 10000 (1964) 468 (1968) 2710 514 580 940 1120 2200 3750 4530 5690 7300
2026-03-11 08:30 25.88 6570 10000 (1964) 468 (1968) 2710 514 580 940 1120 2200 3750 4530 5690 7300
2026-03-11 08:00 25.86 6560 10000 (1964) 468 (1968) 2710 514 580 940 1120 2200 3750 4530 5690 7300
2026-03-11 07:30 25.86 6560 10000 (1964) 468 (1968) 2710 514 580 940 1120 2200 3750 4530 5690 7300
2026-03-11 07:00 25.90 6580 10000 (1964) 468 (1968) 2710 514 580 940 1120 2200 3750 4530 5690 7300
2026-03-11 06:30 25.91 6580 10000 (1964) 468 (1968) 2710 514 580 940 1120 2200 3750 4530 5690 7300
2026-03-11 06:00 25.89 6570 10000 (1964) 468 (1968) 2710 514 580 940 1120 2200 3750 4530 5690 7300
2026-03-11 05:30 25.90 6580 10000 (1964) 468 (1968) 2710 514 580 940 1120 2200 3750 4530 5690 7300
2026-03-11 05:00 25.90 6580 10000 (1964) 468 (1968) 2710 514 580 940 1120 2200 3750 4530 5690 7300
2026-03-11 04:30 25.91 6580 10000 (1964) 468 (1968) 2710 514 580 940 1120 2200 3750 4530 5690 7300
2026-03-11 04:00 25.91 6580 10000 (1964) 468 (1968) 2710 514 580 940 1120 2200 3750 4530 5690 7300
2026-03-11 03:30 25.94 6590 10000 (1964) 468 (1968) 2710 514 580 940 1120 2200 3750 4530 5690 7300
2026-03-11 03:00 25.91 6580 10000 (1964) 468 (1968) 2710 514 580 940 1120 2200 3750 4530 5690 7300
2026-03-11 02:30 25.91 6580 10000 (1964) 468 (1968) 2710 514 580 940 1120 2200 3750 4530 5690 7300
2026-03-11 02:00 25.91 6580 10000 (1964) 468 (1968) 2710 514 580 940 1120 2200 3750 4530 5690 7300
2026-03-11 01:30 25.93 6590 10000 (1964) 468 (1968) 2710 514 580 940 1120 2200 3750 4530 5690 7300
2026-03-11 01:00 25.93 6590 10000 (1964) 468 (1968) 2710 514 580 940 1120 2200 3750 4530 5690 7300
2026-03-11 00:30 25.92 6580 10000 (1964) 468 (1968) 2710 514 580 940 1120 2200 3750 4530 5690 7300
2026-03-11 00:00 25.94 6590 10000 (1964) 468 (1968) 2710 514 580 940 1120 2200 3750 4530 5690 7300
2026-03-10 23:30 25.94 6590 10000 (1964) 468 (1968) 2710 514 580 940 1120 2200 3750 4530 5690 7300
2026-03-10 23:00 25.95 6600 10000 (1964) 468 (1968) 2710 514 580 940 1120 2200 3750 4530 5690 7300
2026-03-10 22:30 25.96 6600 10000 (1964) 231 (1945) 2600 442 590 926 1050 2160 3600 3900 5480 6450
2026-03-10 22:00 25.96 6600 10000 (1964) 231 (1945) 2600 442 590 926 1050 2160 3600 3900 5480 6450
2026-03-10 21:30 25.97 6600 10000 (1964) 231 (1945) 2600 442 590 926 1050 2160 3600 3900 5480 6450
2026-03-10 21:00 25.96 6600 10000 (1964) 231 (1945) 2600 442 590 926 1050 2160 3600 3900 5480 6450
2026-03-10 20:30 25.97 6600 10000 (1964) 231 (1945) 2600 442 590 926 1050 2160 3600 3900 5480 6450
2026-03-10 20:00 25.95 6600 10000 (1964) 231 (1945) 2600 442 590 926 1050 2160 3600 3900 5480 6450
2026-03-10 19:30 25.99 6610 10000 (1964) 231 (1945) 2600 442 590 926 1050 2160 3600 3900 5480 6450
2026-03-10 19:00 25.98 6610 10000 (1964) 231 (1945) 2600 442 590 926 1050 2160 3600 3900 5480 6450
2026-03-10 18:30 25.98 6610 10000 (1964) 231 (1945) 2600 442 590 926 1050 2160 3600 3900 5480 6450
2026-03-10 18:00 26.01 6620 10000 (1964) 231 (1945) 2600 442 590 926 1050 2160 3600 3900 5480 6450
2026-03-10 17:30 26.00 6620 10000 (1964) 231 (1945) 2600 442 590 926 1050 2160 3600 3900 5480 6450
2026-03-10 17:00 26.01 6620 10000 (1964) 231 (1945) 2600 442 590 926 1050 2160 3600 3900 5480 6450
2026-03-10 16:30 26.00 6620 10000 (1964) 231 (1945) 2600 442 590 926 1050 2160 3600 3900 5480 6450
2026-03-10 16:00 25.98 6610 10000 (1964) 231 (1945) 2600 442 590 926 1050 2160 3600 3900 5480 6450
2026-03-10 15:30 25.99 6610 10000 (1964) 231 (1945) 2600 442 590 926 1050 2160 3600 3900 5480 6450
2026-03-10 15:00 26.02 6630 10000 (1964) 231 (1945) 2600 442 590 926 1050 2160 3600 3900 5480 6450
2026-03-10 14:30 26.01 6620 10000 (1964) 231 (1945) 2600 442 590 926 1050 2160 3600 3900 5480 6450
2026-03-10 14:00 26.00 6620 10000 (1964) 231 (1945) 2600 442 590 926 1050 2160 3600 3900 5480 6450
2026-03-10 13:30 26.00 6620 10000 (1964) 231 (1945) 2600 442 590 926 1050 2160 3600 3900 5480 6450
2026-03-10 13:00 26.00 6620 10000 (1964) 231 (1945) 2600 442 590 926 1050 2160 3600 3900 5480 6450
2026-03-10 12:30 26.02 6630 10000 (1964) 231 (1945) 2600 442 590 926 1050 2160 3600 3900 5480 6450
2026-03-10 12:00 26.00 6620 10000 (1964) 231 (1945) 2600 442 590 926 1050 2160 3600 3900 5480 6450
2026-03-10 11:30 26.01 6620 10000 (1964) 231 (1945) 2600 442 590 926 1050 2160 3600 3900 5480 6450
2026-03-10 11:00 26.01 6620 10000 (1964) 231 (1945) 2600 442 590 926 1050 2160 3600 3900 5480 6450
2026-03-10 10:30 26.03 6630 10000 (1964) 231 (1945) 2600 442 590 926 1050 2160 3600 3900 5480 6450
2026-03-10 10:00 26.03 6630 10000 (1964) 231 (1945) 2600 442 590 926 1050 2160 3600 3900 5480 6450
2026-03-10 09:30 26.03 6630 10000 (1964) 231 (1945) 2600 442 590 926 1050 2160 3600 3900 5480 6450
2026-03-10 09:00 26.04 6630 10000 (1964) 231 (1945) 2600 442 590 926 1050 2160 3600 3900 5480 6450
2026-03-10 08:30 26.03 6630 10000 (1964) 231 (1945) 2600 442 590 926 1050 2160 3600 3900 5480 6450
2026-03-10 08:00 26.03 6630 10000 (1964) 231 (1945) 2600 442 590 926 1050 2160 3600 3900 5480 6450
2026-03-10 07:30 26.02 6630 10000 (1964) 231 (1945) 2600 442 590 926 1050 2160 3600 3900 5480 6450
2026-03-10 07:00 26.03 6630 10000 (1964) 231 (1945) 2600 442 590 926 1050 2160 3600 3900 5480 6450
2026-03-10 06:30 26.02 6630 10000 (1964) 231 (1945) 2600 442 590 926 1050 2160 3600 3900 5480 6450
2026-03-10 06:00 26.01 6620 10000 (1964) 231 (1945) 2600 442 590 926 1050 2160 3600 3900 5480 6450
2026-03-10 05:30 26.02 6630 10000 (1964) 231 (1945) 2600 442 590 926 1050 2160 3600 3900 5480 6450
2026-03-10 05:00 26.03 6630 10000 (1964) 231 (1945) 2600 442 590 926 1050 2160 3600 3900 5480 6450
2026-03-10 04:30 26.01 6620 10000 (1964) 231 (1945) 2600 442 590 926 1050 2160 3600 3900 5480 6450
2026-03-10 04:00 26.02 6630 10000 (1964) 231 (1945) 2600 442 590 926 1050 2160 3600 3900 5480 6450
2026-03-10 03:30 26.02 6630 10000 (1964) 231 (1945) 2600 442 590 926 1050 2160 3600 3900 5480 6450
2026-03-10 03:00 25.98 6610 10000 (1964) 231 (1945) 2600 442 590 926 1050 2160 3600 3900 5480 6450
2026-03-10 02:30 26.01 6620 10000 (1964) 231 (1945) 2600 442 590 926 1050 2160 3600 3900 5480 6450
2026-03-10 02:00 26.03 6630 10000 (1964) 231 (1945) 2600 442 590 926 1050 2160 3600 3900 5480 6450
2026-03-10 01:30 26.02 6630 10000 (1964) 231 (1945) 2600 442 590 926 1050 2160 3600 3900 5480 6450
2026-03-10 01:00 25.99 6610 10000 (1964) 231 (1945) 2600 442 590 926 1050 2160 3600 3900 5480 6450
2026-03-10 00:30 26.01 6620 10000 (1964) 231 (1945) 2600 442 590 926 1050 2160 3600 3900 5480 6450
2026-03-10 00:00 26.00 6620 10000 (1964) 231 (1945) 2600 442 590 926 1050 2160 3600 3900 5480 6450
2026-03-09 23:30 26.00 6620 10000 (1964) 231 (1945) 2600 442 590 926 1050 2160 3600 3900 5480 6450
2026-03-09 23:00 26.00 6620 10000 (1964) 231 (1945) 2600 442 590 926 1050 2160 3600 3900 5480 6450
2026-03-09 22:30 25.99 6610 8280 (1961) 76 (1945) 2540 461 607 870 1140 2190 3730 3940 5660 6610
2026-03-09 22:00 26.00 6620 8280 (1961) 76 (1945) 2540 461 607 870 1140 2190 3730 3940 5660 6610
2026-03-09 21:30 25.98 6610 8280 (1961) 76 (1945) 2540 461 607 870 1140 2190 3730 3940 5660 6610
2026-03-09 21:00 25.99 6610 8280 (1961) 76 (1945) 2540 461 607 870 1140 2190 3730 3940 5660 6610
2026-03-09 20:30 25.97 6600 8280 (1961) 76 (1945) 2540 461 607 870 1140 2190 3730 3940 5660 6610
2026-03-09 20:00 25.96 6600 8280 (1961) 76 (1945) 2540 461 607 870 1140 2190 3730 3940 5660 6610
2026-03-09 19:30 25.96 6600 8280 (1961) 76 (1945) 2540 461 607 870 1140 2190 3730 3940 5660 6610
2026-03-09 19:00 25.97 6600 8280 (1961) 76 (1945) 2540 461 607 870 1140 2190 3730 3940 5660 6610
2026-03-09 18:30 25.97 6600 8280 (1961) 76 (1945) 2540 461 607 870 1140 2190 3730 3940 5660 6610
2026-03-09 18:00 25.94 6590 8280 (1961) 76 (1945) 2540 461 607 870 1140 2190 3730 3940 5660 6610
2026-03-09 17:30 25.94 6590 8280 (1961) 76 (1945) 2540 461 607 870 1140 2190 3730 3940 5660 6610
2026-03-09 17:00 25.93 6590 8280 (1961) 76 (1945) 2540 461 607 870 1140 2190 3730 3940 5660 6610
2026-03-09 16:30 25.92 6580 8280 (1961) 76 (1945) 2540 461 607 870 1140 2190 3730 3940 5660 6610
2026-03-09 16:00 25.91 6580 8280 (1961) 76 (1945) 2540 461 607 870 1140 2190 3730 3940 5660 6610
2026-03-09 15:30 25.90 6580 8280 (1961) 76 (1945) 2540 461 607 870 1140 2190 3730 3940 5660 6610
2026-03-09 15:00 25.86 6560 8280 (1961) 76 (1945) 2540 461 607 870 1140 2190 3730 3940 5660 6610
2026-03-09 14:30 25.88 6570 8280 (1961) 76 (1945) 2540 461 607 870 1140 2190 3730 3940 5660 6610
2026-03-09 14:00 25.88 6570 8280 (1961) 76 (1945) 2540 461 607 870 1140 2190 3730 3940 5660 6610
2026-03-09 13:30 25.86 6560 8280 (1961) 76 (1945) 2540 461 607 870 1140 2190 3730 3940 5660 6610
2026-03-09 13:00 25.85 6560 8280 (1961) 76 (1945) 2540 461 607 870 1140 2190 3730 3940 5660 6610
2026-03-09 12:30 25.83 6550 8280 (1961) 76 (1945) 2540 461 607 870 1140 2190 3730 3940 5660 6610
2026-03-09 12:00 25.83 6550 8280 (1961) 76 (1945) 2540 461 607 870 1140 2190 3730 3940 5660 6610
2026-03-09 11:30 25.83 6550 8280 (1961) 76 (1945) 2540 461 607 870 1140 2190 3730 3940 5660 6610
2026-03-09 11:00 25.79 6530 8280 (1961) 76 (1945) 2540 461 607 870 1140 2190 3730 3940 5660 6610
2026-03-09 10:30 25.79 6530 8280 (1961) 76 (1945) 2540 461 607 870 1140 2190 3730 3940 5660 6610
2026-03-09 10:00 25.78 6530 8280 (1961) 76 (1945) 2540 461 607 870 1140 2190 3730 3940 5660 6610
2026-03-09 09:30 25.77 6520 8280 (1961) 76 (1945) 2540 461 607 870 1140 2190 3730 3940 5660 6610
2026-03-09 09:00 25.75 6510 8280 (1961) 76 (1945) 2540 461 607 870 1140 2190 3730 3940 5660 6610
2026-03-09 08:30 25.75 6510 8280 (1961) 76 (1945) 2540 461 607 870 1140 2190 3730 3940 5660 6610
2026-03-09 08:00 25.73 6510 8280 (1961) 76 (1945) 2540 461 607 870 1140 2190 3730 3940 5660 6610
2026-03-09 07:30 25.71 6500 8280 (1961) 76 (1945) 2540 461 607 870 1140 2190 3730 3940 5660 6610
2026-03-09 07:00 25.71 6500 8280 (1961) 76 (1945) 2540 461 607 870 1140 2190 3730 3940 5660 6610
2026-03-09 06:30 25.69 6490 8280 (1961) 76 (1945) 2540 461 607 870 1140 2190 3730 3940 5660 6610
2026-03-09 06:00 25.63 6460 8280 (1961) 76 (1945) 2540 461 607 870 1140 2190 3730 3940 5660 6610
2026-03-09 05:30 25.66 6480 8280 (1961) 76 (1945) 2540 461 607 870 1140 2190 3730 3940 5660 6610
2026-03-09 05:00 25.63 6460 8280 (1961) 76 (1945) 2540 461 607 870 1140 2190 3730 3940 5660 6610
2026-03-09 04:30 25.62 6460 8280 (1961) 76 (1945) 2540 461 607 870 1140 2190 3730 3940 5660 6610
2026-03-09 04:00 25.56 6440 8280 (1961) 76 (1945) 2540 461 607 870 1140 2190 3730 3940 5660 6610
2026-03-09 03:30 25.57 6440 8280 (1961) 76 (1945) 2540 461 607 870 1140 2190 3730 3940 5660 6610
2026-03-09 03:00 25.54 6430 8280 (1961) 76 (1945) 2540 461 607 870 1140 2190 3730 3940 5660 6610
2026-03-09 02:30 25.52 6420 8280 (1961) 76 (1945) 2540 461 607 870 1140 2190 3730 3940 5660 6610
2026-03-09 02:00 25.52 6420 8280 (1961) 76 (1945) 2540 461 607 870 1140 2190 3730 3940 5660 6610
2026-03-09 01:30 25.47 6400 8280 (1961) 76 (1945) 2540 461 607 870 1140 2190 3730 3940 5660 6610
2026-03-09 01:00 25.46 6390 8280 (1961) 76 (1945) 2540 461 607 870 1140 2190 3730 3940 5660 6610
2026-03-09 00:30 25.43 6380 8280 (1961) 76 (1945) 2540 461 607 870 1140 2190 3730 3940 5660 6610
2026-03-09 00:00 25.40 6370 8280 (1961) 76 (1945) 2540 461 607 870 1140 2190 3730 3940 5660 6610
2026-03-08 23:30 25.38 6360 8280 (1961) 76 (1945) 2540 461 607 870 1140 2190 3730 3940 5660 6610
2026-03-08 23:00 25.33 6340 8280 (1961) 76 (1945) 2540 461 607 870 1140 2190 3730 3940 5660 6610
2026-03-08 22:30 25.32 6340 8280 (1961) 96 (1945) 2470 447 538 828 995 2000 3270 3840 5710 6510
2026-03-08 22:00 25.30 6330 8280 (1961) 96 (1945) 2470 447 538 828 995 2000 3270 3840 5710 6510
2026-03-08 21:30 25.26 6310 8280 (1961) 96 (1945) 2470 447 538 828 995 2000 3270 3840 5710 6510
2026-03-08 21:00 25.22 6300 8280 (1961) 96 (1945) 2470 447 538 828 995 2000 3270 3840 5710 6510
2026-03-08 20:30 25.19 6280 8280 (1961) 96 (1945) 2470 447 538 828 995 2000 3270 3840 5710 6510
2026-03-08 20:00 25.16 6270 8280 (1961) 96 (1945) 2470 447 538 828 995 2000 3270 3840 5710 6510
2026-03-08 19:30 25.13 6260 8280 (1961) 96 (1945) 2470 447 538 828 995 2000 3270 3840 5710 6510
2026-03-08 19:00 25.09 6240 8280 (1961) 96 (1945) 2470 447 538 828 995 2000 3270 3840 5710 6510
2026-03-08 18:30 25.03 6220 8280 (1961) 96 (1945) 2470 447 538 828 995 2000 3270 3840 5710 6510
2026-03-08 18:00 24.97 6190 8280 (1961) 96 (1945) 2470 447 538 828 995 2000 3270 3840 5710 6510
2026-03-08 17:30 24.94 6180 8280 (1961) 96 (1945) 2470 447 538 828 995 2000 3270 3840 5710 6510
2026-03-08 17:00 24.90 6170 8280 (1961) 96 (1945) 2470 447 538 828 995 2000 3270 3840 5710 6510
2026-03-08 16:30 24.82 6130 8280 (1961) 96 (1945) 2470 447 538 828 995 2000 3270 3840 5710 6510
2026-03-08 16:00 24.80 6130 8280 (1961) 96 (1945) 2470 447 538 828 995 2000 3270 3840 5710 6510
2026-03-08 15:30 24.75 6100 8280 (1961) 96 (1945) 2470 447 538 828 995 2000 3270 3840 5710 6510
2026-03-08 15:00 24.66 6070 8280 (1961) 96 (1945) 2470 447 538 828 995 2000 3270 3840 5710 6510
2026-03-08 14:30 24.61 6050 8280 (1961) 96 (1945) 2470 447 538 828 995 2000 3270 3840 5710 6510
2026-03-08 14:00 24.57 6030 8280 (1961) 96 (1945) 2470 447 538 828 995 2000 3270 3840 5710 6510
2026-03-08 13:30 24.47 5990 8280 (1961) 96 (1945) 2470 447 538 828 995 2000 3270 3840 5710 6510
2026-03-08 13:00 24.42 5970 8280 (1961) 96 (1945) 2470 447 538 828 995 2000 3270 3840 5710 6510
2026-03-08 12:30 24.33 5940 8280 (1961) 96 (1945) 2470 447 538 828 995 2000 3270 3840 5710 6510
2026-03-08 12:00 24.21 5890 8280 (1961) 96 (1945) 2470 447 538 828 995 2000 3270 3840 5710 6510
2026-03-08 11:30 24.10 5840 8280 (1961) 96 (1945) 2470 447 538 828 995 2000 3270 3840 5710 6510
2026-03-08 11:00 24.01 5810 8280 (1961) 96 (1945) 2470 447 538 828 995 2000 3270 3840 5710 6510
2026-03-08 10:30 23.93 5780 8280 (1961) 96 (1945) 2470 447 538 828 995 2000 3270 3840 5710 6510
2026-03-08 10:00 23.80 5720 8280 (1961) 96 (1945) 2470 447 538 828 995 2000 3270 3840 5710 6510
2026-03-08 09:30 23.61 5650 8280 (1961) 96 (1945) 2470 447 538 828 995 2000 3270 3840 5710 6510
2026-03-08 09:00 23.59 5640 8280 (1961) 96 (1945) 2470 447 538 828 995 2000 3270 3840 5710 6510
2026-03-08 08:30 23.57 5630 8280 (1961) 96 (1945) 2470 447 538 828 995 2000 3270 3840 5710 6510
2026-03-08 08:00 23.55 5630 8280 (1961) 96 (1945) 2470 447 538 828 995 2000 3270 3840 5710 6510
2026-03-08 07:30 23.49 5600 8280 (1961) 96 (1945) 2470 447 538 828 995 2000 3270 3840 5710 6510
2026-03-08 07:00 23.52 5610 8280 (1961) 96 (1945) 2470 447 538 828 995 2000 3270 3840 5710 6510
2026-03-08 06:30 23.50 5610 8280 (1961) 96 (1945) 2470 447 538 828 995 2000 3270 3840 5710 6510
2026-03-08 06:00 23.44 5580 8280 (1961) 96 (1945) 2470 447 538 828 995 2000 3270 3840 5710 6510
2026-03-08 05:30 23.45 5590 8280 (1961) 96 (1945) 2470 447 538 828 995 2000 3270 3840 5710 6510
2026-03-08 05:00 23.43 5580 8280 (1961) 96 (1945) 2470 447 538 828 995 2000 3270 3840 5710 6510
2026-03-08 04:30 23.40 5570 8280 (1961) 96 (1945) 2470 447 538 828 995 2000 3270 3840 5710 6510
2026-03-08 04:00 23.40 5570 8280 (1961) 96 (1945) 2470 447 538 828 995 2000 3270 3840 5710 6510
2026-03-08 03:30 23.35 5550 8280 (1961) 96 (1945) 2470 447 538 828 995 2000 3270 3840 5710 6510
2026-03-08 03:00 23.36 5550 8280 (1961) 96 (1945) 2470 447 538 828 995 2000 3270 3840 5710 6510
2026-03-08 01:30 23.32 5530 8280 (1961) 96 (1945) 2470 447 538 828 995 2000 3270 3840 5710 6510
2026-03-08 01:00 23.30 5530 8280 (1961) 96 (1945) 2470 447 538 828 995 2000 3270 3840 5710 6510
2026-03-08 00:30 23.27 5520 8280 (1961) 96 (1945) 2470 447 538 828 995 2000 3270 3840 5710 6510
2026-03-08 00:00 23.23 5500 8280 (1961) 96 (1945) 2470 447 538 828 995 2000 3270 3840 5710 6510
2026-03-07 23:30 23.21 5490 8280 (1961) 96 (1945) 2470 447 538 828 995 2000 3270 3840 5710 6510
2026-03-07 23:00 23.18 5480 8280 (1961) 96 (1945) 2470 447 538 828 995 2000 3270 3840 5710 6510
2026-03-07 22:30 23.13 5460 7310 (1979) 44 (2002) 2410 370 495 765 942 1940 3190 3430 5730 6740
2026-03-07 22:00 23.12 5460 7310 (1979) 44 (2002) 2410 370 495 765 942 1940 3190 3430 5730 6740
2026-03-07 21:30 23.08 5440 7310 (1979) 44 (2002) 2410 370 495 765 942 1940 3190 3430 5730 6740
2026-03-07 21:00 23.03 5420 7310 (1979) 44 (2002) 2410 370 495 765 942 1940 3190 3430 5730 6740
2026-03-07 20:30 22.99 5410 7310 (1979) 44 (2002) 2410 370 495 765 942 1940 3190 3430 5730 6740
2026-03-07 20:00 22.91 5370 7310 (1979) 44 (2002) 2410 370 495 765 942 1940 3190 3430 5730 6740
2026-03-07 19:30 22.90 5370 7310 (1979) 44 (2002) 2410 370 495 765 942 1940 3190 3430 5730 6740
2026-03-07 19:00 22.83 5340 7310 (1979) 44 (2002) 2410 370 495 765 942 1940 3190 3430 5730 6740
2026-03-07 18:30 22.77 5320 7310 (1979) 44 (2002) 2410 370 495 765 942 1940 3190 3430 5730 6740
2026-03-07 18:00 22.68 5290 7310 (1979) 44 (2002) 2410 370 495 765 942 1940 3190 3430 5730 6740
2026-03-07 17:30 22.63 5270 7310 (1979) 44 (2002) 2410 370 495 765 942 1940 3190 3430 5730 6740
2026-03-07 17:00 22.55 5240 7310 (1979) 44 (2002) 2410 370 495 765 942 1940 3190 3430 5730 6740
2026-03-07 16:30 22.42 5190 7310 (1979) 44 (2002) 2410 370 495 765 942 1940 3190 3430 5730 6740
2026-03-07 16:00 22.35 5160 7310 (1979) 44 (2002) 2410 370 495 765 942 1940 3190 3430 5730 6740
2026-03-07 15:30 22.24 5120 7310 (1979) 44 (2002) 2410 370 495 765 942 1940 3190 3430 5730 6740
2026-03-07 15:00 22.08 5060 7310 (1979) 44 (2002) 2410 370 495 765 942 1940 3190 3430 5730 6740
2026-03-07 14:30 21.94 5000 7310 (1979) 44 (2002) 2410 370 495 765 942 1940 3190 3430 5730 6740
2026-03-07 14:00 21.66 4900 7310 (1979) 44 (2002) 2410 370 495 765 942 1940 3190 3430 5730 6740
2026-03-07 13:30 21.59 4870 7310 (1979) 44 (2002) 2410 370 495 765 942 1940 3190 3430 5730 6740
2026-03-07 13:00 21.53 4850 7310 (1979) 44 (2002) 2410 370 495 765 942 1940 3190 3430 5730 6740
2026-03-07 12:30 21.44 4810 7310 (1979) 44 (2002) 2410 370 495 765 942 1940 3190 3430 5730 6740
2026-03-07 12:00 21.34 4780 7310 (1979) 44 (2002) 2410 370 495 765 942 1940 3190 3430 5730 6740
2026-03-07 11:30 21.22 4730 7310 (1979) 44 (2002) 2410 370 495 765 942 1940 3190 3430 5730 6740
2026-03-07 11:00 21.09 4680 7310 (1979) 44 (2002) 2410 370 495 765 942 1940 3190 3430 5730 6740
2026-03-07 10:30 20.92 4620 7310 (1979) 44 (2002) 2410 370 495 765 942 1940 3190 3430 5730 6740
2026-03-07 10:00 20.75 4560 7310 (1979) 44 (2002) 2410 370 495 765 942 1940 3190 3430 5730 6740
2026-03-07 09:30 20.56 4490 7310 (1979) 44 (2002) 2410 370 495 765 942 1940 3190 3430 5730 6740
2026-03-07 09:00 20.27 4380 7310 (1979) 44 (2002) 2410 370 495 765 942 1940 3190 3430 5730 6740
2026-03-07 08:30 20.03 4290 7310 (1979) 44 (2002) 2410 370 495 765 942 1940 3190 3430 5730 6740
2026-03-07 08:00 19.90 4250 7310 (1979) 44 (2002) 2410 370 495 765 942 1940 3190 3430 5730 6740
2026-03-07 07:30 19.82 4220 7310 (1979) 44 (2002) 2410 370 495 765 942 1940 3190 3430 5730 6740
2026-03-07 07:00 19.72 4180 7310 (1979) 44 (2002) 2410 370 495 765 942 1940 3190 3430 5730 6740
2026-03-07 06:30 19.69 4170 7310 (1979) 44 (2002) 2410 370 495 765 942 1940 3190 3430 5730 6740
2026-03-07 06:00 19.64 4150 7310 (1979) 44 (2002) 2410 370 495 765 942 1940 3190 3430 5730 6740
2026-03-07 05:30 19.59 4140 7310 (1979) 44 (2002) 2410 370 495 765 942 1940 3190 3430 5730 6740
2026-03-07 05:00 19.57 4130 7310 (1979) 44 (2002) 2410 370 495 765 942 1940 3190 3430 5730 6740
2026-03-07 04:30 19.53 4110 7310 (1979) 44 (2002) 2410 370 495 765 942 1940 3190 3430 5730 6740
2026-03-07 04:00 19.48 4100 7310 (1979) 44 (2002) 2410 370 495 765 942 1940 3190 3430 5730 6740
2026-03-07 03:30 19.44 4080 7310 (1979) 44 (2002) 2410 370 495 765 942 1940 3190 3430 5730 6740
2026-03-07 03:00 19.38 4060 7310 (1979) 44 (2002) 2410 370 495 765 942 1940 3190 3430 5730 6740
2026-03-07 02:30 19.34 4050 7310 (1979) 44 (2002) 2410 370 495 765 942 1940 3190 3430 5730 6740
2026-03-07 02:00 19.28 4020 7310 (1979) 44 (2002) 2410 370 495 765 942 1940 3190 3430 5730 6740
2026-03-07 01:30 19.24 4010 7310 (1979) 44 (2002) 2410 370 495 765 942 1940 3190 3430 5730 6740
2026-03-07 01:00 19.17 3990 7310 (1979) 44 (2002) 2410 370 495 765 942 1940 3190 3430 5730 6740
2026-03-07 00:30 19.09 3960 7310 (1979) 44 (2002) 2410 370 495 765 942 1940 3190 3430 5730 6740
2026-03-07 00:00 19.04 3940 7310 (1979) 44 (2002) 2410 370 495 765 942 1940 3190 3430 5730 6740
2026-03-06 23:30 18.99 3920 7310 (1979) 44 (2002) 2410 370 495 765 942 1940 3190 3430 5730 6740
2026-03-06 23:00 18.91 3890 7310 (1979) 44 (2002) 2410 370 495 765 942 1940 3190 3430 5730 6740
2026-03-06 22:30 18.81 3860 7240 (2018) 83 (2002) 2320 414 508 766 868 1870 3180 3530 5690 6350
2026-03-06 22:00 18.73 3830 7240 (2018) 83 (2002) 2320 414 508 766 868 1870 3180 3530 5690 6350
2026-03-06 21:30 18.66 3810 7240 (2018) 83 (2002) 2320 414 508 766 868 1870 3180 3530 5690 6350
2026-03-06 21:00 18.56 3770 7240 (2018) 83 (2002) 2320 414 508 766 868 1870 3180 3530 5690 6350
2026-03-06 20:30 18.46 3740 7240 (2018) 83 (2002) 2320 414 508 766 868 1870 3180 3530 5690 6350
2026-03-06 20:00 18.36 3700 7240 (2018) 83 (2002) 2320 414 508 766 868 1870 3180 3530 5690 6350
2026-03-06 19:30 18.25 3660 7240 (2018) 83 (2002) 2320 414 508 766 868 1870 3180 3530 5690 6350
2026-03-06 19:00 18.14 3630 7240 (2018) 83 (2002) 2320 414 508 766 868 1870 3180 3530 5690 6350
2026-03-06 18:30 18.02 3590 7240 (2018) 83 (2002) 2320 414 508 766 868 1870 3180 3530 5690 6350
2026-03-06 18:00 17.88 3540 7240 (2018) 83 (2002) 2320 414 508 766 868 1870 3180 3530 5690 6350
2026-03-06 17:30 17.74 3490 7240 (2018) 83 (2002) 2320 414 508 766 868 1870 3180 3530 5690 6350
2026-03-06 17:00 17.60 3440 7240 (2018) 83 (2002) 2320 414 508 766 868 1870 3180 3530 5690 6350
2026-03-06 16:30 17.45 3390 7240 (2018) 83 (2002) 2320 414 508 766 868 1870 3180 3530 5690 6350
2026-03-06 16:00 17.28 3340 7240 (2018) 83 (2002) 2320 414 508 766 868 1870 3180 3530 5690 6350
2026-03-06 15:30 17.10 3280 7240 (2018) 83 (2002) 2320 414 508 766 868 1870 3180 3530 5690 6350
2026-03-06 15:00 16.88 3200 7240 (2018) 83 (2002) 2320 414 508 766 868 1870 3180 3530 5690 6350
2026-03-06 14:30 16.67 3130 7240 (2018) 83 (2002) 2320 414 508 766 868 1870 3180 3530 5690 6350
2026-03-06 14:00 16.41 3050 7240 (2018) 83 (2002) 2320 414 508 766 868 1870 3180 3530 5690 6350
2026-03-06 13:30 16.10 2950 7240 (2018) 83 (2002) 2320 414 508 766 868 1870 3180 3530 5690 6350
2026-03-06 13:00 15.75 2840 7240 (2018) 83 (2002) 2320 414 508 766 868 1870 3180 3530 5690 6350
2026-03-06 12:30 15.48 2750 7240 (2018) 83 (2002) 2320 414 508 766 868 1870 3180 3530 5690 6350
2026-03-06 12:00 15.16 2650 7240 (2018) 83 (2002) 2320 414 508 766 868 1870 3180 3530 5690 6350
2026-03-06 11:30 14.94 2580 7240 (2018) 83 (2002) 2320 414 508 766 868 1870 3180 3530 5690 6350
2026-03-06 11:00 14.67 2500 7240 (2018) 83 (2002) 2320 414 508 766 868 1870 3180 3530 5690 6350
2026-03-06 10:30 14.48 2440 7240 (2018) 83 (2002) 2320 414 508 766 868 1870 3180 3530 5690 6350
2026-03-06 10:00 14.31 2390 7240 (2018) 83 (2002) 2320 414 508 766 868 1870 3180 3530 5690 6350
2026-03-06 09:30 14.11 2330 7240 (2018) 83 (2002) 2320 414 508 766 868 1870 3180 3530 5690 6350
2026-03-06 09:00 14.07 2320 7240 (2018) 83 (2002) 2320 414 508 766 868 1870 3180 3530 5690 6350
2026-03-06 08:30 14.00 2300 7240 (2018) 83 (2002) 2320 414 508 766 868 1870 3180 3530 5690 6350
2026-03-06 08:00 13.93 2280 7240 (2018) 83 (2002) 2320 414 508 766 868 1870 3180 3530 5690 6350
2026-03-06 07:30 13.89 2270 7240 (2018) 83 (2002) 2320 414 508 766 868 1870 3180 3530 5690 6350
2026-03-06 07:00 13.84 2250 7240 (2018) 83 (2002) 2320 414 508 766 868 1870 3180 3530 5690 6350
2026-03-06 06:30 13.78 2230 7240 (2018) 83 (2002) 2320 414 508 766 868 1870 3180 3530 5690 6350
2026-03-06 06:00 13.73 2220 7240 (2018) 83 (2002) 2320 414 508 766 868 1870 3180 3530 5690 6350
2026-03-06 05:30 13.67 2200 7240 (2018) 83 (2002) 2320 414 508 766 868 1870 3180 3530 5690 6350
2026-03-06 05:00 13.62 2190 7240 (2018) 83 (2002) 2320 414 508 766 868 1870 3180 3530 5690 6350
2026-03-06 04:30 13.54 2160 7240 (2018) 83 (2002) 2320 414 508 766 868 1870 3180 3530 5690 6350
2026-03-06 04:00 13.49 2150 7240 (2018) 83 (2002) 2320 414 508 766 868 1870 3180 3530 5690 6350
2026-03-06 03:30 13.43 2130 7240 (2018) 83 (2002) 2320 414 508 766 868 1870 3180 3530 5690 6350
2026-03-06 03:00 13.35 2110 7240 (2018) 83 (2002) 2320 414 508 766 868 1870 3180 3530 5690 6350
2026-03-06 02:30 13.30 2090 7240 (2018) 83 (2002) 2320 414 508 766 868 1870 3180 3530 5690 6350
2026-03-06 02:00 13.23 2070 7240 (2018) 83 (2002) 2320 414 508 766 868 1870 3180 3530 5690 6350
2026-03-06 01:30 13.15 2050 7240 (2018) 83 (2002) 2320 414 508 766 868 1870 3180 3530 5690 6350
2026-03-06 01:00 13.08 2030 7240 (2018) 83 (2002) 2320 414 508 766 868 1870 3180 3530 5690 6350
2026-03-06 00:30 13.00 2010 7240 (2018) 83 (2002) 2320 414 508 766 868 1870 3180 3530 5690 6350
2026-03-06 00:00 12.93 1990 7240 (2018) 83 (2002) 2320 414 508 766 868 1870 3180 3530 5690 6350
2026-03-05 23:30 12.84 1960 7240 (2018) 83 (2002) 2320 414 508 766 868 1870 3180 3530 5690 6350
2026-03-05 23:00 12.76 1940 7240 (2018) 83 (2002) 2320 414 508 766 868 1870 3180 3530 5690 6350
2026-03-05 22:30 12.67 1910 7490 (2018) 130 (1945) 2320 426 533 790 928 1740 3400 3710 5070 6000
2026-03-05 22:00 12.59 1890 7490 (2018) 130 (1945) 2320 426 533 790 928 1740 3400 3710 5070 6000
2026-03-05 21:30 12.49 1860 7490 (2018) 130 (1945) 2320 426 533 790 928 1740 3400 3710 5070 6000
2026-03-05 21:00 12.39 1840 7490 (2018) 130 (1945) 2320 426 533 790 928 1740 3400 3710 5070 6000
2026-03-05 20:30 12.28 1810 7490 (2018) 130 (1945) 2320 426 533 790 928 1740 3400 3710 5070 6000
2026-03-05 20:00 12.17 1770 7490 (2018) 130 (1945) 2320 426 533 790 928 1740 3400 3710 5070 6000
2026-03-05 19:30 12.06 1740 7490 (2018) 130 (1945) 2320 426 533 790 928 1740 3400 3710 5070 6000
2026-03-05 19:00 11.94 1710 7490 (2018) 130 (1945) 2320 426 533 790 928 1740 3400 3710 5070 6000
2026-03-05 18:30 11.79 1670 7490 (2018) 130 (1945) 2320 426 533 790 928 1740 3400 3710 5070 6000
2026-03-05 18:00 11.64 1630 7490 (2018) 130 (1945) 2320 426 533 790 928 1740 3400 3710 5070 6000
2026-03-05 17:30 11.48 1590 7490 (2018) 130 (1945) 2320 426 533 790 928 1740 3400 3710 5070 6000
2026-03-05 17:00 11.30 1540 7490 (2018) 130 (1945) 2320 426 533 790 928 1740 3400 3710 5070 6000
2026-03-05 16:30 11.08 1480 7490 (2018) 130 (1945) 2320 426 533 790 928 1740 3400 3710 5070 6000
2026-03-05 16:00 10.86 1420 7490 (2018) 130 (1945) 2320 426 533 790 928 1740 3400 3710 5070 6000
2026-03-05 15:30 10.55 1340 7490 (2018) 130 (1945) 2320 426 533 790 928 1740 3400 3710 5070 6000
2026-03-05 15:00 10.21 1250 7490 (2018) 130 (1945) 2320 426 533 790 928 1740 3400 3710 5070 6000
2026-03-05 14:30 10.04 1200 7490 (2018) 130 (1945) 2320 426 533 790 928 1740 3400 3710 5070 6000
2026-03-05 14:00 9.84 1150 7490 (2018) 130 (1945) 2320 426 533 790 928 1740 3400 3710 5070 6000
2026-03-05 13:30 9.61 1090 7490 (2018) 130 (1945) 2320 426 533 790 928 1740 3400 3710 5070 6000
2026-03-05 13:00 9.36 1030 7490 (2018) 130 (1945) 2320 426 533 790 928 1740 3400 3710 5070 6000
2026-03-05 12:30 9.04 954 7490 (2018) 130 (1945) 2320 426 533 790 928 1740 3400 3710 5070 6000
2026-03-05 12:00 8.63 858 7490 (2018) 130 (1945) 2320 426 533 790 928 1740 3400 3710 5070 6000
2026-03-05 11:30 8.19 759 7490 (2018) 130 (1945) 2320 426 533 790 928 1740 3400 3710 5070 6000
2026-03-05 11:00 7.82 680 7490 (2018) 130 (1945) 2320 426 533 790 928 1740 3400 3710 5070 6000
2026-03-05 10:30 7.31 576 7490 (2018) 130 (1945) 2320 426 533 790 928 1740 3400 3710 5070 6000
2026-03-05 10:00 6.92 500 7490 (2018) 130 (1945) 2320 426 533 790 928 1740 3400 3710 5070 6000
2026-03-05 09:30 6.61 443 7490 (2018) 130 (1945) 2320 426 533 790 928 1740 3400 3710 5070 6000
2026-03-05 09:00 6.60 441 7490 (2018) 130 (1945) 2320 426 533 790 928 1740 3400 3710 5070 6000
2026-03-05 08:30 6.61 443 7490 (2018) 130 (1945) 2320 426 533 790 928 1740 3400 3710 5070 6000
2026-03-05 08:00 6.61 443 7490 (2018) 130 (1945) 2320 426 533 790 928 1740 3400 3710 5070 6000
2026-03-05 07:30 6.61 443 7490 (2018) 130 (1945) 2320 426 533 790 928 1740 3400 3710 5070 6000
2026-03-05 07:00 6.60 441 7490 (2018) 130 (1945) 2320 426 533 790 928 1740 3400 3710 5070 6000
2026-03-05 06:30 6.60 441 7490 (2018) 130 (1945) 2320 426 533 790 928 1740 3400 3710 5070 6000
2026-03-05 06:00 6.60 441 7490 (2018) 130 (1945) 2320 426 533 790 928 1740 3400 3710 5070 6000
2026-03-05 05:30 6.59 439 7490 (2018) 130 (1945) 2320 426 533 790 928 1740 3400 3710 5070 6000
2026-03-05 05:00 6.59 439 7490 (2018) 130 (1945) 2320 426 533 790 928 1740 3400 3710 5070 6000
2026-03-05 04:30 6.59 439 7490 (2018) 130 (1945) 2320 426 533 790 928 1740 3400 3710 5070 6000
2026-03-05 04:00 6.59 439 7490 (2018) 130 (1945) 2320 426 533 790 928 1740 3400 3710 5070 6000
2026-03-05 03:30 6.59 439 7490 (2018) 130 (1945) 2320 426 533 790 928 1740 3400 3710 5070 6000
2026-03-05 03:00 6.59 439 7490 (2018) 130 (1945) 2320 426 533 790 928 1740 3400 3710 5070 6000
2026-03-05 02:30 6.59 439 7490 (2018) 130 (1945) 2320 426 533 790 928 1740 3400 3710 5070 6000
2026-03-05 02:00 6.59 439 7490 (2018) 130 (1945) 2320 426 533 790 928 1740 3400 3710 5070 6000
2026-03-05 01:30 6.59 439 7490 (2018) 130 (1945) 2320 426 533 790 928 1740 3400 3710 5070 6000
2026-03-05 01:00 6.59 439 7490 (2018) 130 (1945) 2320 426 533 790 928 1740 3400 3710 5070 6000
2026-03-05 00:30 6.59 439 7490 (2018) 130 (1945) 2320 426 533 790 928 1740 3400 3710 5070 6000
2026-03-05 00:00 6.59 439 7490 (2018) 130 (1945) 2320 426 533 790 928 1740 3400 3710 5070 6000
2026-03-04 23:30 6.59 439 7490 (2018) 130 (1945) 2320 426 533 790 928 1740 3400 3710 5070 6000
2026-03-04 23:00 6.59 439 7490 (2018) 130 (1945) 2320 426 533 790 928 1740 3400 3710 5070 6000
2026-03-04 22:30 6.59 439 7660 (2018) 191 (1983) 2320 391 521 817 907 1770 3560 3820 4510 6040
2026-03-04 22:00 6.59 439 7660 (2018) 191 (1983) 2320 391 521 817 907 1770 3560 3820 4510 6040
2026-03-04 21:30 6.60 441 7660 (2018) 191 (1983) 2320 391 521 817 907 1770 3560 3820 4510 6040
2026-03-04 21:00 6.60 441 7660 (2018) 191 (1983) 2320 391 521 817 907 1770 3560 3820 4510 6040
2026-03-04 20:30 6.59 439 7660 (2018) 191 (1983) 2320 391 521 817 907 1770 3560 3820 4510 6040
2026-03-04 20:00 6.59 439 7660 (2018) 191 (1983) 2320 391 521 817 907 1770 3560 3820 4510 6040
2026-03-04 19:30 6.58 438 7660 (2018) 191 (1983) 2320 391 521 817 907 1770 3560 3820 4510 6040
2026-03-04 19:00 6.59 439 7660 (2018) 191 (1983) 2320 391 521 817 907 1770 3560 3820 4510 6040
2026-03-04 18:30 6.59 439 7660 (2018) 191 (1983) 2320 391 521 817 907 1770 3560 3820 4510 6040
2026-03-04 18:00 6.59 439 7660 (2018) 191 (1983) 2320 391 521 817 907 1770 3560 3820 4510 6040
2026-03-04 17:30 6.58 438 7660 (2018) 191 (1983) 2320 391 521 817 907 1770 3560 3820 4510 6040
2026-03-04 17:00 6.58 438 7660 (2018) 191 (1983) 2320 391 521 817 907 1770 3560 3820 4510 6040
2026-03-04 16:30 6.58 438 7660 (2018) 191 (1983) 2320 391 521 817 907 1770 3560 3820 4510 6040
2026-03-04 16:00 6.59 439 7660 (2018) 191 (1983) 2320 391 521 817 907 1770 3560 3820 4510 6040
2026-03-04 15:30 6.58 438 7660 (2018) 191 (1983) 2320 391 521 817 907 1770 3560 3820 4510 6040
2026-03-04 15:00 6.58 438 7660 (2018) 191 (1983) 2320 391 521 817 907 1770 3560 3820 4510 6040
2026-03-04 14:30 6.59 439 7660 (2018) 191 (1983) 2320 391 521 817 907 1770 3560 3820 4510 6040
2026-03-04 14:00 6.58 438 7660 (2018) 191 (1983) 2320 391 521 817 907 1770 3560 3820 4510 6040
2026-03-04 13:30 6.58 438 7660 (2018) 191 (1983) 2320 391 521 817 907 1770 3560 3820 4510 6040
2026-03-04 13:00 6.58 438 7660 (2018) 191 (1983) 2320 391 521 817 907 1770 3560 3820 4510 6040
2026-03-04 12:30 6.58 438 7660 (2018) 191 (1983) 2320 391 521 817 907 1770 3560 3820 4510 6040
2026-03-04 12:00 6.58 438 7660 (2018) 191 (1983) 2320 391 521 817 907 1770 3560 3820 4510 6040
2026-03-04 11:30 6.58 438 7660 (2018) 191 (1983) 2320 391 521 817 907 1770 3560 3820 4510 6040
2026-03-04 11:00 6.58 438 7660 (2018) 191 (1983) 2320 391 521 817 907 1770 3560 3820 4510 6040
2026-03-04 10:30 6.57 436 7660 (2018) 191 (1983) 2320 391 521 817 907 1770 3560 3820 4510 6040
2026-03-04 10:00 6.58 438 7660 (2018) 191 (1983) 2320 391 521 817 907 1770 3560 3820 4510 6040
2026-03-04 09:30 6.57 436 7660 (2018) 191 (1983) 2320 391 521 817 907 1770 3560 3820 4510 6040
2026-03-04 09:00 6.58 438 7660 (2018) 191 (1983) 2320 391 521 817 907 1770 3560 3820 4510 6040
2026-03-04 08:30 6.58 438 7660 (2018) 191 (1983) 2320 391 521 817 907 1770 3560 3820 4510 6040
2026-03-04 08:00 6.58 438 7660 (2018) 191 (1983) 2320 391 521 817 907 1770 3560 3820 4510 6040
2026-03-04 07:30 6.58 438 7660 (2018) 191 (1983) 2320 391 521 817 907 1770 3560 3820 4510 6040
2026-03-04 07:00 6.58 438 7660 (2018) 191 (1983) 2320 391 521 817 907 1770 3560 3820 4510 6040
2026-03-04 06:30 6.58 438 7660 (2018) 191 (1983) 2320 391 521 817 907 1770 3560 3820 4510 6040
2026-03-04 06:00 6.59 439 7660 (2018) 191 (1983) 2320 391 521 817 907 1770 3560 3820 4510 6040
2026-03-04 05:30 6.58 438 7660 (2018) 191 (1983) 2320 391 521 817 907 1770 3560 3820 4510 6040
2026-03-04 05:00 6.58 438 7660 (2018) 191 (1983) 2320 391 521 817 907 1770 3560 3820 4510 6040
2026-03-04 04:30 6.58 438 7660 (2018) 191 (1983) 2320 391 521 817 907 1770 3560 3820 4510 6040
2026-03-04 04:00 6.58 438 7660 (2018) 191 (1983) 2320 391 521 817 907 1770 3560 3820 4510 6040
2026-03-04 03:30 6.58 438 7660 (2018) 191 (1983) 2320 391 521 817 907 1770 3560 3820 4510 6040
2026-03-04 03:00 6.58 438 7660 (2018) 191 (1983) 2320 391 521 817 907 1770 3560 3820 4510 6040
2026-03-04 02:30 6.58 438 7660 (2018) 191 (1983) 2320 391 521 817 907 1770 3560 3820 4510 6040
2026-03-04 02:00 6.59 439 7660 (2018) 191 (1983) 2320 391 521 817 907 1770 3560 3820 4510 6040
2026-03-04 01:30 6.58 438 7660 (2018) 191 (1983) 2320 391 521 817 907 1770 3560 3820 4510 6040
2026-03-04 01:00 6.58 438 7660 (2018) 191 (1983) 2320 391 521 817 907 1770 3560 3820 4510 6040
2026-03-04 00:30 6.59 439 7660 (2018) 191 (1983) 2320 391 521 817 907 1770 3560 3820 4510 6040
2026-03-04 00:00 6.58 438 7660 (2018) 191 (1983) 2320 391 521 817 907 1770 3560 3820 4510 6040
2026-03-03 23:30 6.58 438 7660 (2018) 191 (1983) 2320 391 521 817 907 1770 3560 3820 4510 6040
2026-03-03 23:00 6.58 438 7660 (2018) 191 (1983) 2320 391 521 817 907 1770 3560 3820 4510 6040
2026-03-03 22:30 6.59 439 7870 (2018) 162 (1983) 2360 326 453 775 907 1840 3260 4080 4840 6550
2026-03-03 22:00 6.58 438 7870 (2018) 162 (1983) 2360 326 453 775 907 1840 3260 4080 4840 6550
2026-03-03 21:30 6.58 438 7870 (2018) 162 (1983) 2360 326 453 775 907 1840 3260 4080 4840 6550
2026-03-03 21:00 6.59 439 7870 (2018) 162 (1983) 2360 326 453 775 907 1840 3260 4080 4840 6550
2026-03-03 20:30 6.59 439 7870 (2018) 162 (1983) 2360 326 453 775 907 1840 3260 4080 4840 6550
2026-03-03 20:00 6.59 439 7870 (2018) 162 (1983) 2360 326 453 775 907 1840 3260 4080 4840 6550
2026-03-03 19:30 6.59 439 7870 (2018) 162 (1983) 2360 326 453 775 907 1840 3260 4080 4840 6550
2026-03-03 19:00 6.59 439 7870 (2018) 162 (1983) 2360 326 453 775 907 1840 3260 4080 4840 6550
2026-03-03 18:30 6.59 439 7870 (2018) 162 (1983) 2360 326 453 775 907 1840 3260 4080 4840 6550
2026-03-03 18:00 6.59 439 7870 (2018) 162 (1983) 2360 326 453 775 907 1840 3260 4080 4840 6550
2026-03-03 17:30 6.60 441 7870 (2018) 162 (1983) 2360 326 453 775 907 1840 3260 4080 4840 6550
2026-03-03 17:00 6.59 439 7870 (2018) 162 (1983) 2360 326 453 775 907 1840 3260 4080 4840 6550
2026-03-03 16:30 6.60 441 7870 (2018) 162 (1983) 2360 326 453 775 907 1840 3260 4080 4840 6550
2026-03-03 16:00 6.60 441 7870 (2018) 162 (1983) 2360 326 453 775 907 1840 3260 4080 4840 6550
2026-03-03 15:30 6.60 441 7870 (2018) 162 (1983) 2360 326 453 775 907 1840 3260 4080 4840 6550
2026-03-03 15:00 6.59 439 7870 (2018) 162 (1983) 2360 326 453 775 907 1840 3260 4080 4840 6550
2026-03-03 14:30 6.60 441 7870 (2018) 162 (1983) 2360 326 453 775 907 1840 3260 4080 4840 6550
2026-03-03 14:00 6.61 443 7870 (2018) 162 (1983) 2360 326 453 775 907 1840 3260 4080 4840 6550
2026-03-03 13:30 6.60 441 7870 (2018) 162 (1983) 2360 326 453 775 907 1840 3260 4080 4840 6550
2026-03-03 13:00 6.60 441 7870 (2018) 162 (1983) 2360 326 453 775 907 1840 3260 4080 4840 6550
2026-03-03 12:30 6.60 441 7870 (2018) 162 (1983) 2360 326 453 775 907 1840 3260 4080 4840 6550
2026-03-03 12:00 6.59 439 7870 (2018) 162 (1983) 2360 326 453 775 907 1840 3260 4080 4840 6550
2026-03-03 11:30 6.60 441 7870 (2018) 162 (1983) 2360 326 453 775 907 1840 3260 4080 4840 6550
2026-03-03 11:00 6.59 439 7870 (2018) 162 (1983) 2360 326 453 775 907 1840 3260 4080 4840 6550
2026-03-03 10:30 6.60 441 7870 (2018) 162 (1983) 2360 326 453 775 907 1840 3260 4080 4840 6550
2026-03-03 10:00 6.60 441 7870 (2018) 162 (1983) 2360 326 453 775 907 1840 3260 4080 4840 6550
2026-03-03 09:30 6.59 439 7870 (2018) 162 (1983) 2360 326 453 775 907 1840 3260 4080 4840 6550
2026-03-03 09:00 6.59 439 7870 (2018) 162 (1983) 2360 326 453 775 907 1840 3260 4080 4840 6550
2026-03-03 08:30 6.59 439 7870 (2018) 162 (1983) 2360 326 453 775 907 1840 3260 4080 4840 6550
2026-03-03 08:00 6.59 439 7870 (2018) 162 (1983) 2360 326 453 775 907 1840 3260 4080 4840 6550
2026-03-03 07:30 6.60 441 7870 (2018) 162 (1983) 2360 326 453 775 907 1840 3260 4080 4840 6550
2026-03-03 07:00 6.59 439 7870 (2018) 162 (1983) 2360 326 453 775 907 1840 3260 4080 4840 6550
2026-03-03 06:30 6.59 439 7870 (2018) 162 (1983) 2360 326 453 775 907 1840 3260 4080 4840 6550
2026-03-03 06:00 6.60 441 7870 (2018) 162 (1983) 2360 326 453 775 907 1840 3260 4080 4840 6550
2026-03-03 05:30 6.60 441 7870 (2018) 162 (1983) 2360 326 453 775 907 1840 3260 4080 4840 6550
2026-03-03 05:00 6.60 441 7870 (2018) 162 (1983) 2360 326 453 775 907 1840 3260 4080 4840 6550
2026-03-03 04:30 6.60 441 7870 (2018) 162 (1983) 2360 326 453 775 907 1840 3260 4080 4840 6550
2026-03-03 04:00 6.59 439 7870 (2018) 162 (1983) 2360 326 453 775 907 1840 3260 4080 4840 6550
2026-03-03 03:30 6.59 439 7870 (2018) 162 (1983) 2360 326 453 775 907 1840 3260 4080 4840 6550
2026-03-03 03:00 6.60 441 7870 (2018) 162 (1983) 2360 326 453 775 907 1840 3260 4080 4840 6550
2026-03-03 02:30 6.59 439 7870 (2018) 162 (1983) 2360 326 453 775 907 1840 3260 4080 4840 6550
2026-03-03 02:00 6.59 439 7870 (2018) 162 (1983) 2360 326 453 775 907 1840 3260 4080 4840 6550
2026-03-03 01:30 6.59 439 7870 (2018) 162 (1983) 2360 326 453 775 907 1840 3260 4080 4840 6550
2026-03-03 01:00 6.60 441 7870 (2018) 162 (1983) 2360 326 453 775 907 1840 3260 4080 4840 6550
2026-03-03 00:30 6.60 441 7870 (2018) 162 (1983) 2360 326 453 775 907 1840 3260 4080 4840 6550
2026-03-03 00:00 6.60 441 7870 (2018) 162 (1983) 2360 326 453 775 907 1840 3260 4080 4840 6550
2026-03-02 23:30 6.59 439 7870 (2018) 162 (1983) 2360 326 453 775 907 1840 3260 4080 4840 6550
2026-03-02 23:00 6.60 441 7870 (2018) 162 (1983) 2360 326 453 775 907 1840 3260 4080 4840 6550
2026-03-02 22:30 6.60 441 8040 (2018) 148 (2015) 2410 278 449 785 875 1880 3500 4240 4990 7020
2026-03-02 22:00 6.60 441 8040 (2018) 148 (2015) 2410 278 449 785 875 1880 3500 4240 4990 7020
2026-03-02 21:30 6.59 439 8040 (2018) 148 (2015) 2410 278 449 785 875 1880 3500 4240 4990 7020
2026-03-02 21:00 6.60 441 8040 (2018) 148 (2015) 2410 278 449 785 875 1880 3500 4240 4990 7020
2026-03-02 20:30 6.60 441 8040 (2018) 148 (2015) 2410 278 449 785 875 1880 3500 4240 4990 7020
2026-03-02 20:00 6.60 441 8040 (2018) 148 (2015) 2410 278 449 785 875 1880 3500 4240 4990 7020
2026-03-02 19:30 6.60 441 8040 (2018) 148 (2015) 2410 278 449 785 875 1880 3500 4240 4990 7020
2026-03-02 19:00 6.60 441 8040 (2018) 148 (2015) 2410 278 449 785 875 1880 3500 4240 4990 7020
2026-03-02 18:30 6.60 441 8040 (2018) 148 (2015) 2410 278 449 785 875 1880 3500 4240 4990 7020
2026-03-02 18:00 6.60 441 8040 (2018) 148 (2015) 2410 278 449 785 875 1880 3500 4240 4990 7020
2026-03-02 17:30 6.59 439 8040 (2018) 148 (2015) 2410 278 449 785 875 1880 3500 4240 4990 7020
2026-03-02 17:00 6.60 441 8040 (2018) 148 (2015) 2410 278 449 785 875 1880 3500 4240 4990 7020
2026-03-02 16:30 6.60 441 8040 (2018) 148 (2015) 2410 278 449 785 875 1880 3500 4240 4990 7020
2026-03-02 16:00 6.60 441 8040 (2018) 148 (2015) 2410 278 449 785 875 1880 3500 4240 4990 7020
2026-03-02 15:30 6.60 441 8040 (2018) 148 (2015) 2410 278 449 785 875 1880 3500 4240 4990 7020
2026-03-02 15:00 6.60 441 8040 (2018) 148 (2015) 2410 278 449 785 875 1880 3500 4240 4990 7020
2026-03-02 14:30 6.60 441 8040 (2018) 148 (2015) 2410 278 449 785 875 1880 3500 4240 4990 7020
2026-03-02 14:00 6.60 441 8040 (2018) 148 (2015) 2410 278 449 785 875 1880 3500 4240 4990 7020
2026-03-02 13:30 6.61 443 8040 (2018) 148 (2015) 2410 278 449 785 875 1880 3500 4240 4990 7020
2026-03-02 13:00 6.60 441 8040 (2018) 148 (2015) 2410 278 449 785 875 1880 3500 4240 4990 7020
2026-03-02 12:30 6.60 441 8040 (2018) 148 (2015) 2410 278 449 785 875 1880 3500 4240 4990 7020
2026-03-02 12:00 6.60 441 8040 (2018) 148 (2015) 2410 278 449 785 875 1880 3500 4240 4990 7020
2026-03-02 11:00 6.61 443 8040 (2018) 148 (2015) 2410 278 449 785 875 1880 3500 4240 4990 7020
2026-03-02 10:30 6.61 443 8040 (2018) 148 (2015) 2410 278 449 785 875 1880 3500 4240 4990 7020
2026-03-02 10:00 6.61 443 8040 (2018) 148 (2015) 2410 278 449 785 875 1880 3500 4240 4990 7020
2026-03-02 09:30 6.61 443 8040 (2018) 148 (2015) 2410 278 449 785 875 1880 3500 4240 4990 7020
2026-03-02 09:00 6.61 443 8040 (2018) 148 (2015) 2410 278 449 785 875 1880 3500 4240 4990 7020
2026-03-02 08:30 6.60 441 8040 (2018) 148 (2015) 2410 278 449 785 875 1880 3500 4240 4990 7020
2026-03-02 08:00 6.61 443 8040 (2018) 148 (2015) 2410 278 449 785 875 1880 3500 4240 4990 7020
2026-03-02 07:30 6.61 443 8040 (2018) 148 (2015) 2410 278 449 785 875 1880 3500 4240 4990 7020
2026-03-02 07:00 6.62 445 8040 (2018) 148 (2015) 2410 278 449 785 875 1880 3500 4240 4990 7020
2026-03-02 06:30 6.62 445 8040 (2018) 148 (2015) 2410 278 449 785 875 1880 3500 4240 4990 7020
2026-03-02 06:00 6.61 443 8040 (2018) 148 (2015) 2410 278 449 785 875 1880 3500 4240 4990 7020
2026-03-02 05:30 6.61 443 8040 (2018) 148 (2015) 2410 278 449 785 875 1880 3500 4240 4990 7020
2026-03-02 05:00 6.61 443 8040 (2018) 148 (2015) 2410 278 449 785 875 1880 3500 4240 4990 7020
2026-03-02 04:30 6.62 445 8040 (2018) 148 (2015) 2410 278 449 785 875 1880 3500 4240 4990 7020
2026-03-02 04:00 6.61 443 8040 (2018) 148 (2015) 2410 278 449 785 875 1880 3500 4240 4990 7020
2026-03-02 03:30 6.61 443 8040 (2018) 148 (2015) 2410 278 449 785 875 1880 3500 4240 4990 7020
2026-03-02 03:00 6.61 443 8040 (2018) 148 (2015) 2410 278 449 785 875 1880 3500 4240 4990 7020
2026-03-02 02:30 6.61 443 8040 (2018) 148 (2015) 2410 278 449 785 875 1880 3500 4240 4990 7020
2026-03-02 02:00 6.61 443 8040 (2018) 148 (2015) 2410 278 449 785 875 1880 3500 4240 4990 7020
2026-03-02 01:30 6.62 445 8040 (2018) 148 (2015) 2410 278 449 785 875 1880 3500 4240 4990 7020
2026-03-02 01:00 6.62 445 8040 (2018) 148 (2015) 2410 278 449 785 875 1880 3500 4240 4990 7020
2026-03-02 00:30 6.63 447 8040 (2018) 148 (2015) 2410 278 449 785 875 1880 3500 4240 4990 7020
2026-03-02 00:00 6.62 445 8040 (2018) 148 (2015) 2410 278 449 785 875 1880 3500 4240 4990 7020
2026-03-01 23:30 6.62 445 8040 (2018) 148 (2015) 2410 278 449 785 875 1880 3500 4240 4990 7020
2026-03-01 23:00 6.62 445 8040 (2018) 148 (2015) 2410 278 449 785 875 1880 3500 4240 4990 7020
2026-03-01 22:30 6.60 441 8180 (2018) 60 (2017) 2490 253 478 796 945 1960 3690 4400 5250 6910
2026-03-01 22:00 6.60 441 8180 (2018) 60 (2017) 2490 253 478 796 945 1960 3690 4400 5250 6910
2026-03-01 21:30 6.59 439 8180 (2018) 60 (2017) 2490 253 478 796 945 1960 3690 4400 5250 6910
2026-03-01 21:00 6.59 439 8180 (2018) 60 (2017) 2490 253 478 796 945 1960 3690 4400 5250 6910
2026-03-01 20:30 6.59 439 8180 (2018) 60 (2017) 2490 253 478 796 945 1960 3690 4400 5250 6910
2026-03-01 20:00 6.59 439 8180 (2018) 60 (2017) 2490 253 478 796 945 1960 3690 4400 5250 6910
2026-03-01 19:30 6.59 439 8180 (2018) 60 (2017) 2490 253 478 796 945 1960 3690 4400 5250 6910
2026-03-01 19:00 6.60 441 8180 (2018) 60 (2017) 2490 253 478 796 945 1960 3690 4400 5250 6910
2026-03-01 18:30 6.60 441 8180 (2018) 60 (2017) 2490 253 478 796 945 1960 3690 4400 5250 6910
2026-03-01 18:00 6.60 441 8180 (2018) 60 (2017) 2490 253 478 796 945 1960 3690 4400 5250 6910
2026-03-01 17:30 6.59 439 8180 (2018) 60 (2017) 2490 253 478 796 945 1960 3690 4400 5250 6910
2026-03-01 17:00 6.60 441 8180 (2018) 60 (2017) 2490 253 478 796 945 1960 3690 4400 5250 6910
2026-03-01 16:30 6.60 441 8180 (2018) 60 (2017) 2490 253 478 796 945 1960 3690 4400 5250 6910
2026-03-01 16:00 6.59 439 8180 (2018) 60 (2017) 2490 253 478 796 945 1960 3690 4400 5250 6910
2026-03-01 15:30 6.60 441 8180 (2018) 60 (2017) 2490 253 478 796 945 1960 3690 4400 5250 6910
2026-03-01 15:00 6.60 441 8180 (2018) 60 (2017) 2490 253 478 796 945 1960 3690 4400 5250 6910
2026-03-01 14:30 6.60 441 8180 (2018) 60 (2017) 2490 253 478 796 945 1960 3690 4400 5250 6910
2026-03-01 14:00 6.60 441 8180 (2018) 60 (2017) 2490 253 478 796 945 1960 3690 4400 5250 6910
2026-03-01 13:30 6.61 443 8180 (2018) 60 (2017) 2490 253 478 796 945 1960 3690 4400 5250 6910
2026-03-01 13:00 6.61 443 8180 (2018) 60 (2017) 2490 253 478 796 945 1960 3690 4400 5250 6910
2026-03-01 12:30 6.60 441 8180 (2018) 60 (2017) 2490 253 478 796 945 1960 3690 4400 5250 6910
2026-03-01 12:00 6.62 445 8180 (2018) 60 (2017) 2490 253 478 796 945 1960 3690 4400 5250 6910
2026-03-01 11:30 6.61 443 8180 (2018) 60 (2017) 2490 253 478 796 945 1960 3690 4400 5250 6910
2026-03-01 11:00 6.61 443 8180 (2018) 60 (2017) 2490 253 478 796 945 1960 3690 4400 5250 6910
2026-03-01 10:30 6.61 443 8180 (2018) 60 (2017) 2490 253 478 796 945 1960 3690 4400 5250 6910
2026-03-01 10:00 6.62 445 8180 (2018) 60 (2017) 2490 253 478 796 945 1960 3690 4400 5250 6910
2026-03-01 09:30 6.62 445 8180 (2018) 60 (2017) 2490 253 478 796 945 1960 3690 4400 5250 6910
2026-03-01 09:00 6.62 445 8180 (2018) 60 (2017) 2490 253 478 796 945 1960 3690 4400 5250 6910
2026-03-01 08:30 6.62 445 8180 (2018) 60 (2017) 2490 253 478 796 945 1960 3690 4400 5250 6910
2026-03-01 08:00 6.62 445 8180 (2018) 60 (2017) 2490 253 478 796 945 1960 3690 4400 5250 6910
2026-03-01 07:30 6.63 447 8180 (2018) 60 (2017) 2490 253 478 796 945 1960 3690 4400 5250 6910
2026-03-01 07:00 6.63 447 8180 (2018) 60 (2017) 2490 253 478 796 945 1960 3690 4400 5250 6910
2026-03-01 06:30 6.63 447 8180 (2018) 60 (2017) 2490 253 478 796 945 1960 3690 4400 5250 6910
2026-03-01 06:00 6.64 448 8180 (2018) 60 (2017) 2490 253 478 796 945 1960 3690 4400 5250 6910
2026-03-01 05:30 6.64 448 8180 (2018) 60 (2017) 2490 253 478 796 945 1960 3690 4400 5250 6910
2026-03-01 05:00 6.64 448 8180 (2018) 60 (2017) 2490 253 478 796 945 1960 3690 4400 5250 6910
2026-03-01 04:30 6.64 448 8180 (2018) 60 (2017) 2490 253 478 796 945 1960 3690 4400 5250 6910
2026-03-01 04:00 6.65 450 8180 (2018) 60 (2017) 2490 253 478 796 945 1960 3690 4400 5250 6910
2026-03-01 03:30 6.65 450 8180 (2018) 60 (2017) 2490 253 478 796 945 1960 3690 4400 5250 6910
2026-03-01 03:00 6.65 450 8180 (2018) 60 (2017) 2490 253 478 796 945 1960 3690 4400 5250 6910
2026-03-01 02:30 6.66 452 8180 (2018) 60 (2017) 2490 253 478 796 945 1960 3690 4400 5250 6910
2026-03-01 02:00 6.67 454 8180 (2018) 60 (2017) 2490 253 478 796 945 1960 3690 4400 5250 6910
2026-03-01 01:30 6.67 454 8180 (2018) 60 (2017) 2490 253 478 796 945 1960 3690 4400 5250 6910
2026-03-01 01:00 6.68 456 8180 (2018) 60 (2017) 2490 253 478 796 945 1960 3690 4400 5250 6910
2026-03-01 00:30 6.69 457 8180 (2018) 60 (2017) 2490 253 478 796 945 1960 3690 4400 5250 6910
2026-03-01 00:00 6.70 459 8180 (2018) 60 (2017) 2490 253 478 796 945 1960 3690 4400 5250 6910
2026-02-28 23:30 6.70 459 8180 (2018) 60 (2017) 2490 253 478 796 945 1960 3690 4400 5250 6910
2026-02-28 23:00 6.71 461 8180 (2018) 60 (2017) 2490 253 478 796 945 1960 3690 4400 5250 6910
2026-02-28 22:30 6.72 463 8260 (2018) 224 (1963) 2610 427 663 873 1010 2060 3910 4500 5370 6940
2026-02-28 22:00 6.73 465 8260 (2018) 224 (1963) 2610 427 663 873 1010 2060 3910 4500 5370 6940
2026-02-28 21:30 6.74 467 8260 (2018) 224 (1963) 2610 427 663 873 1010 2060 3910 4500 5370 6940
2026-02-28 21:00 6.75 468 8260 (2018) 224 (1963) 2610 427 663 873 1010 2060 3910 4500 5370 6940
2026-02-28 20:30 6.76 470 8260 (2018) 224 (1963) 2610 427 663 873 1010 2060 3910 4500 5370 6940
2026-02-28 20:00 6.78 474 8260 (2018) 224 (1963) 2610 427 663 873 1010 2060 3910 4500 5370 6940
2026-02-28 19:30 6.79 476 8260 (2018) 224 (1963) 2610 427 663 873 1010 2060 3910 4500 5370 6940
2026-02-28 19:00 6.80 478 8260 (2018) 224 (1963) 2610 427 663 873 1010 2060 3910 4500 5370 6940
2026-02-28 18:30 6.81 480 8260 (2018) 224 (1963) 2610 427 663 873 1010 2060 3910 4500 5370 6940
2026-02-28 18:00 6.83 483 8260 (2018) 224 (1963) 2610 427 663 873 1010 2060 3910 4500 5370 6940
2026-02-28 17:30 6.84 485 8260 (2018) 224 (1963) 2610 427 663 873 1010 2060 3910 4500 5370 6940
2026-02-28 17:00 6.87 491 8260 (2018) 224 (1963) 2610 427 663 873 1010 2060 3910 4500 5370 6940
2026-02-28 16:30 6.89 495 8260 (2018) 224 (1963) 2610 427 663 873 1010 2060 3910 4500 5370 6940
2026-02-28 16:00 6.91 498 8260 (2018) 224 (1963) 2610 427 663 873 1010 2060 3910 4500 5370 6940
2026-02-28 15:30 6.94 504 8260 (2018) 224 (1963) 2610 427 663 873 1010 2060 3910 4500 5370 6940
2026-02-28 15:00 6.96 508 8260 (2018) 224 (1963) 2610 427 663 873 1010 2060 3910 4500 5370 6940
2026-02-28 14:30 6.99 513 8260 (2018) 224 (1963) 2610 427 663 873 1010 2060 3910 4500 5370 6940
2026-02-28 14:00 7.03 521 8260 (2018) 224 (1963) 2610 427 663 873 1010 2060 3910 4500 5370 6940
2026-02-28 13:30 7.07 529 8260 (2018) 224 (1963) 2610 427 663 873 1010 2060 3910 4500 5370 6940
2026-02-28 13:00 7.11 536 8260 (2018) 224 (1963) 2610 427 663 873 1010 2060 3910 4500 5370 6940
2026-02-28 12:30 7.18 550 8260 (2018) 224 (1963) 2610 427 663 873 1010 2060 3910 4500 5370 6940
2026-02-28 12:00 7.27 568 8260 (2018) 224 (1963) 2610 427 663 873 1010 2060 3910 4500 5370 6940
2026-02-28 11:30 7.27 568 8260 (2018) 224 (1963) 2610 427 663 873 1010 2060 3910 4500 5370 6940
2026-02-28 11:00 7.27 568 8260 (2018) 224 (1963) 2610 427 663 873 1010 2060 3910 4500 5370 6940
2026-02-28 10:30 7.27 568 8260 (2018) 224 (1963) 2610 427 663 873 1010 2060 3910 4500 5370 6940
2026-02-28 10:00 7.28 570 8260 (2018) 224 (1963) 2610 427 663 873 1010 2060 3910 4500 5370 6940
2026-02-28 09:30 7.28 570 8260 (2018) 224 (1963) 2610 427 663 873 1010 2060 3910 4500 5370 6940
2026-02-28 09:00 7.29 572 8260 (2018) 224 (1963) 2610 427 663 873 1010 2060 3910 4500 5370 6940
2026-02-28 08:30 7.28 570 8260 (2018) 224 (1963) 2610 427 663 873 1010 2060 3910 4500 5370 6940
2026-02-28 08:00 7.29 572 8260 (2018) 224 (1963) 2610 427 663 873 1010 2060 3910 4500 5370 6940
2026-02-28 07:30 7.29 572 8260 (2018) 224 (1963) 2610 427 663 873 1010 2060 3910 4500 5370 6940
2026-02-28 07:00 7.30 574 8260 (2018) 224 (1963) 2610 427 663 873 1010 2060 3910 4500 5370 6940
2026-02-28 06:30 7.30 574 8260 (2018) 224 (1963) 2610 427 663 873 1010 2060 3910 4500 5370 6940
2026-02-28 06:00 7.30 574 8260 (2018) 224 (1963) 2610 427 663 873 1010 2060 3910 4500 5370 6940
2026-02-28 05:30 7.31 576 8260 (2018) 224 (1963) 2610 427 663 873 1010 2060 3910 4500 5370 6940
2026-02-28 05:00 7.31 576 8260 (2018) 224 (1963) 2610 427 663 873 1010 2060 3910 4500 5370 6940
2026-02-28 04:30 7.31 576 8260 (2018) 224 (1963) 2610 427 663 873 1010 2060 3910 4500 5370 6940
2026-02-28 04:00 7.32 578 8260 (2018) 224 (1963) 2610 427 663 873 1010 2060 3910 4500 5370 6940
2026-02-28 03:30 7.32 578 8260 (2018) 224 (1963) 2610 427 663 873 1010 2060 3910 4500 5370 6940
2026-02-28 03:00 7.33 580 8260 (2018) 224 (1963) 2610 427 663 873 1010 2060 3910 4500 5370 6940
2026-02-28 02:30 7.33 580 8260 (2018) 224 (1963) 2610 427 663 873 1010 2060 3910 4500 5370 6940
2026-02-28 02:00 7.34 582 8260 (2018) 224 (1963) 2610 427 663 873 1010 2060 3910 4500 5370 6940
2026-02-28 01:30 7.35 584 8260 (2018) 224 (1963) 2610 427 663 873 1010 2060 3910 4500 5370 6940
2026-02-28 01:00 7.36 586 8260 (2018) 224 (1963) 2610 427 663 873 1010 2060 3910 4500 5370 6940
2026-02-28 00:30 7.36 586 8260 (2018) 224 (1963) 2610 427 663 873 1010 2060 3910 4500 5370 6940
2026-02-28 00:00 7.37 588 8260 (2018) 224 (1963) 2610 427 663 873 1010 2060 3910 4500 5370 6940
2026-02-27 23:30 7.38 590 8260 (2018) 224 (1963) 2610 427 663 873 1010 2060 3910 4500 5370 6940
2026-02-27 23:00 7.40 594 8260 (2018) 224 (1963) 2610 427 663 873 1010 2060 3910 4500 5370 6940
2026-02-27 22:30 7.40 594 8390 (1985) 224 (1963) 2660 488 694 874 989 2250 3750 4370 5500 7400
2026-02-27 22:00 7.41 596 8390 (1985) 224 (1963) 2660 488 694 874 989 2250 3750 4370 5500 7400
2026-02-27 21:30 7.42 598 8390 (1985) 224 (1963) 2660 488 694 874 989 2250 3750 4370 5500 7400
2026-02-27 21:00 7.44 602 8390 (1985) 224 (1963) 2660 488 694 874 989 2250 3750 4370 5500 7400
2026-02-27 20:30 7.45 604 8390 (1985) 224 (1963) 2660 488 694 874 989 2250 3750 4370 5500 7400
2026-02-27 20:00 7.46 606 8390 (1985) 224 (1963) 2660 488 694 874 989 2250 3750 4370 5500 7400
2026-02-27 19:30 7.47 608 8390 (1985) 224 (1963) 2660 488 694 874 989 2250 3750 4370 5500 7400
2026-02-27 19:00 7.49 612 8390 (1985) 224 (1963) 2660 488 694 874 989 2250 3750 4370 5500 7400
2026-02-27 18:30 7.51 616 8390 (1985) 224 (1963) 2660 488 694 874 989 2250 3750 4370 5500 7400
2026-02-27 18:00 7.54 622 8390 (1985) 224 (1963) 2660 488 694 874 989 2250 3750 4370 5500 7400
2026-02-27 17:30 7.57 628 8390 (1985) 224 (1963) 2660 488 694 874 989 2250 3750 4370 5500 7400
2026-02-27 17:00 7.59 632 8390 (1985) 224 (1963) 2660 488 694 874 989 2250 3750 4370 5500 7400
2026-02-27 16:30 7.61 636 8390 (1985) 224 (1963) 2660 488 694 874 989 2250 3750 4370 5500 7400
2026-02-27 16:00 7.63 640 8390 (1985) 224 (1963) 2660 488 694 874 989 2250 3750 4370 5500 7400
2026-02-27 15:30 7.67 649 8390 (1985) 224 (1963) 2660 488 694 874 989 2250 3750 4370 5500 7400
2026-02-27 15:00 7.70 655 8390 (1985) 224 (1963) 2660 488 694 874 989 2250 3750 4370 5500 7400
2026-02-27 14:30 7.74 663 8390 (1985) 224 (1963) 2660 488 694 874 989 2250 3750 4370 5500 7400
2026-02-27 14:00 7.78 671 8390 (1985) 224 (1963) 2660 488 694 874 989 2250 3750 4370 5500 7400
2026-02-27 13:30 7.83 682 8390 (1985) 224 (1963) 2660 488 694 874 989 2250 3750 4370 5500 7400
2026-02-27 13:00 7.88 693 8390 (1985) 224 (1963) 2660 488 694 874 989 2250 3750 4370 5500 7400
2026-02-27 12:30 7.94 705 8390 (1985) 224 (1963) 2660 488 694 874 989 2250 3750 4370 5500 7400
2026-02-27 12:00 7.99 716 8390 (1985) 224 (1963) 2660 488 694 874 989 2250 3750 4370 5500 7400
2026-02-27 11:30 8.08 735 8390 (1985) 224 (1963) 2660 488 694 874 989 2250 3750 4370 5500 7400
2026-02-27 11:00 8.17 755 8390 (1985) 224 (1963) 2660 488 694 874 989 2250 3750 4370 5500 7400
2026-02-27 10:30 8.34 792 8390 (1985) 224 (1963) 2660 488 694 874 989 2250 3750 4370 5500 7400
2026-02-27 10:00 8.35 795 8390 (1985) 224 (1963) 2660 488 694 874 989 2250 3750 4370 5500 7400
2026-02-27 09:30 8.34 792 8390 (1985) 224 (1963) 2660 488 694 874 989 2250 3750 4370 5500 7400
2026-02-27 09:00 8.35 795 8390 (1985) 224 (1963) 2660 488 694 874 989 2250 3750 4370 5500 7400
2026-02-27 08:30 8.35 795 8390 (1985) 224 (1963) 2660 488 694 874 989 2250 3750 4370 5500 7400
2026-02-27 08:00 8.34 792 8390 (1985) 224 (1963) 2660 488 694 874 989 2250 3750 4370 5500 7400
2026-02-27 07:30 8.35 795 8390 (1985) 224 (1963) 2660 488 694 874 989 2250 3750 4370 5500 7400
2026-02-27 07:00 8.37 799 8390 (1985) 224 (1963) 2660 488 694 874 989 2250 3750 4370 5500 7400
2026-02-27 06:30 8.37 799 8390 (1985) 224 (1963) 2660 488 694 874 989 2250 3750 4370 5500 7400
2026-02-27 06:00 8.37 799 8390 (1985) 224 (1963) 2660 488 694 874 989 2250 3750 4370 5500 7400
2026-02-27 05:30 8.37 799 8390 (1985) 224 (1963) 2660 488 694 874 989 2250 3750 4370 5500 7400
2026-02-27 05:00 8.37 799 8390 (1985) 224 (1963) 2660 488 694 874 989 2250 3750 4370 5500 7400
2026-02-27 04:30 8.38 801 8390 (1985) 224 (1963) 2660 488 694 874 989 2250 3750 4370 5500 7400
2026-02-27 04:00 8.38 801 8390 (1985) 224 (1963) 2660 488 694 874 989 2250 3750 4370 5500 7400
2026-02-27 03:30 8.38 801 8390 (1985) 224 (1963) 2660 488 694 874 989 2250 3750 4370 5500 7400
2026-02-27 03:00 8.39 804 8390 (1985) 224 (1963) 2660 488 694 874 989 2250 3750 4370 5500 7400
2026-02-27 02:30 8.39 804 8390 (1985) 224 (1963) 2660 488 694 874 989 2250 3750 4370 5500 7400
2026-02-27 02:00 8.40 806 8390 (1985) 224 (1963) 2660 488 694 874 989 2250 3750 4370 5500 7400
2026-02-27 01:30 8.41 808 8390 (1985) 224 (1963) 2660 488 694 874 989 2250 3750 4370 5500 7400
2026-02-27 01:00 8.41 808 8390 (1985) 224 (1963) 2660 488 694 874 989 2250 3750 4370 5500 7400
2026-02-27 00:30 8.42 810 8390 (1985) 224 (1963) 2660 488 694 874 989 2250 3750 4370 5500 7400
2026-02-27 00:00 8.43 813 8390 (1985) 224 (1963) 2660 488 694 874 989 2250 3750 4370 5500 7400
2026-02-26 23:30 8.43 813 8390 (1985) 224 (1963) 2660 488 694 874 989 2250 3750 4370 5500 7400
2026-02-26 23:00 8.44 815 8390 (1985) 224 (1963) 2660 488 694 874 989 2250 3750 4370 5500 7400
2026-02-26 22:30 8.46 819 9070 (1985) 235 (1963) 2690 523 610 932 1060 2090 3440 4360 6120 8010
2026-02-26 22:00 8.46 819 9070 (1985) 235 (1963) 2690 523 610 932 1060 2090 3440 4360 6120 8010
2026-02-26 21:30 8.48 824 9070 (1985) 235 (1963) 2690 523 610 932 1060 2090 3440 4360 6120 8010
2026-02-26 21:00 8.49 826 9070 (1985) 235 (1963) 2690 523 610 932 1060 2090 3440 4360 6120 8010
2026-02-26 20:30 8.50 828 9070 (1985) 235 (1963) 2690 523 610 932 1060 2090 3440 4360 6120 8010
2026-02-26 20:00 8.51 831 9070 (1985) 235 (1963) 2690 523 610 932 1060 2090 3440 4360 6120 8010
2026-02-26 19:30 8.52 833 9070 (1985) 235 (1963) 2690 523 610 932 1060 2090 3440 4360 6120 8010
2026-02-26 19:00 8.54 837 9070 (1985) 235 (1963) 2690 523 610 932 1060 2090 3440 4360 6120 8010
2026-02-26 18:30 8.56 842 9070 (1985) 235 (1963) 2690 523 610 932 1060 2090 3440 4360 6120 8010
2026-02-26 18:00 8.57 844 9070 (1985) 235 (1963) 2690 523 610 932 1060 2090 3440 4360 6120 8010
2026-02-26 17:30 8.59 849 9070 (1985) 235 (1963) 2690 523 610 932 1060 2090 3440 4360 6120 8010
2026-02-26 17:00 8.61 853 9070 (1985) 235 (1963) 2690 523 610 932 1060 2090 3440 4360 6120 8010
2026-02-26 16:30 8.63 858 9070 (1985) 235 (1963) 2690 523 610 932 1060 2090 3440 4360 6120 8010
2026-02-26 16:00 8.66 865 9070 (1985) 235 (1963) 2690 523 610 932 1060 2090 3440 4360 6120 8010
2026-02-26 15:30 8.68 869 9070 (1985) 235 (1963) 2690 523 610 932 1060 2090 3440 4360 6120 8010
2026-02-26 15:00 8.71 876 9070 (1985) 235 (1963) 2690 523 610 932 1060 2090 3440 4360 6120 8010
2026-02-26 14:30 8.74 883 9070 (1985) 235 (1963) 2690 523 610 932 1060 2090 3440 4360 6120 8010
2026-02-26 14:00 8.76 888 9070 (1985) 235 (1963) 2690 523 610 932 1060 2090 3440 4360 6120 8010
2026-02-26 13:30 8.81 899 9070 (1985) 235 (1963) 2690 523 610 932 1060 2090 3440 4360 6120 8010
2026-02-26 13:00 8.85 909 9070 (1985) 235 (1963) 2690 523 610 932 1060 2090 3440 4360 6120 8010
2026-02-26 12:30 8.88 916 9070 (1985) 235 (1963) 2690 523 610 932 1060 2090 3440 4360 6120 8010
2026-02-26 12:00 8.94 930 9070 (1985) 235 (1963) 2690 523 610 932 1060 2090 3440 4360 6120 8010
2026-02-26 11:30 8.98 939 9070 (1985) 235 (1963) 2690 523 610 932 1060 2090 3440 4360 6120 8010
2026-02-26 11:00 9.04 954 9070 (1985) 235 (1963) 2690 523 610 932 1060 2090 3440 4360 6120 8010
2026-02-26 10:30 9.11 970 9070 (1985) 235 (1963) 2690 523 610 932 1060 2090 3440 4360 6120 8010
2026-02-26 10:00 9.20 992 9070 (1985) 235 (1963) 2690 523 610 932 1060 2090 3440 4360 6120 8010
2026-02-26 09:30 9.37 1030 9070 (1985) 235 (1963) 2690 523 610 932 1060 2090 3440 4360 6120 8010
2026-02-26 09:00 9.37 1030 9070 (1985) 235 (1963) 2690 523 610 932 1060 2090 3440 4360 6120 8010
2026-02-26 08:30 9.37 1030 9070 (1985) 235 (1963) 2690 523 610 932 1060 2090 3440 4360 6120 8010
2026-02-26 08:00 9.39 1040 9070 (1985) 235 (1963) 2690 523 610 932 1060 2090 3440 4360 6120 8010
2026-02-26 07:30 9.38 1040 9070 (1985) 235 (1963) 2690 523 610 932 1060 2090 3440 4360 6120 8010
2026-02-26 07:00 9.41 1040 9070 (1985) 235 (1963) 2690 523 610 932 1060 2090 3440 4360 6120 8010
2026-02-26 06:30 9.40 1040 9070 (1985) 235 (1963) 2690 523 610 932 1060 2090 3440 4360 6120 8010
2026-02-26 06:00 9.40 1040 9070 (1985) 235 (1963) 2690 523 610 932 1060 2090 3440 4360 6120 8010
2026-02-26 05:30 9.41 1040 9070 (1985) 235 (1963) 2690 523 610 932 1060 2090 3440 4360 6120 8010
2026-02-26 05:00 9.42 1050 9070 (1985) 235 (1963) 2690 523 610 932 1060 2090 3440 4360 6120 8010
2026-02-26 04:30 9.42 1050 9070 (1985) 235 (1963) 2690 523 610 932 1060 2090 3440 4360 6120 8010
2026-02-26 04:00 9.43 1050 9070 (1985) 235 (1963) 2690 523 610 932 1060 2090 3440 4360 6120 8010
2026-02-26 03:30 9.44 1050 9070 (1985) 235 (1963) 2690 523 610 932 1060 2090 3440 4360 6120 8010
2026-02-26 03:00 9.44 1050 9070 (1985) 235 (1963) 2690 523 610 932 1060 2090 3440 4360 6120 8010
2026-02-26 02:30 9.46 1060 9070 (1985) 235 (1963) 2690 523 610 932 1060 2090 3440 4360 6120 8010
2026-02-26 02:00 9.47 1060 9070 (1985) 235 (1963) 2690 523 610 932 1060 2090 3440 4360 6120 8010
2026-02-26 01:30 9.47 1060 9070 (1985) 235 (1963) 2690 523 610 932 1060 2090 3440 4360 6120 8010
2026-02-26 01:00 9.49 1060 9070 (1985) 235 (1963) 2690 523 610 932 1060 2090 3440 4360 6120 8010
2026-02-26 00:30 9.50 1070 9070 (1985) 235 (1963) 2690 523 610 932 1060 2090 3440 4360 6120 8010
2026-02-26 00:00 9.50 1070 9070 (1985) 235 (1963) 2690 523 610 932 1060 2090 3440 4360 6120 8010
2026-02-25 23:30 9.52 1070 9070 (1985) 235 (1963) 2690 523 610 932 1060 2090 3440 4360 6120 8010
2026-02-25 23:00 9.54 1080 9070 (1985) 235 (1963) 2690 523 610 932 1060 2090 3440 4360 6120 8010
2026-02-25 22:30 9.55 1080 9010 (1951) 238 (1963) 2700 482 539 957 1080 1990 3370 4140 6340 7580
2026-02-25 22:00 9.57 1080 9010 (1951) 238 (1963) 2700 482 539 957 1080 1990 3370 4140 6340 7580
2026-02-25 21:30 9.58 1080 9010 (1951) 238 (1963) 2700 482 539 957 1080 1990 3370 4140 6340 7580
2026-02-25 21:00 9.60 1090 9010 (1951) 238 (1963) 2700 482 539 957 1080 1990 3370 4140 6340 7580
2026-02-25 20:30 9.62 1090 9010 (1951) 238 (1963) 2700 482 539 957 1080 1990 3370 4140 6340 7580
2026-02-25 20:00 9.64 1100 9010 (1951) 238 (1963) 2700 482 539 957 1080 1990 3370 4140 6340 7580
2026-02-25 19:30 9.66 1100 9010 (1951) 238 (1963) 2700 482 539 957 1080 1990 3370 4140 6340 7580
2026-02-25 19:00 9.68 1110 9010 (1951) 238 (1963) 2700 482 539 957 1080 1990 3370 4140 6340 7580
2026-02-25 18:30 9.70 1110 9010 (1951) 238 (1963) 2700 482 539 957 1080 1990 3370 4140 6340 7580
2026-02-25 18:00 9.73 1120 9010 (1951) 238 (1963) 2700 482 539 957 1080 1990 3370 4140 6340 7580
2026-02-25 17:30 9.77 1130 9010 (1951) 238 (1963) 2700 482 539 957 1080 1990 3370 4140 6340 7580
2026-02-25 17:00 9.79 1140 9010 (1951) 238 (1963) 2700 482 539 957 1080 1990 3370 4140 6340 7580
2026-02-25 16:30 9.83 1150 9010 (1951) 238 (1963) 2700 482 539 957 1080 1990 3370 4140 6340 7580
2026-02-25 16:00 9.86 1160 9010 (1951) 238 (1963) 2700 482 539 957 1080 1990 3370 4140 6340 7580
2026-02-25 15:30 9.90 1170 9010 (1951) 238 (1963) 2700 482 539 957 1080 1990 3370 4140 6340 7580
2026-02-25 15:00 9.94 1180 9010 (1951) 238 (1963) 2700 482 539 957 1080 1990 3370 4140 6340 7580
2026-02-25 14:30 9.98 1190 9010 (1951) 238 (1963) 2700 482 539 957 1080 1990 3370 4140 6340 7580
2026-02-25 14:00 10.04 1200 9010 (1951) 238 (1963) 2700 482 539 957 1080 1990 3370 4140 6340 7580
2026-02-25 13:30 10.09 1210 9010 (1951) 238 (1963) 2700 482 539 957 1080 1990 3370 4140 6340 7580
2026-02-25 13:00 10.14 1230 9010 (1951) 238 (1963) 2700 482 539 957 1080 1990 3370 4140 6340 7580
2026-02-25 12:30 10.22 1250 9010 (1951) 238 (1963) 2700 482 539 957 1080 1990 3370 4140 6340 7580
2026-02-25 12:00 10.29 1270 9010 (1951) 238 (1963) 2700 482 539 957 1080 1990 3370 4140 6340 7580
2026-02-25 11:30 10.37 1290 9010 (1951) 238 (1963) 2700 482 539 957 1080 1990 3370 4140 6340 7580
2026-02-25 11:00 10.47 1310 9010 (1951) 238 (1963) 2700 482 539 957 1080 1990 3370 4140 6340 7580
2026-02-25 10:30 10.58 1340 9010 (1951) 238 (1963) 2700 482 539 957 1080 1990 3370 4140 6340 7580
2026-02-25 10:00 10.75 1390 9010 (1951) 238 (1963) 2700 482 539 957 1080 1990 3370 4140 6340 7580
2026-02-25 09:30 10.88 1430 9010 (1951) 238 (1963) 2700 482 539 957 1080 1990 3370 4140 6340 7580
2026-02-25 09:00 10.88 1430 9010 (1951) 238 (1963) 2700 482 539 957 1080 1990 3370 4140 6340 7580
2026-02-25 08:30 10.89 1430 9010 (1951) 238 (1963) 2700 482 539 957 1080 1990 3370 4140 6340 7580
2026-02-25 08:00 10.89 1430 9010 (1951) 238 (1963) 2700 482 539 957 1080 1990 3370 4140 6340 7580
2026-02-25 07:30 10.90 1430 9010 (1951) 238 (1963) 2700 482 539 957 1080 1990 3370 4140 6340 7580
2026-02-25 07:00 10.90 1430 9010 (1951) 238 (1963) 2700 482 539 957 1080 1990 3370 4140 6340 7580
2026-02-25 06:30 10.91 1430 9010 (1951) 238 (1963) 2700 482 539 957 1080 1990 3370 4140 6340 7580
2026-02-25 06:00 10.91 1430 9010 (1951) 238 (1963) 2700 482 539 957 1080 1990 3370 4140 6340 7580
2026-02-25 05:30 10.91 1430 9010 (1951) 238 (1963) 2700 482 539 957 1080 1990 3370 4140 6340 7580
2026-02-25 05:00 10.92 1440 9010 (1951) 238 (1963) 2700 482 539 957 1080 1990 3370 4140 6340 7580
2026-02-25 04:30 10.92 1440 9010 (1951) 238 (1963) 2700 482 539 957 1080 1990 3370 4140 6340 7580
2026-02-25 04:00 10.93 1440 9010 (1951) 238 (1963) 2700 482 539 957 1080 1990 3370 4140 6340 7580
2026-02-25 03:30 10.93 1440 9010 (1951) 238 (1963) 2700 482 539 957 1080 1990 3370 4140 6340 7580
2026-02-25 03:00 10.93 1440 9010 (1951) 238 (1963) 2700 482 539 957 1080 1990 3370 4140 6340 7580
2026-02-25 02:30 10.94 1440 9010 (1951) 238 (1963) 2700 482 539 957 1080 1990 3370 4140 6340 7580
2026-02-25 02:00 10.95 1440 9010 (1951) 238 (1963) 2700 482 539 957 1080 1990 3370 4140 6340 7580
2026-02-25 01:30 10.95 1440 9010 (1951) 238 (1963) 2700 482 539 957 1080 1990 3370 4140 6340 7580
2026-02-25 01:00 10.95 1440 9010 (1951) 238 (1963) 2700 482 539 957 1080 1990 3370 4140 6340 7580
2026-02-25 00:30 10.96 1450 9010 (1951) 238 (1963) 2700 482 539 957 1080 1990 3370 4140 6340 7580
2026-02-25 00:00 10.96 1450 9010 (1951) 238 (1963) 2700 482 539 957 1080 1990 3370 4140 6340 7580
2026-02-24 23:30 10.98 1450 9010 (1951) 238 (1963) 2700 482 539 957 1080 1990 3370 4140 6340 7580
2026-02-24 23:00 10.98 1450 9010 (1951) 238 (1963) 2700 482 539 957 1080 1990 3370 4140 6340 7580
2026-02-24 22:30 10.99 1460 9660 (1951) 238 (1963) 2640 477 558 880 1090 1990 3580 4580 6140 6590
2026-02-24 22:00 11.00 1460 9660 (1951) 238 (1963) 2640 477 558 880 1090 1990 3580 4580 6140 6590
2026-02-24 21:30 11.00 1460 9660 (1951) 238 (1963) 2640 477 558 880 1090 1990 3580 4580 6140 6590
2026-02-24 21:00 11.01 1460 9660 (1951) 238 (1963) 2640 477 558 880 1090 1990 3580 4580 6140 6590
2026-02-24 20:30 11.02 1460 9660 (1951) 238 (1963) 2640 477 558 880 1090 1990 3580 4580 6140 6590
2026-02-24 20:00 11.04 1470 9660 (1951) 238 (1963) 2640 477 558 880 1090 1990 3580 4580 6140 6590
2026-02-24 19:30 11.05 1470 9660 (1951) 238 (1963) 2640 477 558 880 1090 1990 3580 4580 6140 6590
2026-02-24 19:00 11.06 1480 9660 (1951) 238 (1963) 2640 477 558 880 1090 1990 3580 4580 6140 6590
2026-02-24 18:30 11.08 1480 9660 (1951) 238 (1963) 2640 477 558 880 1090 1990 3580 4580 6140 6590
2026-02-24 18:00 11.08 1480 9660 (1951) 238 (1963) 2640 477 558 880 1090 1990 3580 4580 6140 6590
2026-02-24 17:30 11.09 1480 9660 (1951) 238 (1963) 2640 477 558 880 1090 1990 3580 4580 6140 6590
2026-02-24 17:00 11.11 1490 9660 (1951) 238 (1963) 2640 477 558 880 1090 1990 3580 4580 6140 6590
2026-02-24 16:30 11.13 1490 9660 (1951) 238 (1963) 2640 477 558 880 1090 1990 3580 4580 6140 6590
2026-02-24 16:00 11.14 1500 9660 (1951) 238 (1963) 2640 477 558 880 1090 1990 3580 4580 6140 6590
2026-02-24 15:30 11.17 1500 9660 (1951) 238 (1963) 2640 477 558 880 1090 1990 3580 4580 6140 6590
2026-02-24 15:00 11.19 1510 9660 (1951) 238 (1963) 2640 477 558 880 1090 1990 3580 4580 6140 6590
2026-02-24 14:30 11.21 1520 9660 (1951) 238 (1963) 2640 477 558 880 1090 1990 3580 4580 6140 6590
2026-02-24 14:00 11.24 1520 9660 (1951) 238 (1963) 2640 477 558 880 1090 1990 3580 4580 6140 6590
2026-02-24 13:30 11.26 1530 9660 (1951) 238 (1963) 2640 477 558 880 1090 1990 3580 4580 6140 6590
2026-02-24 13:00 11.27 1530 9660 (1951) 238 (1963) 2640 477 558 880 1090 1990 3580 4580 6140 6590
2026-02-24 12:30 11.31 1540 9660 (1951) 238 (1963) 2640 477 558 880 1090 1990 3580 4580 6140 6590
2026-02-24 12:00 11.35 1550 9660 (1951) 238 (1963) 2640 477 558 880 1090 1990 3580 4580 6140 6590
2026-02-24 11:30 11.41 1570 9660 (1951) 238 (1963) 2640 477 558 880 1090 1990 3580 4580 6140 6590
2026-02-24 11:00 11.45 1580 9660 (1951) 238 (1963) 2640 477 558 880 1090 1990 3580 4580 6140 6590
2026-02-24 10:30 11.51 1590 9660 (1951) 238 (1963) 2640 477 558 880 1090 1990 3580 4580 6140 6590
2026-02-24 10:00 11.61 1620 9660 (1951) 238 (1963) 2640 477 558 880 1090 1990 3580 4580 6140 6590
2026-02-24 09:30 11.63 1630 9660 (1951) 238 (1963) 2640 477 558 880 1090 1990 3580 4580 6140 6590
2026-02-24 09:00 11.62 1620 9660 (1951) 238 (1963) 2640 477 558 880 1090 1990 3580 4580 6140 6590
2026-02-24 08:30 11.62 1620 9660 (1951) 238 (1963) 2640 477 558 880 1090 1990 3580 4580 6140 6590
2026-02-24 08:00 11.63 1630 9660 (1951) 238 (1963) 2640 477 558 880 1090 1990 3580 4580 6140 6590
2026-02-24 07:30 11.61 1620 9660 (1951) 238 (1963) 2640 477 558 880 1090 1990 3580 4580 6140 6590
2026-02-24 07:00 11.62 1620 9660 (1951) 238 (1963) 2640 477 558 880 1090 1990 3580 4580 6140 6590
2026-02-24 06:30 11.63 1630 9660 (1951) 238 (1963) 2640 477 558 880 1090 1990 3580 4580 6140 6590
2026-02-24 06:00 11.61 1620 9660 (1951) 238 (1963) 2640 477 558 880 1090 1990 3580 4580 6140 6590
2026-02-24 05:30 11.62 1620 9660 (1951) 238 (1963) 2640 477 558 880 1090 1990 3580 4580 6140 6590
2026-02-24 05:00 11.63 1630 9660 (1951) 238 (1963) 2640 477 558 880 1090 1990 3580 4580 6140 6590
2026-02-24 04:30 11.63 1630 9660 (1951) 238 (1963) 2640 477 558 880 1090 1990 3580 4580 6140 6590
2026-02-24 04:00 11.63 1630 9660 (1951) 238 (1963) 2640 477 558 880 1090 1990 3580 4580 6140 6590
2026-02-24 03:30 11.63 1630 9660 (1951) 238 (1963) 2640 477 558 880 1090 1990 3580 4580 6140 6590
2026-02-24 03:00 11.64 1630 9660 (1951) 238 (1963) 2640 477 558 880 1090 1990 3580 4580 6140 6590
2026-02-24 02:30 11.64 1630 9660 (1951) 238 (1963) 2640 477 558 880 1090 1990 3580 4580 6140 6590
2026-02-24 02:00 11.64 1630 9660 (1951) 238 (1963) 2640 477 558 880 1090 1990 3580 4580 6140 6590
2026-02-24 01:30 11.64 1630 9660 (1951) 238 (1963) 2640 477 558 880 1090 1990 3580 4580 6140 6590
2026-02-24 01:00 11.64 1630 9660 (1951) 238 (1963) 2640 477 558 880 1090 1990 3580 4580 6140 6590
2026-02-24 00:30 11.64 1630 9660 (1951) 238 (1963) 2640 477 558 880 1090 1990 3580 4580 6140 6590
2026-02-24 00:00 11.65 1630 9660 (1951) 238 (1963) 2640 477 558 880 1090 1990 3580 4580 6140 6590
2026-02-23 23:30 11.64 1630 9660 (1951) 238 (1963) 2640 477 558 880 1090 1990 3580 4580 6140 6590
2026-02-23 23:00 11.65 1630 9660 (1951) 238 (1963) 2640 477 558 880 1090 1990 3580 4580 6140 6590
2026-02-23 22:30 11.65 1630 9990 (1951) 220 (1977) 2540 453 578 904 1030 2010 3680 4190 5380 6610
2026-02-23 22:00 11.65 1630 9990 (1951) 220 (1977) 2540 453 578 904 1030 2010 3680 4190 5380 6610
2026-02-23 21:30 11.66 1640 9990 (1951) 220 (1977) 2540 453 578 904 1030 2010 3680 4190 5380 6610
2026-02-23 21:00 11.66 1640 9990 (1951) 220 (1977) 2540 453 578 904 1030 2010 3680 4190 5380 6610
2026-02-23 20:30 11.66 1640 9990 (1951) 220 (1977) 2540 453 578 904 1030 2010 3680 4190 5380 6610
2026-02-23 20:00 11.66 1640 9990 (1951) 220 (1977) 2540 453 578 904 1030 2010 3680 4190 5380 6610
2026-02-23 19:30 11.66 1640 9990 (1951) 220 (1977) 2540 453 578 904 1030 2010 3680 4190 5380 6610
2026-02-23 19:00 11.67 1640 9990 (1951) 220 (1977) 2540 453 578 904 1030 2010 3680 4190 5380 6610
2026-02-23 18:30 11.66 1640 9990 (1951) 220 (1977) 2540 453 578 904 1030 2010 3680 4190 5380 6610
2026-02-23 18:00 11.67 1640 9990 (1951) 220 (1977) 2540 453 578 904 1030 2010 3680 4190 5380 6610
2026-02-23 17:30 11.68 1640 9990 (1951) 220 (1977) 2540 453 578 904 1030 2010 3680 4190 5380 6610
2026-02-23 17:00 11.67 1640 9990 (1951) 220 (1977) 2540 453 578 904 1030 2010 3680 4190 5380 6610
2026-02-23 16:30 11.67 1640 9990 (1951) 220 (1977) 2540 453 578 904 1030 2010 3680 4190 5380 6610
2026-02-23 16:00 11.68 1640 9990 (1951) 220 (1977) 2540 453 578 904 1030 2010 3680 4190 5380 6610
2026-02-23 15:30 11.68 1640 9990 (1951) 220 (1977) 2540 453 578 904 1030 2010 3680 4190 5380 6610
2026-02-23 15:00 11.67 1640 9990 (1951) 220 (1977) 2540 453 578 904 1030 2010 3680 4190 5380 6610
2026-02-23 14:30 11.69 1640 9990 (1951) 220 (1977) 2540 453 578 904 1030 2010 3680 4190 5380 6610
2026-02-23 14:00 11.69 1640 9990 (1951) 220 (1977) 2540 453 578 904 1030 2010 3680 4190 5380 6610
2026-02-23 13:30 11.67 1640 9990 (1951) 220 (1977) 2540 453 578 904 1030 2010 3680 4190 5380 6610
2026-02-23 13:00 11.69 1640 9990 (1951) 220 (1977) 2540 453 578 904 1030 2010 3680 4190 5380 6610
2026-02-23 12:30 11.69 1640 9990 (1951) 220 (1977) 2540 453 578 904 1030 2010 3680 4190 5380 6610
2026-02-23 12:00 11.69 1640 9990 (1951) 220 (1977) 2540 453 578 904 1030 2010 3680 4190 5380 6610
2026-02-23 11:30 11.69 1640 9990 (1951) 220 (1977) 2540 453 578 904 1030 2010 3680 4190 5380 6610
2026-02-23 11:00 11.69 1640 9990 (1951) 220 (1977) 2540 453 578 904 1030 2010 3680 4190 5380 6610
2026-02-23 10:30 11.69 1640 9990 (1951) 220 (1977) 2540 453 578 904 1030 2010 3680 4190 5380 6610
2026-02-23 10:00 11.69 1640 9990 (1951) 220 (1977) 2540 453 578 904 1030 2010 3680 4190 5380 6610
2026-02-23 09:30 11.70 1650 9990 (1951) 220 (1977) 2540 453 578 904 1030 2010 3680 4190 5380 6610
2026-02-23 09:00 11.70 1650 9990 (1951) 220 (1977) 2540 453 578 904 1030 2010 3680 4190 5380 6610
2026-02-23 08:30 11.69 1640 9990 (1951) 220 (1977) 2540 453 578 904 1030 2010 3680 4190 5380 6610
2026-02-23 08:00 11.70 1650 9990 (1951) 220 (1977) 2540 453 578 904 1030 2010 3680 4190 5380 6610
2026-02-23 07:30 11.70 1650 9990 (1951) 220 (1977) 2540 453 578 904 1030 2010 3680 4190 5380 6610
2026-02-23 07:00 11.69 1640 9990 (1951) 220 (1977) 2540 453 578 904 1030 2010 3680 4190 5380 6610
2026-02-23 06:30 11.69 1640 9990 (1951) 220 (1977) 2540 453 578 904 1030 2010 3680 4190 5380 6610
2026-02-23 06:00 11.70 1650 9990 (1951) 220 (1977) 2540 453 578 904 1030 2010 3680 4190 5380 6610
2026-02-23 05:30 11.71 1650 9990 (1951) 220 (1977) 2540 453 578 904 1030 2010 3680 4190 5380 6610
2026-02-23 05:00 11.70 1650 9990 (1951) 220 (1977) 2540 453 578 904 1030 2010 3680 4190 5380 6610
2026-02-23 04:30 11.71 1650 9990 (1951) 220 (1977) 2540 453 578 904 1030 2010 3680 4190 5380 6610
2026-02-23 04:00 11.71 1650 9990 (1951) 220 (1977) 2540 453 578 904 1030 2010 3680 4190 5380 6610
2026-02-23 03:30 11.71 1650 9990 (1951) 220 (1977) 2540 453 578 904 1030 2010 3680 4190 5380 6610
2026-02-23 03:00 11.70 1650 9990 (1951) 220 (1977) 2540 453 578 904 1030 2010 3680 4190 5380 6610
2026-02-23 02:30 11.71 1650 9990 (1951) 220 (1977) 2540 453 578 904 1030 2010 3680 4190 5380 6610
2026-02-23 02:00 11.72 1650 9990 (1951) 220 (1977) 2540 453 578 904 1030 2010 3680 4190 5380 6610
2026-02-23 01:30 11.71 1650 9990 (1951) 220 (1977) 2540 453 578 904 1030 2010 3680 4190 5380 6610
2026-02-23 01:00 11.71 1650 9990 (1951) 220 (1977) 2540 453 578 904 1030 2010 3680 4190 5380 6610
2026-02-23 00:30 11.71 1650 9990 (1951) 220 (1977) 2540 453 578 904 1030 2010 3680 4190 5380 6610
2026-02-23 00:00 11.72 1650 9990 (1951) 220 (1977) 2540 453 578 904 1030 2010 3680 4190 5380 6610
2026-02-22 23:30 11.72 1650 9990 (1951) 220 (1977) 2540 453 578 904 1030 2010 3680 4190 5380 6610
2026-02-22 23:00 11.72 1650 9990 (1951) 220 (1977) 2540 453 578 904 1030 2010 3680 4190 5380 6610
2026-02-22 22:30 11.72 1650 9920 (1951) 220 (1977) 2500 407 558 868 1070 1840 3350 3690 5590 6920
2026-02-22 22:00 11.72 1650 9920 (1951) 220 (1977) 2500 407 558 868 1070 1840 3350 3690 5590 6920
2026-02-22 21:30 11.73 1650 9920 (1951) 220 (1977) 2500 407 558 868 1070 1840 3350 3690 5590 6920
2026-02-22 21:00 11.72 1650 9920 (1951) 220 (1977) 2500 407 558 868 1070 1840 3350 3690 5590 6920
2026-02-22 20:30 11.73 1650 9920 (1951) 220 (1977) 2500 407 558 868 1070 1840 3350 3690 5590 6920
2026-02-22 20:00 11.73 1650 9920 (1951) 220 (1977) 2500 407 558 868 1070 1840 3350 3690 5590 6920
2026-02-22 19:30 11.73 1650 9920 (1951) 220 (1977) 2500 407 558 868 1070 1840 3350 3690 5590 6920
2026-02-22 19:00 11.74 1660 9920 (1951) 220 (1977) 2500 407 558 868 1070 1840 3350 3690 5590 6920
2026-02-22 18:30 11.74 1660 9920 (1951) 220 (1977) 2500 407 558 868 1070 1840 3350 3690 5590 6920
2026-02-22 18:00 11.72 1650 9920 (1951) 220 (1977) 2500 407 558 868 1070 1840 3350 3690 5590 6920
2026-02-22 17:30 11.74 1660 9920 (1951) 220 (1977) 2500 407 558 868 1070 1840 3350 3690 5590 6920
2026-02-22 17:00 11.74 1660 9920 (1951) 220 (1977) 2500 407 558 868 1070 1840 3350 3690 5590 6920
2026-02-22 16:30 11.74 1660 9920 (1951) 220 (1977) 2500 407 558 868 1070 1840 3350 3690 5590 6920
2026-02-22 16:00 11.74 1660 9920 (1951) 220 (1977) 2500 407 558 868 1070 1840 3350 3690 5590 6920
2026-02-22 15:30 11.74 1660 9920 (1951) 220 (1977) 2500 407 558 868 1070 1840 3350 3690 5590 6920
2026-02-22 15:00 11.74 1660 9920 (1951) 220 (1977) 2500 407 558 868 1070 1840 3350 3690 5590 6920
2026-02-22 14:30 11.75 1660 9920 (1951) 220 (1977) 2500 407 558 868 1070 1840 3350 3690 5590 6920
2026-02-22 14:00 11.75 1660 9920 (1951) 220 (1977) 2500 407 558 868 1070 1840 3350 3690 5590 6920
2026-02-22 13:30 11.75 1660 9920 (1951) 220 (1977) 2500 407 558 868 1070 1840 3350 3690 5590 6920
2026-02-22 13:00 11.74 1660 9920 (1951) 220 (1977) 2500 407 558 868 1070 1840 3350 3690 5590 6920
2026-02-22 12:30 11.76 1660 9920 (1951) 220 (1977) 2500 407 558 868 1070 1840 3350 3690 5590 6920
2026-02-22 12:00 11.76 1660 9920 (1951) 220 (1977) 2500 407 558 868 1070 1840 3350 3690 5590 6920
2026-02-22 11:30 11.75 1660 9920 (1951) 220 (1977) 2500 407 558 868 1070 1840 3350 3690 5590 6920
2026-02-22 11:00 11.76 1660 9920 (1951) 220 (1977) 2500 407 558 868 1070 1840 3350 3690 5590 6920
2026-02-22 10:30 11.76 1660 9920 (1951) 220 (1977) 2500 407 558 868 1070 1840 3350 3690 5590 6920
2026-02-22 10:00 11.75 1660 9920 (1951) 220 (1977) 2500 407 558 868 1070 1840 3350 3690 5590 6920
2026-02-22 09:30 11.76 1660 9920 (1951) 220 (1977) 2500 407 558 868 1070 1840 3350 3690 5590 6920
2026-02-22 09:00 11.76 1660 9920 (1951) 220 (1977) 2500 407 558 868 1070 1840 3350 3690 5590 6920
2026-02-22 08:30 11.74 1660 9920 (1951) 220 (1977) 2500 407 558 868 1070 1840 3350 3690 5590 6920
2026-02-22 08:00 11.75 1660 9920 (1951) 220 (1977) 2500 407 558 868 1070 1840 3350 3690 5590 6920
2026-02-22 07:30 11.76 1660 9920 (1951) 220 (1977) 2500 407 558 868 1070 1840 3350 3690 5590 6920
2026-02-22 07:00 11.75 1660 9920 (1951) 220 (1977) 2500 407 558 868 1070 1840 3350 3690 5590 6920
2026-02-22 06:30 11.75 1660 9920 (1951) 220 (1977) 2500 407 558 868 1070 1840 3350 3690 5590 6920
2026-02-22 06:00 11.77 1660 9920 (1951) 220 (1977) 2500 407 558 868 1070 1840 3350 3690 5590 6920
2026-02-22 05:30 11.76 1660 9920 (1951) 220 (1977) 2500 407 558 868 1070 1840 3350 3690 5590 6920
2026-02-22 05:00 11.76 1660 9920 (1951) 220 (1977) 2500 407 558 868 1070 1840 3350 3690 5590 6920
2026-02-22 04:30 11.76 1660 9920 (1951) 220 (1977) 2500 407 558 868 1070 1840 3350 3690 5590 6920
2026-02-22 04:00 11.76 1660 9920 (1951) 220 (1977) 2500 407 558 868 1070 1840 3350 3690 5590 6920
2026-02-22 03:30 11.77 1660 9920 (1951) 220 (1977) 2500 407 558 868 1070 1840 3350 3690 5590 6920
2026-02-22 03:00 11.76 1660 9920 (1951) 220 (1977) 2500 407 558 868 1070 1840 3350 3690 5590 6920
2026-02-22 02:30 11.76 1660 9920 (1951) 220 (1977) 2500 407 558 868 1070 1840 3350 3690 5590 6920
2026-02-22 02:00 11.76 1660 9920 (1951) 220 (1977) 2500 407 558 868 1070 1840 3350 3690 5590 6920
2026-02-22 01:30 11.76 1660 9920 (1951) 220 (1977) 2500 407 558 868 1070 1840 3350 3690 5590 6920
2026-02-22 01:00 11.76 1660 9920 (1951) 220 (1977) 2500 407 558 868 1070 1840 3350 3690 5590 6920
2026-02-22 00:30 11.77 1660 9920 (1951) 220 (1977) 2500 407 558 868 1070 1840 3350 3690 5590 6920
2026-02-22 00:00 11.77 1660 9920 (1951) 220 (1977) 2500 407 558 868 1070 1840 3350 3690 5590 6920
2026-02-21 23:30 11.77 1660 9920 (1951) 220 (1977) 2500 407 558 868 1070 1840 3350 3690 5590 6920
2026-02-21 23:00 11.76 1660 9920 (1951) 220 (1977) 2500 407 558 868 1070 1840 3350 3690 5590 6920
2026-02-21 22:30 11.75 1660 9630 (1951) 275 (1963) 2490 364 576 805 985 1850 3430 3620 5560 7300
2026-02-21 22:00 11.78 1670 9630 (1951) 275 (1963) 2490 364 576 805 985 1850 3430 3620 5560 7300
2026-02-21 21:30 11.77 1660 9630 (1951) 275 (1963) 2490 364 576 805 985 1850 3430 3620 5560 7300
2026-02-21 21:00 11.77 1660 9630 (1951) 275 (1963) 2490 364 576 805 985 1850 3430 3620 5560 7300
2026-02-21 20:30 11.77 1660 9630 (1951) 275 (1963) 2490 364 576 805 985 1850 3430 3620 5560 7300
2026-02-21 20:00 11.78 1670 9630 (1951) 275 (1963) 2490 364 576 805 985 1850 3430 3620 5560 7300
2026-02-21 19:30 11.77 1660 9630 (1951) 275 (1963) 2490 364 576 805 985 1850 3430 3620 5560 7300
2026-02-21 19:00 11.78 1670 9630 (1951) 275 (1963) 2490 364 576 805 985 1850 3430 3620 5560 7300
2026-02-21 18:30 11.77 1660 9630 (1951) 275 (1963) 2490 364 576 805 985 1850 3430 3620 5560 7300
2026-02-21 18:00 11.78 1670 9630 (1951) 275 (1963) 2490 364 576 805 985 1850 3430 3620 5560 7300
2026-02-21 17:30 11.78 1670 9630 (1951) 275 (1963) 2490 364 576 805 985 1850 3430 3620 5560 7300
2026-02-21 17:00 11.78 1670 9630 (1951) 275 (1963) 2490 364 576 805 985 1850 3430 3620 5560 7300
2026-02-21 16:30 11.78 1670 9630 (1951) 275 (1963) 2490 364 576 805 985 1850 3430 3620 5560 7300
2026-02-21 16:00 11.78 1670 9630 (1951) 275 (1963) 2490 364 576 805 985 1850 3430 3620 5560 7300
2026-02-21 15:30 11.78 1670 9630 (1951) 275 (1963) 2490 364 576 805 985 1850 3430 3620 5560 7300
2026-02-21 15:00 11.78 1670 9630 (1951) 275 (1963) 2490 364 576 805 985 1850 3430 3620 5560 7300
2026-02-21 14:30 11.78 1670 9630 (1951) 275 (1963) 2490 364 576 805 985 1850 3430 3620 5560 7300
2026-02-21 14:00 11.79 1670 9630 (1951) 275 (1963) 2490 364 576 805 985 1850 3430 3620 5560 7300
2026-02-21 13:30 11.79 1670 9630 (1951) 275 (1963) 2490 364 576 805 985 1850 3430 3620 5560 7300
2026-02-21 13:00 11.78 1670 9630 (1951) 275 (1963) 2490 364 576 805 985 1850 3430 3620 5560 7300
2026-02-21 12:30 11.78 1670 9630 (1951) 275 (1963) 2490 364 576 805 985 1850 3430 3620 5560 7300
2026-02-21 12:00 11.77 1660 9630 (1951) 275 (1963) 2490 364 576 805 985 1850 3430 3620 5560 7300
2026-02-21 11:30 11.78 1670 9630 (1951) 275 (1963) 2490 364 576 805 985 1850 3430 3620 5560 7300
2026-02-21 11:00 11.78 1670 9630 (1951) 275 (1963) 2490 364 576 805 985 1850 3430 3620 5560 7300
2026-02-21 10:30 11.78 1670 9630 (1951) 275 (1963) 2490 364 576 805 985 1850 3430 3620 5560 7300
2026-02-21 10:00 11.78 1670 9630 (1951) 275 (1963) 2490 364 576 805 985 1850 3430 3620 5560 7300
2026-02-21 09:30 11.79 1670 9630 (1951) 275 (1963) 2490 364 576 805 985 1850 3430 3620 5560 7300
2026-02-21 09:00 11.79 1670 9630 (1951) 275 (1963) 2490 364 576 805 985 1850 3430 3620 5560 7300
2026-02-21 08:30 11.78 1670 9630 (1951) 275 (1963) 2490 364 576 805 985 1850 3430 3620 5560 7300
2026-02-21 08:00 11.78 1670 9630 (1951) 275 (1963) 2490 364 576 805 985 1850 3430 3620 5560 7300
2026-02-21 07:30 11.79 1670 9630 (1951) 275 (1963) 2490 364 576 805 985 1850 3430 3620 5560 7300
2026-02-21 07:00 11.79 1670 9630 (1951) 275 (1963) 2490 364 576 805 985 1850 3430 3620 5560 7300
2026-02-21 06:30 11.78 1670 9630 (1951) 275 (1963) 2490 364 576 805 985 1850 3430 3620 5560 7300
2026-02-21 06:00 11.79 1670 9630 (1951) 275 (1963) 2490 364 576 805 985 1850 3430 3620 5560 7300
2026-02-21 05:30 11.79 1670 9630 (1951) 275 (1963) 2490 364 576 805 985 1850 3430 3620 5560 7300
2026-02-21 05:00 11.79 1670 9630 (1951) 275 (1963) 2490 364 576 805 985 1850 3430 3620 5560 7300
2026-02-21 04:30 11.79 1670 9630 (1951) 275 (1963) 2490 364 576 805 985 1850 3430 3620 5560 7300
2026-02-21 04:00 11.79 1670 9630 (1951) 275 (1963) 2490 364 576 805 985 1850 3430 3620 5560 7300
2026-02-21 03:30 11.80 1670 9630 (1951) 275 (1963) 2490 364 576 805 985 1850 3430 3620 5560 7300
2026-02-21 03:00 11.80 1670 9630 (1951) 275 (1963) 2490 364 576 805 985 1850 3430 3620 5560 7300
2026-02-21 02:30 11.80 1670 9630 (1951) 275 (1963) 2490 364 576 805 985 1850 3430 3620 5560 7300
2026-02-21 02:00 11.80 1670 9630 (1951) 275 (1963) 2490 364 576 805 985 1850 3430 3620 5560 7300
2026-02-21 01:30 11.79 1670 9630 (1951) 275 (1963) 2490 364 576 805 985 1850 3430 3620 5560 7300
2026-02-21 01:00 11.79 1670 9630 (1951) 275 (1963) 2490 364 576 805 985 1850 3430 3620 5560 7300
2026-02-21 00:30 11.80 1670 9630 (1951) 275 (1963) 2490 364 576 805 985 1850 3430 3620 5560 7300
2026-02-21 00:00 11.80 1670 9630 (1951) 275 (1963) 2490 364 576 805 985 1850 3430 3620 5560 7300
2026-02-20 23:30 11.80 1670 9630 (1951) 275 (1963) 2490 364 576 805 985 1850 3430 3620 5560 7300
2026-02-20 23:00 11.80 1670 9630 (1951) 275 (1963) 2490 364 576 805 985 1850 3430 3620 5560 7300
2026-02-20 22:30 11.79 1670 9260 (1950) 245 (1945) 2450 326 540 728 793 1780 3410 3900 5950 7910
2026-02-20 22:00 11.81 1680 9260 (1950) 245 (1945) 2450 326 540 728 793 1780 3410 3900 5950 7910
2026-02-20 21:30 11.81 1680 9260 (1950) 245 (1945) 2450 326 540 728 793 1780 3410 3900 5950 7910
2026-02-20 21:00 11.81 1680 9260 (1950) 245 (1945) 2450 326 540 728 793 1780 3410 3900 5950 7910
2026-02-20 20:30 11.80 1670 9260 (1950) 245 (1945) 2450 326 540 728 793 1780 3410 3900 5950 7910
2026-02-20 20:00 11.81 1680 9260 (1950) 245 (1945) 2450 326 540 728 793 1780 3410 3900 5950 7910
2026-02-20 19:30 11.81 1680 9260 (1950) 245 (1945) 2450 326 540 728 793 1780 3410 3900 5950 7910
2026-02-20 19:00 11.81 1680 9260 (1950) 245 (1945) 2450 326 540 728 793 1780 3410 3900 5950 7910
2026-02-20 18:30 11.80 1670 9260 (1950) 245 (1945) 2450 326 540 728 793 1780 3410 3900 5950 7910
2026-02-20 18:00 11.81 1680 9260 (1950) 245 (1945) 2450 326 540 728 793 1780 3410 3900 5950 7910
2026-02-20 17:30 11.81 1680 9260 (1950) 245 (1945) 2450 326 540 728 793 1780 3410 3900 5950 7910
2026-02-20 17:00 11.81 1680 9260 (1950) 245 (1945) 2450 326 540 728 793 1780 3410 3900 5950 7910
2026-02-20 16:30 11.81 1680 9260 (1950) 245 (1945) 2450 326 540 728 793 1780 3410 3900 5950 7910
2026-02-20 16:00 11.81 1680 9260 (1950) 245 (1945) 2450 326 540 728 793 1780 3410 3900 5950 7910
2026-02-20 15:30 11.81 1680 9260 (1950) 245 (1945) 2450 326 540 728 793 1780 3410 3900 5950 7910
2026-02-20 15:00 11.81 1680 9260 (1950) 245 (1945) 2450 326 540 728 793 1780 3410 3900 5950 7910
2026-02-20 14:30 11.80 1670 9260 (1950) 245 (1945) 2450 326 540 728 793 1780 3410 3900 5950 7910
2026-02-20 14:00 11.80 1670 9260 (1950) 245 (1945) 2450 326 540 728 793 1780 3410 3900 5950 7910
2026-02-20 13:30 11.81 1680 9260 (1950) 245 (1945) 2450 326 540 728 793 1780 3410 3900 5950 7910
2026-02-20 13:00 11.81 1680 9260 (1950) 245 (1945) 2450 326 540 728 793 1780 3410 3900 5950 7910
2026-02-20 12:30 11.80 1670 9260 (1950) 245 (1945) 2450 326 540 728 793 1780 3410 3900 5950 7910
2026-02-20 12:00 11.80 1670 9260 (1950) 245 (1945) 2450 326 540 728 793 1780 3410 3900 5950 7910
2026-02-20 11:30 11.81 1680 9260 (1950) 245 (1945) 2450 326 540 728 793 1780 3410 3900 5950 7910
2026-02-20 11:00 11.81 1680 9260 (1950) 245 (1945) 2450 326 540 728 793 1780 3410 3900 5950 7910
2026-02-20 10:30 11.81 1680 9260 (1950) 245 (1945) 2450 326 540 728 793 1780 3410 3900 5950 7910
2026-02-20 10:00 11.81 1680 9260 (1950) 245 (1945) 2450 326 540 728 793 1780 3410 3900 5950 7910
2026-02-20 09:30 11.81 1680 9260 (1950) 245 (1945) 2450 326 540 728 793 1780 3410 3900 5950 7910
2026-02-20 09:00 11.80 1670 9260 (1950) 245 (1945) 2450 326 540 728 793 1780 3410 3900 5950 7910
2026-02-20 08:30 11.80 1670 9260 (1950) 245 (1945) 2450 326 540 728 793 1780 3410 3900 5950 7910
2026-02-20 08:00 11.79 1670 9260 (1950) 245 (1945) 2450 326 540 728 793 1780 3410 3900 5950 7910
2026-02-20 07:30 11.80 1670 9260 (1950) 245 (1945) 2450 326 540 728 793 1780 3410 3900 5950 7910
2026-02-20 07:00 11.80 1670 9260 (1950) 245 (1945) 2450 326 540 728 793 1780 3410 3900 5950 7910
2026-02-20 06:30 11.79 1670 9260 (1950) 245 (1945) 2450 326 540 728 793 1780 3410 3900 5950 7910
2026-02-20 06:00 11.79 1670 9260 (1950) 245 (1945) 2450 326 540 728 793 1780 3410 3900 5950 7910
2026-02-20 05:30 11.77 1660 9260 (1950) 245 (1945) 2450 326 540 728 793 1780 3410 3900 5950 7910
2026-02-20 05:00 11.78 1670 9260 (1950) 245 (1945) 2450 326 540 728 793 1780 3410 3900 5950 7910
2026-02-20 04:30 11.80 1670 9260 (1950) 245 (1945) 2450 326 540 728 793 1780 3410 3900 5950 7910
2026-02-20 04:00 11.78 1670 9260 (1950) 245 (1945) 2450 326 540 728 793 1780 3410 3900 5950 7910
2026-02-20 03:30 11.77 1660 9260 (1950) 245 (1945) 2450 326 540 728 793 1780 3410 3900 5950 7910
2026-02-20 03:00 11.77 1660 9260 (1950) 245 (1945) 2450 326 540 728 793 1780 3410 3900 5950 7910
2026-02-20 02:30 11.76 1660 9260 (1950) 245 (1945) 2450 326 540 728 793 1780 3410 3900 5950 7910
2026-02-20 02:00 11.77 1660 9260 (1950) 245 (1945) 2450 326 540 728 793 1780 3410 3900 5950 7910
2026-02-20 01:30 11.77 1660 9260 (1950) 245 (1945) 2450 326 540 728 793 1780 3410 3900 5950 7910
2026-02-20 01:00 11.76 1660 9260 (1950) 245 (1945) 2450 326 540 728 793 1780 3410 3900 5950 7910
2026-02-20 00:30 11.74 1660 9260 (1950) 245 (1945) 2450 326 540 728 793 1780 3410 3900 5950 7910
2026-02-20 00:00 11.74 1660 9260 (1950) 245 (1945) 2450 326 540 728 793 1780 3410 3900 5950 7910
2026-02-19 23:30 11.73 1650 9260 (1950) 245 (1945) 2450 326 540 728 793 1780 3410 3900 5950 7910
2026-02-19 23:00 11.73 1650 9260 (1950) 245 (1945) 2450 326 540 728 793 1780 3410 3900 5950 7910
2026-02-19 22:30 11.71 1650 9950 (1950) 230 (1945) 2430 315 454 683 823 1650 2960 3730 5980 7120
2026-02-19 22:00 11.71 1650 9950 (1950) 230 (1945) 2430 315 454 683 823 1650 2960 3730 5980 7120
2026-02-19 21:30 11.71 1650 9950 (1950) 230 (1945) 2430 315 454 683 823 1650 2960 3730 5980 7120
2026-02-19 21:00 11.69 1640 9950 (1950) 230 (1945) 2430 315 454 683 823 1650 2960 3730 5980 7120
2026-02-19 20:30 11.69 1640 9950 (1950) 230 (1945) 2430 315 454 683 823 1650 2960 3730 5980 7120
2026-02-19 20:00 11.67 1640 9950 (1950) 230 (1945) 2430 315 454 683 823 1650 2960 3730 5980 7120
2026-02-19 19:30 11.66 1640 9950 (1950) 230 (1945) 2430 315 454 683 823 1650 2960 3730 5980 7120
2026-02-19 19:00 11.66 1640 9950 (1950) 230 (1945) 2430 315 454 683 823 1650 2960 3730 5980 7120
2026-02-19 18:30 11.64 1630 9950 (1950) 230 (1945) 2430 315 454 683 823 1650 2960 3730 5980 7120
2026-02-19 18:00 11.64 1630 9950 (1950) 230 (1945) 2430 315 454 683 823 1650 2960 3730 5980 7120
2026-02-19 17:30 11.62 1620 9950 (1950) 230 (1945) 2430 315 454 683 823 1650 2960 3730 5980 7120
2026-02-19 17:00 11.61 1620 9950 (1950) 230 (1945) 2430 315 454 683 823 1650 2960 3730 5980 7120
2026-02-19 16:30 11.59 1620 9950 (1950) 230 (1945) 2430 315 454 683 823 1650 2960 3730 5980 7120
2026-02-19 16:00 11.57 1610 9950 (1950) 230 (1945) 2430 315 454 683 823 1650 2960 3730 5980 7120
2026-02-19 15:30 11.58 1610 9950 (1950) 230 (1945) 2430 315 454 683 823 1650 2960 3730 5980 7120
2026-02-19 15:00 11.55 1610 9950 (1950) 230 (1945) 2430 315 454 683 823 1650 2960 3730 5980 7120
2026-02-19 14:30 11.52 1600 9950 (1950) 230 (1945) 2430 315 454 683 823 1650 2960 3730 5980 7120
2026-02-19 14:00 11.49 1590 9950 (1950) 230 (1945) 2430 315 454 683 823 1650 2960 3730 5980 7120
2026-02-19 13:30 11.44 1580 9950 (1950) 230 (1945) 2430 315 454 683 823 1650 2960 3730 5980 7120
2026-02-19 13:00 11.42 1570 9950 (1950) 230 (1945) 2430 315 454 683 823 1650 2960 3730 5980 7120
2026-02-19 12:30 11.39 1560 9950 (1950) 230 (1945) 2430 315 454 683 823 1650 2960 3730 5980 7120
2026-02-19 12:00 11.34 1550 9950 (1950) 230 (1945) 2430 315 454 683 823 1650 2960 3730 5980 7120
2026-02-19 11:30 11.29 1540 9950 (1950) 230 (1945) 2430 315 454 683 823 1650 2960 3730 5980 7120
2026-02-19 11:00 11.21 1520 9950 (1950) 230 (1945) 2430 315 454 683 823 1650 2960 3730 5980 7120
2026-02-19 10:30 11.13 1490 9950 (1950) 230 (1945) 2430 315 454 683 823 1650 2960 3730 5980 7120
2026-02-19 10:00 11.13 1490 9950 (1950) 230 (1945) 2430 315 454 683 823 1650 2960 3730 5980 7120
2026-02-19 09:30 11.13 1490 9950 (1950) 230 (1945) 2430 315 454 683 823 1650 2960 3730 5980 7120
2026-02-19 09:00 11.13 1490 9950 (1950) 230 (1945) 2430 315 454 683 823 1650 2960 3730 5980 7120
2026-02-19 08:30 11.12 1490 9950 (1950) 230 (1945) 2430 315 454 683 823 1650 2960 3730 5980 7120
2026-02-19 08:00 11.13 1490 9950 (1950) 230 (1945) 2430 315 454 683 823 1650 2960 3730 5980 7120
2026-02-19 07:30 11.12 1490 9950 (1950) 230 (1945) 2430 315 454 683 823 1650 2960 3730 5980 7120
2026-02-19 07:00 11.13 1490 9950 (1950) 230 (1945) 2430 315 454 683 823 1650 2960 3730 5980 7120
2026-02-19 06:30 11.12 1490 9950 (1950) 230 (1945) 2430 315 454 683 823 1650 2960 3730 5980 7120
2026-02-19 06:00 11.13 1490 9950 (1950) 230 (1945) 2430 315 454 683 823 1650 2960 3730 5980 7120
2026-02-19 05:30 11.13 1490 9950 (1950) 230 (1945) 2430 315 454 683 823 1650 2960 3730 5980 7120
2026-02-19 05:00 11.12 1490 9950 (1950) 230 (1945) 2430 315 454 683 823 1650 2960 3730 5980 7120
2026-02-19 04:30 11.13 1490 9950 (1950) 230 (1945) 2430 315 454 683 823 1650 2960 3730 5980 7120
2026-02-19 04:00 11.11 1490 9950 (1950) 230 (1945) 2430 315 454 683 823 1650 2960 3730 5980 7120
2026-02-19 03:30 11.12 1490 9950 (1950) 230 (1945) 2430 315 454 683 823 1650 2960 3730 5980 7120
2026-02-19 03:00 11.12 1490 9950 (1950) 230 (1945) 2430 315 454 683 823 1650 2960 3730 5980 7120
2026-02-19 02:30 11.12 1490 9950 (1950) 230 (1945) 2430 315 454 683 823 1650 2960 3730 5980 7120
2026-02-19 02:00 11.12 1490 9950 (1950) 230 (1945) 2430 315 454 683 823 1650 2960 3730 5980 7120
2026-02-19 01:30 11.12 1490 9950 (1950) 230 (1945) 2430 315 454 683 823 1650 2960 3730 5980 7120
2026-02-19 01:00 11.11 1490 9950 (1950) 230 (1945) 2430 315 454 683 823 1650 2960 3730 5980 7120
2026-02-19 00:30 11.12 1490 9950 (1950) 230 (1945) 2430 315 454 683 823 1650 2960 3730 5980 7120
2026-02-19 00:00 11.11 1490 9950 (1950) 230 (1945) 2430 315 454 683 823 1650 2960 3730 5980 7120
2026-02-18 23:30 11.11 1490 9950 (1950) 230 (1945) 2430 315 454 683 823 1650 2960 3730 5980 7120
2026-02-18 23:00 11.12 1490 9950 (1950) 230 (1945) 2430 315 454 683 823 1650 2960 3730 5980 7120
2026-02-18 22:30 11.11 1490 10100 (1950) 156 (1983) 2370 302 436 683 802 1700 2880 3660 5840 6780
2026-02-18 22:00 11.11 1490 10100 (1950) 156 (1983) 2370 302 436 683 802 1700 2880 3660 5840 6780
2026-02-18 21:30 11.11 1490 10100 (1950) 156 (1983) 2370 302 436 683 802 1700 2880 3660 5840 6780
2026-02-18 21:00 11.10 1490 10100 (1950) 156 (1983) 2370 302 436 683 802 1700 2880 3660 5840 6780
2026-02-18 20:30 11.10 1490 10100 (1950) 156 (1983) 2370 302 436 683 802 1700 2880 3660 5840 6780
2026-02-18 20:00 11.10 1490 10100 (1950) 156 (1983) 2370 302 436 683 802 1700 2880 3660 5840 6780
2026-02-18 19:30 11.10 1490 10100 (1950) 156 (1983) 2370 302 436 683 802 1700 2880 3660 5840 6780
2026-02-18 19:00 11.10 1490 10100 (1950) 156 (1983) 2370 302 436 683 802 1700 2880 3660 5840 6780
2026-02-18 18:30 11.09 1480 10100 (1950) 156 (1983) 2370 302 436 683 802 1700 2880 3660 5840 6780
2026-02-18 18:00 11.09 1480 10100 (1950) 156 (1983) 2370 302 436 683 802 1700 2880 3660 5840 6780
2026-02-18 17:30 11.09 1480 10100 (1950) 156 (1983) 2370 302 436 683 802 1700 2880 3660 5840 6780
2026-02-18 17:00 11.09 1480 10100 (1950) 156 (1983) 2370 302 436 683 802 1700 2880 3660 5840 6780
2026-02-18 16:30 11.09 1480 10100 (1950) 156 (1983) 2370 302 436 683 802 1700 2880 3660 5840 6780
2026-02-18 16:00 11.07 1480 10100 (1950) 156 (1983) 2370 302 436 683 802 1700 2880 3660 5840 6780
2026-02-18 15:30 11.08 1480 10100 (1950) 156 (1983) 2370 302 436 683 802 1700 2880 3660 5840 6780
2026-02-18 15:00 11.09 1480 10100 (1950) 156 (1983) 2370 302 436 683 802 1700 2880 3660 5840 6780
2026-02-18 14:30 11.08 1480 10100 (1950) 156 (1983) 2370 302 436 683 802 1700 2880 3660 5840 6780
2026-02-18 14:00 11.07 1480 10100 (1950) 156 (1983) 2370 302 436 683 802 1700 2880 3660 5840 6780
2026-02-18 13:30 11.07 1480 10100 (1950) 156 (1983) 2370 302 436 683 802 1700 2880 3660 5840 6780
2026-02-18 13:00 11.06 1480 10100 (1950) 156 (1983) 2370 302 436 683 802 1700 2880 3660 5840 6780
2026-02-18 12:30 11.06 1480 10100 (1950) 156 (1983) 2370 302 436 683 802 1700 2880 3660 5840 6780
2026-02-18 12:00 11.05 1470 10100 (1950) 156 (1983) 2370 302 436 683 802 1700 2880 3660 5840 6780
2026-02-18 11:30 11.04 1470 10100 (1950) 156 (1983) 2370 302 436 683 802 1700 2880 3660 5840 6780
2026-02-18 11:00 11.04 1470 10100 (1950) 156 (1983) 2370 302 436 683 802 1700 2880 3660 5840 6780
2026-02-18 10:30 11.03 1470 10100 (1950) 156 (1983) 2370 302 436 683 802 1700 2880 3660 5840 6780
2026-02-18 10:00 11.04 1470 10100 (1950) 156 (1983) 2370 302 436 683 802 1700 2880 3660 5840 6780
2026-02-18 09:30 11.03 1470 10100 (1950) 156 (1983) 2370 302 436 683 802 1700 2880 3660 5840 6780
2026-02-18 08:30 11.02 1460 10100 (1950) 156 (1983) 2370 302 436 683 802 1700 2880 3660 5840 6780
2026-02-18 08:00 11.00 1460 10100 (1950) 156 (1983) 2370 302 436 683 802 1700 2880 3660 5840 6780
2026-02-18 07:30 11.00 1460 10100 (1950) 156 (1983) 2370 302 436 683 802 1700 2880 3660 5840 6780
2026-02-18 07:00 11.00 1460 10100 (1950) 156 (1983) 2370 302 436 683 802 1700 2880 3660 5840 6780
2026-02-18 06:30 10.97 1450 10100 (1950) 156 (1983) 2370 302 436 683 802 1700 2880 3660 5840 6780
2026-02-18 06:00 10.97 1450 10100 (1950) 156 (1983) 2370 302 436 683 802 1700 2880 3660 5840 6780
2026-02-18 05:30 10.95 1440 10100 (1950) 156 (1983) 2370 302 436 683 802 1700 2880 3660 5840 6780
2026-02-18 05:00 10.95 1440 10100 (1950) 156 (1983) 2370 302 436 683 802 1700 2880 3660 5840 6780
2026-02-18 04:30 10.94 1440 10100 (1950) 156 (1983) 2370 302 436 683 802 1700 2880 3660 5840 6780
2026-02-18 04:00 10.92 1440 10100 (1950) 156 (1983) 2370 302 436 683 802 1700 2880 3660 5840 6780
2026-02-18 03:30 10.90 1430 10100 (1950) 156 (1983) 2370 302 436 683 802 1700 2880 3660 5840 6780
2026-02-18 03:00 10.90 1430 10100 (1950) 156 (1983) 2370 302 436 683 802 1700 2880 3660 5840 6780
2026-02-18 02:30 10.87 1420 10100 (1950) 156 (1983) 2370 302 436 683 802 1700 2880 3660 5840 6780
2026-02-18 02:00 10.86 1420 10100 (1950) 156 (1983) 2370 302 436 683 802 1700 2880 3660 5840 6780
2026-02-18 01:30 10.84 1410 10100 (1950) 156 (1983) 2370 302 436 683 802 1700 2880 3660 5840 6780
2026-02-18 01:00 10.82 1410 10100 (1950) 156 (1983) 2370 302 436 683 802 1700 2880 3660 5840 6780
2026-02-18 00:30 10.81 1410 10100 (1950) 156 (1983) 2370 302 436 683 802 1700 2880 3660 5840 6780
2026-02-18 00:00 10.79 1400 10100 (1950) 156 (1983) 2370 302 436 683 802 1700 2880 3660 5840 6780
2026-02-17 23:30 10.75 1390 10100 (1950) 156 (1983) 2370 302 436 683 802 1700 2880 3660 5840 6780
2026-02-17 23:00 10.73 1380 10100 (1950) 156 (1983) 2370 302 436 683 802 1700 2880 3660 5840 6780
2026-02-17 22:30 10.71 1380 10200 (1946) 215 (1945) 2350 303 452 692 754 1710 2730 3410 5570 6870
2026-02-17 22:00 10.68 1370 10200 (1946) 215 (1945) 2350 303 452 692 754 1710 2730 3410 5570 6870
2026-02-17 21:30 10.65 1360 10200 (1946) 215 (1945) 2350 303 452 692 754 1710 2730 3410 5570 6870
2026-02-17 21:00 10.61 1350 10200 (1946) 215 (1945) 2350 303 452 692 754 1710 2730 3410 5570 6870
2026-02-17 20:30 10.58 1340 10200 (1946) 215 (1945) 2350 303 452 692 754 1710 2730 3410 5570 6870
2026-02-17 20:00 10.53 1330 10200 (1946) 215 (1945) 2350 303 452 692 754 1710 2730 3410 5570 6870
2026-02-17 19:30 10.50 1320 10200 (1946) 215 (1945) 2350 303 452 692 754 1710 2730 3410 5570 6870
2026-02-17 19:00 10.43 1300 10200 (1946) 215 (1945) 2350 303 452 692 754 1710 2730 3410 5570 6870
2026-02-17 18:30 10.39 1290 10200 (1946) 215 (1945) 2350 303 452 692 754 1710 2730 3410 5570 6870
2026-02-17 18:00 10.33 1280 10200 (1946) 215 (1945) 2350 303 452 692 754 1710 2730 3410 5570 6870
2026-02-17 17:30 10.27 1260 10200 (1946) 215 (1945) 2350 303 452 692 754 1710 2730 3410 5570 6870
2026-02-17 17:00 10.19 1240 10200 (1946) 215 (1945) 2350 303 452 692 754 1710 2730 3410 5570 6870
2026-02-17 16:30 10.09 1210 10200 (1946) 215 (1945) 2350 303 452 692 754 1710 2730 3410 5570 6870
2026-02-17 16:00 9.97 1180 10200 (1946) 215 (1945) 2350 303 452 692 754 1710 2730 3410 5570 6870
2026-02-17 15:30 9.81 1140 10200 (1946) 215 (1945) 2350 303 452 692 754 1710 2730 3410 5570 6870
2026-02-17 15:00 9.78 1140 10200 (1946) 215 (1945) 2350 303 452 692 754 1710 2730 3410 5570 6870
2026-02-17 14:30 9.73 1120 10200 (1946) 215 (1945) 2350 303 452 692 754 1710 2730 3410 5570 6870
2026-02-17 14:00 9.67 1110 10200 (1946) 215 (1945) 2350 303 452 692 754 1710 2730 3410 5570 6870
2026-02-17 13:30 9.58 1080 10200 (1946) 215 (1945) 2350 303 452 692 754 1710 2730 3410 5570 6870
2026-02-17 13:00 9.48 1060 10200 (1946) 215 (1945) 2350 303 452 692 754 1710 2730 3410 5570 6870
2026-02-17 12:30 9.35 1030 10200 (1946) 215 (1945) 2350 303 452 692 754 1710 2730 3410 5570 6870
2026-02-17 12:00 9.35 1030 10200 (1946) 215 (1945) 2350 303 452 692 754 1710 2730 3410 5570 6870
2026-02-17 11:30 9.36 1030 10200 (1946) 215 (1945) 2350 303 452 692 754 1710 2730 3410 5570 6870
2026-02-17 11:00 9.34 1030 10200 (1946) 215 (1945) 2350 303 452 692 754 1710 2730 3410 5570 6870
2026-02-17 10:30 9.35 1030 10200 (1946) 215 (1945) 2350 303 452 692 754 1710 2730 3410 5570 6870
2026-02-17 10:00 9.35 1030 10200 (1946) 215 (1945) 2350 303 452 692 754 1710 2730 3410 5570 6870
2026-02-17 09:30 9.34 1030 10200 (1946) 215 (1945) 2350 303 452 692 754 1710 2730 3410 5570 6870
2026-02-17 09:00 9.34 1030 10200 (1946) 215 (1945) 2350 303 452 692 754 1710 2730 3410 5570 6870
2026-02-17 08:30 9.33 1020 10200 (1946) 215 (1945) 2350 303 452 692 754 1710 2730 3410 5570 6870
2026-02-17 08:00 9.34 1030 10200 (1946) 215 (1945) 2350 303 452 692 754 1710 2730 3410 5570 6870
2026-02-17 07:30 9.34 1030 10200 (1946) 215 (1945) 2350 303 452 692 754 1710 2730 3410 5570 6870
2026-02-17 07:00 9.33 1020 10200 (1946) 215 (1945) 2350 303 452 692 754 1710 2730 3410 5570 6870
2026-02-17 06:30 9.33 1020 10200 (1946) 215 (1945) 2350 303 452 692 754 1710 2730 3410 5570 6870
2026-02-17 06:00 9.33 1020 10200 (1946) 215 (1945) 2350 303 452 692 754 1710 2730 3410 5570 6870
2026-02-17 05:30 9.33 1020 10200 (1946) 215 (1945) 2350 303 452 692 754 1710 2730 3410 5570 6870
2026-02-17 05:00 9.33 1020 10200 (1946) 215 (1945) 2350 303 452 692 754 1710 2730 3410 5570 6870
2026-02-17 04:30 9.33 1020 10200 (1946) 215 (1945) 2350 303 452 692 754 1710 2730 3410 5570 6870
2026-02-17 04:00 9.33 1020 10200 (1946) 215 (1945) 2350 303 452 692 754 1710 2730 3410 5570 6870
2026-02-17 03:30 9.31 1020 10200 (1946) 215 (1945) 2350 303 452 692 754 1710 2730 3410 5570 6870
2026-02-17 03:00 9.32 1020 10200 (1946) 215 (1945) 2350 303 452 692 754 1710 2730 3410 5570 6870
2026-02-17 02:30 9.32 1020 10200 (1946) 215 (1945) 2350 303 452 692 754 1710 2730 3410 5570 6870
2026-02-17 02:00 9.31 1020 10200 (1946) 215 (1945) 2350 303 452 692 754 1710 2730 3410 5570 6870
2026-02-17 01:30 9.31 1020 10200 (1946) 215 (1945) 2350 303 452 692 754 1710 2730 3410 5570 6870
2026-02-17 01:00 9.31 1020 10200 (1946) 215 (1945) 2350 303 452 692 754 1710 2730 3410 5570 6870
2026-02-17 00:30 9.31 1020 10200 (1946) 215 (1945) 2350 303 452 692 754 1710 2730 3410 5570 6870
2026-02-17 00:00 9.30 1020 10200 (1946) 215 (1945) 2350 303 452 692 754 1710 2730 3410 5570 6870
2026-02-16 23:30 9.30 1020 10200 (1946) 215 (1945) 2350 303 452 692 754 1710 2730 3410 5570 6870
2026-02-16 23:00 9.30 1020 10200 (1946) 215 (1945) 2350 303 452 692 754 1710 2730 3410 5570 6870
2026-02-16 22:30 9.30 1020 10400 (1946) 193 (1945) 2370 299 408 698 755 1750 2960 3350 5630 7340
2026-02-16 22:00 9.30 1020 10400 (1946) 193 (1945) 2370 299 408 698 755 1750 2960 3350 5630 7340
2026-02-16 21:30 9.30 1020 10400 (1946) 193 (1945) 2370 299 408 698 755 1750 2960 3350 5630 7340
2026-02-16 21:00 9.29 1010 10400 (1946) 193 (1945) 2370 299 408 698 755 1750 2960 3350 5630 7340
2026-02-16 20:30 9.29 1010 10400 (1946) 193 (1945) 2370 299 408 698 755 1750 2960 3350 5630 7340
2026-02-16 20:00 9.29 1010 10400 (1946) 193 (1945) 2370 299 408 698 755 1750 2960 3350 5630 7340
2026-02-16 19:30 9.29 1010 10400 (1946) 193 (1945) 2370 299 408 698 755 1750 2960 3350 5630 7340
2026-02-16 19:00 9.29 1010 10400 (1946) 193 (1945) 2370 299 408 698 755 1750 2960 3350 5630 7340
2026-02-16 18:30 9.28 1010 10400 (1946) 193 (1945) 2370 299 408 698 755 1750 2960 3350 5630 7340
2026-02-16 18:00 9.28 1010 10400 (1946) 193 (1945) 2370 299 408 698 755 1750 2960 3350 5630 7340
2026-02-16 17:30 9.27 1010 10400 (1946) 193 (1945) 2370 299 408 698 755 1750 2960 3350 5630 7340
2026-02-16 17:00 9.28 1010 10400 (1946) 193 (1945) 2370 299 408 698 755 1750 2960 3350 5630 7340
2026-02-16 16:30 9.28 1010 10400 (1946) 193 (1945) 2370 299 408 698 755 1750 2960 3350 5630 7340
2026-02-16 16:00 9.27 1010 10400 (1946) 193 (1945) 2370 299 408 698 755 1750 2960 3350 5630 7340
2026-02-16 15:30 9.27 1010 10400 (1946) 193 (1945) 2370 299 408 698 755 1750 2960 3350 5630 7340
2026-02-16 15:00 9.26 1010 10400 (1946) 193 (1945) 2370 299 408 698 755 1750 2960 3350 5630 7340
2026-02-16 14:30 9.27 1010 10400 (1946) 193 (1945) 2370 299 408 698 755 1750 2960 3350 5630 7340
2026-02-16 14:00 9.26 1010 10400 (1946) 193 (1945) 2370 299 408 698 755 1750 2960 3350 5630 7340
2026-02-16 13:30 9.26 1010 10400 (1946) 193 (1945) 2370 299 408 698 755 1750 2960 3350 5630 7340
2026-02-16 13:00 9.26 1010 10400 (1946) 193 (1945) 2370 299 408 698 755 1750 2960 3350 5630 7340
2026-02-16 12:30 9.26 1010 10400 (1946) 193 (1945) 2370 299 408 698 755 1750 2960 3350 5630 7340
2026-02-16 12:00 9.26 1010 10400 (1946) 193 (1945) 2370 299 408 698 755 1750 2960 3350 5630 7340
2026-02-16 11:30 9.26 1010 10400 (1946) 193 (1945) 2370 299 408 698 755 1750 2960 3350 5630 7340
2026-02-16 11:00 9.25 1000 10400 (1946) 193 (1945) 2370 299 408 698 755 1750 2960 3350 5630 7340
2026-02-16 10:30 9.25 1000 10400 (1946) 193 (1945) 2370 299 408 698 755 1750 2960 3350 5630 7340
2026-02-16 10:00 9.25 1000 10400 (1946) 193 (1945) 2370 299 408 698 755 1750 2960 3350 5630 7340
2026-02-16 09:30 9.25 1000 10400 (1946) 193 (1945) 2370 299 408 698 755 1750 2960 3350 5630 7340
2026-02-16 09:00 9.25 1000 10400 (1946) 193 (1945) 2370 299 408 698 755 1750 2960 3350 5630 7340
2026-02-16 08:30 9.24 1000 10400 (1946) 193 (1945) 2370 299 408 698 755 1750 2960 3350 5630 7340
2026-02-16 08:00 9.23 999 10400 (1946) 193 (1945) 2370 299 408 698 755 1750 2960 3350 5630 7340
2026-02-16 07:30 9.24 1000 10400 (1946) 193 (1945) 2370 299 408 698 755 1750 2960 3350 5630 7340
2026-02-16 07:00 9.23 999 10400 (1946) 193 (1945) 2370 299 408 698 755 1750 2960 3350 5630 7340
2026-02-16 06:30 9.23 999 10400 (1946) 193 (1945) 2370 299 408 698 755 1750 2960 3350 5630 7340
2026-02-16 06:00 9.23 999 10400 (1946) 193 (1945) 2370 299 408 698 755 1750 2960 3350 5630 7340
2026-02-16 05:30 9.23 999 10400 (1946) 193 (1945) 2370 299 408 698 755 1750 2960 3350 5630 7340
2026-02-16 05:00 9.22 997 10400 (1946) 193 (1945) 2370 299 408 698 755 1750 2960 3350 5630 7340
2026-02-16 04:30 9.22 997 10400 (1946) 193 (1945) 2370 299 408 698 755 1750 2960 3350 5630 7340
2026-02-16 04:00 9.23 999 10400 (1946) 193 (1945) 2370 299 408 698 755 1750 2960 3350 5630 7340
2026-02-16 03:30 9.22 997 10400 (1946) 193 (1945) 2370 299 408 698 755 1750 2960 3350 5630 7340
2026-02-16 03:00 9.22 997 10400 (1946) 193 (1945) 2370 299 408 698 755 1750 2960 3350 5630 7340
2026-02-16 02:30 9.21 994 10400 (1946) 193 (1945) 2370 299 408 698 755 1750 2960 3350 5630 7340
2026-02-16 02:00 9.21 994 10400 (1946) 193 (1945) 2370 299 408 698 755 1750 2960 3350 5630 7340
2026-02-16 01:30 9.21 994 10400 (1946) 193 (1945) 2370 299 408 698 755 1750 2960 3350 5630 7340
2026-02-16 01:00 9.22 997 10400 (1946) 193 (1945) 2370 299 408 698 755 1750 2960 3350 5630 7340
2026-02-16 00:30 9.22 997 10400 (1946) 193 (1945) 2370 299 408 698 755 1750 2960 3350 5630 7340
2026-02-16 00:00 9.22 997 10400 (1946) 193 (1945) 2370 299 408 698 755 1750 2960 3350 5630 7340
2026-02-15 23:30 9.21 994 10400 (1946) 193 (1945) 2370 299 408 698 755 1750 2960 3350 5630 7340
2026-02-15 23:00 9.21 994 10400 (1946) 193 (1945) 2370 299 408 698 755 1750 2960 3350 5630 7340
2026-02-15 22:30 9.21 994 10400 (1946) 184 (1945) 2300 293 397 637 708 1740 3020 3310 5380 7810
2026-02-15 22:00 9.20 992 10400 (1946) 184 (1945) 2300 293 397 637 708 1740 3020 3310 5380 7810
2026-02-15 21:30 9.21 994 10400 (1946) 184 (1945) 2300 293 397 637 708 1740 3020 3310 5380 7810
2026-02-15 21:00 9.21 994 10400 (1946) 184 (1945) 2300 293 397 637 708 1740 3020 3310 5380 7810
2026-02-15 20:30 9.21 994 10400 (1946) 184 (1945) 2300 293 397 637 708 1740 3020 3310 5380 7810
2026-02-15 20:00 9.20 992 10400 (1946) 184 (1945) 2300 293 397 637 708 1740 3020 3310 5380 7810
2026-02-15 19:30 9.21 994 10400 (1946) 184 (1945) 2300 293 397 637 708 1740 3020 3310 5380 7810
2026-02-15 19:00 9.21 994 10400 (1946) 184 (1945) 2300 293 397 637 708 1740 3020 3310 5380 7810
2026-02-15 18:30 9.21 994 10400 (1946) 184 (1945) 2300 293 397 637 708 1740 3020 3310 5380 7810
2026-02-15 18:00 9.21 994 10400 (1946) 184 (1945) 2300 293 397 637 708 1740 3020 3310 5380 7810
2026-02-15 17:30 9.22 997 10400 (1946) 184 (1945) 2300 293 397 637 708 1740 3020 3310 5380 7810
2026-02-15 17:00 9.21 994 10400 (1946) 184 (1945) 2300 293 397 637 708 1740 3020 3310 5380 7810
2026-02-15 16:30 9.21 994 10400 (1946) 184 (1945) 2300 293 397 637 708 1740 3020 3310 5380 7810
2026-02-15 16:00 9.22 997 10400 (1946) 184 (1945) 2300 293 397 637 708 1740 3020 3310 5380 7810
2026-02-15 15:30 9.21 994 10400 (1946) 184 (1945) 2300 293 397 637 708 1740 3020 3310 5380 7810
2026-02-15 15:00 9.21 994 10400 (1946) 184 (1945) 2300 293 397 637 708 1740 3020 3310 5380 7810
2026-02-15 14:30 9.22 997 10400 (1946) 184 (1945) 2300 293 397 637 708 1740 3020 3310 5380 7810
2026-02-15 14:00 9.20 992 10400 (1946) 184 (1945) 2300 293 397 637 708 1740 3020 3310 5380 7810
2026-02-15 13:30 9.21 994 10400 (1946) 184 (1945) 2300 293 397 637 708 1740 3020 3310 5380 7810
2026-02-15 13:00 9.22 997 10400 (1946) 184 (1945) 2300 293 397 637 708 1740 3020 3310 5380 7810
2026-02-15 12:30 9.21 994 10400 (1946) 184 (1945) 2300 293 397 637 708 1740 3020 3310 5380 7810
2026-02-15 12:00 9.21 994 10400 (1946) 184 (1945) 2300 293 397 637 708 1740 3020 3310 5380 7810
2026-02-15 11:30 9.22 997 10400 (1946) 184 (1945) 2300 293 397 637 708 1740 3020 3310 5380 7810
2026-02-15 11:00 9.22 997 10400 (1946) 184 (1945) 2300 293 397 637 708 1740 3020 3310 5380 7810
2026-02-15 10:30 9.21 994 10400 (1946) 184 (1945) 2300 293 397 637 708 1740 3020 3310 5380 7810
2026-02-15 10:00 9.22 997 10400 (1946) 184 (1945) 2300 293 397 637 708 1740 3020 3310 5380 7810
2026-02-15 09:30 9.22 997 10400 (1946) 184 (1945) 2300 293 397 637 708 1740 3020 3310 5380 7810
2026-02-15 09:00 9.22 997 10400 (1946) 184 (1945) 2300 293 397 637 708 1740 3020 3310 5380 7810
2026-02-15 08:30 9.22 997 10400 (1946) 184 (1945) 2300 293 397 637 708 1740 3020 3310 5380 7810
2026-02-15 08:00 9.22 997 10400 (1946) 184 (1945) 2300 293 397 637 708 1740 3020 3310 5380 7810
2026-02-15 07:30 9.22 997 10400 (1946) 184 (1945) 2300 293 397 637 708 1740 3020 3310 5380 7810
2026-02-15 07:00 9.22 997 10400 (1946) 184 (1945) 2300 293 397 637 708 1740 3020 3310 5380 7810
2026-02-15 06:30 9.22 997 10400 (1946) 184 (1945) 2300 293 397 637 708 1740 3020 3310 5380 7810
2026-02-15 06:00 9.22 997 10400 (1946) 184 (1945) 2300 293 397 637 708 1740 3020 3310 5380 7810
2026-02-15 05:30 9.22 997 10400 (1946) 184 (1945) 2300 293 397 637 708 1740 3020 3310 5380 7810
2026-02-15 05:00 9.23 999 10400 (1946) 184 (1945) 2300 293 397 637 708 1740 3020 3310 5380 7810
2026-02-15 04:30 9.22 997 10400 (1946) 184 (1945) 2300 293 397 637 708 1740 3020 3310 5380 7810
2026-02-15 04:00 9.22 997 10400 (1946) 184 (1945) 2300 293 397 637 708 1740 3020 3310 5380 7810
2026-02-15 03:30 9.21 994 10400 (1946) 184 (1945) 2300 293 397 637 708 1740 3020 3310 5380 7810
2026-02-15 03:00 9.21 994 10400 (1946) 184 (1945) 2300 293 397 637 708 1740 3020 3310 5380 7810
2026-02-15 02:30 9.22 997 10400 (1946) 184 (1945) 2300 293 397 637 708 1740 3020 3310 5380 7810
2026-02-15 02:00 9.21 994 10400 (1946) 184 (1945) 2300 293 397 637 708 1740 3020 3310 5380 7810
2026-02-15 01:30 9.21 994 10400 (1946) 184 (1945) 2300 293 397 637 708 1740 3020 3310 5380 7810
2026-02-15 01:00 9.21 994 10400 (1946) 184 (1945) 2300 293 397 637 708 1740 3020 3310 5380 7810
2026-02-15 00:30 9.21 994 10400 (1946) 184 (1945) 2300 293 397 637 708 1740 3020 3310 5380 7810
2026-02-15 00:00 9.20 992 10400 (1946) 184 (1945) 2300 293 397 637 708 1740 3020 3310 5380 7810
2026-02-14 23:30 9.21 994 10400 (1946) 184 (1945) 2300 293 397 637 708 1740 3020 3310 5380 7810
2026-02-14 23:00 9.22 997 10400 (1946) 184 (1945) 2300 293 397 637 708 1740 3020 3310 5380 7810
2026-02-14 22:30 9.21 994 9950 (1950) 188 (1945) 2190 297 408 617 684 1350 2900 3210 5210 6950
2026-02-14 22:00 9.21 994 9950 (1950) 188 (1945) 2190 297 408 617 684 1350 2900 3210 5210 6950
2026-02-14 21:30 9.20 992 9950 (1950) 188 (1945) 2190 297 408 617 684 1350 2900 3210 5210 6950
2026-02-14 21:00 9.21 994 9950 (1950) 188 (1945) 2190 297 408 617 684 1350 2900 3210 5210 6950
2026-02-14 20:30 9.20 992 9950 (1950) 188 (1945) 2190 297 408 617 684 1350 2900 3210 5210 6950
2026-02-14 20:00 9.20 992 9950 (1950) 188 (1945) 2190 297 408 617 684 1350 2900 3210 5210 6950
2026-02-14 19:30 9.21 994 9950 (1950) 188 (1945) 2190 297 408 617 684 1350 2900 3210 5210 6950
2026-02-14 19:00 9.20 992 9950 (1950) 188 (1945) 2190 297 408 617 684 1350 2900 3210 5210 6950
2026-02-14 18:30 9.21 994 9950 (1950) 188 (1945) 2190 297 408 617 684 1350 2900 3210 5210 6950
2026-02-14 18:00 9.22 997 9950 (1950) 188 (1945) 2190 297 408 617 684 1350 2900 3210 5210 6950
2026-02-14 17:30 9.20 992 9950 (1950) 188 (1945) 2190 297 408 617 684 1350 2900 3210 5210 6950
2026-02-14 17:00 9.20 992 9950 (1950) 188 (1945) 2190 297 408 617 684 1350 2900 3210 5210 6950
2026-02-14 16:30 9.21 994 9950 (1950) 188 (1945) 2190 297 408 617 684 1350 2900 3210 5210 6950
2026-02-14 16:00 9.21 994 9950 (1950) 188 (1945) 2190 297 408 617 684 1350 2900 3210 5210 6950
2026-02-14 15:30 9.20 992 9950 (1950) 188 (1945) 2190 297 408 617 684 1350 2900 3210 5210 6950
2026-02-14 15:00 9.21 994 9950 (1950) 188 (1945) 2190 297 408 617 684 1350 2900 3210 5210 6950
2026-02-14 14:30 9.20 992 9950 (1950) 188 (1945) 2190 297 408 617 684 1350 2900 3210 5210 6950
2026-02-14 14:00 9.21 994 9950 (1950) 188 (1945) 2190 297 408 617 684 1350 2900 3210 5210 6950
2026-02-14 13:30 9.20 992 9950 (1950) 188 (1945) 2190 297 408 617 684 1350 2900 3210 5210 6950
2026-02-14 13:00 9.19 989 9950 (1950) 188 (1945) 2190 297 408 617 684 1350 2900 3210 5210 6950
2026-02-14 12:30 9.20 992 9950 (1950) 188 (1945) 2190 297 408 617 684 1350 2900 3210 5210 6950
2026-02-14 11:30 9.19 989 9950 (1950) 188 (1945) 2190 297 408 617 684 1350 2900 3210 5210 6950
2026-02-14 11:00 9.18 987 9950 (1950) 188 (1945) 2190 297 408 617 684 1350 2900 3210 5210 6950
2026-02-14 10:30 9.18 987 9950 (1950) 188 (1945) 2190 297 408 617 684 1350 2900 3210 5210 6950
2026-02-14 10:00 9.18 987 9950 (1950) 188 (1945) 2190 297 408 617 684 1350 2900 3210 5210 6950
2026-02-14 09:30 9.16 982 9950 (1950) 188 (1945) 2190 297 408 617 684 1350 2900 3210 5210 6950
2026-02-14 09:00 9.16 982 9950 (1950) 188 (1945) 2190 297 408 617 684 1350 2900 3210 5210 6950
2026-02-14 08:30 9.17 985 9950 (1950) 188 (1945) 2190 297 408 617 684 1350 2900 3210 5210 6950
2026-02-14 08:00 9.16 982 9950 (1950) 188 (1945) 2190 297 408 617 684 1350 2900 3210 5210 6950
2026-02-14 07:30 9.16 982 9950 (1950) 188 (1945) 2190 297 408 617 684 1350 2900 3210 5210 6950
2026-02-14 07:00 9.15 980 9950 (1950) 188 (1945) 2190 297 408 617 684 1350 2900 3210 5210 6950
2026-02-14 06:30 9.15 980 9950 (1950) 188 (1945) 2190 297 408 617 684 1350 2900 3210 5210 6950
2026-02-14 06:00 9.13 975 9950 (1950) 188 (1945) 2190 297 408 617 684 1350 2900 3210 5210 6950
2026-02-14 05:30 9.14 977 9950 (1950) 188 (1945) 2190 297 408 617 684 1350 2900 3210 5210 6950
2026-02-14 05:00 9.14 977 9950 (1950) 188 (1945) 2190 297 408 617 684 1350 2900 3210 5210 6950
2026-02-14 04:30 9.13 975 9950 (1950) 188 (1945) 2190 297 408 617 684 1350 2900 3210 5210 6950
2026-02-14 04:00 9.12 973 9950 (1950) 188 (1945) 2190 297 408 617 684 1350 2900 3210 5210 6950
2026-02-14 03:30 9.12 973 9950 (1950) 188 (1945) 2190 297 408 617 684 1350 2900 3210 5210 6950
2026-02-14 03:00 9.11 970 9950 (1950) 188 (1945) 2190 297 408 617 684 1350 2900 3210 5210 6950
2026-02-14 02:30 9.10 968 9950 (1950) 188 (1945) 2190 297 408 617 684 1350 2900 3210 5210 6950
2026-02-14 02:00 9.10 968 9950 (1950) 188 (1945) 2190 297 408 617 684 1350 2900 3210 5210 6950
2026-02-14 01:30 9.08 963 9950 (1950) 188 (1945) 2190 297 408 617 684 1350 2900 3210 5210 6950
2026-02-14 01:00 9.08 963 9950 (1950) 188 (1945) 2190 297 408 617 684 1350 2900 3210 5210 6950
2026-02-14 00:30 9.07 961 9950 (1950) 188 (1945) 2190 297 408 617 684 1350 2900 3210 5210 6950
2026-02-14 00:00 9.06 958 9950 (1950) 188 (1945) 2190 297 408 617 684 1350 2900 3210 5210 6950
2026-02-13 23:30 9.05 956 9950 (1950) 188 (1945) 2190 297 408 617 684 1350 2900 3210 5210 6950
2026-02-13 23:00 9.03 951 9950 (1950) 188 (1945) 2190 297 408 617 684 1350 2900 3210 5210 6950
2026-02-13 22:30 9.03 951 9140 (1966) 193 (1945) 2080 309 338 550 612 1390 3030 3240 4620 6710
2026-02-13 22:00 9.01 946 9140 (1966) 193 (1945) 2080 309 338 550 612 1390 3030 3240 4620 6710
2026-02-13 21:30 8.99 942 9140 (1966) 193 (1945) 2080 309 338 550 612 1390 3030 3240 4620 6710
2026-02-13 21:00 8.98 939 9140 (1966) 193 (1945) 2080 309 338 550 612 1390 3030 3240 4620 6710
2026-02-13 20:30 8.96 935 9140 (1966) 193 (1945) 2080 309 338 550 612 1390 3030 3240 4620 6710
2026-02-13 20:00 8.94 930 9140 (1966) 193 (1945) 2080 309 338 550 612 1390 3030 3240 4620 6710
2026-02-13 19:30 8.92 925 9140 (1966) 193 (1945) 2080 309 338 550 612 1390 3030 3240 4620 6710
2026-02-13 19:00 8.90 920 9140 (1966) 193 (1945) 2080 309 338 550 612 1390 3030 3240 4620 6710
2026-02-13 18:30 8.88 916 9140 (1966) 193 (1945) 2080 309 338 550 612 1390 3030 3240 4620 6710
2026-02-13 18:00 8.85 909 9140 (1966) 193 (1945) 2080 309 338 550 612 1390 3030 3240 4620 6710
2026-02-13 17:30 8.81 899 9140 (1966) 193 (1945) 2080 309 338 550 612 1390 3030 3240 4620 6710
2026-02-13 17:00 8.79 895 9140 (1966) 193 (1945) 2080 309 338 550 612 1390 3030 3240 4620 6710
2026-02-13 16:30 8.75 885 9140 (1966) 193 (1945) 2080 309 338 550 612 1390 3030 3240 4620 6710
2026-02-13 16:00 8.70 874 9140 (1966) 193 (1945) 2080 309 338 550 612 1390 3030 3240 4620 6710
2026-02-13 15:30 8.66 865 9140 (1966) 193 (1945) 2080 309 338 550 612 1390 3030 3240 4620 6710
2026-02-13 15:00 8.60 851 9140 (1966) 193 (1945) 2080 309 338 550 612 1390 3030 3240 4620 6710
2026-02-13 14:30 8.53 835 9140 (1966) 193 (1945) 2080 309 338 550 612 1390 3030 3240 4620 6710
2026-02-13 14:00 8.45 817 9140 (1966) 193 (1945) 2080 309 338 550 612 1390 3030 3240 4620 6710
2026-02-13 13:30 8.27 777 9140 (1966) 193 (1945) 2080 309 338 550 612 1390 3030 3240 4620 6710
2026-02-13 13:00 8.27 777 9140 (1966) 193 (1945) 2080 309 338 550 612 1390 3030 3240 4620 6710
2026-02-13 12:30 8.27 777 9140 (1966) 193 (1945) 2080 309 338 550 612 1390 3030 3240 4620 6710
2026-02-13 12:00 8.27 777 9140 (1966) 193 (1945) 2080 309 338 550 612 1390 3030 3240 4620 6710
2026-02-13 11:30 8.27 777 9140 (1966) 193 (1945) 2080 309 338 550 612 1390 3030 3240 4620 6710
2026-02-13 11:00 8.27 777 9140 (1966) 193 (1945) 2080 309 338 550 612 1390 3030 3240 4620 6710
2026-02-13 10:30 8.26 775 9140 (1966) 193 (1945) 2080 309 338 550 612 1390 3030 3240 4620 6710
2026-02-13 10:00 8.26 775 9140 (1966) 193 (1945) 2080 309 338 550 612 1390 3030 3240 4620 6710
2026-02-13 09:30 8.26 775 9140 (1966) 193 (1945) 2080 309 338 550 612 1390 3030 3240 4620 6710
2026-02-13 09:00 8.25 773 9140 (1966) 193 (1945) 2080 309 338 550 612 1390 3030 3240 4620 6710
2026-02-13 08:30 8.26 775 9140 (1966) 193 (1945) 2080 309 338 550 612 1390 3030 3240 4620 6710
2026-02-13 08:00 8.25 773 9140 (1966) 193 (1945) 2080 309 338 550 612 1390 3030 3240 4620 6710
2026-02-13 07:30 8.24 770 9140 (1966) 193 (1945) 2080 309 338 550 612 1390 3030 3240 4620 6710
2026-02-13 07:00 8.24 770 9140 (1966) 193 (1945) 2080 309 338 550 612 1390 3030 3240 4620 6710
2026-02-13 06:30 8.24 770 9140 (1966) 193 (1945) 2080 309 338 550 612 1390 3030 3240 4620 6710
2026-02-13 06:00 8.23 768 9140 (1966) 193 (1945) 2080 309 338 550 612 1390 3030 3240 4620 6710
2026-02-13 05:30 8.23 768 9140 (1966) 193 (1945) 2080 309 338 550 612 1390 3030 3240 4620 6710
2026-02-13 05:00 8.22 766 9140 (1966) 193 (1945) 2080 309 338 550 612 1390 3030 3240 4620 6710
2026-02-13 04:30 8.21 764 9140 (1966) 193 (1945) 2080 309 338 550 612 1390 3030 3240 4620 6710
2026-02-13 04:00 8.22 766 9140 (1966) 193 (1945) 2080 309 338 550 612 1390 3030 3240 4620 6710
2026-02-13 03:30 8.21 764 9140 (1966) 193 (1945) 2080 309 338 550 612 1390 3030 3240 4620 6710
2026-02-13 03:00 8.19 759 9140 (1966) 193 (1945) 2080 309 338 550 612 1390 3030 3240 4620 6710
2026-02-13 02:30 8.19 759 9140 (1966) 193 (1945) 2080 309 338 550 612 1390 3030 3240 4620 6710
2026-02-13 02:00 8.19 759 9140 (1966) 193 (1945) 2080 309 338 550 612 1390 3030 3240 4620 6710
2026-02-13 01:30 8.18 757 9140 (1966) 193 (1945) 2080 309 338 550 612 1390 3030 3240 4620 6710
2026-02-13 01:00 8.16 753 9140 (1966) 193 (1945) 2080 309 338 550 612 1390 3030 3240 4620 6710
2026-02-13 00:30 8.16 753 9140 (1966) 193 (1945) 2080 309 338 550 612 1390 3030 3240 4620 6710
2026-02-13 00:00 8.15 751 9140 (1966) 193 (1945) 2080 309 338 550 612 1390 3030 3240 4620 6710
2026-02-12 23:30 8.14 748 9140 (1966) 193 (1945) 2080 309 338 550 612 1390 3030 3240 4620 6710
2026-02-12 23:00 8.13 746 9140 (1966) 193 (1945) 2080 309 338 550 612 1390 3030 3240 4620 6710
2026-02-12 22:30 8.11 742 9330 (1966) 188 (1945) 2060 268 331 554 592 1450 3090 3440 4080 6380
2026-02-12 22:00 8.11 742 9330 (1966) 188 (1945) 2060 268 331 554 592 1450 3090 3440 4080 6380
2026-02-12 21:30 8.08 735 9330 (1966) 188 (1945) 2060 268 331 554 592 1450 3090 3440 4080 6380
2026-02-12 21:00 8.07 733 9330 (1966) 188 (1945) 2060 268 331 554 592 1450 3090 3440 4080 6380
2026-02-12 20:30 8.06 731 9330 (1966) 188 (1945) 2060 268 331 554 592 1450 3090 3440 4080 6380
2026-02-12 20:00 8.04 727 9330 (1966) 188 (1945) 2060 268 331 554 592 1450 3090 3440 4080 6380
2026-02-12 19:30 8.02 722 9330 (1966) 188 (1945) 2060 268 331 554 592 1450 3090 3440 4080 6380
2026-02-12 19:00 8.00 718 9330 (1966) 188 (1945) 2060 268 331 554 592 1450 3090 3440 4080 6380
2026-02-12 18:30 7.98 714 9330 (1966) 188 (1945) 2060 268 331 554 592 1450 3090 3440 4080 6380
2026-02-12 18:00 7.95 707 9330 (1966) 188 (1945) 2060 268 331 554 592 1450 3090 3440 4080 6380
2026-02-12 17:30 7.92 701 9330 (1966) 188 (1945) 2060 268 331 554 592 1450 3090 3440 4080 6380
2026-02-12 17:00 7.90 697 9330 (1966) 188 (1945) 2060 268 331 554 592 1450 3090 3440 4080 6380
2026-02-12 16:30 7.87 690 9330 (1966) 188 (1945) 2060 268 331 554 592 1450 3090 3440 4080 6380
2026-02-12 16:00 7.84 684 9330 (1966) 188 (1945) 2060 268 331 554 592 1450 3090 3440 4080 6380
2026-02-12 15:30 7.79 674 9330 (1966) 188 (1945) 2060 268 331 554 592 1450 3090 3440 4080 6380
2026-02-12 15:00 7.75 665 9330 (1966) 188 (1945) 2060 268 331 554 592 1450 3090 3440 4080 6380
2026-02-12 14:30 7.69 653 9330 (1966) 188 (1945) 2060 268 331 554 592 1450 3090 3440 4080 6380
2026-02-12 14:00 7.64 642 9330 (1966) 188 (1945) 2060 268 331 554 592 1450 3090 3440 4080 6380
2026-02-12 13:30 7.58 630 9330 (1966) 188 (1945) 2060 268 331 554 592 1450 3090 3440 4080 6380
2026-02-12 13:00 7.50 614 9330 (1966) 188 (1945) 2060 268 331 554 592 1450 3090 3440 4080 6380
2026-02-12 12:30 7.40 594 9330 (1966) 188 (1945) 2060 268 331 554 592 1450 3090 3440 4080 6380
2026-02-12 12:00 7.25 564 9330 (1966) 188 (1945) 2060 268 331 554 592 1450 3090 3440 4080 6380
2026-02-12 11:30 7.14 542 9330 (1966) 188 (1945) 2060 268 331 554 592 1450 3090 3440 4080 6380
2026-02-12 11:00 7.14 542 9330 (1966) 188 (1945) 2060 268 331 554 592 1450 3090 3440 4080 6380
2026-02-12 10:30 7.13 540 9330 (1966) 188 (1945) 2060 268 331 554 592 1450 3090 3440 4080 6380
2026-02-12 10:00 7.12 538 9330 (1966) 188 (1945) 2060 268 331 554 592 1450 3090 3440 4080 6380
2026-02-12 09:30 7.12 538 9330 (1966) 188 (1945) 2060 268 331 554 592 1450 3090 3440 4080 6380
2026-02-12 09:00 7.11 536 9330 (1966) 188 (1945) 2060 268 331 554 592 1450 3090 3440 4080 6380
2026-02-12 08:30 7.11 536 9330 (1966) 188 (1945) 2060 268 331 554 592 1450 3090 3440 4080 6380
2026-02-12 08:00 7.10 535 9330 (1966) 188 (1945) 2060 268 331 554 592 1450 3090 3440 4080 6380
2026-02-12 07:30 7.10 535 9330 (1966) 188 (1945) 2060 268 331 554 592 1450 3090 3440 4080 6380
2026-02-12 07:00 7.09 533 9330 (1966) 188 (1945) 2060 268 331 554 592 1450 3090 3440 4080 6380
2026-02-12 06:30 7.08 531 9330 (1966) 188 (1945) 2060 268 331 554 592 1450 3090 3440 4080 6380
2026-02-12 06:00 7.08 531 9330 (1966) 188 (1945) 2060 268 331 554 592 1450 3090 3440 4080 6380
2026-02-12 05:30 7.07 529 9330 (1966) 188 (1945) 2060 268 331 554 592 1450 3090 3440 4080 6380
2026-02-12 05:00 7.06 527 9330 (1966) 188 (1945) 2060 268 331 554 592 1450 3090 3440 4080 6380
2026-02-12 04:30 7.05 525 9330 (1966) 188 (1945) 2060 268 331 554 592 1450 3090 3440 4080 6380
2026-02-12 04:00 7.04 523 9330 (1966) 188 (1945) 2060 268 331 554 592 1450 3090 3440 4080 6380
2026-02-12 03:30 7.03 521 9330 (1966) 188 (1945) 2060 268 331 554 592 1450 3090 3440 4080 6380
2026-02-12 03:00 7.03 521 9330 (1966) 188 (1945) 2060 268 331 554 592 1450 3090 3440 4080 6380
2026-02-12 02:30 7.00 515 9330 (1966) 188 (1945) 2060 268 331 554 592 1450 3090 3440 4080 6380
2026-02-12 02:00 7.00 515 9330 (1966) 188 (1945) 2060 268 331 554 592 1450 3090 3440 4080 6380
2026-02-12 01:30 6.98 512 9330 (1966) 188 (1945) 2060 268 331 554 592 1450 3090 3440 4080 6380
2026-02-12 01:00 6.97 510 9330 (1966) 188 (1945) 2060 268 331 554 592 1450 3090 3440 4080 6380
2026-02-12 00:30 6.95 506 9330 (1966) 188 (1945) 2060 268 331 554 592 1450 3090 3440 4080 6380
2026-02-12 00:00 6.94 504 9330 (1966) 188 (1945) 2060 268 331 554 592 1450 3090 3440 4080 6380
2026-02-11 23:30 6.92 500 9330 (1966) 188 (1945) 2060 268 331 554 592 1450 3090 3440 4080 6380
2026-02-11 23:00 6.90 496 9330 (1966) 188 (1945) 2060 268 331 554 592 1450 3090 3440 4080 6380
2026-02-11 22:30 6.88 493 8150 (1949) 180 (1979) 2080 235 278 539 641 1630 3270 3470 3910 6730
2026-02-11 22:00 6.85 487 8150 (1949) 180 (1979) 2080 235 278 539 641 1630 3270 3470 3910 6730
2026-02-11 21:30 6.83 483 8150 (1949) 180 (1979) 2080 235 278 539 641 1630 3270 3470 3910 6730
2026-02-11 21:00 6.81 480 8150 (1949) 180 (1979) 2080 235 278 539 641 1630 3270 3470 3910 6730
2026-02-11 20:30 6.78 474 8150 (1949) 180 (1979) 2080 235 278 539 641 1630 3270 3470 3910 6730
2026-02-11 20:00 6.75 468 8150 (1949) 180 (1979) 2080 235 278 539 641 1630 3270 3470 3910 6730
2026-02-11 19:30 6.72 463 8150 (1949) 180 (1979) 2080 235 278 539 641 1630 3270 3470 3910 6730
2026-02-11 19:00 6.68 456 8150 (1949) 180 (1979) 2080 235 278 539 641 1630 3270 3470 3910 6730
2026-02-11 18:30 6.64 448 8150 (1949) 180 (1979) 2080 235 278 539 641 1630 3270 3470 3910 6730
2026-02-11 18:00 6.60 441 8150 (1949) 180 (1979) 2080 235 278 539 641 1630 3270 3470 3910 6730
2026-02-11 17:30 6.56 434 8150 (1949) 180 (1979) 2080 235 278 539 641 1630 3270 3470 3910 6730
2026-02-11 17:00 6.50 423 8150 (1949) 180 (1979) 2080 235 278 539 641 1630 3270 3470 3910 6730
2026-02-11 16:30 6.44 413 8150 (1949) 180 (1979) 2080 235 278 539 641 1630 3270 3470 3910 6730
2026-02-11 16:00 6.37 400 8150 (1949) 180 (1979) 2080 235 278 539 641 1630 3270 3470 3910 6730
2026-02-11 15:30 6.30 388 8150 (1949) 180 (1979) 2080 235 278 539 641 1630 3270 3470 3910 6730
2026-02-11 15:00 6.21 373 8150 (1949) 180 (1979) 2080 235 278 539 641 1630 3270 3470 3910 6730
2026-02-11 14:30 6.10 354 8150 (1949) 180 (1979) 2080 235 278 539 641 1630 3270 3470 3910 6730
2026-02-11 14:00 5.96 331 8150 (1949) 180 (1979) 2080 235 278 539 641 1630 3270 3470 3910 6730
2026-02-11 13:30 5.78 303 8150 (1949) 180 (1979) 2080 235 278 539 641 1630 3270 3470 3910 6730
2026-02-11 13:00 5.43 249 8150 (1949) 180 (1979) 2080 235 278 539 641 1630 3270 3470 3910 6730
2026-02-11 12:30 5.43 249 8150 (1949) 180 (1979) 2080 235 278 539 641 1630 3270 3470 3910 6730
2026-02-11 12:00 5.42 248 8150 (1949) 180 (1979) 2080 235 278 539 641 1630 3270 3470 3910 6730
2026-02-11 11:30 5.42 248 8150 (1949) 180 (1979) 2080 235 278 539 641 1630 3270 3470 3910 6730
2026-02-11 11:00 5.42 248 8150 (1949) 180 (1979) 2080 235 278 539 641 1630 3270 3470 3910 6730
2026-02-11 10:30 5.42 248 8150 (1949) 180 (1979) 2080 235 278 539 641 1630 3270 3470 3910 6730
2026-02-11 10:00 5.42 248 8150 (1949) 180 (1979) 2080 235 278 539 641 1630 3270 3470 3910 6730
2026-02-11 09:00 5.42 248 8150 (1949) 180 (1979) 2080 235 278 539 641 1630 3270 3470 3910 6730
2026-02-11 08:30 5.42 248 8150 (1949) 180 (1979) 2080 235 278 539 641 1630 3270 3470 3910 6730
2026-02-11 08:00 5.42 248 8150 (1949) 180 (1979) 2080 235 278 539 641 1630 3270 3470 3910 6730
2026-02-11 07:30 5.42 248 8150 (1949) 180 (1979) 2080 235 278 539 641 1630 3270 3470 3910 6730
2026-02-11 07:00 5.42 248 8150 (1949) 180 (1979) 2080 235 278 539 641 1630 3270 3470 3910 6730
2026-02-11 06:30 5.42 248 8150 (1949) 180 (1979) 2080 235 278 539 641 1630 3270 3470 3910 6730
2026-02-11 06:00 5.42 248 8150 (1949) 180 (1979) 2080 235 278 539 641 1630 3270 3470 3910 6730
2026-02-11 05:30 5.42 248 8150 (1949) 180 (1979) 2080 235 278 539 641 1630 3270 3470 3910 6730
2026-02-11 05:00 5.42 248 8150 (1949) 180 (1979) 2080 235 278 539 641 1630 3270 3470 3910 6730
2026-02-11 04:30 5.41 246 8150 (1949) 180 (1979) 2080 235 278 539 641 1630 3270 3470 3910 6730
2026-02-11 04:00 5.42 248 8150 (1949) 180 (1979) 2080 235 278 539 641 1630 3270 3470 3910 6730
2026-02-11 03:30 5.42 248 8150 (1949) 180 (1979) 2080 235 278 539 641 1630 3270 3470 3910 6730
2026-02-11 03:00 5.42 248 8150 (1949) 180 (1979) 2080 235 278 539 641 1630 3270 3470 3910 6730
2026-02-11 02:30 5.42 248 8150 (1949) 180 (1979) 2080 235 278 539 641 1630 3270 3470 3910 6730
2026-02-11 02:00 5.43 249 8150 (1949) 180 (1979) 2080 235 278 539 641 1630 3270 3470 3910 6730
2026-02-11 01:30 5.42 248 8150 (1949) 180 (1979) 2080 235 278 539 641 1630 3270 3470 3910 6730
2026-02-11 01:00 5.42 248 8150 (1949) 180 (1979) 2080 235 278 539 641 1630 3270 3470 3910 6730
2026-02-11 00:30 5.42 248 8150 (1949) 180 (1979) 2080 235 278 539 641 1630 3270 3470 3910 6730
2026-02-11 00:00 5.42 248 8150 (1949) 180 (1979) 2080 235 278 539 641 1630 3270 3470 3910 6730
2026-02-10 23:30 5.42 248 8150 (1949) 180 (1979) 2080 235 278 539 641 1630 3270 3470 3910 6730
2026-02-10 23:00 5.42 248 8150 (1949) 180 (1979) 2080 235 278 539 641 1630 3270 3470 3910 6730
2026-02-10 22:30 5.42 248 9080 (1949) 110 (1981) 2070 179 220 540 611 1700 3120 3460 3940 5390
2026-02-10 22:00 5.42 248 9080 (1949) 110 (1981) 2070 179 220 540 611 1700 3120 3460 3940 5390
2026-02-10 21:30 5.42 248 9080 (1949) 110 (1981) 2070 179 220 540 611 1700 3120 3460 3940 5390
2026-02-10 21:00 5.42 248 9080 (1949) 110 (1981) 2070 179 220 540 611 1700 3120 3460 3940 5390
2026-02-10 20:30 5.42 248 9080 (1949) 110 (1981) 2070 179 220 540 611 1700 3120 3460 3940 5390
2026-02-10 20:00 5.42 248 9080 (1949) 110 (1981) 2070 179 220 540 611 1700 3120 3460 3940 5390
2026-02-10 19:30 5.42 248 9080 (1949) 110 (1981) 2070 179 220 540 611 1700 3120 3460 3940 5390
2026-02-10 19:00 5.42 248 9080 (1949) 110 (1981) 2070 179 220 540 611 1700 3120 3460 3940 5390
2026-02-10 18:30 5.42 248 9080 (1949) 110 (1981) 2070 179 220 540 611 1700 3120 3460 3940 5390
2026-02-10 18:00 5.42 248 9080 (1949) 110 (1981) 2070 179 220 540 611 1700 3120 3460 3940 5390
2026-02-10 17:30 5.42 248 9080 (1949) 110 (1981) 2070 179 220 540 611 1700 3120 3460 3940 5390
2026-02-10 17:00 5.43 249 9080 (1949) 110 (1981) 2070 179 220 540 611 1700 3120 3460 3940 5390
2026-02-10 16:30 5.42 248 9080 (1949) 110 (1981) 2070 179 220 540 611 1700 3120 3460 3940 5390
2026-02-10 16:00 5.42 248 9080 (1949) 110 (1981) 2070 179 220 540 611 1700 3120 3460 3940 5390
2026-02-10 15:30 5.42 248 9080 (1949) 110 (1981) 2070 179 220 540 611 1700 3120 3460 3940 5390
2026-02-10 15:00 5.42 248 9080 (1949) 110 (1981) 2070 179 220 540 611 1700 3120 3460 3940 5390
2026-02-10 14:30 5.42 248 9080 (1949) 110 (1981) 2070 179 220 540 611 1700 3120 3460 3940 5390
2026-02-10 14:00 5.42 248 9080 (1949) 110 (1981) 2070 179 220 540 611 1700 3120 3460 3940 5390
2026-02-10 13:30 5.42 248 9080 (1949) 110 (1981) 2070 179 220 540 611 1700 3120 3460 3940 5390
2026-02-10 13:00 5.42 248 9080 (1949) 110 (1981) 2070 179 220 540 611 1700 3120 3460 3940 5390
2026-02-10 12:30 5.41 246 9080 (1949) 110 (1981) 2070 179 220 540 611 1700 3120 3460 3940 5390
2026-02-10 12:00 5.41 246 9080 (1949) 110 (1981) 2070 179 220 540 611 1700 3120 3460 3940 5390
2026-02-10 11:30 5.41 246 9080 (1949) 110 (1981) 2070 179 220 540 611 1700 3120 3460 3940 5390
2026-02-10 11:00 5.42 248 9080 (1949) 110 (1981) 2070 179 220 540 611 1700 3120 3460 3940 5390
2026-02-10 10:30 5.42 248 9080 (1949) 110 (1981) 2070 179 220 540 611 1700 3120 3460 3940 5390
2026-02-10 10:00 5.42 248 9080 (1949) 110 (1981) 2070 179 220 540 611 1700 3120 3460 3940 5390
2026-02-10 09:30 5.42 248 9080 (1949) 110 (1981) 2070 179 220 540 611 1700 3120 3460 3940 5390
2026-02-10 09:00 5.41 246 9080 (1949) 110 (1981) 2070 179 220 540 611 1700 3120 3460 3940 5390
2026-02-10 08:30 5.42 248 9080 (1949) 110 (1981) 2070 179 220 540 611 1700 3120 3460 3940 5390
2026-02-10 08:00 5.41 246 9080 (1949) 110 (1981) 2070 179 220 540 611 1700 3120 3460 3940 5390
2026-02-10 07:30 5.42 248 9080 (1949) 110 (1981) 2070 179 220 540 611 1700 3120 3460 3940 5390
2026-02-10 07:00 5.41 246 9080 (1949) 110 (1981) 2070 179 220 540 611 1700 3120 3460 3940 5390
2026-02-10 06:30 5.41 246 9080 (1949) 110 (1981) 2070 179 220 540 611 1700 3120 3460 3940 5390
2026-02-10 06:00 5.41 246 9080 (1949) 110 (1981) 2070 179 220 540 611 1700 3120 3460 3940 5390
2026-02-10 05:30 5.41 246 9080 (1949) 110 (1981) 2070 179 220 540 611 1700 3120 3460 3940 5390
2026-02-10 05:00 5.41 246 9080 (1949) 110 (1981) 2070 179 220 540 611 1700 3120 3460 3940 5390
2026-02-10 04:30 5.41 246 9080 (1949) 110 (1981) 2070 179 220 540 611 1700 3120 3460 3940 5390
2026-02-10 04:00 5.41 246 9080 (1949) 110 (1981) 2070 179 220 540 611 1700 3120 3460 3940 5390
2026-02-10 03:30 5.41 246 9080 (1949) 110 (1981) 2070 179 220 540 611 1700 3120 3460 3940 5390
2026-02-10 03:00 5.41 246 9080 (1949) 110 (1981) 2070 179 220 540 611 1700 3120 3460 3940 5390
2026-02-10 02:30 5.41 246 9080 (1949) 110 (1981) 2070 179 220 540 611 1700 3120 3460 3940 5390
2026-02-10 02:00 5.41 246 9080 (1949) 110 (1981) 2070 179 220 540 611 1700 3120 3460 3940 5390
2026-02-10 01:30 5.41 246 9080 (1949) 110 (1981) 2070 179 220 540 611 1700 3120 3460 3940 5390
2026-02-10 01:00 5.41 246 9080 (1949) 110 (1981) 2070 179 220 540 611 1700 3120 3460 3940 5390
2026-02-10 00:30 5.41 246 9080 (1949) 110 (1981) 2070 179 220 540 611 1700 3120 3460 3940 5390
2026-02-10 00:00 5.41 246 9080 (1949) 110 (1981) 2070 179 220 540 611 1700 3120 3460 3940 5390
2026-02-09 23:30 5.41 246 9080 (1949) 110 (1981) 2070 179 220 540 611 1700 3120 3460 3940 5390
2026-02-09 23:00 5.41 246 9080 (1949) 110 (1981) 2070 179 220 540 611 1700 3120 3460 3940 5390
2026-02-09 22:30 5.41 246 8800 (1949) 100 (1981) 2100 138 239 520 614 1560 3150 3570 4180 5940
2026-02-09 22:00 5.41 246 8800 (1949) 100 (1981) 2100 138 239 520 614 1560 3150 3570 4180 5940
2026-02-09 21:30 5.41 246 8800 (1949) 100 (1981) 2100 138 239 520 614 1560 3150 3570 4180 5940
2026-02-09 21:00 5.41 246 8800 (1949) 100 (1981) 2100 138 239 520 614 1560 3150 3570 4180 5940
2026-02-09 20:30 5.41 246 8800 (1949) 100 (1981) 2100 138 239 520 614 1560 3150 3570 4180 5940
2026-02-09 20:00 5.41 246 8800 (1949) 100 (1981) 2100 138 239 520 614 1560 3150 3570 4180 5940
2026-02-09 19:30 5.41 246 8800 (1949) 100 (1981) 2100 138 239 520 614 1560 3150 3570 4180 5940
2026-02-09 19:00 5.41 246 8800 (1949) 100 (1981) 2100 138 239 520 614 1560 3150 3570 4180 5940
2026-02-09 18:30 5.41 246 8800 (1949) 100 (1981) 2100 138 239 520 614 1560 3150 3570 4180 5940
2026-02-09 18:00 5.41 246 8800 (1949) 100 (1981) 2100 138 239 520 614 1560 3150 3570 4180 5940
2026-02-09 17:30 5.41 246 8800 (1949) 100 (1981) 2100 138 239 520 614 1560 3150 3570 4180 5940
2026-02-09 17:00 5.41 246 8800 (1949) 100 (1981) 2100 138 239 520 614 1560 3150 3570 4180 5940
2026-02-09 16:30 5.42 248 8800 (1949) 100 (1981) 2100 138 239 520 614 1560 3150 3570 4180 5940
2026-02-09 16:00 5.41 246 8800 (1949) 100 (1981) 2100 138 239 520 614 1560 3150 3570 4180 5940
2026-02-09 15:30 5.41 246 8800 (1949) 100 (1981) 2100 138 239 520 614 1560 3150 3570 4180 5940
2026-02-09 15:00 5.41 246 8800 (1949) 100 (1981) 2100 138 239 520 614 1560 3150 3570 4180 5940
2026-02-09 14:30 5.41 246 8800 (1949) 100 (1981) 2100 138 239 520 614 1560 3150 3570 4180 5940
2026-02-09 14:00 5.41 246 8800 (1949) 100 (1981) 2100 138 239 520 614 1560 3150 3570 4180 5940
2026-02-09 13:30 5.41 246 8800 (1949) 100 (1981) 2100 138 239 520 614 1560 3150 3570 4180 5940
2026-02-09 13:00 5.41 246 8800 (1949) 100 (1981) 2100 138 239 520 614 1560 3150 3570 4180 5940
2026-02-09 12:30 5.41 246 8800 (1949) 100 (1981) 2100 138 239 520 614 1560 3150 3570 4180 5940
2026-02-09 12:00 5.41 246 8800 (1949) 100 (1981) 2100 138 239 520 614 1560 3150 3570 4180 5940
2026-02-09 11:30 5.41 246 8800 (1949) 100 (1981) 2100 138 239 520 614 1560 3150 3570 4180 5940
2026-02-09 11:00 5.41 246 8800 (1949) 100 (1981) 2100 138 239 520 614 1560 3150 3570 4180 5940
2026-02-09 10:30 5.41 246 8800 (1949) 100 (1981) 2100 138 239 520 614 1560 3150 3570 4180 5940
2026-02-09 10:00 5.41 246 8800 (1949) 100 (1981) 2100 138 239 520 614 1560 3150 3570 4180 5940
2026-02-09 09:30 5.40 245 8800 (1949) 100 (1981) 2100 138 239 520 614 1560 3150 3570 4180 5940
2026-02-09 09:00 5.41 246 8800 (1949) 100 (1981) 2100 138 239 520 614 1560 3150 3570 4180 5940
2026-02-09 08:30 5.41 246 8800 (1949) 100 (1981) 2100 138 239 520 614 1560 3150 3570 4180 5940
2026-02-09 08:00 5.41 246 8800 (1949) 100 (1981) 2100 138 239 520 614 1560 3150 3570 4180 5940
2026-02-09 07:30 5.41 246 8800 (1949) 100 (1981) 2100 138 239 520 614 1560 3150 3570 4180 5940
2026-02-09 07:00 5.41 246 8800 (1949) 100 (1981) 2100 138 239 520 614 1560 3150 3570 4180 5940
2026-02-09 06:30 5.41 246 8800 (1949) 100 (1981) 2100 138 239 520 614 1560 3150 3570 4180 5940
2026-02-09 06:00 5.41 246 8800 (1949) 100 (1981) 2100 138 239 520 614 1560 3150 3570 4180 5940
2026-02-09 05:30 5.41 246 8800 (1949) 100 (1981) 2100 138 239 520 614 1560 3150 3570 4180 5940
2026-02-09 05:00 5.41 246 8800 (1949) 100 (1981) 2100 138 239 520 614 1560 3150 3570 4180 5940
2026-02-09 04:30 5.41 246 8800 (1949) 100 (1981) 2100 138 239 520 614 1560 3150 3570 4180 5940
2026-02-09 04:00 5.41 246 8800 (1949) 100 (1981) 2100 138 239 520 614 1560 3150 3570 4180 5940
2026-02-09 03:30 5.41 246 8800 (1949) 100 (1981) 2100 138 239 520 614 1560 3150 3570 4180 5940
2026-02-09 03:00 5.41 246 8800 (1949) 100 (1981) 2100 138 239 520 614 1560 3150 3570 4180 5940
2026-02-09 02:30 5.41 246 8800 (1949) 100 (1981) 2100 138 239 520 614 1560 3150 3570 4180 5940
2026-02-09 02:00 5.41 246 8800 (1949) 100 (1981) 2100 138 239 520 614 1560 3150 3570 4180 5940
2026-02-09 01:30 5.41 246 8800 (1949) 100 (1981) 2100 138 239 520 614 1560 3150 3570 4180 5940
2026-02-09 01:00 5.40 245 8800 (1949) 100 (1981) 2100 138 239 520 614 1560 3150 3570 4180 5940
2026-02-09 00:30 5.41 246 8800 (1949) 100 (1981) 2100 138 239 520 614 1560 3150 3570 4180 5940
2026-02-09 00:00 5.41 246 8800 (1949) 100 (1981) 2100 138 239 520 614 1560 3150 3570 4180 5940
2026-02-08 23:30 5.41 246 8800 (1949) 100 (1981) 2100 138 239 520 614 1560 3150 3570 4180 5940
2026-02-08 23:00 5.41 246 8800 (1949) 100 (1981) 2100 138 239 520 614 1560 3150 3570 4180 5940
2026-02-08 22:30 5.41 246 9800 (1949) 96 (2016) 2170 200 236 467 566 1620 3360 3520 4520 5860
2026-02-08 22:00 5.40 245 9800 (1949) 96 (2016) 2170 200 236 467 566 1620 3360 3520 4520 5860
2026-02-08 21:30 5.41 246 9800 (1949) 96 (2016) 2170 200 236 467 566 1620 3360 3520 4520 5860
2026-02-08 21:00 5.41 246 9800 (1949) 96 (2016) 2170 200 236 467 566 1620 3360 3520 4520 5860
2026-02-08 20:30 5.41 246 9800 (1949) 96 (2016) 2170 200 236 467 566 1620 3360 3520 4520 5860
2026-02-08 20:00 5.41 246 9800 (1949) 96 (2016) 2170 200 236 467 566 1620 3360 3520 4520 5860
2026-02-08 19:30 5.41 246 9800 (1949) 96 (2016) 2170 200 236 467 566 1620 3360 3520 4520 5860
2026-02-08 19:00 5.41 246 9800 (1949) 96 (2016) 2170 200 236 467 566 1620 3360 3520 4520 5860
2026-02-08 18:30 5.41 246 9800 (1949) 96 (2016) 2170 200 236 467 566 1620 3360 3520 4520 5860
2026-02-08 18:00 5.41 246 9800 (1949) 96 (2016) 2170 200 236 467 566 1620 3360 3520 4520 5860
2026-02-08 17:30 5.41 246 9800 (1949) 96 (2016) 2170 200 236 467 566 1620 3360 3520 4520 5860
2026-02-08 17:00 5.41 246 9800 (1949) 96 (2016) 2170 200 236 467 566 1620 3360 3520 4520 5860
2026-02-08 16:30 5.41 246 9800 (1949) 96 (2016) 2170 200 236 467 566 1620 3360 3520 4520 5860
2026-02-08 16:00 5.41 246 9800 (1949) 96 (2016) 2170 200 236 467 566 1620 3360 3520 4520 5860
2026-02-08 15:30 5.41 246 9800 (1949) 96 (2016) 2170 200 236 467 566 1620 3360 3520 4520 5860
2026-02-08 15:00 5.41 246 9800 (1949) 96 (2016) 2170 200 236 467 566 1620 3360 3520 4520 5860
2026-02-08 14:30 5.41 246 9800 (1949) 96 (2016) 2170 200 236 467 566 1620 3360 3520 4520 5860
2026-02-08 14:00 5.41 246 9800 (1949) 96 (2016) 2170 200 236 467 566 1620 3360 3520 4520 5860
2026-02-08 13:30 5.41 246 9800 (1949) 96 (2016) 2170 200 236 467 566 1620 3360 3520 4520 5860
2026-02-08 13:00 5.41 246 9800 (1949) 96 (2016) 2170 200 236 467 566 1620 3360 3520 4520 5860
2026-02-08 12:30 5.41 246 9800 (1949) 96 (2016) 2170 200 236 467 566 1620 3360 3520 4520 5860
2026-02-08 12:00 5.41 246 9800 (1949) 96 (2016) 2170 200 236 467 566 1620 3360 3520 4520 5860
2026-02-08 11:30 5.41 246 9800 (1949) 96 (2016) 2170 200 236 467 566 1620 3360 3520 4520 5860
2026-02-08 11:00 5.41 246 9800 (1949) 96 (2016) 2170 200 236 467 566 1620 3360 3520 4520 5860
2026-02-08 10:30 5.41 246 9800 (1949) 96 (2016) 2170 200 236 467 566 1620 3360 3520 4520 5860
2026-02-08 10:00 5.41 246 9800 (1949) 96 (2016) 2170 200 236 467 566 1620 3360 3520 4520 5860
2026-02-08 09:30 5.41 246 9800 (1949) 96 (2016) 2170 200 236 467 566 1620 3360 3520 4520 5860
2026-02-08 09:00 5.41 246 9800 (1949) 96 (2016) 2170 200 236 467 566 1620 3360 3520 4520 5860
2026-02-08 08:30 5.41 246 9800 (1949) 96 (2016) 2170 200 236 467 566 1620 3360 3520 4520 5860
2026-02-08 08:00 5.41 246 9800 (1949) 96 (2016) 2170 200 236 467 566 1620 3360 3520 4520 5860
2026-02-08 07:30 5.41 246 9800 (1949) 96 (2016) 2170 200 236 467 566 1620 3360 3520 4520 5860
2026-02-08 07:00 5.41 246 9800 (1949) 96 (2016) 2170 200 236 467 566 1620 3360 3520 4520 5860
2026-02-08 06:30 5.41 246 9800 (1949) 96 (2016) 2170 200 236 467 566 1620 3360 3520 4520 5860
2026-02-08 06:00 5.41 246 9800 (1949) 96 (2016) 2170 200 236 467 566 1620 3360 3520 4520 5860
2026-02-08 05:30 5.41 246 9800 (1949) 96 (2016) 2170 200 236 467 566 1620 3360 3520 4520 5860
2026-02-08 05:00 5.41 246 9800 (1949) 96 (2016) 2170 200 236 467 566 1620 3360 3520 4520 5860
2026-02-08 04:30 5.41 246 9800 (1949) 96 (2016) 2170 200 236 467 566 1620 3360 3520 4520 5860
2026-02-08 04:00 5.41 246 9800 (1949) 96 (2016) 2170 200 236 467 566 1620 3360 3520 4520 5860
2026-02-08 03:30 5.41 246 9800 (1949) 96 (2016) 2170 200 236 467 566 1620 3360 3520 4520 5860
2026-02-08 03:00 5.41 246 9800 (1949) 96 (2016) 2170 200 236 467 566 1620 3360 3520 4520 5860
2026-02-08 02:30 5.41 246 9800 (1949) 96 (2016) 2170 200 236 467 566 1620 3360 3520 4520 5860
2026-02-08 02:00 5.41 246 9800 (1949) 96 (2016) 2170 200 236 467 566 1620 3360 3520 4520 5860
2026-02-08 01:30 5.41 246 9800 (1949) 96 (2016) 2170 200 236 467 566 1620 3360 3520 4520 5860
2026-02-08 01:00 5.41 246 9800 (1949) 96 (2016) 2170 200 236 467 566 1620 3360 3520 4520 5860
2026-02-08 00:30 5.41 246 9800 (1949) 96 (2016) 2170 200 236 467 566 1620 3360 3520 4520 5860
2026-02-08 00:00 5.41 246 9800 (1949) 96 (2016) 2170 200 236 467 566 1620 3360 3520 4520 5860
2026-02-07 23:30 5.41 246 9800 (1949) 96 (2016) 2170 200 236 467 566 1620 3360 3520 4520 5860
2026-02-07 23:00 5.41 246 9800 (1949) 96 (2016) 2170 200 236 467 566 1620 3360 3520 4520 5860

A total of 4351 rows are displayed for years 1942 through 2025.